GFSNGP_sfc_wetblb_000.txt.gz
Wetbulb
36.83 38.44 38.62 38.71 38.02 38.14 35.60 34.72 28.97 32.40 33.45 37.37 38.53 39.24 40.87 42.03 42.99 43.03 42.87 43.02 42.76 42.42 42.30 42.50 42.47 42.62 40.04 39.73 39.92 38.68 35.95 35.29 35.42 36.35 36.07 35.58 34.86 35.34 37.31 36.87 35.81 35.21 34.30 33.27
34.18 38.35 37.92 35.61 37.62 36.98 36.23 36.29 34.75 35.05 34.48 40.07 41.92 41.92 41.92 41.83 42.64 42.06 42.08 42.94 42.98 43.50 43.37 42.84 42.50 41.17 39.94 39.48 39.66 39.97 39.75 40.19 39.85 39.35 38.94 38.01 38.08 38.57 37.51 35.53 34.13 32.33 30.97 30.26
30.62 33.81 32.94 30.27 33.18 34.32 35.52 36.94 35.09 30.11 34.89 40.36 40.36 41.45 41.79 42.16 42.46 42.01 41.78 41.79 42.03 43.05 42.79 41.65 40.15 39.44 38.63 39.10 40.06 41.09 40.65 40.60 40.56 40.32 39.43 38.34 38.35 37.07 33.96 31.36 29.60 28.83 28.32 27.87
27.79 31.05 25.57 35.64 39.50 39.28 36.17 37.20 38.14 39.24 39.44 40.83 41.38 42.67 43.55 43.99 42.85 41.58 41.94 42.62 42.86 42.42 40.94 39.85 39.14 38.54 38.67 38.92 39.71 39.44 39.11 39.58 38.82 38.44 36.92 35.20 32.76 31.14 28.99 28.48 27.55 26.87 26.79 27.22
26.72 28.65 31.89 35.00 37.80 34.56 32.26 34.46 39.81 39.26 40.94 41.51 41.63 41.30 39.63 41.79 43.49 43.82 43.30 43.16 42.48 40.18 39.06 38.42 37.25 37.50 37.73 37.45 38.32 36.47 32.54 32.54 32.92 32.82 32.34 31.54 29.45 27.21 27.18 25.99 25.59 25.43 26.30 26.15
29.11 25.64 24.56 31.13 37.30 42.10 40.66 29.99 40.82 41.01 40.38 40.14 39.35 35.69 39.05 42.87 43.18 42.92 43.35 41.12 38.53 38.38 37.59 36.46 37.20 35.86 32.00 31.66 31.76 31.80 32.84 32.81 33.32 33.02 31.26 29.25 27.77 26.83 25.98 24.47 24.93 26.00 26.79 25.91
19.54 22.73 26.47 35.67 39.70 41.96 25.12 29.78 37.99 40.64 41.47 41.22 40.28 41.00 43.09 43.40 41.95 41.45 38.27 37.99 38.19 37.58 36.48 37.02 38.74 36.74 31.19 30.70 30.75 33.26 33.37 33.02 32.01 31.38 30.10 28.75 26.54 25.37 24.16 23.82 23.66 18.18 17.39 20.05
26.35 27.06 25.91 40.18 40.52 33.52 36.95 38.25 41.05 41.18 41.37 41.56 41.84 41.34 41.10 40.80 40.75 38.91 36.42 36.74 37.17 36.41 36.19 38.49 34.20 32.23 30.48 29.27 32.74 32.84 32.00 31.10 30.31 29.94 29.11 27.85 25.20 24.43 24.02 22.92 19.45 17.61 12.98 15.86
30.23 30.00 37.38 40.42 41.64 41.71 43.29 42.05 40.47 41.57 43.44 41.72 40.43 39.75 40.08 37.44 36.54 36.32 35.36 34.78 35.66 35.46 36.84 35.49 32.14 31.84 30.27 30.30 31.61 30.71 29.31 28.56 28.25 28.04 26.97 25.88 23.92 23.16 22.30 21.10 17.36 16.49 20.21 17.22
34.00 37.51 39.26 41.07 43.65 44.48 42.67 41.29 44.36 44.35 43.52 42.75 40.15 40.30 37.59 37.81 36.66 35.62 34.30 33.33 34.81 36.45 34.46 33.40 31.51 30.51 30.10 30.73 30.35 28.85 27.78 27.69 27.53 25.94 25.34 24.05 24.00 23.73 22.65 17.10 16.04 21.41 19.32 19.97
36.83 39.44 40.68 41.64 41.90 42.99 44.33 44.98 42.62 42.63 41.84 41.02 39.59 38.69 37.16 35.61 35.64 34.56 33.57 34.24 35.39 36.38 35.62 32.66 30.70 29.75 30.16 29.60 29.23 28.21 27.83 27.63 26.22 25.20 23.20 23.53 23.75 23.19 22.35 21.29 19.74 19.49 17.52 22.82
35.27 40.98 40.22 41.20 43.67 43.24 41.49 40.27 39.68 38.87 38.50 38.82 38.77 37.70 36.98 35.23 34.12 33.89 33.38 36.09 35.70 35.82 32.11 31.45 30.26 29.35 30.13 29.88 28.40 27.35 27.08 26.10 22.54 21.56 20.57 22.50 22.31 22.51 26.56 26.13 26.80 26.31 26.61 24.22
41.55 44.37 43.33 43.64 42.89 42.73 40.72 40.83 41.44 40.71 39.82 37.17 38.56 37.42 35.75 34.16 34.41 35.27 36.31 35.23 35.78 33.05 31.40 29.98 29.90 28.81 28.94 27.94 26.06 24.10 22.82 24.45 22.58 22.34 20.95 19.55 18.05 18.77 13.42 18.47 24.34 24.76 25.42 24.66
44.96 43.16 40.08 40.89 38.96 40.71 40.19 40.54 40.14 39.19 40.02 39.17 37.06 36.25 35.11 34.63 34.29 33.70 32.86 33.00 31.58 31.34 31.22 29.81 28.99 27.94 28.69 27.83 24.65 20.18 18.55 19.35 19.37 20.08 18.32 18.85 11.03 12.09 11.56 9.96 8.05 12.39 20.14 22.79
42.82 41.92 40.75 40.66 39.84 38.84 39.20 38.85 37.40 35.97 37.15 36.92 36.21 34.94 34.10 32.52 30.80 29.47 29.38 29.61 29.20 29.12 29.78 30.20 27.46 26.76 28.84 28.68 27.16 25.70 24.98 19.57 14.52 16.68 16.49 12.72 11.53 10.88 9.33 8.32 9.57 10.10 11.77 19.72
39.21 38.29 38.17 36.88 36.82 37.68 37.71 36.35 35.79 34.66 35.01 34.66 33.41 32.10 31.64 29.77 29.46 28.91 30.04 29.56 26.51 26.20 26.67 22.57 19.52 25.32 27.92 27.81 27.30 25.12 23.29 21.38 19.52 18.94 17.07 16.17 15.24 10.90 12.32 9.91 9.78 9.04 10.47 16.90
34.98 33.62 35.64 33.93 33.21 33.54 33.76 34.45 32.86 32.13 32.80 32.95 30.43 26.45 27.15 25.06 26.20 26.34 27.46 25.79 22.73 20.74 20.04 23.09 25.90 29.36 28.12 28.35 26.76 23.48 19.74 22.32 23.98 22.49 15.96 17.72 11.92 10.45 10.71 7.44 7.02 7.95 13.98 15.68
36.57 35.17 33.58 33.17 32.79 32.48 31.47 31.30 29.50 28.75 29.66 29.52 24.72 21.46 23.53 19.99 23.49 25.35 24.67 23.02 21.73 19.91 26.63 26.33 26.39 27.69 23.24 27.03 25.20 21.03 17.05 21.50 22.11 15.08 16.34 10.95 10.30 13.15 7.44 8.16 5.78 9.58 14.32 15.12
34.78 34.35 34.19 33.96 33.49 31.99 31.18 30.32 28.46 27.27 27.74 31.01 27.39 25.14 22.45 21.15 26.18 24.05 22.12 20.72 22.80 21.45 25.19 20.72 27.52 26.87 25.41 27.35 25.19 16.53 15.07 15.79 15.70 17.31 13.19 9.83 8.17 8.84 6.58 5.23 7.71 9.67 11.47 13.58
34.48 35.04 34.40 33.29 31.80 28.22 27.96 27.59 24.67 27.10 30.50 29.27 27.03 25.78 23.58 25.97 26.37 24.62 25.81 22.78 26.68 27.13 24.98 26.56 26.76 25.80 26.09 24.30 24.04 19.31 19.87 15.36 16.71 14.07 7.32 8.57 8.49 7.39 7.42 11.15 11.44 9.08 8.44 10.89
31.45 31.89 29.79 28.08 27.75 24.41 32.47 31.76 30.34 31.01 31.34 29.26 28.74 25.05 25.55 22.35 22.64 24.41 18.24 25.61 25.64 27.65 27.18 26.88 26.06 26.21 27.97 22.76 22.16 17.54 23.09 23.15 17.91 11.13 7.74 9.12 7.75 5.26 4.76 9.64 11.78 9.06 8.19 10.75
31.21 28.53 27.38 26.57 25.50 27.26 28.88 32.05 28.60 30.26 30.70 29.04 22.93 25.21 23.09 24.39 19.57 18.08 19.95 25.83 27.69 27.68 26.43 26.07 25.73 27.14 25.88 24.36 23.62 25.11 24.79 24.02 19.21 8.98 10.34 11.33 9.86 6.16 4.21 9.03 10.18 8.37 8.04 8.76
31.41 30.48 29.91 27.34 28.34 28.88 29.98 32.18 29.41 31.92 31.27 29.10 25.09 26.20 27.01 24.80 22.00 18.77 21.23 26.21 27.12 27.29 26.35 26.61 27.16 26.68 25.74 25.59 25.83 25.11 24.78 24.21 17.63 13.89 12.85 12.12 9.32 4.45 2.83 8.94 9.91 8.03 7.66 9.29
30.31 29.53 28.90 29.30 24.13 29.64 29.68 29.26 26.58 29.94 30.78 26.89 28.18 28.82 28.38 24.41 21.19 24.84 26.99 27.26 27.82 27.62 27.57 27.71 26.73 25.86 24.97 24.83 24.99 25.83 24.96 23.55 15.87 14.33 15.89 13.76 12.18 7.00 3.46 7.91 10.62 7.86 8.18 8.28
29.20 28.54 27.88 26.15 26.12 28.16 28.49 28.94 28.87 28.77 27.85 28.41 28.98 29.32 29.15 28.93 27.89 21.83 25.99 25.31 27.82 27.44 26.66 26.09 27.77 26.17 24.84 25.08 25.15 25.61 25.31 17.41 12.59 13.56 13.95 12.11 12.08 7.12 4.40 6.33 7.85 8.71 7.37 6.95
30.06 30.40 30.30 29.08 30.04 31.56 31.49 28.14 29.87 28.89 28.63 28.22 27.54 30.03 30.18 27.71 27.07 26.76 25.98 26.63 24.95 26.19 25.79 26.55 27.13 25.75 26.03 24.89 23.27 25.09 24.75 22.18 21.11 11.61 9.17 8.25 9.28 7.72 6.68 4.22 3.90 7.66 7.60 6.00
28.89 24.48 26.44 28.84 28.66 29.98 29.29 29.92 29.92 28.38 29.49 29.68 29.61 30.77 28.82 28.27 26.75 26.40 27.05 26.38 25.98 25.68 25.81 26.06 26.49 26.53 26.57 24.79 24.17 22.55 18.86 23.46 21.35 12.66 12.66 12.44 8.40 11.27 9.54 6.69 6.91 7.20 6.68 5.63

GFSNGP_sfc_wetblb_003.txt.gz
Wetbulb
34.95 36.61 36.84 37.04 36.55 37.46 34.72 33.93 30.78 32.45 32.20 35.94 37.37 38.70 39.95 41.41 41.54 41.77 42.55 42.42 42.39 42.92 42.29 41.96 41.77 41.03 40.02 38.93 38.94 38.73 37.84 34.86 34.39 36.28 36.05 34.78 37.33 38.07 37.58 37.29 37.34 35.81 34.48 32.61
31.51 36.57 36.71 34.78 36.66 35.95 36.12 35.52 34.10 33.68 32.70 37.87 40.03 41.01 40.90 41.27 41.55 41.18 41.05 41.94 42.85 41.83 41.98 41.91 41.30 39.60 38.74 38.50 38.41 38.93 37.83 38.56 39.95 39.93 39.72 39.14 38.87 38.79 37.73 37.96 37.13 33.23 31.02 30.06
24.79 32.62 30.68 27.08 31.19 33.75 34.28 34.93 34.12 29.32 33.50 38.06 39.01 39.82 40.46 40.79 41.09 40.64 40.60 40.83 40.62 40.87 41.22 41.09 39.06 38.54 37.37 37.35 38.46 37.81 37.85 39.34 40.03 39.19 39.55 38.88 38.47 38.41 37.27 32.65 30.47 29.45 28.86 28.59
23.45 30.89 21.97 34.17 37.54 37.57 35.15 36.15 36.57 36.00 38.12 39.42 39.90 41.54 41.69 42.33 41.07 39.79 41.39 41.39 40.94 42.02 40.28 38.99 38.48 37.10 36.52 37.10 37.15 37.38 36.08 33.44 34.22 35.21 34.60 32.88 31.84 30.49 28.79 28.10 27.49 26.82 27.09 27.54
29.56 28.06 29.40 34.82 36.62 33.64 32.28 32.75 37.77 38.24 39.01 39.91 41.31 39.50 38.37 41.50 40.32 40.27 39.97 40.55 41.54 40.13 38.63 37.29 35.68 34.85 32.55 31.53 32.47 32.35 32.41 32.60 33.21 33.01 31.11 29.83 28.56 27.10 26.98 25.93 25.81 25.96 27.08 26.93
28.41 26.00 24.49 31.40 35.64 38.61 38.65 30.01 39.05 39.47 39.19 39.55 38.97 34.94 38.19 42.05 40.97 40.50 40.68 41.88 39.07 37.94 36.99 35.58 36.12 33.11 33.11 31.32 31.40 31.23 33.22 32.44 31.42 31.16 29.75 27.88 26.52 25.87 25.98 24.86 25.63 26.11 25.52 25.20
27.71 26.31 27.15 34.52 37.73 39.19 28.79 30.85 38.17 40.33 41.07 39.50 37.72 40.95 41.48 40.89 40.07 40.46 40.36 39.11 38.25 36.51 35.22 35.96 35.27 32.28 29.69 29.31 29.58 31.36 31.68 31.21 30.46 30.51 29.15 27.48 25.89 25.64 24.30 24.04 23.56 18.54 17.24 19.08
26.75 25.57 23.43 38.47 39.76 33.95 37.96 39.13 39.50 39.41 38.90 39.03 40.84 40.46 39.69 39.80 39.88 39.66 36.78 36.19 35.82 34.52 34.74 35.48 31.71 30.59 28.71 27.88 30.07 30.11 30.18 29.47 28.71 28.27 27.62 26.57 24.68 23.94 23.53 22.26 20.03 17.65 13.23 15.92
32.16 30.55 37.08 38.84 41.35 42.11 42.53 40.04 38.22 39.03 43.02 42.87 39.89 38.91 38.35 38.57 39.05 37.22 35.64 34.20 33.94 33.33 34.42 35.82 31.98 30.76 29.73 29.29 29.92 28.95 28.13 27.36 27.29 27.23 26.24 25.14 23.64 22.75 21.97 20.69 18.06 16.55 20.66 18.52
33.76 37.90 39.25 41.75 43.32 44.78 42.64 41.14 43.77 42.09 40.36 37.74 36.23 36.68 37.08 37.93 37.14 35.64 34.74 32.37 32.30 33.47 34.20 34.33 35.48 31.40 30.66 30.25 29.65 28.21 27.46 27.26 26.90 25.31 24.34 23.30 23.62 23.66 22.21 18.26 16.68 21.15 18.92 18.72
37.17 40.52 41.18 41.99 42.68 42.85 44.18 41.83 39.34 39.55 38.93 38.32 37.66 36.87 37.00 36.26 35.70 34.54 32.75 32.47 34.15 34.30 33.79 33.67 33.08 28.76 29.27 28.80 28.85 27.69 27.81 27.32 25.45 24.80 23.50 23.14 23.08 22.87 22.89 21.49 18.77 19.30 16.93 20.62
35.70 41.37 40.72 41.87 42.32 41.94 39.85 38.95 39.44 38.75 38.32 38.81 37.58 36.26 36.36 35.44 34.79 33.04 31.91 33.08 34.60 33.60 32.71 30.79 28.95 27.66 28.20 29.19 28.05 26.89 26.99 26.25 22.49 20.86 20.65 22.84 21.40 21.76 25.66 25.06 25.78 25.19 25.41 22.48
41.13 44.15 44.36 42.38 39.73 40.23 38.94 39.07 40.31 40.22 39.32 35.59 36.23 35.90 35.47 34.68 33.97 33.99 34.58 34.36 32.48 32.71 29.95 28.66 27.75 27.33 26.78 24.90 24.64 23.14 21.30 23.44 21.47 20.94 21.41 20.58 18.19 17.43 11.46 16.86 22.86 23.46 23.68 23.70
43.84 43.97 40.71 39.63 37.40 39.51 38.31 37.77 37.35 37.21 37.29 36.88 36.73 35.74 34.66 34.02 33.39 31.82 31.01 30.33 30.17 28.73 28.36 27.21 26.73 25.95 27.46 27.17 24.29 19.12 17.31 17.30 15.08 15.07 15.14 16.76 11.71 12.42 6.77 7.56 6.50 12.02 18.47 21.18
41.01 41.10 39.82 39.33 38.52 36.88 36.98 37.36 35.63 34.63 34.69 33.80 34.29 33.23 32.40 31.65 30.51 30.06 30.19 29.20 28.81 28.15 26.80 26.29 24.69 25.73 26.58 27.66 26.17 24.54 25.47 19.85 12.47 12.74 12.05 11.69 12.86 8.11 7.10 7.30 7.99 9.70 10.60 15.34
37.24 37.63 37.67 35.34 36.62 35.65 33.86 32.79 32.21 32.13 31.04 31.18 31.29 30.69 30.81 29.19 29.54 29.66 29.09 27.11 25.41 23.76 24.93 18.07 19.27 26.61 28.97 29.52 27.76 24.82 24.22 19.97 15.85 18.85 13.39 13.40 11.19 8.68 10.74 7.83 7.29 8.66 6.70 11.98
32.69 32.45 32.68 30.97 30.25 30.03 30.33 31.32 31.76 31.00 30.33 30.14 28.28 26.68 28.85 28.25 26.76 25.23 25.42 22.17 17.09 16.94 25.28 25.74 24.44 28.44 27.23 28.16 28.00 23.36 18.93 19.81 22.50 18.82 15.09 12.95 8.87 8.37 7.68 5.04 4.89 7.24 6.34 11.30
33.88 33.43 33.15 32.21 31.59 31.03 30.43 31.30 31.04 29.33 28.74 29.52 27.71 29.84 28.42 27.07 24.46 22.00 22.33 19.25 15.40 22.73 24.56 20.95 19.70 27.09 24.16 27.68 26.35 19.40 14.99 18.36 19.97 12.99 12.39 8.08 8.01 8.55 5.56 5.75 8.62 7.96 7.70 11.20
34.29 34.26 34.67 34.77 33.83 31.36 30.33 30.06 28.98 25.81 24.76 24.24 24.47 29.18 27.27 26.02 21.85 25.70 21.49 19.92 19.13 23.94 24.22 23.88 26.74 26.47 26.19 26.45 26.88 22.48 14.77 13.41 12.72 14.19 10.26 7.02 5.69 6.40 4.65 4.34 8.40 5.94 7.35 9.81
32.16 33.12 33.28 32.58 31.76 28.30 28.54 27.55 29.78 30.06 30.74 29.49 26.41 24.42 26.69 25.35 21.32 24.22 22.16 20.79 21.98 25.36 26.43 26.15 25.73 25.07 24.22 24.87 23.68 19.49 16.80 16.36 18.53 12.68 4.52 5.03 2.11 1.26 1.25 5.42 10.52 5.94 4.70 5.22
28.99 29.84 28.58 27.70 27.85 26.90 22.49 26.63 28.01 29.52 31.17 31.34 29.35 29.21 27.55 24.36 19.54 18.98 21.18 25.07 23.90 25.77 27.32 26.23 25.27 25.12 26.70 25.34 24.73 16.70 22.19 22.81 20.17 7.96 5.25 4.51 0.86 1.43 0.71 0.72 5.41 4.61 4.60 6.10
29.52 27.93 26.87 26.59 26.02 27.06 27.84 25.12 26.05 31.63 30.59 31.37 31.14 28.69 20.72 24.10 23.86 24.38 25.01 25.22 26.75 27.38 25.96 25.08 25.15 25.68 25.00 24.71 24.64 24.07 24.45 23.50 20.81 9.66 8.94 5.75 0.54 -0.02 0.15 -0.57 4.81 4.61 4.78 5.37
29.45 28.94 28.77 26.13 26.05 28.17 26.90 24.72 26.56 28.45 28.48 30.91 31.09 26.52 26.35 26.17 25.99 24.59 24.01 22.57 26.71 26.96 25.80 25.78 26.39 26.97 24.96 24.43 24.27 24.78 23.90 22.99 22.43 9.96 11.46 11.04 6.81 -0.27 -1.28 0.66 2.30 4.20 3.41 5.88
29.22 28.76 28.75 28.30 25.53 22.38 24.18 28.99 25.61 25.96 25.74 26.62 24.73 29.02 27.84 26.48 25.38 25.82 26.42 23.97 26.11 23.42 26.07 27.22 27.04 25.07 24.32 21.47 24.13 24.02 24.41 23.85 21.75 9.41 11.46 12.17 6.88 2.85 -1.82 -1.29 1.99 0.46 2.25 5.08
26.83 27.46 27.16 24.86 25.99 27.62 27.83 28.71 26.01 24.61 25.74 25.49 25.67 28.21 28.14 28.92 27.55 23.14 20.71 18.92 23.43 25.53 25.65 25.69 18.98 18.12 16.66 22.41 22.33 23.93 24.20 23.14 16.93 13.02 9.01 8.98 10.16 9.89 -0.75 -1.46 -1.11 -1.00 0.12 3.41
28.77 29.33 29.85 29.13 28.83 29.15 29.20 29.11 29.21 29.91 28.10 26.98 21.28 25.38 28.42 29.20 28.60 27.18 25.93 25.67 23.99 24.83 24.83 25.18 24.23 19.75 18.60 18.90 21.30 19.81 16.70 19.62 20.41 14.39 9.72 8.09 7.39 12.94 7.66 1.77 -1.18 -0.79 1.16 1.99
26.64 23.16 28.28 29.23 29.11 28.47 30.06 30.63 30.41 30.66 29.27 23.88 21.49 24.61 28.70 28.45 27.42 26.39 24.48 25.53 25.15 24.76 24.60 25.02 24.90 24.53 14.92 13.17 12.68 14.25 19.34 17.68 14.96 16.27 13.91 13.74 12.83 13.82 12.02 11.44 6.82 3.34 0.25 -0.82

GFSNGP_sfc_wetblb_006.txt.gz
Wetbulb
33.91 35.24 34.97 35.42 35.11 35.25 32.66 32.94 31.09 33.19 31.67 35.93 37.20 36.67 39.33 40.84 40.95 41.42 41.66 41.62 41.20 41.59 43.09 42.14 42.35 42.24 39.93 39.25 38.84 38.54 37.97 37.70 36.11 38.10 37.89 36.38 36.69 37.06 37.29 37.15 37.66 38.17 37.40 33.68
30.24 33.87 34.03 32.11 34.66 34.90 34.93 34.62 33.99 34.73 33.80 38.65 37.05 38.61 39.61 40.57 41.13 40.62 40.11 40.34 41.32 40.64 40.71 41.47 41.63 39.25 38.65 38.01 38.14 38.83 37.77 37.40 38.99 40.40 39.95 38.31 38.45 37.90 37.74 37.18 37.31 37.72 33.93 28.95
23.98 30.95 29.83 25.11 29.92 32.44 33.25 34.46 33.65 29.66 34.75 35.11 36.64 38.73 39.21 40.16 40.17 39.74 38.98 39.27 37.72 38.68 40.31 40.87 39.19 37.82 37.04 37.43 37.36 37.35 37.87 35.65 35.00 36.13 37.19 36.89 37.29 36.77 35.26 32.18 29.43 28.00 27.61 27.88
24.35 30.66 23.21 33.01 36.40 36.71 34.10 34.91 35.94 34.47 34.96 37.07 38.65 39.49 39.81 40.94 39.53 37.89 38.06 39.04 39.38 39.70 40.03 38.23 38.21 36.84 35.07 33.95 33.71 32.88 32.27 33.15 34.42 33.80 31.68 30.60 29.72 28.61 28.02 27.63 26.80 26.08 26.63 27.39
29.00 28.19 29.53 34.61 36.01 32.49 31.68 31.46 35.46 34.49 37.38 38.64 39.41 37.77 37.10 39.37 39.24 39.74 39.72 39.92 39.72 39.62 38.17 36.37 35.58 32.47 30.92 30.50 30.53 31.45 32.87 33.00 32.71 30.14 28.99 28.58 27.17 25.99 26.05 25.48 25.39 25.92 27.19 25.71
28.65 25.68 23.83 31.22 34.37 36.89 37.75 28.31 36.86 39.55 40.02 40.10 38.17 33.33 37.92 39.96 40.45 39.86 39.61 40.37 39.19 37.79 36.41 35.34 35.84 33.36 33.02 31.33 30.24 29.55 31.12 29.91 29.28 28.91 27.63 25.88 24.75 24.66 25.28 24.42 25.77 25.71 24.17 24.05
30.80 27.51 28.27 34.12 36.27 38.82 28.95 30.29 38.61 38.68 41.06 38.25 35.51 38.25 37.93 38.61 38.23 38.51 39.54 39.07 38.34 36.29 34.12 35.23 35.83 32.87 30.29 29.06 28.25 30.12 29.86 29.06 28.41 27.50 26.49 24.90 24.13 24.15 23.41 23.41 23.23 18.55 16.57 18.80
26.36 25.75 22.34 36.29 37.66 32.97 37.11 39.86 40.88 40.69 39.23 40.23 38.99 38.29 37.55 37.56 37.54 37.40 37.66 36.81 36.45 34.08 33.33 35.26 35.16 30.50 29.89 28.77 29.45 29.97 28.69 27.24 26.70 26.63 26.12 25.35 23.55 23.21 23.07 21.66 19.43 17.38 13.41 15.83
33.20 29.69 35.92 39.61 40.91 41.88 41.93 40.55 39.36 38.29 39.56 38.22 36.25 36.00 36.39 35.58 36.45 36.73 37.17 35.85 34.36 32.36 33.13 34.47 33.41 32.22 32.11 33.17 30.05 28.79 27.61 26.33 26.24 26.43 25.74 24.90 23.20 22.25 21.81 20.57 17.17 16.71 20.60 19.07
34.57 36.83 39.97 42.51 43.15 42.74 41.65 41.53 40.00 39.64 38.48 38.27 36.85 37.16 35.72 35.67 35.49 35.68 34.99 33.17 31.82 32.25 33.18 32.89 33.81 33.82 29.78 28.66 28.45 27.74 27.08 26.47 26.23 25.05 24.57 23.17 23.48 23.40 22.11 17.90 16.38 19.98 18.44 18.28
35.83 40.44 40.67 40.59 40.49 40.83 40.34 40.69 40.06 39.87 39.25 37.73 36.03 34.99 34.88 34.18 33.64 34.19 33.49 32.24 32.15 32.86 32.64 32.28 32.18 30.77 28.74 27.66 27.80 26.69 27.21 27.23 25.98 24.87 23.60 23.58 23.45 22.16 22.53 21.12 18.59 19.95 17.36 16.75
35.17 40.40 41.28 42.00 41.87 42.37 40.08 39.07 39.41 38.58 36.61 37.02 36.06 33.82 34.20 33.91 33.74 33.06 32.80 32.23 31.98 32.99 31.63 32.04 30.52 28.75 27.93 27.15 26.89 26.14 26.50 25.96 21.63 20.83 19.93 22.37 21.55 21.03 25.09 24.20 25.22 24.72 24.34 21.32
40.91 44.42 43.60 42.60 41.48 40.59 38.51 37.09 37.97 36.24 35.75 33.59 33.83 33.91 33.07 32.29 32.31 33.81 32.89 31.84 31.13 30.08 29.77 27.86 27.78 27.23 26.58 24.46 22.74 22.18 20.26 21.89 19.29 20.10 18.38 17.26 16.30 16.46 12.14 16.83 22.28 22.69 23.04 22.57
43.02 42.60 38.11 37.44 36.98 39.12 38.65 36.69 35.93 35.00 34.88 34.70 33.79 32.65 31.43 31.20 31.86 31.20 30.55 29.29 29.00 28.72 27.93 26.67 26.43 26.29 26.93 26.69 24.56 18.03 16.45 16.43 17.23 15.95 13.72 13.58 7.84 10.52 7.83 6.44 6.12 10.59 17.00 20.03
38.99 39.03 38.01 38.90 38.50 36.11 34.23 32.87 31.49 30.83 31.85 31.59 31.21 30.56 30.54 29.86 29.79 30.38 30.67 28.79 29.00 28.23 26.85 26.67 25.02 26.06 27.64 28.57 26.45 24.35 24.46 19.76 11.40 9.77 9.41 9.05 7.64 7.62 5.62 5.73 5.65 9.53 12.88 14.19
36.87 36.40 35.53 32.61 31.46 31.82 31.40 30.43 29.26 29.29 30.20 30.03 29.70 29.83 29.97 29.04 28.72 29.73 29.85 27.77 24.29 24.42 25.44 23.38 25.16 26.37 27.91 28.92 28.28 25.42 23.36 19.21 14.64 14.00 11.92 11.61 9.38 7.45 9.39 7.65 8.84 12.16 9.08 9.99
32.29 31.38 31.21 29.55 29.77 30.21 30.23 30.08 29.88 29.53 30.22 30.28 28.54 25.69 29.50 28.33 24.48 26.43 24.31 20.41 17.08 17.99 22.38 25.40 21.01 27.68 27.30 28.51 27.50 21.53 17.38 17.64 17.23 15.98 13.19 11.16 7.64 6.41 6.06 7.50 10.12 11.48 6.47 7.31
32.05 31.40 31.78 31.81 31.07 30.87 29.94 29.56 29.10 28.37 28.41 28.87 23.98 24.62 29.16 27.47 24.62 25.85 18.39 18.19 17.05 24.49 25.29 20.98 20.18 25.13 23.75 27.62 27.13 24.11 19.45 15.08 14.52 12.00 11.45 7.15 6.75 6.93 3.40 5.75 8.89 7.89 7.79 9.83
31.90 32.19 32.13 32.43 32.07 31.00 30.15 29.86 28.54 27.51 23.78 30.64 28.91 27.43 28.10 28.73 25.86 22.08 22.74 25.04 23.03 23.95 22.93 22.67 26.87 26.25 25.16 24.73 25.50 23.37 21.53 15.17 11.98 13.25 8.46 5.73 2.83 3.34 0.50 -1.31 4.46 3.20 5.01 8.11
29.74 29.78 29.98 29.72 29.14 26.61 27.43 27.74 25.93 26.28 27.64 28.40 31.40 29.60 29.08 29.31 27.74 21.40 23.46 24.46 23.68 24.92 26.28 25.70 25.67 24.44 24.00 24.40 23.61 22.20 15.66 15.68 17.77 10.47 2.13 3.40 -1.13 -1.49 -3.30 -0.04 4.48 2.13 1.22 2.99
28.07 28.79 26.89 25.70 25.94 25.89 23.75 24.31 22.95 24.27 26.70 23.55 30.82 30.83 30.17 30.51 22.84 21.41 22.22 24.39 26.06 24.92 26.45 26.06 24.84 24.75 26.08 25.02 24.62 23.50 21.82 22.90 14.64 7.56 4.31 4.31 1.23 -1.31 -4.03 -5.48 -3.49 -0.77 -0.07 2.47
28.80 26.34 24.38 24.26 24.14 25.74 26.97 25.04 24.06 23.01 24.00 28.41 31.31 30.43 30.77 23.16 23.06 22.18 22.80 26.63 27.11 26.70 25.97 24.88 24.66 24.97 24.93 24.75 24.10 24.21 24.35 23.79 20.77 11.66 5.03 5.16 5.48 2.65 -0.95 -5.12 -3.49 -0.04 -1.49 1.87
28.42 27.35 27.12 23.82 24.08 27.46 27.45 25.54 24.55 23.40 23.65 26.22 29.08 30.01 29.10 25.02 22.71 20.07 21.25 23.56 23.60 26.24 25.74 20.01 24.03 26.55 26.41 22.21 23.28 23.65 23.78 23.41 22.16 19.71 13.37 12.00 9.03 8.26 1.00 -0.95 -3.49 -1.67 -2.94 -0.77
27.68 27.11 27.10 26.89 24.14 22.39 23.27 28.10 26.37 25.65 23.23 23.82 24.18 29.73 27.83 22.57 22.93 21.34 22.41 26.20 26.08 21.29 16.44 19.59 25.86 24.41 24.88 21.85 22.32 23.25 23.78 23.61 23.10 14.22 8.30 4.67 1.59 4.77 2.11 -2.40 -2.04 -4.03 -5.66 -3.85
25.55 25.46 25.03 22.92 24.73 27.47 27.60 28.02 27.74 27.26 25.01 25.06 28.83 28.25 24.86 24.93 22.74 19.58 17.39 19.01 20.25 19.56 19.63 22.67 24.14 19.51 18.06 22.36 23.43 20.71 19.82 23.41 23.63 19.50 8.65 5.76 6.30 4.49 4.11 -1.31 1.55 2.11 -3.67 -4.03
27.31 27.98 28.31 27.40 27.92 28.81 27.84 27.85 29.18 30.59 30.49 29.66 27.68 23.69 19.84 24.84 24.48 25.72 26.40 25.90 19.16 18.90 22.62 21.90 23.43 21.35 16.75 16.44 22.19 23.60 18.58 17.84 16.72 17.79 14.39 12.80 10.99 12.93 12.73 10.94 5.83 5.06 3.91 4.94
24.97 23.17 25.49 26.22 27.32 27.70 27.63 30.31 30.99 30.95 31.78 31.45 29.19 18.79 24.08 28.25 28.15 26.74 25.92 25.28 23.93 22.40 16.95 21.09 20.20 22.54 22.97 13.94 12.76 12.47 14.16 15.87 15.37 15.98 15.42 14.71 12.93 12.58 15.03 13.40 12.32 9.26 4.96 3.35

GFSNGP_sfc_wetblb_012.txt.gz
Wetbulb
41.44 41.99 41.84 40.61 39.97 40.66 39.27 40.08 35.78 38.82 39.55 43.16 45.21 45.62 46.57 47.45 48.25 47.96 47.64 47.26 46.41 46.06 44.76 45.49 45.13 46.23 46.63 45.59 44.91 45.30 44.78 44.24 43.02 42.74 42.64 42.13 41.67 41.37 41.22 40.89 39.96 39.13 38.45 37.92
36.49 39.94 40.54 38.22 40.63 41.14 40.89 41.25 40.89 41.08 40.22 45.53 46.08 46.85 46.39 46.41 45.81 45.13 45.08 44.01 41.53 41.87 43.18 43.50 44.71 45.43 43.81 43.64 44.18 44.93 43.86 42.41 41.71 41.59 41.33 40.59 40.06 39.55 38.93 38.03 37.89 37.66 37.17 36.64
34.35 37.33 37.37 34.34 38.78 40.11 40.96 42.15 41.67 37.41 42.24 44.99 44.51 44.74 45.10 45.73 45.28 42.76 41.05 39.86 40.82 42.27 43.01 44.25 45.68 44.22 43.13 43.29 43.87 43.35 42.49 41.53 40.77 40.74 39.73 38.97 38.35 37.39 36.81 36.66 37.04 36.26 36.06 35.85
35.01 35.18 29.96 39.44 44.27 43.65 41.42 42.64 44.04 43.54 43.35 44.68 45.35 46.00 47.49 45.01 42.75 38.98 40.09 41.13 42.19 43.21 43.43 44.98 45.72 43.95 44.07 43.57 42.78 41.99 41.29 40.52 40.40 39.13 37.84 37.59 36.56 36.04 36.13 36.38 35.69 35.27 35.02 34.43
32.22 31.90 36.54 39.04 41.06 40.64 38.93 39.45 43.65 42.79 44.48 45.77 46.27 46.55 44.84 41.06 40.07 41.07 42.73 43.26 43.47 44.15 44.66 45.77 45.04 44.38 43.54 42.91 42.32 41.59 39.67 38.95 39.08 38.11 36.82 36.02 35.36 35.39 35.80 35.32 34.85 34.35 33.75 32.93
34.18 30.10 28.67 39.17 42.42 44.08 43.86 36.07 44.18 43.93 43.07 43.11 44.43 36.48 37.84 40.65 43.37 42.96 43.50 43.51 43.16 43.65 44.58 45.30 45.20 44.58 43.07 42.26 41.27 39.59 39.79 39.46 39.16 38.16 36.35 35.22 35.43 35.46 35.64 35.16 33.84 33.57 32.08 32.30
33.53 32.00 35.97 42.77 43.27 44.71 33.72 37.40 45.27 42.91 42.27 41.36 37.80 38.64 41.47 42.82 42.44 43.16 43.16 42.94 43.26 43.17 43.21 44.13 44.67 43.76 42.11 41.42 39.52 39.79 40.24 39.65 38.72 37.87 36.04 35.83 35.79 36.11 35.27 34.27 32.78 30.97 30.39 30.08
33.92 30.40 28.94 43.63 43.25 37.85 43.21 45.36 42.82 42.20 41.65 40.18 40.58 41.15 41.40 41.58 41.64 41.50 41.81 42.16 42.51 41.57 41.50 42.78 43.36 42.50 41.42 40.23 40.79 40.85 40.65 39.56 37.78 36.98 36.03 35.29 35.53 35.53 34.79 33.49 31.04 29.31 30.19 29.58
37.81 38.98 45.74 47.24 46.37 47.28 46.38 44.63 41.27 42.01 43.19 41.98 40.48 40.51 40.26 39.95 40.53 41.40 41.85 41.77 41.77 40.79 40.31 41.26 42.08 42.29 40.77 40.75 40.91 39.43 37.69 37.24 36.83 36.42 35.58 35.80 34.89 34.12 32.45 31.66 28.77 27.88 26.92 26.55
39.63 43.02 44.96 46.54 48.13 47.41 44.87 42.14 43.03 43.09 42.06 40.83 39.90 39.94 39.36 40.22 40.56 40.81 40.90 40.17 40.50 39.53 38.53 38.48 40.58 40.13 39.45 39.27 38.60 37.54 37.25 36.20 36.47 35.83 34.69 35.53 34.85 32.73 31.42 29.03 27.43 26.31 25.77 25.53
40.86 43.93 45.12 46.25 45.72 45.41 43.26 42.24 41.37 41.81 41.41 40.55 39.21 38.81 39.35 39.06 39.30 39.23 39.25 39.47 39.28 38.04 37.72 37.46 38.67 38.04 38.49 36.97 36.26 35.37 34.93 35.30 34.89 34.47 34.19 33.64 33.12 32.00 30.42 29.56 27.18 25.81 25.75 25.24
37.61 44.24 42.79 43.52 42.93 43.98 42.46 40.92 40.71 40.00 38.96 39.52 39.50 38.76 38.97 37.97 38.43 38.43 38.37 38.87 38.04 38.03 37.40 37.27 37.08 36.71 35.61 35.48 34.49 33.20 32.54 33.46 34.07 33.62 33.42 32.16 31.53 30.76 27.13 25.74 24.63 24.00 23.37 23.70
42.89 44.28 44.25 43.77 43.48 43.36 40.73 40.46 39.10 39.35 39.85 39.37 39.95 38.76 38.20 37.67 38.17 37.17 38.53 38.15 37.60 37.06 36.92 36.47 35.40 34.00 34.87 33.94 32.83 31.57 31.65 31.89 33.01 31.02 30.90 30.13 29.50 27.76 26.35 28.61 24.76 23.06 22.31 22.32
44.39 44.17 41.29 42.12 40.58 40.68 39.51 40.18 40.94 40.64 40.27 39.34 38.69 38.86 38.24 37.60 37.92 37.88 37.57 38.63 38.39 37.27 36.48 34.78 33.62 32.98 33.42 33.00 31.18 31.38 31.14 28.57 31.65 31.40 30.44 29.70 28.32 27.38 27.12 25.51 25.04 25.54 24.25 21.55
41.96 43.82 43.00 41.05 40.35 40.02 40.92 40.08 38.15 37.50 37.92 38.22 38.93 38.23 38.28 36.91 36.64 36.58 37.33 37.17 36.10 35.09 34.88 34.25 32.62 31.55 32.43 31.59 29.60 29.57 30.39 30.37 30.80 30.68 29.44 28.39 27.83 27.07 26.61 25.82 25.51 24.48 24.41 23.26
40.61 40.74 39.58 37.95 37.79 37.91 37.36 37.08 35.98 36.18 36.74 36.79 36.65 36.31 36.75 36.84 36.33 35.33 33.64 33.43 31.63 30.80 31.92 30.97 30.39 30.59 30.74 31.38 30.16 29.13 29.18 27.89 28.27 28.90 28.59 27.80 27.28 26.27 25.81 25.61 25.18 24.34 23.25 21.24
36.68 34.67 35.09 34.53 34.98 35.24 35.46 36.41 36.13 35.61 35.62 35.65 34.91 35.03 34.57 33.42 31.99 32.32 32.69 31.96 31.97 30.12 30.62 30.74 30.83 31.76 29.98 30.95 29.26 29.60 29.72 29.42 26.74 28.85 27.97 27.15 26.37 25.88 25.73 25.44 24.64 23.96 23.54 21.75
36.46 36.15 36.00 35.87 35.13 35.17 35.21 35.35 35.10 34.82 34.44 34.82 33.00 31.71 30.55 30.97 32.07 32.97 32.88 32.30 31.69 30.19 30.91 31.07 30.54 29.80 29.45 29.94 29.98 29.18 29.66 29.82 29.12 28.03 27.66 27.19 26.75 26.25 25.56 25.02 24.51 23.57 23.77 22.74
35.99 35.57 36.23 36.01 36.51 35.50 34.88 34.44 34.50 33.91 32.72 32.65 31.96 31.23 31.32 31.07 32.58 33.91 33.17 31.88 30.50 29.40 31.99 31.34 28.97 28.90 29.34 29.58 28.93 29.02 28.88 29.23 28.65 28.02 28.04 26.59 26.84 26.43 25.80 25.48 24.89 24.24 23.78 22.85
35.47 36.34 36.80 36.36 35.85 33.68 33.05 33.52 33.06 33.27 33.42 33.01 31.90 30.76 30.95 31.37 32.42 32.96 33.14 32.19 32.59 33.05 32.67 31.36 30.35 29.92 30.17 29.84 28.34 28.66 28.67 28.93 28.37 28.48 28.39 27.07 26.66 26.06 26.04 24.26 24.33 24.33 23.94 23.68
33.93 34.81 34.49 33.57 33.39 33.16 31.79 32.10 31.19 31.28 32.62 31.59 30.30 30.30 30.19 31.74 32.95 32.78 32.03 31.74 34.44 32.90 32.26 30.53 30.80 31.03 30.72 29.84 29.30 30.04 29.92 29.58 29.46 29.25 28.45 27.29 26.51 26.39 26.06 25.76 25.05 24.75 24.11 23.83
34.28 34.57 33.39 32.67 32.48 32.62 34.09 34.22 33.60 32.00 31.35 30.96 30.86 30.48 30.73 32.13 32.96 32.86 33.33 32.08 34.43 30.69 32.75 31.89 32.47 30.85 30.92 29.09 30.21 31.11 29.47 29.54 29.49 29.62 29.02 28.04 26.83 25.75 25.50 25.86 24.95 24.67 24.57 23.91
33.51 33.75 33.36 32.61 32.01 33.11 33.42 32.88 31.99 32.22 31.34 31.43 30.95 31.08 31.34 32.42 32.42 32.02 30.94 34.39 34.28 33.08 33.01 33.27 31.64 29.54 29.75 32.24 31.68 31.15 30.42 29.59 29.55 29.29 29.19 28.13 27.40 26.54 25.81 25.65 25.39 24.84 24.46 24.10
34.17 34.12 33.84 33.97 33.49 31.72 31.76 33.32 33.64 34.61 32.24 32.92 32.59 32.80 33.13 32.78 33.01 35.57 33.97 32.65 30.61 31.00 32.27 33.63 31.14 29.53 28.87 31.88 31.33 30.79 30.45 30.00 29.88 30.12 29.88 27.34 28.00 27.07 26.43 25.81 25.31 25.23 24.74 23.18
34.06 33.50 33.09 32.32 32.65 33.81 32.54 32.48 31.58 32.05 32.60 32.74 32.45 33.09 34.19 34.97 32.06 33.72 34.05 32.95 31.35 31.11 32.59 30.79 28.94 29.31 30.71 31.33 30.93 29.86 29.26 28.77 29.54 29.39 29.24 29.41 28.93 27.79 27.22 26.41 25.79 25.44 24.91 24.33
34.22 34.97 35.41 34.51 34.15 33.97 34.01 33.30 31.01 32.29 32.79 31.98 32.23 33.52 33.22 34.05 33.25 32.72 33.66 32.59 33.37 31.39 32.19 32.78 31.69 31.51 31.33 30.65 30.00 29.29 28.98 28.51 28.24 27.94 27.56 27.75 28.39 28.29 27.57 26.90 26.51 25.98 25.57 25.29
34.90 32.34 33.75 34.96 36.13 35.52 34.79 33.64 32.50 31.54 32.45 32.22 31.19 33.08 32.94 33.14 32.59 32.45 32.23 32.78 32.42 32.06 32.06 32.42 32.06 30.66 30.63 30.67 29.52 29.26 28.99 28.73 27.18 26.73 26.36 26.49 26.43 26.68 26.80 26.97 26.97 27.13 26.31 25.51

GFSNGP_sfc_wetblb_015.txt.gz
Wetbulb
43.46 43.37 43.13 42.08 41.73 42.41 40.85 41.52 37.52 40.30 41.14 44.02 46.23 46.75 47.77 49.19 49.25 48.31 48.35 48.32 47.71 47.61 46.91 46.38 46.25 46.58 47.15 46.89 46.31 45.96 45.00 44.74 44.45 44.32 43.18 42.24 42.10 41.26 40.89 40.30 39.47 39.25 38.78 38.69
38.90 42.83 42.33 40.14 42.07 42.68 42.63 42.57 42.39 42.30 41.17 47.58 48.38 48.83 47.96 47.52 47.58 46.51 46.10 45.93 45.85 44.71 45.16 44.85 45.15 45.62 46.44 45.77 45.68 45.22 44.25 43.58 43.90 42.79 41.57 41.58 40.61 39.92 39.27 38.75 38.44 38.51 37.81 37.63
35.66 40.73 39.18 35.89 40.78 41.54 42.55 43.90 43.27 38.41 42.98 47.11 46.14 45.61 44.66 45.60 46.31 45.88 43.38 42.63 44.94 44.42 44.92 45.20 45.38 46.17 46.05 45.20 45.79 44.45 43.61 43.37 42.79 41.95 40.94 40.19 39.29 38.68 37.96 37.63 38.01 37.29 37.05 36.83
36.55 35.89 31.04 42.29 46.65 45.57 43.32 44.11 45.49 45.32 45.88 46.82 44.96 45.83 45.79 46.89 45.78 43.01 43.37 44.12 44.90 45.09 44.74 45.08 45.70 46.05 46.70 45.90 44.88 43.98 43.13 42.71 42.27 41.46 40.45 39.12 38.81 37.65 37.58 37.48 36.94 36.46 35.93 35.62
34.26 34.20 37.91 41.16 42.87 42.45 40.89 40.72 46.23 45.13 45.90 46.74 46.91 46.66 44.14 44.78 44.90 44.54 44.35 45.17 45.07 45.26 44.85 44.72 45.02 45.62 45.15 44.07 43.62 43.17 42.29 41.27 41.01 40.94 39.16 38.12 37.55 37.04 37.21 36.79 36.24 35.55 35.36 34.30
36.29 31.30 29.78 40.53 45.13 46.58 46.23 36.96 46.04 46.37 44.97 44.28 44.13 38.58 41.24 45.56 45.65 45.30 45.53 44.84 44.28 44.74 44.59 44.25 44.13 44.41 43.26 42.51 42.13 41.85 42.08 41.26 41.31 40.16 38.73 37.58 37.37 36.95 37.31 36.79 35.57 35.17 33.93 32.91
35.10 33.84 37.09 44.43 45.53 46.86 34.75 38.49 46.79 46.57 45.13 42.09 39.92 41.73 43.83 45.01 44.81 44.97 44.41 43.76 44.73 44.25 43.26 43.33 43.53 42.99 41.45 41.48 41.03 42.07 42.09 41.74 41.22 40.34 39.01 38.09 37.38 37.36 36.70 36.11 35.36 33.81 32.94 32.72
36.25 32.58 29.98 46.30 44.96 39.07 44.52 48.06 46.74 43.95 42.08 41.67 43.54 43.31 43.58 43.47 42.54 42.70 43.03 43.43 43.56 42.50 41.99 42.55 42.35 41.37 40.22 39.99 41.86 42.56 42.17 40.26 38.67 38.71 37.93 37.41 36.84 36.65 36.06 34.91 33.37 32.12 31.85 31.18
40.45 40.12 47.33 47.93 46.42 48.38 48.97 46.97 44.68 41.86 43.39 43.80 42.88 42.56 42.34 41.44 41.94 42.30 42.48 41.99 42.13 41.16 40.72 41.04 41.13 40.59 38.74 39.80 40.76 39.91 39.46 38.12 38.62 38.03 37.42 37.44 36.24 35.38 34.12 33.75 31.10 29.55 28.24 28.44
42.30 44.51 45.27 46.39 48.11 48.13 47.99 46.07 44.55 43.21 44.17 43.31 41.99 41.60 40.74 41.30 41.32 40.90 40.74 40.19 40.58 40.12 39.34 39.01 40.10 39.93 39.50 39.07 38.26 37.44 36.25 36.46 36.74 36.30 35.93 36.48 36.01 34.99 33.15 31.87 28.89 27.92 26.97 26.23
43.23 46.04 45.82 47.69 46.82 46.19 46.25 45.28 42.90 45.28 43.75 43.03 41.44 40.70 41.09 40.31 39.76 39.79 39.65 39.90 39.97 39.34 38.89 38.82 39.63 39.17 38.88 37.79 36.79 35.56 35.08 35.10 35.05 35.57 35.41 34.93 34.54 33.74 32.46 31.88 28.64 26.94 26.04 24.89
40.30 45.89 44.46 44.66 45.66 46.55 44.88 44.13 43.55 42.56 41.64 42.26 42.29 40.74 40.35 39.25 39.67 39.41 38.98 39.36 39.42 39.32 39.07 38.95 38.38 37.24 36.97 37.45 35.98 34.09 32.68 33.55 34.55 34.33 34.02 32.32 32.80 31.95 28.25 26.98 25.70 24.73 23.12 23.85
46.00 47.97 45.80 44.49 45.18 46.41 44.31 43.31 42.48 42.02 42.35 40.88 40.76 40.49 40.01 39.17 39.62 38.33 39.48 39.01 38.58 38.50 38.75 38.00 36.41 35.00 36.43 35.60 34.31 31.61 30.93 30.94 31.72 31.09 31.20 30.62 30.34 28.53 27.36 29.45 26.82 25.68 23.41 22.99
46.69 45.71 41.12 43.54 42.54 44.02 42.72 42.66 42.81 42.31 41.34 40.60 40.16 40.22 39.47 38.74 38.83 38.47 38.08 38.79 38.89 38.19 36.93 36.59 35.49 34.96 35.17 35.23 33.34 31.91 30.96 30.36 31.22 31.04 30.56 30.21 28.81 28.00 27.98 26.78 26.40 27.46 26.71 23.26
43.12 44.32 44.70 44.81 43.77 42.56 42.58 41.34 38.98 38.63 39.05 38.61 39.08 38.05 38.00 37.03 37.05 37.42 38.60 38.64 36.75 35.27 36.26 35.46 34.32 34.55 35.11 33.90 31.57 31.17 29.44 29.94 30.77 30.76 30.53 29.29 29.61 29.09 28.48 27.29 27.11 27.10 27.13 26.79
43.43 43.61 42.87 40.62 39.65 39.14 38.81 38.54 37.39 37.21 37.40 36.97 37.04 36.76 37.43 37.39 37.45 37.44 37.59 36.82 32.65 31.38 32.29 31.52 31.02 32.72 33.68 33.42 32.81 32.55 32.12 29.33 29.35 29.77 29.79 29.49 28.38 27.55 27.15 26.90 26.79 26.43 25.96 24.87
40.15 38.18 37.47 35.96 36.75 37.33 37.35 37.89 37.46 36.62 36.50 36.55 35.76 35.92 35.35 34.25 33.50 34.82 35.62 35.74 33.81 32.56 33.10 31.45 31.31 33.49 32.40 32.64 31.07 32.04 31.18 30.45 29.52 29.22 29.42 28.28 27.87 27.74 27.44 27.01 26.34 25.82 26.16 24.58
39.78 38.32 38.08 37.50 37.12 36.93 36.96 36.95 36.50 35.96 35.41 35.91 34.09 33.01 32.32 32.24 32.23 32.47 33.34 34.12 33.46 32.74 33.09 31.69 32.41 32.00 30.94 31.83 30.85 30.65 29.16 29.55 29.78 29.82 29.16 29.20 28.22 27.46 27.23 26.90 26.53 25.93 26.09 25.67
37.91 37.40 37.84 37.61 38.24 37.29 36.54 35.87 36.01 35.42 34.12 34.43 33.49 32.50 32.83 32.44 32.64 33.34 33.69 32.41 32.72 32.20 33.37 34.15 30.49 29.24 30.29 29.89 29.07 29.92 29.65 29.33 29.24 29.48 29.90 28.48 28.68 28.32 27.93 27.95 27.02 26.72 26.22 25.28
36.63 37.54 38.09 37.80 37.45 35.82 35.20 35.62 35.07 34.92 35.70 34.86 33.37 32.12 32.24 32.12 32.82 32.54 33.06 32.12 33.10 34.69 35.14 34.00 31.58 31.18 31.01 30.62 28.90 29.61 29.86 29.72 28.74 29.41 30.23 29.47 28.83 28.87 27.86 27.38 27.27 26.86 26.65 25.96
35.29 36.08 35.66 36.24 35.73 35.93 34.19 34.11 33.07 33.27 34.83 33.96 32.20 31.64 31.22 31.47 31.74 32.61 32.76 32.73 34.54 34.72 34.32 32.68 32.20 32.46 33.02 31.70 30.25 32.30 31.31 30.04 29.94 29.78 30.08 29.95 29.17 28.21 27.75 28.15 28.32 27.42 27.20 26.06
36.20 36.31 35.07 35.10 35.12 34.63 36.12 36.34 35.97 34.19 33.43 32.74 32.65 31.71 30.98 31.01 32.02 33.21 33.75 33.73 36.15 32.38 34.10 33.43 33.44 32.22 32.33 29.35 31.52 32.70 30.61 30.12 30.09 30.55 30.07 30.15 29.91 28.33 27.19 27.58 27.43 27.67 27.20 26.93
35.52 35.42 35.80 35.21 33.96 35.05 35.91 34.67 33.65 33.10 32.56 32.74 32.51 32.66 32.79 32.37 32.44 31.91 32.25 35.52 35.59 34.71 34.26 34.98 33.44 30.45 29.94 31.46 32.17 32.20 31.43 30.86 30.03 30.43 30.36 30.46 29.86 28.75 27.61 27.07 27.12 26.82 26.45 26.58
35.46 35.84 36.06 36.40 36.13 34.61 33.27 35.87 35.70 34.98 33.96 33.54 33.10 33.65 33.54 32.34 33.27 35.55 36.62 34.13 31.85 31.41 32.47 34.32 32.61 30.17 29.97 31.29 31.65 32.01 31.65 31.65 31.52 31.61 30.87 30.34 31.27 29.98 28.48 27.81 27.05 27.23 27.06 26.49
36.09 35.82 35.45 35.20 34.47 35.61 36.16 36.52 35.92 35.87 34.89 34.41 35.11 35.29 35.27 35.00 32.91 33.76 33.83 33.99 32.33 32.38 33.65 32.44 30.86 30.13 31.59 31.29 31.83 31.65 31.65 31.77 31.25 30.20 29.33 30.79 30.81 30.92 30.27 29.06 28.07 27.51 26.98 27.26
35.62 36.07 36.69 36.77 37.07 37.09 37.02 36.80 35.87 35.34 33.56 34.26 35.34 35.18 35.46 35.10 34.29 33.77 33.99 33.37 34.31 33.88 33.93 33.28 32.01 31.65 31.83 31.82 31.83 31.65 31.42 30.06 29.38 28.71 28.50 27.84 28.12 28.77 29.02 29.02 28.53 28.01 27.87 27.59
36.73 34.04 36.68 36.97 37.55 37.75 37.92 36.80 34.81 33.78 32.95 32.92 32.58 34.54 35.20 34.55 33.78 33.04 32.98 32.92 32.91 32.92 32.92 32.56 32.38 31.88 32.05 31.83 31.82 31.30 30.94 30.58 29.06 28.20 27.52 26.94 27.05 27.03 26.76 27.28 27.59 27.96 28.83 28.39

GFSNGP_sfc_wetblb_018.txt.gz
Wetbulb
43.16 43.00 42.83 41.75 41.23 41.89 40.48 41.32 36.23 39.21 39.98 43.68 45.69 46.47 47.16 48.13 48.18 47.94 47.74 47.81 47.08 46.51 46.25 45.67 45.66 45.55 45.98 46.20 46.43 45.75 44.44 43.21 42.83 43.30 42.62 41.35 41.24 40.74 39.94 39.06 37.79 37.49 36.79 36.50
39.49 42.95 42.07 39.16 41.09 41.63 42.12 42.20 41.61 41.88 40.93 47.08 47.75 47.56 46.37 46.41 46.63 46.66 46.33 45.56 45.19 45.68 45.60 45.09 45.30 45.02 45.12 45.46 45.92 45.53 44.30 43.24 43.73 43.32 42.56 41.11 40.39 40.07 39.21 37.32 36.82 36.21 35.40 35.27
36.22 39.76 38.59 36.26 41.29 41.98 42.50 43.69 42.54 38.09 43.18 46.45 45.31 45.35 45.51 45.61 46.52 45.22 44.07 43.93 44.40 44.55 45.28 44.63 43.92 44.23 43.53 44.48 45.77 44.91 44.06 43.99 43.13 42.71 41.40 40.59 40.01 38.73 37.39 35.71 35.53 34.78 34.45 34.38
35.89 35.89 29.82 41.53 45.47 44.96 42.80 43.85 44.79 44.53 45.50 45.92 45.06 45.66 46.27 46.11 44.29 43.48 43.87 43.95 44.30 44.85 43.91 43.99 44.02 43.86 43.78 43.57 43.00 42.79 43.01 42.62 42.52 41.61 40.67 40.05 38.98 37.69 36.63 35.58 34.37 33.58 33.21 32.96
34.05 33.64 37.17 40.43 43.48 41.76 40.25 39.91 45.64 45.04 45.49 45.15 45.40 44.97 44.20 45.55 45.87 44.78 44.94 45.14 44.38 43.91 43.75 43.68 43.46 43.20 42.16 41.53 41.45 41.31 41.13 40.64 40.77 40.83 39.90 39.09 38.05 36.70 35.09 34.47 33.50 33.35 33.36 31.84
34.77 31.04 28.40 40.73 45.30 47.10 45.93 35.49 46.54 45.84 44.61 43.39 43.18 37.33 40.32 44.35 44.92 44.45 44.41 43.82 42.98 43.64 43.59 42.62 42.31 42.02 40.48 39.75 39.36 39.03 40.94 40.69 41.15 40.99 39.65 37.38 36.42 35.67 34.79 34.88 33.87 32.91 31.72 31.12
34.73 32.74 36.27 44.01 46.16 47.03 34.00 37.55 46.17 46.11 44.54 42.91 40.18 41.93 43.21 44.82 44.32 43.35 42.89 42.98 43.48 42.88 41.41 41.29 41.48 40.79 39.09 38.77 37.93 39.51 40.38 40.17 39.81 39.58 38.26 37.54 36.66 35.51 34.47 33.04 31.71 30.35 29.69 29.71
36.14 32.72 29.94 46.58 45.21 38.76 44.61 47.18 47.04 45.65 43.82 42.44 43.42 43.81 43.44 43.01 41.74 41.74 41.56 41.58 41.41 40.03 39.82 40.71 40.83 39.83 38.35 37.40 39.05 39.20 38.69 38.08 38.06 38.81 38.57 37.68 35.27 34.22 33.31 31.36 29.82 28.23 25.52 26.74
39.63 38.83 46.91 49.25 46.47 48.27 48.59 46.87 44.99 44.48 44.29 43.90 43.15 41.90 41.81 40.50 41.11 41.14 40.52 39.87 40.26 39.19 38.97 39.77 40.25 39.79 37.67 38.23 38.44 37.44 36.43 36.01 36.46 36.83 37.00 36.63 34.33 31.71 30.04 29.91 27.70 26.57 26.51 24.91
43.04 44.74 45.75 47.73 48.42 48.18 47.40 45.61 45.59 45.00 44.65 44.84 41.84 41.77 40.29 40.93 40.41 39.63 39.37 38.82 39.34 38.77 38.25 38.56 39.83 39.62 38.58 37.87 37.53 36.17 34.74 34.46 34.66 34.33 34.41 34.01 33.90 31.73 29.64 28.04 26.56 26.17 24.69 22.88
43.19 46.07 46.76 47.62 47.31 46.91 45.80 46.02 44.67 45.40 44.57 42.68 41.45 40.64 40.62 39.30 39.20 39.18 38.99 39.37 38.98 38.51 37.80 37.89 38.93 38.32 37.83 36.94 36.67 34.51 33.69 33.35 32.47 32.53 32.48 31.97 31.98 29.25 28.84 27.94 26.09 24.06 23.24 22.16
40.58 46.67 46.09 45.97 46.68 46.65 44.83 43.57 44.79 42.61 41.52 42.19 41.60 39.39 39.57 38.67 38.99 38.89 38.18 38.64 38.11 38.14 37.83 37.77 37.75 36.96 37.08 36.69 35.16 32.75 30.16 30.44 30.17 30.81 30.72 30.22 29.91 29.07 29.94 27.68 27.05 26.45 24.32 21.47
45.35 48.29 47.05 45.99 45.47 45.86 44.90 44.80 43.09 41.87 41.87 39.46 39.66 39.39 38.62 37.48 37.98 36.73 37.96 37.95 37.51 37.42 37.59 36.87 36.20 35.57 36.50 34.23 33.21 31.66 29.74 29.11 29.01 30.02 30.80 29.78 29.26 28.30 26.88 28.71 29.52 28.14 26.33 25.32
47.84 46.49 43.44 44.16 42.43 44.68 43.63 43.22 42.55 41.57 40.26 39.89 38.69 38.47 37.60 37.12 37.30 37.10 36.78 37.81 38.14 37.56 35.88 35.29 35.51 34.51 35.56 34.92 32.38 30.14 29.48 29.29 30.51 30.77 30.28 29.44 28.09 27.70 28.05 26.90 24.37 26.20 27.53 25.94
45.32 45.93 45.32 44.96 45.15 43.28 43.10 41.02 38.58 38.01 37.98 37.46 37.78 37.01 36.80 35.76 35.33 35.80 37.13 37.27 37.05 36.24 35.02 34.29 33.25 32.46 34.28 33.15 31.22 30.33 29.49 28.88 29.71 29.60 30.01 29.17 28.77 28.48 27.83 27.16 26.20 25.92 24.59 24.30
44.88 45.02 45.02 42.79 41.18 39.72 38.72 38.39 36.92 36.27 36.40 35.95 35.99 35.36 35.97 35.33 35.14 34.91 35.47 35.39 32.18 31.75 33.49 32.29 31.20 31.39 32.79 32.55 31.24 30.71 30.09 27.86 28.28 28.75 28.93 29.17 28.39 27.21 26.75 26.78 26.10 25.84 24.42 21.58
41.17 39.80 39.16 37.53 37.22 37.30 36.99 37.61 36.92 35.86 35.64 35.38 34.65 33.65 33.73 32.59 32.18 32.57 32.57 32.70 31.56 32.22 33.31 32.35 31.56 32.74 32.91 32.34 30.41 29.82 29.83 29.85 29.01 29.01 28.27 28.58 27.76 27.42 27.37 26.47 25.85 25.38 24.72 20.09
43.33 41.20 38.92 37.84 36.95 36.87 37.48 36.86 35.60 35.21 34.56 35.00 31.62 28.84 28.33 27.71 30.11 30.45 30.84 31.53 31.88 32.55 33.01 33.26 31.68 31.88 31.01 31.17 29.96 28.85 28.46 28.07 29.05 29.32 29.41 28.49 28.48 27.37 26.81 27.00 26.33 25.74 25.09 22.28
39.15 38.24 38.10 37.69 38.05 37.51 36.47 35.47 34.69 34.12 31.18 31.30 30.40 30.42 30.06 30.06 31.30 31.42 31.45 31.18 30.44 31.28 32.57 32.65 31.59 30.26 29.93 29.40 29.40 28.73 28.41 28.89 28.52 28.29 28.83 29.25 27.72 27.94 27.71 27.52 27.38 25.82 24.43 24.28
37.08 37.67 38.05 37.57 36.60 34.85 33.67 34.39 32.57 33.69 34.42 32.63 29.17 30.40 30.27 28.77 31.58 31.04 30.93 29.48 31.17 33.14 34.32 33.94 31.49 29.88 28.93 29.41 27.28 28.34 28.80 28.90 28.47 28.17 29.04 28.93 29.03 28.44 28.56 27.03 27.00 26.86 26.43 25.89
35.29 35.96 34.10 34.90 34.69 33.37 32.69 32.23 29.98 31.95 33.46 30.18 30.37 31.10 31.01 31.37 31.48 31.52 30.18 29.87 32.57 33.01 34.30 33.28 32.12 31.08 31.59 31.62 30.14 29.30 29.15 29.80 29.10 28.85 28.92 29.00 29.17 28.74 28.41 27.87 27.50 27.72 27.18 26.21
36.26 34.30 31.65 32.21 33.04 33.65 34.21 34.44 34.64 32.03 31.25 29.95 32.09 32.30 31.53 30.36 31.04 31.00 32.04 31.20 34.02 33.10 33.08 33.49 32.84 31.47 31.55 29.68 29.51 30.63 29.04 29.89 29.38 29.21 28.99 29.14 29.02 28.77 28.19 27.49 27.02 27.17 27.37 26.63
34.79 34.25 33.42 32.91 31.78 34.16 34.87 33.88 32.26 32.57 32.21 31.91 30.73 31.38 31.81 31.29 31.74 30.60 29.93 33.13 34.70 32.77 33.20 33.68 33.29 32.08 31.09 30.98 30.37 29.81 29.02 28.80 29.33 29.11 29.11 29.22 29.08 28.73 27.74 27.57 27.25 27.03 26.14 25.73
35.02 34.62 34.77 34.57 33.85 33.37 32.73 34.39 34.64 34.36 32.32 31.68 31.44 32.31 32.61 32.12 32.71 33.48 34.45 33.26 33.16 32.46 32.40 32.39 32.69 31.44 30.42 30.54 29.85 29.37 28.94 29.61 29.54 29.81 29.63 28.93 29.65 29.60 27.91 27.32 27.34 27.64 27.08 26.65
33.76 34.44 34.43 32.94 33.47 34.15 34.83 35.44 34.83 34.19 33.88 34.26 33.53 33.71 34.04 34.35 32.98 33.05 33.65 33.10 32.72 32.43 32.78 32.62 31.76 30.68 31.31 30.54 29.87 29.35 29.97 29.66 29.36 29.88 29.30 28.91 28.03 28.07 28.36 29.37 28.54 27.96 27.69 27.04
34.53 34.84 35.57 35.47 35.22 35.67 36.40 36.36 35.21 35.95 35.52 33.51 33.42 33.52 33.91 34.39 34.53 34.19 33.92 32.99 33.07 32.90 32.87 33.17 32.45 32.18 31.53 30.78 30.38 30.16 30.25 29.85 29.59 29.18 28.80 28.42 28.22 27.25 27.29 27.77 28.33 28.47 28.29 27.76
35.41 33.52 35.64 36.14 37.06 36.86 36.73 36.25 35.48 34.85 34.48 33.16 31.89 32.83 33.26 32.76 32.90 32.98 33.28 32.99 32.99 32.70 32.75 32.98 32.81 32.27 31.91 31.47 30.79 30.57 30.61 30.21 29.56 28.84 28.88 27.84 26.94 26.54 26.73 26.50 26.50 26.43 26.92 27.39

GFSNGP_sfc_wetblb_021.txt.gz
Wetbulb
39.64 40.10 40.00 38.41 37.94 38.13 36.35 36.24 29.29 33.25 36.62 40.50 41.07 41.56 43.05 44.41 44.82 44.34 43.46 43.29 43.15 42.30 42.11 41.52 41.11 41.04 41.12 41.37 41.77 42.16 41.54 40.58 40.48 41.28 41.20 38.41 38.70 39.63 39.03 37.17 35.56 34.37 33.98 33.75
32.43 40.14 38.81 35.38 37.77 38.51 38.38 38.96 37.92 38.03 37.14 43.36 43.48 43.45 42.49 43.34 43.63 42.52 41.98 42.49 42.29 42.32 42.12 41.88 40.81 39.91 40.37 40.07 40.49 42.22 41.31 41.14 41.98 40.94 39.91 39.98 38.80 39.17 38.34 36.05 33.39 33.05 32.73 32.94
28.82 35.80 33.54 27.69 35.23 38.72 39.22 40.35 38.84 31.95 38.16 41.99 40.61 41.01 40.38 40.66 41.54 41.43 40.82 41.03 41.57 41.94 42.21 40.67 39.24 39.90 37.97 38.21 39.02 38.30 38.54 39.25 39.84 39.77 39.96 39.92 39.61 39.49 36.95 33.74 32.27 31.58 31.61 31.43
24.55 26.51 17.36 37.56 42.43 42.06 39.65 40.62 40.87 41.37 41.34 41.25 40.31 40.72 41.20 41.89 40.56 40.32 40.83 41.84 42.24 42.16 41.31 38.88 38.45 37.84 37.85 37.77 37.24 37.03 37.01 38.76 39.13 39.02 38.54 38.21 38.41 37.26 34.88 32.70 31.90 31.04 31.07 29.39
25.25 25.57 31.14 37.72 41.38 39.01 36.46 35.56 42.94 41.63 41.53 41.11 41.43 41.59 38.79 41.80 41.26 40.33 41.31 41.44 40.13 38.46 38.35 37.26 36.95 37.09 36.54 35.86 35.73 35.77 37.41 37.71 37.98 38.53 37.39 36.80 36.10 34.05 34.49 32.92 31.39 31.08 29.87 28.97
27.82 19.27 16.44 33.24 42.31 44.69 42.79 28.68 43.37 42.87 40.66 39.86 39.64 29.51 35.37 40.63 41.78 41.83 39.37 38.55 38.16 37.83 37.07 35.88 36.24 36.35 35.64 34.69 34.38 35.28 36.44 36.27 37.28 37.45 37.15 36.79 34.76 34.99 33.96 30.98 31.04 29.79 29.46 28.74
22.74 18.58 28.39 40.20 43.76 44.80 28.50 30.00 42.34 42.55 40.75 39.33 35.70 36.65 39.86 41.28 41.36 38.61 38.62 38.11 37.61 36.25 34.87 35.18 36.00 35.86 34.52 33.91 33.85 35.58 35.96 36.10 36.28 36.92 36.51 37.09 34.85 33.47 31.66 29.00 28.21 26.08 25.55 26.54
29.00 26.98 22.83 43.62 42.48 33.85 37.57 42.96 43.46 41.75 40.20 41.00 41.66 41.66 41.91 39.50 38.29 38.51 36.27 35.65 36.37 34.63 34.47 35.32 36.15 35.40 33.64 33.22 35.12 35.46 34.74 34.16 33.90 34.52 35.59 36.22 33.79 32.42 29.43 26.71 25.91 23.56 16.04 19.25
32.38 30.74 39.98 43.55 42.02 43.65 44.60 43.36 41.23 40.71 43.27 42.73 41.65 41.18 38.64 37.56 37.55 36.65 34.60 34.11 35.27 33.90 34.60 35.61 35.65 35.40 33.40 33.81 34.73 34.19 32.71 32.00 31.59 31.94 32.73 32.56 28.78 26.45 26.10 25.61 21.51 21.80 23.02 16.73
36.10 41.03 42.39 42.97 44.67 44.83 43.92 42.29 43.06 44.01 43.09 43.24 41.09 38.38 37.33 36.77 35.36 34.71 34.07 33.44 34.21 34.58 33.90 33.83 35.18 35.72 34.16 33.93 34.11 32.57 30.76 30.60 30.73 30.05 30.18 29.64 28.63 27.17 25.52 21.13 19.51 23.26 20.32 18.47
35.86 40.93 42.19 43.99 44.67 44.25 43.38 43.80 44.16 45.11 44.53 40.61 38.48 36.84 35.41 34.55 34.34 33.96 32.94 34.07 34.41 33.49 33.62 33.72 34.70 34.47 34.06 33.61 33.18 31.18 30.07 29.64 27.97 27.36 27.58 27.74 27.16 25.20 25.47 23.66 22.26 19.57 18.56 18.11
31.97 41.94 41.44 41.98 43.37 45.05 44.02 43.52 43.27 42.22 39.02 39.93 36.75 34.76 34.68 33.05 33.22 33.07 32.88 33.91 34.09 34.47 33.79 33.80 33.98 33.78 33.67 33.85 31.68 29.40 27.81 26.92 26.02 25.14 24.75 26.31 25.87 25.55 29.35 27.93 28.89 28.13 26.05 16.79
41.60 45.02 44.03 43.62 43.73 44.60 43.55 43.62 42.36 39.67 38.65 35.36 35.20 34.20 33.59 32.66 33.34 33.60 33.98 34.21 34.15 34.28 34.07 32.74 32.04 32.57 33.36 31.07 30.09 28.60 27.43 27.41 24.82 25.18 25.23 26.79 27.29 26.22 24.87 25.01 29.40 29.78 28.65 26.91
45.43 43.87 41.11 42.06 40.63 44.34 43.51 41.46 41.10 38.02 36.65 35.45 34.20 34.08 33.44 32.92 33.21 33.00 32.78 33.64 34.38 34.18 33.63 32.95 33.46 32.81 33.08 32.41 30.14 26.42 25.97 25.03 23.25 22.86 26.44 27.49 25.96 25.93 26.40 20.25 20.82 19.02 26.16 27.43
43.53 43.59 42.49 42.56 43.27 41.24 40.65 37.15 35.30 34.03 33.75 33.12 33.72 33.17 33.09 31.75 31.27 31.66 32.90 33.49 32.28 31.56 31.42 31.74 32.95 32.95 33.65 31.54 30.74 28.40 27.55 24.30 23.19 26.33 26.53 27.01 26.57 25.95 25.65 25.07 23.89 19.83 20.90 21.71
43.25 43.35 43.43 42.66 42.40 37.13 35.78 34.76 33.21 32.27 32.38 32.23 32.22 31.41 32.42 31.94 31.74 31.71 31.86 31.39 28.54 28.91 29.69 28.32 31.53 32.22 31.98 31.24 31.07 27.52 26.30 24.50 24.05 26.47 26.00 26.39 26.12 24.66 24.99 24.87 24.50 23.45 16.05 15.35
40.39 39.98 38.79 34.50 34.47 34.19 33.97 33.97 33.24 32.21 32.21 31.94 30.57 30.37 30.98 29.65 28.23 29.08 28.49 27.64 26.12 29.83 27.35 30.77 31.83 34.06 31.90 31.75 30.07 24.60 23.72 23.34 23.72 27.38 26.65 25.90 25.70 25.34 25.27 24.46 24.35 22.13 18.21 15.50
39.16 38.28 37.13 35.71 34.36 33.84 33.04 31.50 30.57 29.97 30.19 30.47 26.50 21.39 19.57 20.27 25.80 26.02 29.54 30.18 30.42 30.41 29.22 31.17 32.15 32.73 30.44 31.06 29.15 24.60 22.99 21.29 22.06 20.57 21.53 23.74 25.64 26.05 24.08 21.54 23.31 22.47 20.23 15.49
37.98 36.92 36.58 36.25 35.42 32.58 31.44 30.84 30.76 30.00 26.15 25.09 21.93 22.92 23.36 23.16 26.74 29.76 29.95 29.74 29.49 28.87 29.89 29.13 31.11 31.36 29.73 27.63 24.96 21.91 19.07 18.60 25.61 26.25 26.28 23.67 22.76 24.27 25.42 19.95 23.81 24.12 22.31 15.11
34.83 35.63 35.33 34.51 33.44 30.63 29.30 30.56 26.64 29.76 30.71 26.40 20.26 20.06 28.36 29.71 29.71 29.95 30.21 29.15 29.94 30.72 31.13 32.67 32.69 30.41 28.42 26.83 24.12 23.11 18.33 16.21 23.58 25.66 19.67 21.27 20.99 23.84 22.51 24.82 23.41 17.78 18.86 20.23
30.58 30.94 29.99 29.94 29.55 27.57 28.17 26.56 23.76 27.81 29.53 23.68 25.18 30.54 25.84 25.98 24.86 29.23 29.13 28.42 29.74 27.17 31.79 33.09 32.09 30.79 30.11 27.70 25.22 23.49 20.67 18.16 16.98 26.71 21.90 18.07 19.84 21.69 23.80 25.22 22.02 16.52 15.94 20.82
31.18 30.05 26.45 26.84 27.93 29.87 29.87 29.91 30.09 26.73 28.05 24.62 23.60 22.16 21.88 24.64 24.36 25.51 30.27 29.30 30.80 31.54 32.90 31.18 32.17 31.83 31.33 30.35 28.51 27.14 24.27 23.53 20.99 24.51 25.75 23.73 19.88 21.79 23.77 22.96 25.10 24.43 17.36 18.13
30.88 31.05 30.18 26.46 25.25 30.06 30.08 29.10 26.51 27.77 26.65 26.14 29.40 27.88 23.68 27.39 27.71 28.28 28.41 28.33 30.04 32.22 32.38 32.31 32.34 32.56 31.69 31.40 29.87 28.72 25.49 22.03 19.03 21.01 27.43 26.89 26.81 25.62 25.11 25.08 24.27 25.17 25.07 23.99
31.35 31.15 30.89 30.66 27.51 27.78 28.45 31.36 30.62 30.62 27.33 28.01 26.52 25.86 25.27 25.78 29.07 29.22 31.71 32.32 31.68 31.68 32.23 32.97 32.16 31.21 31.65 30.84 26.39 25.62 27.94 27.62 24.56 23.28 23.95 26.06 26.28 25.94 25.64 23.44 23.13 24.44 25.62 25.32
29.52 30.64 30.62 27.18 29.30 30.22 30.97 31.85 30.81 29.72 29.17 28.91 28.32 27.61 26.20 26.10 28.15 31.23 32.66 32.83 32.61 31.74 31.97 32.48 32.35 31.09 29.69 29.39 29.10 28.67 28.54 28.05 26.84 26.24 27.54 27.37 26.80 26.30 24.33 20.00 22.74 25.62 26.91 25.72
30.94 29.64 29.88 31.41 30.63 30.44 30.32 29.77 29.54 29.76 26.16 23.85 23.75 21.79 21.09 22.01 26.90 28.09 29.32 28.75 31.91 32.63 32.11 32.50 32.67 32.47 32.01 31.39 30.33 29.00 28.52 28.30 27.98 27.92 27.69 26.30 26.65 25.84 24.73 23.57 24.50 23.56 24.28 24.78
30.41 27.01 28.11 29.16 29.59 29.95 29.30 26.78 23.41 26.06 24.80 22.99 27.73 22.63 22.98 23.18 23.84 24.20 23.53 27.00 30.44 31.87 31.87 32.04 32.13 31.77 31.78 31.98 31.62 29.79 29.41 29.50 29.16 28.23 27.06 25.92 24.26 23.32 23.18 23.58 24.51 25.09 24.61 24.46

GFSNGP_sfc_wetblb_024.txt.gz
Wetbulb
36.92 37.88 37.53 35.93 35.27 35.28 34.21 34.15 29.32 31.81 33.62 37.80 39.44 40.11 41.42 42.66 41.86 41.42 41.08 41.46 41.40 41.06 39.81 39.77 39.52 39.13 38.23 38.09 38.82 39.60 38.40 38.16 38.45 39.33 38.77 37.19 37.66 38.56 38.85 38.31 38.57 37.38 35.26 34.38
30.76 37.87 36.80 32.89 35.36 36.08 36.41 36.46 36.01 36.19 35.47 41.21 41.34 40.34 40.63 41.81 40.89 40.68 41.30 40.76 40.21 40.36 40.68 40.88 39.73 36.85 37.33 36.98 37.35 37.54 36.83 37.73 38.99 38.58 38.35 38.30 38.32 37.90 36.88 38.27 37.69 33.87 33.81 32.42
25.90 33.19 31.75 26.45 33.91 37.00 36.71 37.32 36.77 31.72 36.32 39.56 38.40 39.56 38.94 39.20 40.20 39.82 38.89 39.15 40.41 40.75 40.82 39.77 36.14 36.59 35.61 35.97 36.62 35.92 36.70 37.90 37.99 37.67 37.28 36.92 37.43 37.57 37.60 34.08 33.98 33.39 31.83 30.65
22.31 23.59 16.00 34.24 40.16 40.32 37.88 38.42 39.43 38.86 38.57 39.37 38.87 39.12 39.45 40.02 39.06 38.77 39.44 39.72 39.82 38.57 36.88 35.76 35.44 35.33 35.43 35.57 34.92 35.28 36.66 36.66 37.16 37.34 36.63 36.28 35.25 35.79 34.90 33.58 32.87 30.66 29.39 28.33
20.20 23.95 28.05 34.89 39.26 37.64 35.45 34.69 41.00 39.27 39.29 39.52 39.66 38.98 37.04 40.11 39.87 39.17 39.29 39.74 36.77 35.51 35.54 34.55 34.58 35.09 34.64 33.58 33.64 34.91 34.55 34.62 35.61 36.07 35.88 35.95 35.30 34.69 32.51 31.08 29.03 29.32 29.11 27.77
27.70 16.54 15.33 29.98 40.00 42.80 40.70 29.38 42.05 41.23 39.24 38.76 37.94 28.31 33.10 39.80 39.64 40.13 38.08 36.42 34.74 34.47 34.43 33.42 34.07 34.26 33.15 32.27 32.94 33.22 34.10 34.23 35.05 35.79 35.09 34.53 33.83 32.44 31.49 29.55 29.53 28.55 28.22 26.81
16.43 16.13 26.11 35.52 41.62 42.44 28.48 30.07 41.42 41.21 39.65 38.35 35.16 35.45 38.26 40.57 39.64 37.00 35.98 35.34 34.88 33.91 33.12 33.31 33.52 33.25 32.09 32.37 32.11 33.78 34.27 34.19 33.50 33.45 33.69 33.91 33.93 33.34 30.72 27.94 26.98 24.57 23.61 24.57
23.46 17.21 21.45 40.18 40.52 33.49 36.63 40.89 42.11 40.58 39.76 38.76 39.29 40.10 40.80 38.23 36.50 35.80 33.80 33.85 34.04 33.24 32.88 33.29 33.64 33.65 31.69 31.16 33.31 33.80 32.85 31.99 31.17 31.05 31.47 31.45 29.23 27.00 27.06 25.43 24.83 22.60 12.36 16.81
31.91 30.98 37.93 41.10 40.35 41.30 43.14 41.71 40.69 39.91 41.69 41.93 41.62 40.68 37.19 35.39 34.55 33.99 32.70 32.13 33.48 31.61 32.59 33.50 33.55 33.40 31.85 32.67 33.21 32.66 30.84 29.51 29.60 29.91 29.98 28.61 26.00 25.34 25.06 24.37 20.37 20.72 22.16 14.88
34.61 39.01 39.78 41.35 43.02 43.40 42.92 41.37 42.09 44.05 43.96 43.78 41.66 37.22 33.72 33.60 33.03 32.27 31.23 31.12 31.87 32.12 31.79 32.00 33.50 33.84 32.89 32.94 32.64 30.94 29.33 28.77 28.90 27.31 28.33 27.80 26.57 26.34 24.35 19.55 17.89 22.21 19.39 17.83
34.02 38.95 40.68 42.62 41.99 42.31 41.95 42.48 43.49 44.88 44.20 41.73 35.36 33.14 33.35 32.14 31.74 31.36 30.83 31.85 32.25 31.78 31.71 32.17 32.91 32.73 32.77 32.51 31.86 29.71 28.85 28.70 26.74 26.22 26.09 26.96 26.06 24.78 25.26 23.47 21.73 19.55 18.56 17.40
31.99 39.89 39.65 40.48 42.20 43.18 41.59 42.64 44.27 42.79 35.62 34.75 34.16 32.70 32.51 31.09 31.46 31.20 31.14 31.94 31.78 32.35 32.12 32.37 32.20 31.73 32.08 31.88 31.63 29.58 28.08 26.86 25.29 24.36 23.10 25.58 25.42 24.82 28.36 28.19 29.86 30.34 28.22 17.10
40.56 44.08 43.51 42.68 43.37 44.35 43.80 43.27 41.62 36.25 34.56 32.99 33.23 32.33 32.00 30.96 31.38 32.00 31.59 31.85 31.90 31.94 32.14 31.27 30.80 30.98 32.59 32.43 31.64 30.47 27.96 27.90 24.66 25.15 24.70 23.39 24.09 25.93 22.41 23.89 28.46 28.41 29.49 28.41
44.18 43.04 40.17 40.99 40.45 44.68 44.71 41.19 37.27 35.00 34.14 33.28 32.69 32.56 31.58 31.22 31.21 30.76 30.48 31.49 31.85 32.01 31.32 30.41 30.41 30.61 32.39 32.57 31.14 29.84 28.60 25.29 23.51 24.18 22.36 22.49 24.85 25.29 24.88 18.28 14.27 16.08 23.99 27.45
42.81 42.34 41.48 42.28 43.76 39.90 37.39 35.67 33.35 31.75 31.86 31.70 32.44 31.38 31.39 30.25 29.45 29.63 30.97 31.08 31.03 29.99 30.00 30.51 30.20 29.93 33.27 32.18 30.63 30.25 28.86 23.16 19.51 25.47 25.34 25.27 25.50 24.35 22.99 20.33 19.14 21.86 15.85 19.15
42.03 42.41 42.71 42.29 37.72 35.47 34.86 33.50 32.17 31.67 31.46 30.76 30.35 30.13 31.19 30.47 30.02 29.97 30.01 30.25 27.42 27.93 29.67 29.34 25.06 29.36 32.81 32.56 31.12 30.39 28.94 23.18 19.59 24.29 25.86 24.35 24.79 23.53 24.24 20.23 23.50 21.92 15.61 12.86
40.87 40.17 37.24 34.05 34.00 34.08 33.20 33.80 32.87 31.66 30.82 30.50 29.63 29.61 29.47 27.62 27.00 28.73 28.47 28.21 28.63 28.91 29.85 29.97 27.52 31.80 32.77 32.86 30.97 29.06 27.15 23.51 24.22 26.39 26.10 25.39 23.97 24.63 23.65 22.52 21.94 15.76 21.42 17.12
40.17 37.51 36.46 35.50 33.83 33.30 32.52 31.59 30.44 30.03 29.85 29.73 25.79 18.73 18.41 19.89 24.85 25.13 27.31 29.17 29.33 29.79 30.05 28.29 29.97 31.85 32.32 32.68 31.04 28.23 23.01 22.82 20.68 20.13 19.87 16.02 19.90 21.92 25.25 21.11 18.06 16.00 15.78 14.35
36.86 36.00 35.91 35.19 34.92 32.75 31.53 30.43 30.21 29.75 25.10 22.93 20.37 20.98 19.03 23.48 26.13 27.07 26.39 23.10 28.60 28.46 28.88 26.43 29.46 31.77 31.92 31.60 28.07 22.07 17.65 14.80 16.66 20.14 20.35 21.19 12.80 17.19 22.81 22.76 18.85 23.38 21.30 14.40
34.56 35.21 34.75 33.79 32.79 30.12 28.91 29.79 25.87 29.24 30.05 25.05 17.26 21.49 26.96 24.98 23.85 23.38 23.28 24.15 27.47 28.71 28.57 28.25 30.36 31.31 30.15 30.23 28.91 23.67 18.34 14.95 17.33 18.98 21.50 20.15 13.48 15.06 22.88 21.60 24.09 17.62 12.93 11.75
30.70 31.83 30.90 29.59 28.81 26.46 24.94 24.80 22.51 26.76 29.03 22.20 25.35 28.02 24.87 25.27 23.01 20.20 20.19 25.64 28.36 26.01 27.49 26.96 31.75 30.68 31.70 30.31 29.01 26.79 24.01 22.77 21.45 20.30 23.11 22.79 15.61 15.91 18.82 23.20 22.52 23.78 14.67 7.96
30.78 29.42 25.65 25.35 26.59 28.47 28.68 28.81 29.33 25.64 24.97 28.82 28.43 25.69 21.01 24.83 22.69 21.09 21.69 26.06 30.12 24.49 28.47 30.65 31.16 32.03 32.13 31.82 30.37 29.55 28.95 26.60 25.22 23.88 23.29 24.57 24.15 17.62 16.83 21.13 20.26 23.30 19.14 12.39
30.62 30.51 29.63 25.40 23.44 29.14 29.18 27.65 26.18 24.55 25.70 25.97 25.34 25.13 29.02 26.65 23.58 21.21 25.77 27.97 29.07 30.60 31.72 31.09 31.12 31.62 32.03 32.04 31.83 29.64 28.56 27.28 24.86 24.01 24.00 24.68 25.89 23.39 23.88 23.83 24.21 22.90 21.55 21.71
30.92 30.68 30.23 29.95 26.16 26.02 26.99 30.56 30.02 29.93 26.62 27.15 26.39 26.70 26.04 22.95 21.36 25.15 26.96 26.03 30.26 26.29 31.04 31.73 31.95 31.42 32.12 31.61 30.70 29.99 28.69 26.90 26.53 25.60 24.94 24.56 24.84 24.73 26.08 24.55 21.46 20.82 23.73 23.24
28.56 29.83 29.83 25.58 28.37 29.17 30.22 30.66 29.67 28.60 28.59 28.62 28.20 27.77 25.58 28.60 27.83 28.60 23.12 24.00 23.29 25.84 30.37 31.15 31.98 32.06 32.18 31.74 30.49 28.76 28.45 27.89 28.08 28.37 26.56 25.67 26.14 25.59 26.25 24.44 22.12 21.24 21.50 23.43
30.40 29.18 29.23 30.44 29.52 29.62 29.67 28.05 27.00 26.02 23.30 23.68 22.85 22.26 29.53 30.24 28.62 25.32 23.22 20.52 23.08 27.78 29.91 30.63 30.79 31.28 31.48 31.81 31.94 31.56 30.92 29.93 29.06 28.48 28.00 27.84 27.69 26.74 25.37 23.55 22.51 21.87 21.40 22.21
29.48 25.78 28.30 28.86 29.54 29.41 28.15 26.55 26.54 30.78 24.85 26.41 28.39 29.35 26.34 26.68 23.53 19.14 18.63 25.49 19.17 27.72 26.26 25.72 26.76 29.06 30.29 30.80 30.96 31.24 31.31 31.55 30.50 29.59 29.15 28.62 27.93 26.94 24.91 22.52 22.22 21.41 21.32 22.42

GFSNGP_sfc_wetblb_027.txt.gz
Wetbulb
34.64 35.69 35.35 33.97 34.11 34.60 33.17 32.61 28.96 30.60 32.13 35.52 38.18 38.45 39.59 40.45 39.96 39.71 39.70 40.48 40.30 39.48 40.41 38.75 38.38 36.16 35.88 35.82 36.34 36.41 36.60 36.52 36.61 37.03 37.12 36.94 37.11 37.21 37.43 36.69 36.81 37.95 36.85 34.33
30.53 35.76 34.88 31.53 34.11 33.42 33.39 33.96 34.29 33.46 33.77 39.54 40.25 39.80 40.08 40.21 39.93 39.45 41.03 40.54 40.26 39.43 39.60 39.17 35.98 34.96 35.53 35.40 35.55 35.30 35.59 35.99 37.01 36.77 36.76 35.95 35.46 35.81 35.95 38.03 35.21 35.13 34.71 32.78
23.98 30.90 29.42 24.21 31.43 35.04 35.58 36.22 35.40 30.74 35.70 38.99 37.54 38.48 38.79 38.89 39.19 38.99 38.94 38.68 38.91 38.85 38.36 35.28 34.54 34.90 34.06 34.53 34.62 34.16 35.94 36.51 36.56 36.50 35.72 35.31 35.42 34.76 35.02 34.22 33.29 32.43 30.43 28.48
20.93 22.92 16.23 32.13 37.09 38.10 35.95 36.52 37.51 36.89 37.68 38.80 37.82 38.20 39.09 39.59 38.75 38.35 38.54 38.58 37.22 35.10 34.58 34.28 33.99 33.70 33.87 33.49 33.07 34.86 34.83 34.82 35.23 35.15 34.44 34.78 34.14 34.40 34.96 34.18 30.54 28.41 27.76 27.81
19.74 21.79 27.27 32.77 37.30 35.95 34.65 33.62 38.90 37.67 37.58 38.00 38.23 37.48 36.19 39.39 39.05 38.16 38.76 38.07 34.81 33.98 33.92 33.16 33.09 33.37 32.73 31.97 32.87 33.36 33.04 32.95 33.39 33.71 33.87 33.45 33.49 32.28 32.44 30.36 28.02 28.06 28.27 27.00
24.98 15.62 14.80 29.50 37.83 40.74 38.88 28.72 40.18 39.02 37.89 37.59 36.82 28.66 33.88 38.99 39.43 39.33 36.00 34.32 33.10 33.03 32.87 32.11 32.37 31.98 31.43 31.24 31.60 31.82 32.68 32.74 33.03 32.55 32.60 32.13 31.51 31.48 32.69 30.82 29.23 28.15 27.31 25.92
16.10 15.43 25.35 33.77 39.78 40.65 28.20 28.64 40.07 40.20 39.44 37.07 35.05 35.76 37.84 40.32 39.78 36.38 33.68 33.58 33.42 32.44 31.77 31.30 32.14 32.22 31.42 31.21 31.02 32.49 33.01 32.49 31.42 30.78 30.06 30.00 29.95 30.38 28.63 26.94 26.39 24.24 24.21 24.10
25.75 18.84 22.83 38.21 38.23 33.11 36.35 37.79 41.18 40.34 39.45 38.61 39.84 40.09 41.42 40.03 34.54 33.80 32.43 31.89 31.95 31.43 31.40 31.89 32.35 32.16 30.66 30.19 32.36 32.48 31.97 30.70 29.83 29.69 29.72 28.74 26.75 26.37 26.43 25.39 25.23 23.56 11.04 16.07
30.80 30.46 36.97 38.86 38.74 40.08 41.03 40.99 40.70 40.30 40.09 40.98 40.41 40.93 37.53 34.22 33.87 32.14 30.86 30.48 31.71 30.51 31.24 31.91 32.01 31.96 30.54 31.11 32.00 31.45 30.18 29.39 29.09 28.59 28.90 27.89 25.55 24.71 24.82 24.00 20.03 19.88 21.44 14.95
33.13 36.75 37.83 39.03 40.75 41.62 42.13 40.85 41.09 41.74 42.01 42.12 41.33 36.98 34.15 32.44 31.43 30.54 30.02 29.78 30.33 30.73 30.38 30.55 31.87 32.45 31.53 31.86 31.60 30.23 30.05 29.47 28.77 27.47 27.53 27.28 26.52 25.95 24.08 19.76 17.24 21.49 19.06 17.77
32.97 37.11 39.45 41.72 42.23 42.02 41.27 41.72 42.38 43.42 42.90 41.65 38.39 32.68 31.77 30.79 30.63 30.49 29.83 30.58 30.84 30.40 30.32 30.53 31.57 31.42 31.42 31.21 30.86 30.61 30.67 29.78 28.00 27.19 25.80 27.11 25.92 24.84 25.37 23.98 21.98 19.80 19.10 17.78
32.06 38.83 39.10 38.82 42.09 42.01 40.59 40.71 42.27 40.92 36.26 35.37 33.48 31.73 31.41 30.45 30.33 30.48 29.86 30.31 30.58 30.50 30.24 30.84 30.51 29.90 30.35 31.33 31.03 31.37 30.26 29.47 28.27 26.16 22.97 25.43 25.98 24.88 28.10 27.40 29.07 30.00 29.74 17.42
38.74 40.72 40.67 40.09 40.96 42.18 41.63 43.02 41.04 35.71 34.81 32.74 32.67 32.08 31.23 30.27 30.74 31.28 30.30 30.50 29.91 29.79 30.77 29.81 28.83 28.83 30.45 30.79 29.87 30.74 29.99 29.94 29.14 25.92 25.57 23.67 24.35 25.81 23.02 23.63 28.00 28.12 28.93 29.33
43.07 42.09 38.96 40.09 40.32 43.51 42.93 37.96 37.06 34.99 34.43 33.73 32.41 31.95 31.06 30.48 30.39 29.53 29.12 29.95 30.01 29.96 29.18 29.03 28.80 29.49 30.67 30.16 31.11 30.14 29.84 28.32 27.49 26.62 27.18 25.31 24.93 25.77 24.50 22.87 14.79 16.28 23.72 26.63
42.15 41.63 41.42 42.02 42.86 39.41 35.67 34.61 33.25 32.24 31.79 31.71 31.88 30.98 30.44 29.30 28.88 28.88 29.50 29.77 29.06 28.62 28.72 28.99 29.54 29.50 29.68 30.70 31.81 30.59 29.97 28.09 26.38 24.09 25.95 22.38 24.45 21.16 22.97 23.14 17.28 17.88 15.19 18.11
41.31 40.76 41.07 39.53 35.48 34.46 34.44 33.31 31.86 31.11 31.12 30.60 30.09 29.71 30.68 29.79 29.11 29.25 29.46 29.06 26.49 26.33 28.50 29.09 28.93 29.48 29.20 31.56 32.80 31.71 30.59 28.00 25.22 22.70 23.83 23.00 23.40 20.49 23.13 22.70 21.70 22.07 13.76 13.53
38.62 37.68 33.25 33.23 33.76 34.00 33.66 33.85 33.14 31.81 31.20 30.65 29.76 29.35 29.21 25.66 25.51 27.79 28.09 26.07 23.08 23.61 28.19 29.12 29.14 31.36 29.59 32.38 32.55 32.07 30.02 27.56 26.37 25.65 22.40 21.59 20.83 21.20 23.23 23.07 22.93 17.26 14.52 11.73
37.44 36.74 36.46 35.57 34.21 33.49 32.04 31.79 31.28 30.72 29.98 29.72 24.54 18.91 18.51 20.78 24.52 24.72 23.96 23.31 22.35 23.57 26.49 27.73 27.69 30.24 30.49 32.20 31.68 31.41 27.68 25.75 23.83 19.86 18.40 13.28 16.86 17.86 17.08 18.55 18.89 19.64 15.88 14.57
36.88 35.99 35.78 35.38 34.88 33.07 32.34 31.29 30.84 29.70 25.12 22.43 20.46 21.99 20.65 21.44 23.95 25.29 23.02 20.02 21.16 23.31 27.42 25.40 27.03 27.87 30.51 31.19 30.34 29.45 25.61 20.15 18.88 18.79 17.71 15.54 11.65 14.74 15.78 17.79 21.27 21.95 22.20 16.16
36.46 36.49 35.72 34.07 32.71 30.50 29.27 29.89 27.06 28.97 29.65 25.03 18.19 23.72 25.61 23.13 21.52 21.91 19.51 21.90 26.28 28.10 28.27 27.85 26.22 27.02 29.68 30.40 30.37 29.10 26.15 22.13 19.82 18.20 13.56 17.43 16.99 14.83 13.12 15.98 18.54 20.93 20.26 16.42
30.36 30.81 30.27 29.08 28.81 26.96 25.91 25.40 23.76 26.80 28.65 20.84 20.80 27.36 28.38 25.68 22.38 19.84 19.54 24.24 27.13 25.04 27.23 24.93 27.69 30.28 30.58 30.58 31.08 29.84 27.76 25.92 23.91 23.09 21.34 21.94 22.56 20.82 16.52 15.38 17.72 18.61 17.71 19.34
30.15 28.92 26.31 25.35 25.85 27.31 27.75 27.63 28.36 22.92 23.29 22.87 22.21 29.35 28.20 26.52 24.28 21.49 21.73 24.29 27.93 23.03 25.35 26.87 30.43 30.74 30.99 30.91 31.30 31.22 29.96 28.33 27.45 26.57 22.92 22.65 23.60 23.55 21.45 20.30 18.01 19.43 22.29 19.56
30.45 30.48 29.71 25.92 24.59 29.18 28.48 27.16 24.24 22.90 23.69 24.45 23.95 24.27 23.91 27.05 26.96 22.31 25.39 26.31 25.58 23.60 28.75 30.59 30.66 30.64 30.81 31.60 31.75 30.98 30.44 29.46 28.44 27.36 25.97 25.61 25.23 25.25 24.81 23.34 22.80 22.94 22.86 20.30
30.64 30.23 29.96 29.55 25.05 25.51 26.38 30.25 29.40 28.76 24.39 25.55 24.96 24.01 23.96 25.15 25.47 24.60 27.54 28.39 22.79 20.08 26.96 29.68 29.96 30.46 30.84 30.92 30.97 30.71 30.35 29.92 29.26 28.19 27.24 26.04 26.66 26.30 26.34 25.57 24.49 23.82 22.82 22.42
28.24 29.43 29.39 25.03 27.97 28.64 29.68 30.05 28.56 27.66 27.16 27.18 26.81 26.85 25.20 24.63 25.25 22.35 21.84 23.43 20.08 25.55 23.70 24.70 28.43 28.98 29.73 30.00 29.75 29.98 30.42 30.57 29.54 28.03 28.01 27.42 26.58 26.69 26.49 26.55 25.99 24.49 22.66 22.52
29.68 28.69 28.69 29.42 28.54 28.26 28.77 28.39 27.30 27.14 24.68 25.25 26.40 23.34 24.06 21.03 26.92 29.64 25.87 19.49 25.16 19.59 17.63 19.97 18.33 21.62 24.49 25.46 25.68 26.84 28.11 29.72 30.25 30.20 29.65 28.62 28.54 27.39 27.61 27.28 26.05 23.15 22.25 22.86
27.42 24.46 27.48 27.59 28.76 28.60 28.11 27.29 27.38 28.54 30.18 29.19 28.55 30.50 28.13 30.06 29.92 27.74 22.66 23.10 20.04 20.26 18.90 16.77 15.94 16.82 17.26 16.59 16.90 17.66 19.59 22.52 25.39 27.93 29.96 29.98 28.66 28.69 28.21 27.13 25.52 22.83 22.10 20.90

GFSNGP_sfc_wetblb_030.txt.gz
Wetbulb
32.89 33.82 33.50 32.09 32.67 34.22 32.58 31.56 28.77 29.60 30.18 33.78 37.76 38.21 38.34 39.21 38.78 38.58 38.71 39.20 39.23 38.38 38.31 39.83 38.14 35.82 35.52 34.99 35.11 35.19 34.91 34.93 35.17 35.41 35.37 34.78 34.76 34.81 35.11 34.98 35.92 36.05 35.24 34.25
31.16 33.97 33.00 31.14 32.72 32.48 32.25 31.74 32.33 31.26 31.63 36.60 37.98 38.99 38.61 38.71 38.58 38.43 39.01 39.17 38.80 38.97 40.08 39.39 35.59 33.83 34.44 34.30 34.19 34.38 33.29 34.95 35.58 35.37 35.32 34.67 34.20 34.00 34.01 34.41 35.33 34.93 33.09 30.46
24.77 28.88 27.72 24.14 30.86 32.65 32.50 33.82 33.30 29.71 33.80 37.74 36.61 37.92 38.03 37.99 38.58 38.47 38.47 38.72 39.55 39.77 38.20 34.99 33.46 33.73 33.02 33.24 33.41 32.76 34.54 35.10 34.83 35.00 34.49 33.76 33.90 33.17 32.98 32.69 30.49 30.04 28.60 27.72
20.17 22.27 16.03 30.96 35.16 35.07 34.47 35.31 35.67 35.12 36.06 38.16 37.42 36.98 38.94 39.44 38.62 38.04 38.04 39.27 38.49 35.12 34.14 33.54 32.96 32.49 32.37 32.38 31.87 33.68 33.52 33.20 33.28 33.06 32.48 32.70 32.33 35.18 31.70 32.28 33.10 28.11 27.06 26.71
18.99 20.57 26.85 31.52 34.80 34.69 33.55 32.86 37.73 36.61 36.58 36.80 37.30 37.71 36.96 39.52 39.16 38.88 39.44 37.94 36.05 34.09 33.60 32.93 31.89 31.86 31.45 30.89 32.07 32.21 32.06 31.99 31.93 31.95 31.06 31.33 30.89 30.33 30.72 31.10 30.27 27.98 27.21 26.27
20.48 16.10 14.81 29.29 34.70 38.58 37.60 29.02 37.63 38.50 36.70 36.55 36.67 30.41 36.26 38.71 39.25 39.21 38.73 34.86 33.28 33.15 32.39 31.20 31.50 31.22 31.04 30.64 30.85 30.72 31.68 31.59 31.74 30.80 29.58 28.70 28.67 28.84 29.93 30.15 28.25 27.78 26.91 25.39
16.69 15.11 24.46 32.64 37.65 38.84 28.00 29.76 37.72 38.92 37.66 36.13 35.11 37.20 37.87 38.55 38.67 37.58 33.62 32.88 33.54 32.84 31.56 31.03 31.27 31.36 30.59 30.15 29.90 31.15 31.72 31.51 30.63 29.69 28.99 28.29 26.87 28.37 28.48 26.79 26.27 24.31 24.13 24.18
23.96 15.83 21.86 36.56 38.24 32.95 36.24 35.56 39.10 38.86 38.32 38.64 38.05 37.42 38.52 38.84 33.80 32.95 32.97 33.16 32.18 31.37 30.89 31.17 31.18 30.86 29.75 29.19 30.98 31.21 30.81 30.16 29.17 29.04 29.34 28.51 26.25 26.06 26.17 24.87 24.83 23.49 11.65 16.40
29.37 29.59 36.16 37.22 37.82 38.63 38.81 38.63 39.11 39.12 39.89 40.27 38.86 38.93 36.01 32.23 32.58 32.83 31.47 30.96 31.26 30.97 31.04 31.34 31.01 30.97 29.65 30.46 30.91 30.51 29.70 29.35 30.66 30.50 28.43 27.89 25.87 24.69 24.25 23.52 19.90 19.77 20.87 15.63
31.93 35.31 36.08 37.48 38.59 41.19 40.17 40.26 40.73 41.29 40.79 41.07 40.17 37.63 33.18 33.44 32.22 30.23 30.49 30.28 30.62 30.62 29.83 29.90 30.80 31.13 30.48 30.48 30.39 29.78 29.42 29.39 30.29 29.45 27.84 27.35 26.81 25.98 24.01 19.84 17.33 20.77 18.99 18.57
32.21 36.42 36.60 39.54 40.56 40.19 40.79 40.94 40.78 41.95 41.75 41.16 35.67 34.03 35.09 32.10 30.09 31.02 30.52 30.59 30.71 30.14 29.66 29.58 30.40 29.90 29.57 29.43 29.61 28.82 29.04 29.84 29.77 29.69 27.37 26.29 26.33 24.82 26.01 24.59 22.71 20.99 20.36 18.64
30.77 37.28 37.43 38.06 40.27 41.65 40.76 40.75 41.81 40.45 37.33 35.93 36.64 34.30 32.11 31.16 31.55 30.94 29.84 30.08 30.03 29.91 29.37 29.88 29.66 28.42 29.09 29.46 29.27 29.05 29.06 30.26 30.19 29.15 26.42 25.20 25.91 26.48 28.39 27.92 28.35 29.50 29.70 20.81
37.43 38.88 39.01 38.97 40.03 40.14 40.50 40.97 39.47 35.80 34.14 33.24 33.40 32.91 32.12 30.89 31.13 31.06 29.77 30.06 29.74 29.37 29.77 28.84 28.28 28.34 28.70 28.57 28.40 28.51 28.45 30.21 29.83 28.65 27.31 25.16 24.39 23.58 24.36 26.18 28.44 28.28 28.84 29.06
41.34 40.75 38.24 38.76 39.20 42.04 41.74 36.22 35.91 34.47 34.13 33.46 32.79 32.60 31.59 31.17 30.78 29.39 29.11 30.23 30.08 29.69 28.76 28.22 28.10 27.97 29.12 28.73 28.07 27.69 30.17 29.44 29.14 28.21 27.12 27.24 23.67 23.31 24.14 22.21 18.34 15.89 23.31 26.71
41.24 40.39 39.89 40.48 40.45 34.37 34.59 34.83 32.97 32.31 32.55 31.99 32.36 31.54 31.28 29.76 29.15 29.70 30.14 30.19 29.75 28.50 28.03 27.57 27.07 28.51 28.95 29.14 28.88 30.50 31.31 30.14 28.78 27.36 26.21 25.03 24.62 23.36 20.65 18.99 21.13 18.95 16.10 18.34
39.94 40.07 37.53 34.79 32.81 33.49 34.37 33.73 32.22 31.17 31.12 30.65 30.97 30.99 31.21 30.95 30.08 29.90 30.06 29.78 26.87 25.92 27.23 23.17 23.95 28.41 29.94 29.96 28.26 31.38 32.13 30.53 28.60 25.86 25.77 21.73 20.43 22.55 23.05 21.57 21.97 22.54 19.61 15.41
36.50 31.93 31.60 32.24 33.82 34.49 34.04 34.47 33.09 31.33 32.03 31.88 30.31 29.89 30.92 28.50 26.89 28.15 28.22 25.96 23.46 22.46 23.43 23.50 25.64 28.76 29.90 30.75 30.41 31.29 31.45 31.16 28.41 25.85 25.13 20.33 19.65 17.28 19.00 20.03 21.66 22.50 21.76 16.40
35.83 36.06 36.17 35.79 33.91 32.16 31.75 32.46 32.63 31.77 30.18 30.17 27.56 24.69 23.54 24.39 26.10 25.38 24.88 22.67 18.34 21.72 24.61 26.59 26.47 27.99 27.81 28.51 28.94 30.45 29.51 29.41 27.57 25.05 22.46 15.15 18.08 17.88 16.90 16.48 16.64 17.71 18.28 16.39
35.56 34.53 34.72 34.30 34.61 34.25 33.82 31.83 30.92 29.64 27.21 26.05 24.06 25.61 24.47 24.01 23.95 25.61 22.46 18.35 19.79 20.50 26.58 25.43 26.81 25.38 27.08 27.35 27.85 29.57 29.32 28.58 25.89 23.26 21.44 17.97 14.93 17.64 14.91 12.80 14.41 15.55 16.83 17.92
35.40 35.67 35.20 34.60 33.07 30.65 28.96 29.61 27.56 28.92 29.54 24.95 21.75 24.29 25.87 25.37 21.66 20.74 18.92 22.17 26.15 27.43 27.08 26.77 25.51 25.00 25.61 28.91 29.70 29.12 29.10 28.40 25.71 24.05 21.27 20.15 19.17 20.34 20.43 17.37 17.76 18.03 17.47 18.77
30.04 30.44 29.79 29.08 28.56 27.20 26.21 25.52 24.00 26.34 28.01 21.92 22.58 24.13 23.09 28.05 29.16 24.06 22.31 24.69 27.87 25.08 26.14 23.40 23.78 25.57 29.54 30.08 30.69 30.42 30.36 29.33 26.40 24.27 24.07 23.51 22.58 22.34 22.85 23.01 21.64 20.76 20.54 17.73
28.86 28.16 24.00 24.36 25.26 27.14 27.17 27.21 27.77 22.96 22.53 20.45 18.54 19.88 24.30 28.55 27.85 24.79 22.60 25.09 29.49 22.63 23.77 23.04 27.52 29.59 29.92 29.85 29.76 30.60 30.42 29.65 29.52 28.26 26.28 25.16 24.95 24.72 24.50 24.23 23.77 23.09 22.40 21.72
29.48 29.74 28.64 24.63 23.30 28.54 27.53 26.31 22.32 21.03 21.57 22.79 22.45 22.97 21.18 25.47 24.82 20.63 25.08 26.45 24.38 22.61 25.04 27.85 29.73 29.48 29.36 29.58 30.16 29.33 29.11 28.95 28.73 28.18 27.76 26.91 26.12 25.77 25.76 25.76 24.76 24.62 24.03 23.05
29.87 29.70 29.49 28.77 24.26 25.58 27.16 29.33 28.54 28.10 22.34 24.12 24.07 23.12 22.32 24.41 26.81 23.83 25.74 24.13 22.38 27.99 25.67 28.65 28.66 28.18 27.28 28.30 27.81 28.10 28.51 28.89 28.85 29.16 28.61 27.94 27.20 26.73 26.48 26.26 26.31 25.50 25.75 24.98
27.55 28.76 27.95 26.14 26.89 27.12 27.81 27.88 26.65 26.28 26.74 27.40 27.08 26.71 24.73 23.72 24.39 27.61 21.70 23.63 26.75 25.42 27.35 21.62 21.47 18.98 18.16 21.95 23.66 22.72 22.61 23.80 25.52 26.73 28.33 28.91 28.23 27.49 26.06 26.30 26.36 26.77 26.37 25.30
27.28 26.70 26.87 27.65 26.16 25.26 24.88 24.82 24.10 25.43 26.62 26.67 27.71 29.42 29.44 26.23 25.33 23.08 27.58 29.65 26.50 25.25 23.41 21.28 17.73 14.47 13.37 14.72 14.51 14.65 15.30 16.76 17.65 18.84 21.39 24.02 26.55 27.85 28.32 26.81 27.32 26.92 26.73 25.16
25.11 22.43 23.22 22.53 22.90 22.21 21.90 21.84 21.86 22.52 23.18 23.66 25.16 28.11 30.03 29.76 29.81 29.50 29.79 26.62 18.68 19.36 19.64 16.38 13.06 12.72 12.16 11.28 10.37 10.67 11.34 11.95 12.03 11.82 13.17 15.63 18.47 24.22 28.41 28.10 28.83 27.61 25.23 23.24

GFSNGP_sfc_wetblb_033.txt.gz
Wetbulb
36.27 36.63 36.91 36.47 36.87 36.95 36.16 36.32 35.16 35.76 35.00 39.41 41.68 44.15 44.05 43.81 43.19 42.55 42.52 42.58 43.11 43.24 43.15 43.20 43.16 40.63 40.60 40.88 41.02 41.40 40.12 40.32 40.69 40.61 40.51 39.82 39.22 39.31 39.39 38.64 38.70 38.67 37.55 37.23
34.63 35.70 35.13 34.88 36.38 36.55 36.85 36.06 36.34 35.78 36.02 41.27 42.14 42.99 42.39 42.58 42.36 41.96 42.36 42.74 42.83 42.18 42.71 42.78 40.78 40.32 39.48 39.59 39.52 39.80 38.61 39.29 40.14 39.58 39.41 38.79 38.41 38.35 38.43 37.87 37.48 37.64 36.59 34.54
30.32 31.15 31.46 30.35 35.34 36.61 36.27 37.19 38.88 35.09 40.74 41.73 40.91 41.02 42.69 42.26 42.37 42.29 42.48 42.66 42.09 41.96 42.22 41.42 39.76 39.06 39.04 38.96 38.64 37.69 38.15 39.26 38.56 38.19 37.68 37.56 37.61 37.55 37.30 37.38 36.36 36.19 34.87 33.67
29.90 27.34 25.71 36.32 39.05 38.55 37.71 38.97 38.74 38.68 39.95 41.94 42.00 42.04 42.90 43.88 43.30 42.46 42.66 42.72 41.85 40.79 39.16 39.16 39.28 38.66 37.96 37.42 36.89 37.11 38.19 37.47 37.40 37.19 36.65 36.49 36.15 35.92 36.41 37.58 37.00 35.77 33.03 32.35
29.96 27.44 30.98 35.54 35.33 36.52 36.25 37.61 40.39 39.90 40.58 40.54 40.60 42.27 42.44 43.75 44.40 44.35 43.81 43.04 42.33 39.96 39.32 38.88 38.30 37.34 36.49 36.24 36.66 36.73 36.09 36.64 37.05 36.54 35.41 34.91 34.78 34.39 35.12 35.87 35.75 34.11 33.11 31.35
26.74 27.47 25.34 34.10 37.37 41.75 41.37 34.59 40.93 41.42 39.94 39.69 41.13 38.97 43.07 43.50 43.58 43.62 43.48 41.65 38.05 38.07 37.70 37.72 36.92 36.37 35.97 36.03 35.56 35.33 36.02 36.27 36.58 36.15 34.74 34.29 33.91 33.47 34.68 36.24 35.41 33.75 31.21 30.55
23.10 29.36 30.94 36.31 38.87 42.12 33.58 36.08 39.90 42.06 41.50 40.33 40.65 44.21 42.74 43.22 42.24 42.17 39.58 36.75 37.01 37.01 36.94 36.51 36.22 36.10 35.63 35.04 34.74 35.51 36.04 36.00 35.96 35.25 34.22 34.42 33.62 33.41 33.13 33.56 32.67 31.22 29.76 29.61
25.64 26.64 28.17 38.74 41.01 37.70 41.79 41.11 41.88 42.42 42.04 41.76 42.74 41.27 40.83 40.70 38.36 36.22 35.48 35.83 36.26 35.73 35.61 35.63 36.06 35.46 34.73 34.33 35.52 35.94 35.87 35.24 34.87 34.51 33.93 33.23 33.04 32.62 31.97 31.54 30.47 29.26 28.20 28.38
33.62 34.94 40.16 40.38 42.42 42.91 42.11 41.92 43.28 42.84 43.00 42.99 41.07 41.14 39.01 35.42 34.87 34.87 34.67 34.38 34.98 35.31 34.97 35.29 35.37 35.26 34.17 35.44 35.42 34.90 34.35 34.29 34.30 34.15 33.79 33.60 31.84 31.53 30.54 30.46 29.34 29.03 28.18 28.25
35.53 39.22 38.35 40.53 42.05 42.00 43.29 43.64 44.73 44.71 44.50 43.55 42.49 40.62 35.57 34.31 35.39 34.64 34.04 34.44 34.38 34.15 33.64 33.56 34.16 34.19 34.57 34.53 34.07 33.43 33.30 33.83 33.97 33.40 33.32 32.96 31.94 31.35 30.26 29.66 29.00 28.15 27.71 27.41
35.86 38.96 39.53 41.06 42.00 44.27 43.77 44.18 43.94 44.47 44.24 43.84 41.77 35.57 35.29 35.52 33.25 32.76 33.52 33.86 34.17 33.50 33.00 32.21 33.60 33.81 33.76 33.40 33.20 32.36 32.88 33.19 33.57 33.30 32.32 32.06 31.12 30.90 30.26 30.78 29.80 28.77 28.36 28.50
35.71 40.45 40.84 41.49 43.31 44.48 43.42 43.44 43.86 43.18 39.54 38.52 38.47 36.03 34.70 32.06 32.69 32.99 33.39 32.98 32.98 32.47 32.04 32.59 32.62 32.06 32.46 33.06 32.59 31.88 31.88 32.94 33.46 32.80 32.29 31.60 30.81 30.54 30.23 29.51 29.22 29.29 29.38 29.35
40.97 42.76 42.61 43.27 43.47 44.13 43.74 43.17 40.88 38.41 37.31 34.80 33.98 33.31 32.92 32.28 33.14 32.41 32.51 32.44 32.17 31.99 32.28 31.82 31.24 31.06 32.11 32.19 31.77 31.06 31.19 31.86 32.89 32.07 32.03 30.90 30.27 29.76 28.41 29.93 30.35 30.27 29.85 29.53
43.72 43.09 42.19 42.56 42.14 42.32 38.21 36.23 35.99 35.18 35.54 34.79 34.44 33.69 33.17 33.10 32.66 32.13 31.70 32.49 32.52 32.22 31.63 31.37 30.92 30.88 32.19 32.47 31.69 30.96 31.60 31.39 31.70 32.41 32.59 31.67 30.79 30.17 29.70 28.27 27.58 28.13 29.03 27.72
41.50 42.89 41.82 38.61 36.20 35.17 35.75 35.63 34.34 33.91 33.60 32.98 33.29 32.79 33.30 31.82 31.77 31.97 32.52 32.35 31.99 31.59 31.23 31.03 30.56 31.09 33.12 32.74 31.42 31.35 32.00 31.26 31.66 32.10 31.93 31.45 31.02 29.90 28.94 28.75 28.14 27.44 28.41 26.23
36.32 35.13 34.84 34.58 34.64 34.97 34.53 33.62 31.72 31.30 31.54 31.91 34.47 33.65 33.00 32.64 32.33 32.10 32.13 32.15 29.89 30.01 30.97 28.59 27.64 30.78 32.35 32.73 32.42 32.12 32.54 31.81 31.92 32.15 30.91 30.54 30.04 28.58 28.20 27.77 27.75 27.54 27.48 28.16
36.94 32.48 34.21 33.12 32.77 32.98 33.45 33.49 33.24 33.33 34.22 36.01 33.51 31.84 32.44 31.06 29.19 29.93 30.97 30.31 29.11 28.26 28.81 28.00 28.42 32.15 31.73 32.28 32.09 32.83 32.12 31.43 31.53 31.80 30.08 30.28 30.05 29.01 28.66 28.07 27.27 27.04 27.58 29.45
36.21 35.34 35.15 34.30 34.02 33.13 33.42 33.49 34.55 34.99 33.48 32.29 30.39 29.78 28.89 28.04 28.93 29.23 29.40 28.65 26.21 26.33 28.69 29.97 30.08 30.67 30.43 31.93 32.24 32.25 31.61 31.09 30.77 30.12 30.25 29.94 29.35 28.80 28.33 27.50 26.86 26.66 27.53 28.22
36.88 36.03 35.93 35.56 35.97 35.83 35.71 34.86 33.45 32.13 30.20 29.64 28.91 29.51 28.73 28.22 27.81 28.37 28.12 25.82 26.02 27.66 30.88 31.03 29.74 29.97 30.76 30.91 30.31 31.78 31.65 31.54 30.95 30.36 30.12 28.94 28.66 27.98 27.37 26.94 26.48 26.55 26.61 26.74
35.62 35.79 35.68 35.40 34.24 32.44 30.89 31.16 30.09 31.01 31.20 29.08 27.55 27.80 28.40 28.81 27.84 26.30 25.91 26.28 29.37 31.84 32.87 31.24 30.64 29.81 29.69 30.09 29.56 30.15 29.92 29.64 29.01 29.90 29.61 29.03 28.80 28.59 28.74 26.59 26.82 27.59 27.95 27.95
30.66 30.99 30.06 29.51 29.49 28.79 28.11 28.18 27.81 29.61 29.96 25.78 26.32 27.51 26.45 27.18 27.53 29.70 28.53 27.80 32.30 31.34 30.75 28.90 29.32 29.92 30.25 31.21 30.68 30.73 30.92 30.68 30.90 30.85 30.16 29.78 29.27 28.52 28.32 28.84 29.16 29.02 28.45 28.92
31.16 30.04 26.97 26.49 27.39 28.78 29.70 29.86 29.07 26.29 26.59 25.77 24.39 23.10 22.84 26.80 28.41 28.91 29.51 29.21 32.85 27.32 29.13 30.62 30.57 30.45 31.38 30.60 30.84 31.30 30.44 30.02 29.73 29.76 29.88 30.85 30.31 30.05 29.67 29.48 28.92 29.68 29.80 29.33
30.68 30.46 29.61 27.38 26.78 29.11 28.89 28.77 26.98 26.88 25.15 26.21 26.04 27.16 28.06 28.47 29.15 28.03 28.69 32.44 30.01 30.82 29.06 30.66 30.98 30.43 30.58 31.59 31.37 30.95 29.85 29.83 29.95 30.03 30.35 30.51 30.63 30.57 30.20 29.90 30.14 30.37 30.05 29.76
30.40 29.79 28.81 28.70 27.49 26.91 25.28 26.49 26.43 27.09 25.97 26.25 26.76 24.86 26.93 27.46 29.00 30.81 30.69 29.89 27.56 26.67 29.27 30.09 30.22 28.94 25.21 27.58 26.63 26.32 26.08 25.56 24.51 25.31 25.79 25.89 28.26 30.11 30.57 30.25 29.53 30.18 30.40 29.70
27.39 27.24 26.62 25.60 24.00 23.48 23.54 23.31 23.83 24.51 24.82 25.03 25.59 26.87 27.53 29.49 28.06 29.79 30.27 29.40 29.02 29.02 29.69 29.03 24.75 22.05 22.93 21.85 20.63 19.26 19.12 19.16 19.32 19.30 20.29 21.42 22.44 24.77 26.78 28.09 29.77 29.96 30.17 30.56
24.80 24.00 24.13 23.56 22.19 21.64 20.83 20.18 19.94 21.61 20.84 20.16 22.07 23.89 24.87 25.90 26.66 28.64 29.85 30.31 30.71 30.63 28.09 25.20 21.58 19.56 18.64 16.95 16.48 15.64 15.61 15.41 14.73 14.33 14.10 15.42 15.93 16.83 18.29 19.88 24.62 29.86 30.75 30.87
21.42 19.10 19.44 19.25 19.37 18.39 17.19 16.06 15.77 15.61 17.01 18.51 18.60 21.47 21.59 22.37 23.82 24.15 25.29 27.92 29.75 25.59 21.82 19.26 17.59 15.70 15.28 14.49 14.18 13.95 13.53 13.15 11.26 10.94 12.08 12.45 13.06 14.40 15.04 16.92 19.56 26.79 31.08 30.30

GFSNGP_sfc_wetblb_036.txt.gz
Wetbulb
42.33 41.95 41.93 42.18 42.64 43.42 41.90 42.72 38.93 41.58 41.02 43.79 45.84 47.54 49.46 51.65 51.86 50.95 49.72 49.46 50.06 50.01 49.63 48.31 47.31 47.42 47.04 46.54 46.18 45.24 44.03 43.77 43.84 44.72 44.11 43.41 42.90 42.31 42.05 41.85 41.72 41.81 40.21 39.68
39.71 41.06 40.74 39.63 42.69 42.90 43.61 43.47 42.93 43.46 42.61 48.10 48.55 48.52 49.28 49.65 49.90 49.38 49.17 49.24 49.26 49.62 49.01 47.89 47.40 46.75 45.76 45.17 44.08 44.10 43.29 42.65 43.23 42.94 42.13 42.11 41.66 41.08 41.19 41.38 41.33 40.82 40.30 39.47
36.10 37.51 37.82 35.91 41.16 42.91 43.22 44.93 44.39 40.98 45.48 47.36 46.11 46.54 47.94 49.16 49.56 49.28 49.43 49.14 49.01 48.70 47.89 47.33 47.02 45.48 44.30 43.59 43.60 42.83 42.30 42.03 42.25 41.48 41.03 40.82 40.55 40.32 40.23 40.26 40.70 39.16 38.69 39.08
36.88 33.87 31.76 40.74 43.30 43.36 43.86 45.04 46.16 45.35 46.15 46.60 47.10 48.72 49.22 50.78 50.47 49.56 49.58 49.42 49.37 48.67 47.22 47.26 44.95 44.22 43.83 42.89 42.20 41.79 41.01 40.86 40.77 40.52 39.86 40.07 39.79 39.48 39.71 39.78 39.51 37.98 37.35 37.90
36.79 34.36 38.20 40.57 40.42 39.92 39.88 41.13 45.88 45.11 46.12 46.27 46.78 47.31 48.53 50.32 51.04 50.79 50.58 50.54 50.20 48.91 46.00 44.36 43.31 43.10 42.31 41.43 41.13 39.94 39.62 39.66 40.11 40.11 39.51 39.52 38.90 38.85 38.85 38.76 38.66 37.58 37.82 37.29
35.04 35.54 33.78 39.85 42.44 45.63 45.15 38.56 45.10 46.14 45.83 45.74 46.59 43.50 45.88 50.37 50.03 50.34 50.94 50.63 47.80 44.48 43.31 41.44 42.54 41.92 40.96 40.08 39.32 38.51 38.94 39.64 40.14 39.87 39.21 38.70 38.53 38.19 38.48 38.45 37.16 36.30 36.51 36.75
36.13 36.62 38.88 42.90 43.08 45.87 36.31 39.19 46.64 47.00 47.52 47.01 45.65 47.93 48.68 50.44 49.98 50.68 49.74 47.10 43.58 40.66 39.81 41.46 41.09 40.77 39.58 39.06 38.11 39.03 39.77 39.74 39.20 39.23 38.76 38.74 38.49 38.57 37.89 37.21 36.56 35.99 34.73 35.19
35.33 35.00 33.11 43.79 44.56 40.86 45.78 48.24 47.08 48.08 48.65 48.28 49.26 47.36 47.28 48.54 47.80 46.37 44.26 41.16 41.09 40.10 39.54 39.93 40.18 39.48 38.16 37.35 39.19 39.56 39.31 38.49 38.26 38.58 37.87 37.15 37.60 37.88 36.97 36.33 34.84 33.21 33.53 33.08
41.07 42.16 44.71 46.23 47.61 48.94 48.63 47.79 48.29 48.49 49.14 48.78 48.19 47.01 46.16 45.74 44.51 42.27 41.10 39.99 41.73 41.31 38.52 39.05 38.74 38.68 36.67 38.42 38.83 38.33 37.44 37.38 37.87 37.58 37.18 37.25 37.05 36.01 35.40 35.33 33.65 32.38 31.01 31.02
40.41 44.27 45.08 46.45 47.97 48.74 48.93 48.23 48.81 49.34 49.42 49.56 48.45 48.18 44.87 42.65 40.97 40.34 39.12 39.09 37.81 38.58 37.69 36.71 37.28 36.88 38.01 37.93 37.78 36.94 36.29 36.44 37.11 36.99 36.57 37.15 36.05 34.71 34.28 33.32 31.87 30.25 29.82 29.37
42.01 45.24 45.96 46.53 46.89 47.92 48.56 49.78 49.16 49.74 48.88 48.72 48.83 46.75 42.87 40.91 39.84 38.54 35.74 36.10 38.23 37.33 37.15 36.56 36.50 36.59 37.48 37.03 37.18 35.74 35.65 35.91 36.18 36.71 36.27 36.03 35.61 34.35 33.33 33.78 32.71 31.12 30.67 30.23
41.58 43.92 44.05 45.72 48.22 48.74 47.87 48.27 48.88 48.20 45.38 45.83 46.41 43.01 41.94 38.12 36.43 35.77 35.67 37.56 37.06 36.52 35.30 35.28 35.37 36.01 36.40 36.59 35.84 34.92 34.35 35.01 36.03 35.86 35.21 34.53 34.27 33.20 31.76 30.52 30.50 30.38 30.20 30.39
44.55 47.38 47.49 47.95 48.02 47.95 46.46 45.27 45.14 44.40 43.23 41.37 40.66 37.98 36.68 36.45 36.39 35.23 35.97 35.42 34.84 34.60 34.88 34.75 34.83 35.22 35.74 35.59 34.99 34.13 33.97 33.35 33.47 32.38 32.46 32.74 32.86 32.24 30.52 32.03 31.21 30.91 30.96 30.93
46.35 47.13 45.69 44.07 42.07 42.43 41.60 41.11 40.44 39.53 38.53 37.07 36.22 36.60 35.81 35.94 35.66 35.27 34.71 35.12 35.48 34.85 34.66 35.02 34.75 34.39 35.72 35.76 35.41 33.98 34.16 31.83 33.41 33.02 32.87 32.83 33.16 33.10 32.35 30.53 30.02 31.05 31.07 30.19
41.63 44.85 42.95 41.58 40.98 39.81 39.56 37.05 34.13 33.70 33.71 33.76 34.61 35.02 35.50 34.92 34.98 34.50 35.08 34.68 34.54 34.61 34.75 34.53 34.18 34.93 36.90 36.54 34.86 34.80 34.71 34.88 34.82 33.58 32.99 32.22 32.52 32.83 32.34 30.79 29.57 29.69 31.27 30.11
40.07 41.16 39.58 37.78 36.11 35.27 34.68 34.57 33.42 34.04 35.23 35.44 36.73 36.95 37.24 35.99 35.01 35.00 35.34 35.57 32.67 33.06 34.84 34.46 33.28 34.62 36.68 36.96 36.44 36.19 35.92 32.59 32.45 33.61 33.12 32.87 31.40 31.01 31.16 31.07 30.32 29.25 29.04 29.22
37.16 34.36 34.53 34.14 34.69 35.41 35.76 36.13 36.70 37.10 37.58 37.89 37.86 36.55 35.18 34.19 32.99 33.25 34.43 34.71 34.21 32.84 33.89 33.39 32.80 36.66 36.57 36.72 36.25 36.34 35.86 35.43 32.73 33.46 32.26 31.58 31.10 31.41 31.64 31.55 30.47 30.11 31.42 32.94
38.99 38.29 38.22 37.34 36.35 35.77 36.15 36.94 37.45 37.42 36.63 34.77 33.16 32.76 32.29 32.28 32.09 32.94 33.95 34.21 32.66 32.47 33.01 34.12 35.04 35.71 35.53 36.67 36.35 35.72 34.91 34.26 33.67 32.63 33.19 33.42 31.11 31.10 32.20 31.61 30.87 30.48 31.62 31.56
38.67 37.93 37.98 37.83 38.35 37.59 36.39 35.61 34.85 34.20 33.26 33.19 32.46 32.84 32.75 32.47 32.72 32.74 32.90 31.66 30.96 31.81 35.46 37.78 33.33 32.32 34.65 34.76 32.50 33.09 33.90 33.21 31.76 30.92 31.49 32.05 32.13 30.87 30.65 31.65 31.50 32.04 31.49 31.29
36.77 37.05 36.57 35.74 34.94 34.16 33.33 33.89 34.38 34.36 34.65 33.27 32.26 32.28 32.72 32.84 32.84 32.11 32.29 31.25 33.03 34.91 36.00 35.78 35.01 34.95 34.80 34.68 30.82 32.17 32.94 32.13 30.69 31.10 31.47 31.63 31.67 31.39 31.90 31.03 31.55 31.89 31.75 31.75
34.43 34.50 33.02 32.86 32.64 33.20 32.55 32.45 32.48 32.15 32.50 30.97 30.37 30.26 29.55 30.85 31.56 31.44 31.98 33.18 36.03 36.78 35.63 33.16 34.44 35.15 36.17 34.63 33.47 34.35 33.37 32.46 32.35 31.81 30.99 31.15 31.12 31.50 31.93 31.75 31.75 31.57 31.57 31.75
34.90 32.90 32.16 31.94 32.70 32.78 32.79 31.74 30.68 29.75 28.65 28.66 28.73 28.97 28.85 30.25 30.84 31.21 32.10 31.21 33.63 31.93 32.76 33.46 34.10 33.93 34.75 32.01 33.58 33.46 32.88 31.84 32.11 32.32 31.60 31.65 31.39 31.37 31.57 31.93 31.73 31.75 31.93 31.93
34.18 33.43 32.20 30.95 30.65 31.09 30.72 28.51 27.93 28.05 26.62 27.11 27.59 27.49 27.55 28.75 29.88 28.34 26.96 31.74 31.62 30.94 31.48 31.86 32.00 31.40 31.29 32.11 32.47 32.11 31.57 30.08 29.32 29.56 29.13 28.96 29.25 30.05 30.54 30.80 31.69 32.11 31.93 32.11
32.48 30.43 29.35 28.93 28.46 27.31 25.91 26.39 26.60 26.99 26.46 26.46 26.44 26.21 26.18 27.10 28.46 29.19 30.12 29.83 29.81 30.87 31.81 32.18 31.47 30.79 29.94 31.57 30.66 29.76 28.30 26.94 26.08 25.42 24.87 23.78 25.07 24.88 25.41 26.74 28.04 30.44 31.03 31.74
28.56 28.43 27.27 26.57 26.25 25.85 24.90 24.31 24.88 25.25 24.28 24.29 24.30 25.19 25.42 26.85 25.43 27.00 28.54 28.67 27.45 28.71 31.10 30.65 29.27 25.74 28.11 27.33 26.14 24.70 24.41 24.05 21.82 21.25 20.54 20.89 20.87 20.93 21.73 22.05 22.12 23.78 24.98 28.53
26.81 26.36 26.09 24.29 23.81 23.61 22.88 22.17 21.48 22.61 21.43 21.50 22.53 23.56 23.66 24.14 24.70 25.25 25.95 25.37 25.85 24.59 24.61 24.19 21.33 22.69 22.37 21.17 21.26 20.46 20.85 20.12 19.13 18.51 18.10 18.28 18.31 18.74 18.68 18.43 19.55 20.80 22.79 25.35
23.66 22.36 23.73 23.65 22.61 21.35 20.10 19.02 19.04 18.54 19.45 19.85 18.54 20.33 21.31 22.19 22.34 22.28 21.16 21.07 20.75 20.36 20.55 19.63 18.28 16.38 16.81 16.92 16.64 17.12 17.22 17.24 14.75 14.29 15.50 15.38 15.33 15.27 15.25 15.64 17.19 18.53 20.40 21.58

GFSNGP_sfc_wetblb_039.txt.gz
Wetbulb
46.24 46.22 45.96 45.51 45.09 45.58 44.46 44.72 41.71 43.14 43.41 45.62 47.03 47.70 49.65 51.07 52.03 53.09 53.99 54.62 54.70 54.68 54.59 54.30 52.65 51.63 49.98 49.75 48.87 48.44 47.28 46.17 45.79 46.17 45.72 45.07 44.40 44.29 43.59 43.21 43.01 43.12 42.27 41.03
42.92 46.18 45.34 43.45 45.22 45.43 44.92 45.33 44.83 44.85 44.14 49.05 50.06 50.32 49.45 49.85 51.03 51.53 53.04 53.70 53.66 53.86 53.82 52.71 51.15 50.07 50.23 49.04 48.01 47.61 45.82 45.05 44.95 44.30 44.25 43.73 43.51 42.99 42.53 42.29 42.44 42.53 41.40 40.04
38.20 41.71 41.44 37.16 42.94 44.35 45.16 46.47 45.96 42.71 46.76 49.37 48.59 48.38 49.05 49.61 50.78 50.94 52.25 53.10 53.24 53.35 53.32 52.35 51.24 50.44 48.62 47.28 46.55 44.97 44.76 43.96 43.11 43.46 42.55 42.67 42.24 41.84 41.32 41.37 41.70 40.98 39.54 38.63
38.81 36.04 30.91 43.02 45.79 45.06 44.49 46.07 47.28 46.99 47.53 48.42 48.20 50.10 50.96 51.51 51.41 51.57 52.18 52.91 53.48 53.49 53.13 52.49 51.60 49.29 46.78 46.73 45.29 44.31 43.22 42.23 42.34 42.28 41.76 41.63 41.23 40.99 41.05 41.25 40.28 40.09 39.22 38.08
37.70 36.66 40.84 42.51 43.63 42.66 41.82 42.27 46.86 45.76 46.82 47.87 49.36 49.63 49.82 51.99 51.95 52.15 53.15 53.84 53.97 54.00 52.99 51.35 48.49 45.97 45.52 43.92 43.45 42.27 41.36 41.16 41.22 41.47 40.72 40.52 40.17 40.40 40.81 39.96 39.65 39.39 39.02 37.77
37.88 34.82 32.61 42.52 45.00 47.38 46.66 39.35 46.89 47.16 46.99 46.78 48.39 44.46 47.96 51.08 51.60 52.05 53.31 53.78 53.27 53.07 51.32 48.33 46.26 44.97 44.04 43.20 42.53 41.02 40.42 40.21 41.05 40.97 40.17 39.68 39.92 39.90 40.38 39.75 38.68 38.43 37.10 38.08
39.01 38.30 41.56 46.09 45.96 47.71 38.01 41.11 48.31 48.69 48.54 48.57 47.08 49.53 51.68 52.05 51.80 52.93 53.21 53.12 52.79 50.34 47.00 46.29 45.58 44.37 42.77 41.85 40.21 40.19 40.87 40.74 40.36 40.23 39.80 39.98 39.64 39.73 39.33 38.90 38.20 36.84 35.75 36.26
41.17 35.97 33.40 46.77 46.53 41.71 47.70 49.22 49.52 49.71 49.76 50.08 51.12 51.31 50.39 50.69 51.19 51.62 51.40 50.01 47.48 45.69 43.99 43.03 43.63 41.78 39.94 39.67 40.38 40.57 40.07 39.43 39.30 39.19 39.03 38.92 38.68 38.58 38.77 38.55 36.57 35.40 35.50 33.95
43.66 43.79 47.69 48.38 47.61 49.63 50.17 48.97 49.32 49.68 50.58 50.73 50.13 50.20 50.53 49.82 49.89 49.16 48.23 45.33 44.67 42.89 41.98 40.21 39.85 39.68 37.56 38.92 39.84 39.52 38.66 37.94 38.19 38.99 39.26 39.10 37.81 37.73 37.25 36.70 35.36 34.08 33.03 32.83
42.89 45.82 46.51 47.88 49.27 49.87 50.63 50.14 50.96 51.22 50.65 50.99 50.01 50.78 50.44 48.47 47.13 45.02 44.64 43.13 42.50 40.08 37.95 37.73 39.25 38.50 38.59 38.57 38.55 37.49 36.51 37.01 37.79 37.84 38.05 38.32 37.94 38.00 36.46 34.56 34.05 33.01 32.07 31.04
44.42 46.75 47.70 48.32 49.36 50.30 50.21 51.06 51.12 51.79 51.53 49.71 50.32 50.33 48.87 45.63 44.01 42.91 40.43 39.14 38.19 37.61 37.21 37.47 38.17 37.46 38.30 37.79 37.51 36.52 36.54 36.75 36.63 37.18 37.41 37.37 37.67 37.50 36.03 35.81 34.50 33.30 32.57 32.47
43.96 46.51 46.54 47.69 49.88 49.79 49.48 48.66 48.95 49.19 48.22 47.51 48.38 46.50 45.30 41.81 39.86 38.09 37.06 37.09 36.83 37.12 37.30 37.17 37.03 36.86 37.40 37.70 37.31 36.36 35.33 35.82 36.55 36.38 36.69 36.67 35.71 34.62 34.24 32.10 32.02 31.76 31.54 31.44
46.46 48.78 48.94 48.76 46.68 46.76 44.71 44.42 44.82 44.16 43.67 41.53 41.81 40.67 38.84 36.45 36.29 35.04 35.72 35.89 36.14 36.65 37.08 36.67 35.89 35.75 37.31 37.46 36.48 35.52 34.74 34.99 35.79 33.91 33.75 32.86 33.11 33.31 32.16 34.84 32.06 31.73 31.31 31.31
47.15 48.34 45.95 44.52 42.65 44.34 42.85 40.79 40.03 38.70 38.05 37.24 36.56 36.57 35.89 34.99 35.21 35.22 36.05 37.25 37.78 37.10 36.37 36.26 36.48 36.63 38.09 38.30 37.26 36.14 35.98 32.78 35.31 35.88 35.52 34.16 33.59 33.71 33.10 33.47 32.71 33.76 32.28 31.16
44.74 46.02 44.52 44.04 42.79 40.40 40.59 39.61 36.77 35.46 35.90 35.67 37.03 36.91 37.76 36.90 36.86 37.38 38.22 37.52 36.51 36.29 36.61 37.06 36.69 36.96 38.74 38.99 37.10 36.33 36.24 36.89 37.50 37.57 36.31 34.50 34.16 33.33 32.18 32.57 32.31 32.78 32.22 31.31
41.88 41.52 40.30 38.85 39.02 38.84 37.98 38.05 36.72 36.16 37.42 38.44 38.63 38.51 38.93 38.59 37.46 37.21 37.58 37.71 35.03 34.74 36.49 34.21 34.38 36.52 38.50 38.21 38.00 38.47 38.39 34.22 33.99 36.45 35.60 34.32 33.74 33.04 32.58 32.28 32.28 32.31 32.23 31.37
37.97 36.81 36.83 36.99 37.25 38.05 38.35 38.71 38.74 38.87 39.07 38.57 36.70 35.87 36.23 35.32 35.06 35.58 36.29 36.64 35.93 33.66 35.09 34.74 34.85 37.91 38.27 38.72 38.15 37.94 38.51 37.84 33.97 35.51 35.70 35.13 34.31 33.27 32.30 32.34 32.54 32.50 32.80 33.90
41.95 40.98 40.40 39.40 37.87 37.36 37.63 37.82 37.81 36.72 35.71 35.32 33.42 32.51 32.03 32.03 32.92 34.33 35.47 36.30 33.48 33.48 35.42 36.57 37.69 38.16 37.93 38.91 38.60 38.47 37.70 37.29 36.37 35.04 35.36 34.69 33.63 33.40 34.47 32.65 32.70 32.23 32.86 33.46
40.74 39.61 39.39 38.71 38.63 37.57 36.47 35.93 35.31 35.69 33.95 33.33 31.88 31.30 32.71 32.93 34.29 34.14 34.22 32.71 32.03 33.12 36.70 38.52 33.83 34.86 37.18 36.64 35.13 37.73 35.63 34.38 33.42 33.81 33.46 32.02 32.17 32.61 31.91 33.12 32.79 32.59 32.56 32.55
37.82 37.92 37.28 36.04 35.87 35.78 34.51 34.72 36.51 35.63 35.70 32.45 32.21 31.85 31.49 32.37 31.82 32.00 32.57 31.44 33.86 35.92 35.88 34.39 32.53 33.93 35.07 35.63 33.92 36.58 34.89 33.43 32.85 33.31 32.92 32.71 32.80 32.01 32.54 32.18 32.44 32.55 32.39 32.50
35.85 35.73 34.63 34.78 34.13 33.98 33.37 32.98 32.41 31.64 31.75 30.48 29.28 28.52 28.72 30.25 32.06 31.23 30.40 29.70 32.24 33.82 32.54 31.30 32.14 33.12 33.83 34.14 34.21 34.15 34.20 33.12 32.75 33.12 32.39 32.03 31.83 32.12 32.26 32.01 31.67 31.85 32.03 32.39
36.06 33.86 33.48 35.35 34.31 33.75 32.70 31.38 30.53 29.02 28.54 28.12 28.76 28.16 27.12 27.71 28.65 29.81 31.50 30.09 31.91 29.69 31.16 32.06 33.14 32.00 32.27 31.11 33.02 32.42 32.48 33.48 32.93 33.12 31.98 31.50 30.86 29.98 29.99 30.26 30.57 31.43 32.00 32.39
35.91 34.52 32.49 31.25 32.55 31.89 30.70 28.90 29.09 28.44 26.48 26.64 26.43 25.43 25.22 26.70 27.76 26.44 26.21 28.54 28.95 29.13 29.01 29.89 29.94 29.59 29.97 31.56 32.08 32.39 31.67 32.39 30.94 30.14 28.29 27.50 26.68 26.78 26.49 26.14 26.78 28.01 29.42 30.50
33.93 33.06 31.77 30.83 29.88 28.84 27.50 27.87 27.73 28.16 27.59 27.14 27.18 26.18 25.57 25.10 26.33 27.63 27.81 27.05 26.66 26.20 27.62 27.88 25.67 24.01 26.35 29.34 30.00 29.13 28.67 28.55 27.75 26.50 25.23 23.97 24.41 23.87 23.43 23.21 22.73 23.01 23.94 25.19
31.40 30.39 29.17 28.54 28.53 28.38 27.23 26.43 26.57 26.76 25.73 25.32 25.59 25.74 25.26 25.91 24.58 25.80 26.18 25.79 23.36 23.50 23.82 22.97 21.36 20.01 23.62 23.76 23.89 23.03 23.83 22.84 22.33 22.50 21.34 21.55 21.30 20.67 21.27 20.88 20.28 20.63 22.10 22.92
30.20 29.65 28.79 26.74 26.30 26.06 25.38 24.46 23.66 24.68 23.21 23.32 23.57 23.82 24.35 24.87 24.49 23.74 22.93 22.13 21.59 20.82 20.72 21.01 20.16 18.90 18.75 18.74 18.99 18.78 19.04 19.43 17.40 16.84 17.84 18.26 17.95 17.58 17.30 17.18 17.25 18.33 19.46 20.77
26.36 25.70 27.52 27.26 25.73 24.04 22.90 21.76 21.87 20.89 21.96 21.53 19.48 22.28 23.06 22.84 22.22 21.65 20.52 20.62 19.91 19.49 19.22 19.14 18.78 16.83 15.53 15.69 15.76 15.36 15.12 15.18 14.33 13.49 14.13 13.82 14.16 13.82 13.46 13.68 14.68 15.79 16.80 18.64

GFSNGP_sfc_wetblb_042.txt.gz
Wetbulb
44.38 45.57 45.86 45.21 45.14 45.45 43.76 44.58 40.27 42.92 42.64 45.54 47.84 48.75 49.54 51.92 51.72 51.64 52.35 54.46 55.01 55.78 55.45 55.52 54.77 54.00 52.15 50.82 49.02 49.29 47.74 46.53 45.87 46.29 45.48 44.70 43.56 42.83 43.09 42.20 41.49 41.67 41.18 40.69
43.37 46.13 45.50 42.95 44.40 44.66 44.72 44.69 44.11 44.35 43.97 49.36 49.84 50.29 49.54 49.78 49.43 49.64 51.17 53.19 54.69 55.50 55.67 54.86 54.09 52.01 51.44 49.24 48.80 48.19 46.44 45.52 45.85 44.66 44.43 42.93 42.21 42.54 42.16 41.51 41.00 40.87 40.19 39.39
39.47 42.58 40.90 35.36 42.25 43.59 44.21 45.91 45.57 41.57 46.53 49.34 48.21 48.46 49.48 50.20 50.02 50.39 51.09 51.91 53.91 54.28 54.30 54.33 52.96 51.58 49.46 49.35 48.66 46.17 44.82 44.76 44.03 43.79 42.94 42.14 42.15 41.24 40.29 39.84 40.12 39.21 38.79 38.52
39.57 35.82 31.32 42.36 46.64 44.98 43.28 44.18 45.45 45.80 46.05 46.82 47.86 49.19 50.05 51.05 50.63 51.07 52.41 52.16 53.64 54.00 54.07 53.96 52.44 51.06 49.70 47.70 45.58 44.29 44.03 43.06 43.10 42.56 41.43 41.31 40.83 40.25 40.06 39.84 38.76 37.79 37.40 37.47
36.84 36.20 40.39 42.62 44.19 43.34 42.34 42.02 45.82 44.99 45.84 46.78 48.24 48.90 49.39 51.67 51.76 51.14 51.69 52.65 53.27 53.97 53.65 53.08 51.30 48.92 46.64 45.17 44.03 42.33 41.91 41.75 41.17 40.98 40.46 39.96 39.32 39.13 39.22 38.64 37.58 36.81 37.34 36.48
38.78 35.57 30.95 42.96 45.11 47.39 46.42 38.82 46.86 46.78 46.56 46.86 47.45 43.16 46.57 51.29 52.04 51.53 52.30 52.62 52.63 53.33 52.93 50.29 47.20 46.10 44.52 41.90 41.90 40.85 40.39 40.11 40.77 40.47 39.63 38.75 38.44 38.38 38.74 38.19 37.48 36.65 35.45 35.68
37.97 37.79 40.99 46.21 46.67 47.56 38.24 40.63 48.09 48.23 48.10 48.10 46.59 49.07 50.86 51.61 51.38 52.30 52.33 52.30 52.74 50.53 47.94 46.07 45.54 44.13 41.87 40.53 39.62 40.18 40.62 40.81 40.18 39.85 39.17 38.88 38.05 37.67 36.96 36.20 35.36 34.10 32.70 33.16
41.87 35.17 32.93 47.33 45.94 41.51 47.08 49.76 48.95 49.06 49.40 49.41 50.53 50.78 51.42 50.68 50.43 51.01 50.53 48.08 47.47 44.50 41.98 41.57 41.79 40.77 38.74 38.12 39.88 40.20 39.59 38.99 38.70 38.32 38.09 38.00 37.12 36.53 36.57 35.38 33.66 32.88 31.67 31.06
43.06 42.41 48.53 49.13 47.90 49.91 50.55 49.02 49.43 49.58 49.83 49.86 49.35 49.17 50.23 50.07 49.79 48.81 45.93 45.00 44.04 41.28 39.70 39.27 39.13 38.45 36.44 37.82 39.35 39.10 37.83 36.80 36.87 37.60 38.02 37.87 36.17 35.26 34.54 34.08 31.06 30.81 30.58 29.61
44.74 46.21 47.12 48.27 49.55 50.41 50.40 49.60 50.14 50.82 50.71 50.44 48.91 50.01 49.74 48.04 46.09 42.25 40.85 40.52 39.76 38.77 37.87 37.22 37.84 38.20 38.73 38.24 37.76 36.90 35.90 36.23 36.55 36.44 36.14 36.36 36.11 35.43 33.88 32.21 30.71 30.82 30.13 30.42
44.76 46.95 47.71 48.93 49.42 49.21 49.70 50.34 49.55 50.42 48.33 47.08 48.61 47.53 45.59 42.79 40.20 38.69 38.06 37.98 37.94 36.86 36.30 36.75 38.20 37.91 38.19 37.98 37.71 35.85 35.79 36.12 35.81 35.74 35.39 35.77 36.37 35.18 32.04 32.54 32.19 30.52 30.49 31.47
44.25 46.95 47.14 45.66 46.75 47.87 46.12 45.35 45.93 46.08 43.28 42.78 42.56 40.01 38.84 37.06 37.00 36.76 36.10 36.72 36.05 36.32 36.63 37.32 37.86 37.37 37.78 38.00 37.02 35.76 34.73 34.61 33.92 33.98 33.58 33.95 33.41 32.57 34.12 32.35 32.91 32.54 32.44 30.44
46.91 48.76 48.55 46.03 45.29 44.51 42.43 42.52 42.10 41.69 40.62 38.20 38.47 37.44 36.20 34.64 34.91 34.69 35.68 36.30 36.27 37.01 37.82 37.44 36.46 35.98 37.16 37.52 36.20 34.31 33.22 32.99 33.12 32.09 32.38 31.52 31.25 31.23 30.20 32.92 33.84 33.13 32.49 32.35
47.64 47.84 43.50 45.37 41.36 42.19 41.08 39.56 39.56 39.22 38.86 38.10 37.52 37.46 36.61 36.02 36.03 36.30 36.41 37.60 37.89 37.19 36.73 36.49 36.38 36.28 37.96 38.12 36.11 34.00 33.99 32.65 33.03 33.27 33.37 34.15 33.20 32.22 31.72 29.95 29.77 29.85 32.38 31.79
44.84 45.72 43.82 42.83 42.02 40.96 40.87 39.33 37.39 36.57 36.98 37.32 38.54 37.79 38.03 37.21 36.95 37.03 37.63 37.34 36.89 36.25 36.39 36.72 35.47 35.29 37.91 37.66 35.89 34.84 34.55 34.41 34.32 34.51 33.98 32.77 32.55 31.84 31.04 31.32 30.88 29.76 30.35 30.10
42.40 42.30 41.68 40.25 39.21 39.03 38.80 38.03 36.58 36.53 37.87 37.92 37.41 36.32 36.75 36.76 35.98 35.97 36.71 36.10 33.57 33.08 34.08 30.88 31.60 33.96 36.30 37.38 36.76 36.05 35.90 33.87 32.62 34.17 33.69 32.67 32.64 32.67 32.20 31.09 30.74 30.07 29.84 30.19
38.33 37.12 37.97 37.22 37.45 37.59 37.44 38.22 37.14 36.65 36.20 34.71 34.17 33.28 33.83 33.34 33.65 33.89 34.89 34.80 32.80 31.81 32.35 32.98 33.26 37.12 36.50 37.87 37.01 36.14 35.86 35.60 33.76 33.79 33.31 33.24 33.33 32.46 32.66 32.02 31.40 30.42 29.96 31.04
41.69 40.83 39.94 38.73 37.30 37.18 37.00 36.95 35.84 35.07 33.50 33.10 31.03 31.17 30.21 29.73 31.76 32.34 32.00 32.39 31.70 31.54 33.20 34.92 31.99 32.94 34.34 36.21 35.55 34.40 34.09 34.08 33.76 33.11 32.95 32.41 32.71 32.59 31.16 29.91 28.99 29.20 31.23 30.11
40.29 39.07 39.13 38.55 38.26 36.93 35.69 34.89 34.69 34.13 31.57 30.91 30.24 29.82 30.32 30.24 29.65 30.30 31.15 28.34 28.37 30.31 32.16 33.04 30.66 30.94 31.05 31.57 31.54 31.95 31.76 31.92 32.38 32.50 32.23 32.01 31.66 30.64 30.32 30.38 29.36 30.14 30.87 29.97
38.25 37.46 36.40 35.62 35.68 34.99 33.26 33.66 34.15 33.58 31.86 29.18 26.19 26.28 26.74 25.64 26.55 27.13 27.63 28.49 30.54 28.72 28.84 29.43 29.18 29.20 29.71 30.87 30.09 29.98 29.53 29.44 29.84 29.83 31.58 31.38 31.39 30.47 30.28 28.63 28.80 29.38 30.24 31.32
35.70 35.12 33.90 33.19 32.37 32.01 30.43 30.18 28.57 28.68 28.84 25.23 25.83 24.53 23.51 24.88 26.47 24.91 26.63 26.44 28.60 27.27 27.77 26.93 26.99 27.76 27.38 26.26 26.59 28.55 28.96 28.94 29.31 29.16 30.54 31.56 30.91 28.18 28.98 28.61 28.86 29.05 29.97 30.38
34.35 33.13 32.53 32.69 32.58 31.33 29.93 29.62 28.71 25.93 25.79 23.30 21.52 19.93 20.87 24.28 24.11 25.45 24.54 25.36 26.53 24.89 24.91 25.57 26.66 21.64 20.98 20.60 26.30 27.57 28.32 29.22 29.77 30.11 30.04 30.13 27.79 26.37 25.32 25.70 24.49 24.05 24.79 25.12
34.18 32.86 31.80 30.75 30.24 30.17 28.58 27.73 26.15 25.69 23.16 21.91 22.26 23.06 23.65 24.26 25.56 23.01 22.11 25.37 25.49 22.79 23.44 23.90 21.05 17.35 16.84 22.69 23.03 23.11 23.53 24.81 23.53 24.19 24.71 24.40 24.36 23.66 22.93 22.74 22.12 21.59 21.08 21.02
34.02 32.99 31.10 30.72 29.93 28.89 27.10 26.73 27.10 27.65 23.52 24.51 23.05 21.53 23.46 22.88 23.45 25.42 25.31 22.96 21.34 19.93 21.03 22.14 18.98 16.54 16.65 19.19 19.05 18.58 19.15 19.32 17.98 19.02 19.39 20.57 20.87 20.26 20.48 19.81 18.46 18.99 19.07 19.68
30.77 30.01 29.49 29.43 28.60 27.12 26.39 25.36 26.14 25.82 24.53 24.31 24.57 24.22 23.23 24.90 22.68 22.73 22.98 22.00 20.61 20.56 20.45 20.21 18.97 15.51 16.30 16.45 16.23 15.42 15.53 16.35 14.86 14.41 14.79 15.52 15.70 16.27 15.69 14.88 14.44 14.46 15.74 15.82
31.05 29.51 27.35 26.39 25.39 25.03 24.31 23.67 22.61 23.39 21.96 22.38 22.36 21.96 23.51 23.84 23.01 21.95 21.77 20.18 20.31 19.12 18.90 18.88 18.22 16.86 15.42 14.54 14.22 13.41 12.96 12.82 12.19 11.59 12.05 11.87 12.24 12.40 11.70 11.53 11.29 12.47 12.44 12.75
26.04 27.04 27.52 26.40 24.66 23.31 22.13 21.84 21.10 19.41 21.13 20.49 18.65 20.07 22.24 22.24 21.09 19.53 18.05 19.02 18.67 18.13 17.17 16.82 16.51 15.53 14.43 13.55 12.86 12.26 12.08 11.01 10.45 10.46 9.76 8.76 9.70 8.66 9.36 9.48 10.35 10.82 10.88 12.52

GFSNGP_sfc_wetblb_045.txt.gz
Wetbulb
40.90 43.07 43.31 42.26 41.82 42.34 41.58 40.51 34.37 37.73 39.48 42.41 42.61 42.72 43.37 45.24 46.21 46.73 48.65 50.95 50.93 51.18 50.92 51.51 51.78 51.54 50.78 48.57 47.39 47.33 46.71 46.19 45.53 45.67 43.76 42.50 41.82 41.15 40.93 39.77 40.61 39.99 39.57 39.39
37.49 43.43 41.89 38.13 40.72 41.00 40.76 41.13 39.94 39.61 39.15 44.15 44.06 44.41 44.46 44.94 45.51 45.76 46.41 48.46 50.56 51.61 52.10 51.75 51.34 49.12 48.82 47.02 46.76 47.39 46.23 44.73 43.82 43.18 42.28 41.93 40.93 40.72 40.34 39.96 39.40 39.11 38.62 37.97
31.74 37.27 36.64 29.23 37.50 39.56 40.81 41.46 40.36 35.17 39.57 43.13 42.63 44.01 43.88 44.12 45.76 46.02 46.62 47.63 50.01 50.30 51.14 50.76 49.97 49.13 46.61 46.69 47.29 45.64 43.45 42.95 42.62 42.69 41.75 40.68 40.32 39.70 38.66 37.80 37.56 37.51 36.88 37.15
29.51 29.57 21.48 38.07 43.17 42.25 40.20 40.72 40.83 40.96 40.98 42.55 42.76 44.12 44.98 45.26 45.01 45.52 47.06 47.68 48.58 49.26 49.21 47.80 48.06 47.12 46.77 45.16 43.55 42.79 41.41 41.01 40.22 40.37 40.16 39.67 38.89 38.63 37.66 37.93 37.43 36.34 35.80 35.89
27.40 27.33 34.87 39.02 41.21 40.57 38.44 37.28 42.13 40.92 42.00 42.87 43.59 43.70 43.97 46.92 46.97 46.02 46.39 47.12 47.81 48.03 46.61 45.29 44.60 44.07 43.59 42.55 41.56 40.89 39.97 39.54 39.61 39.43 38.49 38.49 37.64 37.00 37.38 36.82 36.38 35.49 35.63 34.75
29.58 25.53 21.15 36.51 41.92 44.87 42.99 31.77 43.32 43.35 42.43 43.35 43.19 35.03 40.39 46.13 47.42 47.01 47.03 46.04 45.05 43.40 42.64 41.57 40.71 40.64 40.08 39.23 38.44 37.93 38.60 38.83 39.47 39.30 38.40 37.33 36.97 36.46 36.67 36.17 35.95 35.08 34.03 33.94
25.33 24.47 32.03 43.34 44.20 45.13 30.28 32.93 43.45 44.06 43.59 43.07 41.13 43.06 45.39 46.96 46.98 45.19 42.64 39.85 39.63 38.77 38.00 38.22 39.18 39.04 37.76 38.04 37.14 38.58 39.02 39.18 39.01 38.78 37.92 37.34 36.09 35.66 35.15 34.35 33.44 32.21 31.83 31.61
31.14 30.05 27.58 44.31 42.87 36.41 41.10 43.24 44.05 43.89 43.85 43.62 44.45 45.56 46.50 46.16 42.89 42.00 38.45 38.00 37.66 36.20 35.81 36.75 37.37 37.14 36.32 36.02 38.08 38.51 38.61 38.28 38.21 37.57 36.69 36.93 35.26 34.93 34.59 33.45 31.30 30.88 27.01 28.59
36.08 34.62 43.45 44.05 43.90 45.68 45.60 44.05 44.35 44.51 45.97 46.41 45.51 45.72 44.15 38.82 38.32 37.81 37.36 36.94 37.36 36.36 35.85 36.69 37.13 37.35 35.37 36.64 38.32 38.21 37.00 35.97 35.68 35.99 36.18 36.14 33.47 32.69 31.72 31.56 28.97 29.26 28.86 26.17
37.59 42.07 42.68 45.43 46.63 47.10 46.92 45.57 45.41 44.50 43.71 44.97 43.51 40.90 38.29 37.56 36.95 36.43 36.17 35.78 36.38 36.55 36.09 35.73 36.98 37.62 36.80 36.79 36.48 34.96 33.79 33.99 34.01 33.95 33.80 33.52 33.88 32.85 30.79 26.96 25.53 28.02 27.27 27.21
38.96 43.30 44.06 43.77 44.74 44.97 44.52 44.97 41.69 40.75 40.31 39.62 38.75 37.78 36.89 35.95 35.90 36.13 35.99 36.14 36.07 35.50 34.79 34.98 36.16 36.33 36.23 35.59 35.45 33.71 33.34 33.46 32.78 32.75 32.06 32.25 32.91 31.47 28.92 28.49 27.67 26.56 26.64 27.05
34.06 42.73 41.70 40.19 41.77 42.79 40.79 40.50 41.18 39.28 37.86 37.89 37.36 35.77 36.21 35.68 36.09 35.45 34.88 35.04 34.50 34.66 34.64 34.92 35.29 34.06 34.22 34.72 33.97 32.60 31.66 30.94 28.45 28.75 29.00 30.32 29.96 29.39 32.17 31.46 32.71 33.12 32.83 28.55
43.03 43.87 41.56 40.50 40.00 40.52 38.87 38.74 38.71 37.69 37.30 35.90 35.89 34.75 34.26 32.42 33.07 33.55 34.04 34.04 34.17 34.26 34.20 33.08 32.64 32.64 33.75 34.12 32.88 31.26 29.62 29.71 29.20 29.52 28.74 28.96 28.16 28.51 28.72 30.06 33.30 33.31 33.29 33.33
45.07 42.51 39.15 40.19 36.99 38.83 38.21 37.86 37.87 36.83 36.32 35.12 34.67 34.75 33.44 32.76 33.81 33.89 34.13 34.07 33.76 33.55 32.95 32.50 32.23 31.95 33.52 34.07 32.74 30.27 29.75 30.21 29.91 29.80 29.48 30.00 29.73 30.28 30.36 28.64 27.78 27.64 29.76 31.84
40.99 42.24 39.95 39.87 38.62 37.60 37.71 36.67 35.20 34.35 34.69 34.47 35.01 34.73 34.66 32.85 32.24 32.10 33.23 33.49 32.83 32.35 32.40 32.66 31.57 31.30 33.43 33.05 32.45 31.06 30.34 29.19 30.28 30.70 30.60 30.87 31.84 31.97 31.59 29.90 27.25 28.07 28.92 26.90
39.96 39.55 38.65 37.22 37.12 36.35 35.99 35.02 33.87 33.31 34.22 33.55 32.37 31.88 32.50 32.65 32.55 32.84 33.39 32.07 29.00 28.27 29.60 27.69 27.76 31.21 33.06 34.76 34.27 34.20 33.99 32.37 32.35 32.79 31.24 31.48 31.08 30.60 30.91 30.81 30.79 30.70 29.44 27.37
36.03 34.95 36.26 36.03 36.39 36.25 35.77 35.92 34.83 33.88 32.66 30.36 28.51 29.42 30.03 29.71 30.01 29.59 29.09 29.33 29.07 27.90 29.06 30.81 29.60 31.52 31.08 32.05 31.05 30.08 29.82 29.99 28.25 29.83 29.74 30.54 30.10 31.02 30.96 31.21 30.89 29.81 27.30 26.20
40.08 39.13 38.57 36.74 35.98 34.69 33.79 33.50 31.96 30.55 29.25 28.67 29.11 28.83 27.87 27.02 25.69 26.65 26.66 26.30 22.60 23.21 27.35 27.99 27.02 27.47 27.69 28.84 28.18 27.64 27.53 27.31 27.07 26.39 27.55 27.88 27.98 30.49 31.39 28.28 24.62 23.47 24.48 25.63
39.11 37.92 37.98 37.32 35.89 34.08 33.27 31.92 29.88 28.76 27.10 28.35 24.01 23.88 24.30 21.32 25.43 26.80 25.34 19.87 21.16 22.00 24.52 25.83 25.41 25.41 25.16 24.79 22.81 21.87 22.32 23.21 24.31 25.10 26.02 26.84 27.38 28.64 30.33 28.23 26.76 23.92 22.18 24.48
35.09 34.92 34.10 33.31 32.86 31.77 30.51 30.97 28.84 27.15 27.38 23.99 18.92 15.31 18.85 16.38 15.10 15.57 18.92 21.01 23.56 23.29 24.24 24.12 24.33 21.03 20.13 20.18 19.11 20.83 22.51 24.10 24.22 26.02 27.28 27.04 27.67 26.60 28.84 28.32 25.55 25.55 26.21 26.25
32.76 32.06 30.42 29.78 29.19 28.40 26.49 25.55 25.57 25.34 25.19 16.22 16.84 12.36 11.64 15.92 16.49 13.09 19.32 21.18 23.26 21.17 21.83 20.94 20.22 17.52 17.75 16.87 20.39 20.62 19.87 20.28 21.00 21.12 22.25 22.46 23.48 23.58 24.21 23.31 22.23 17.31 17.83 18.16
33.11 31.26 30.11 28.87 27.14 26.65 27.19 26.51 25.29 20.99 18.31 13.05 8.63 8.67 10.02 19.94 16.11 18.61 14.10 20.36 22.39 14.15 18.41 21.10 18.70 12.32 15.26 14.88 17.84 16.49 16.13 16.94 15.10 16.25 16.54 17.92 19.44 19.51 20.53 19.99 18.02 16.86 17.07 15.51
31.51 30.78 30.11 27.97 25.90 25.37 25.24 24.92 18.32 17.59 13.90 12.00 10.92 13.18 16.03 19.76 20.23 15.69 17.74 21.43 20.42 16.11 18.93 19.06 10.73 9.42 9.48 13.48 13.50 12.88 11.90 13.20 10.63 11.66 12.69 14.03 14.59 15.56 15.01 13.74 14.12 13.92 14.43 14.56
30.71 29.35 27.87 27.86 26.36 25.07 22.62 23.70 24.67 22.89 14.56 18.58 12.92 10.35 17.47 12.17 9.85 20.06 20.05 14.85 10.06 8.88 10.03 14.36 12.35 9.73 5.02 4.85 9.12 9.99 9.41 9.98 9.28 8.56 10.41 10.39 11.14 11.68 11.11 11.36 10.82 11.78 11.89 11.53
28.49 28.32 27.59 25.50 24.04 22.49 22.47 23.19 23.02 22.06 21.20 21.98 20.23 20.14 19.26 19.87 11.37 13.49 10.26 10.96 12.99 10.95 8.27 9.81 11.44 10.68 3.20 -0.43 0.49 1.90 2.82 4.27 6.48 6.79 7.46 7.27 7.91 7.52 8.26 8.98 9.03 9.77 9.74 9.80
26.42 24.21 23.43 23.25 22.26 21.07 20.93 21.31 19.44 18.71 17.81 13.53 13.56 7.41 11.38 14.66 14.64 12.70 9.65 9.09 11.33 10.96 7.91 3.65 4.20 6.47 5.38 -0.03 -0.77 -0.90 3.84 5.36 4.24 6.68 3.37 3.52 5.13 4.51 4.99 6.06 7.16 8.08 8.29 8.84
24.27 23.58 22.51 20.79 20.89 20.54 19.40 18.42 14.29 12.87 12.13 5.94 6.33 7.86 12.89 12.90 6.36 9.83 4.64 2.02 2.71 7.82 2.57 2.82 3.28 1.22 3.90 4.26 -1.33 1.60 -1.46 -1.57 -0.59 4.43 -4.89 -1.59 1.24 0.91 2.69 3.91 5.30 6.17 6.81 6.89

GFSNGP_sfc_wetblb_048.txt.gz
Wetbulb
39.57 41.00 41.25 40.02 39.71 39.62 37.87 37.99 32.77 36.29 36.92 40.93 41.32 41.23 40.87 42.65 43.94 46.16 48.88 49.91 50.01 49.33 49.39 49.86 51.11 50.62 49.23 47.96 47.33 47.40 47.00 46.65 46.65 46.39 43.72 42.63 41.06 39.81 39.05 39.35 38.33 38.16 38.97 38.54
36.39 40.44 39.84 37.09 38.16 37.86 38.85 38.91 38.42 38.03 36.57 40.25 41.39 42.12 42.37 42.86 44.15 44.34 45.46 47.45 48.66 49.78 50.26 50.71 50.60 48.56 47.77 46.76 46.72 47.12 46.51 45.52 44.78 42.68 42.25 41.42 40.34 39.09 39.73 38.97 38.23 38.80 38.43 38.12
30.86 34.66 35.03 29.39 36.38 38.07 38.47 38.60 39.30 33.68 38.01 40.08 40.64 41.38 41.15 42.21 43.61 43.98 44.88 47.00 49.22 49.49 50.18 50.22 49.44 48.07 46.19 45.91 46.29 43.25 43.12 42.46 42.60 42.03 40.77 40.22 39.61 38.94 37.86 37.75 37.41 37.36 36.50 36.28
27.84 28.20 21.90 37.44 42.06 41.06 38.13 38.35 38.68 39.09 39.14 40.88 41.63 41.76 42.52 42.83 42.58 43.52 44.74 45.76 46.78 47.44 46.99 45.41 45.20 44.42 43.61 42.90 41.71 41.16 39.47 39.55 40.42 39.73 38.76 38.94 38.69 38.22 37.69 37.77 36.74 36.11 35.41 35.44
26.37 26.77 33.12 37.73 39.27 38.08 36.49 35.39 39.91 39.28 40.56 40.94 42.57 42.65 42.45 44.86 44.09 43.07 43.82 41.81 40.91 41.33 41.19 41.67 41.77 41.89 40.30 39.45 38.89 38.42 38.02 38.30 38.16 38.28 38.02 38.18 38.05 37.38 36.90 35.47 35.46 35.06 35.18 33.83
28.16 24.43 21.97 34.78 39.81 42.66 41.63 30.54 41.52 41.53 41.46 41.92 40.93 34.53 38.75 43.09 40.86 38.40 38.37 38.48 37.84 38.30 38.20 37.80 37.91 38.17 37.39 37.20 37.57 36.60 36.95 37.44 38.26 38.94 38.96 37.88 36.83 35.62 35.46 34.89 33.91 33.65 32.77 32.77
23.22 23.39 29.15 39.24 42.37 42.91 30.06 31.32 41.80 42.32 41.86 41.25 40.07 40.76 42.19 39.61 37.93 37.88 37.28 36.74 37.05 36.53 35.92 36.73 38.06 38.29 36.73 36.84 35.91 38.48 39.65 39.87 40.03 39.13 36.84 35.68 34.35 33.97 33.21 32.61 31.74 30.48 30.43 30.50
28.17 23.50 25.72 43.37 41.39 35.97 37.89 41.44 42.23 42.27 42.03 42.44 42.91 41.40 39.82 37.91 36.89 36.33 35.39 35.57 36.13 35.50 36.39 37.41 37.84 37.46 36.40 36.23 38.15 39.07 39.04 37.74 36.70 35.47 35.31 35.16 33.00 32.43 31.94 30.71 29.37 29.14 25.11 28.01
34.15 32.70 41.11 42.89 42.29 43.30 43.79 42.78 42.70 43.26 44.25 44.15 39.61 37.37 37.05 35.65 35.82 35.82 35.40 35.11 36.06 35.57 35.76 36.73 37.04 36.29 34.34 35.62 36.81 36.88 35.94 34.30 33.82 33.82 33.98 33.64 31.27 30.20 29.37 29.19 26.82 27.51 27.73 26.63
36.91 40.59 41.98 43.33 44.42 44.42 43.41 40.31 40.26 41.31 41.71 41.24 37.37 37.02 35.80 35.67 35.40 35.19 36.44 36.53 36.89 36.09 34.94 34.85 35.91 35.80 35.23 35.27 35.07 33.57 32.19 31.96 32.00 31.52 31.51 31.26 31.15 30.70 29.38 25.14 23.31 26.92 26.54 26.47
38.19 40.62 41.75 41.65 41.60 40.87 39.73 39.88 38.89 38.86 38.72 37.83 36.84 35.75 35.55 34.96 35.95 35.87 35.28 35.02 35.44 34.71 34.61 34.39 34.64 33.89 33.90 33.88 33.71 32.19 31.45 31.47 30.88 30.40 30.24 29.95 30.79 30.87 29.58 28.70 28.07 26.99 26.60 26.42
33.36 41.94 39.31 38.40 39.60 41.01 39.12 38.44 38.37 36.90 35.87 36.57 36.40 35.08 34.95 33.77 34.86 34.57 34.22 34.87 34.53 34.09 33.34 33.08 32.27 32.20 32.63 33.04 32.22 30.83 30.12 29.91 28.88 28.04 27.92 28.85 29.30 30.07 32.10 31.47 31.49 32.19 32.46 28.56
40.70 41.40 39.12 38.29 38.55 39.17 37.38 37.01 36.89 35.84 35.19 33.52 34.03 33.49 32.57 31.73 33.29 33.79 32.65 32.58 31.22 31.03 31.17 30.57 30.18 30.29 31.49 31.57 31.21 29.88 28.40 28.95 28.50 28.57 28.67 28.08 28.49 28.30 28.22 31.60 32.59 32.80 33.09 33.38
40.48 39.55 36.74 37.80 35.43 37.28 36.76 36.34 36.09 34.79 34.37 33.64 32.77 32.37 31.81 31.78 31.91 30.91 30.53 30.95 31.38 31.11 30.99 30.50 30.45 30.80 32.57 32.92 31.64 30.14 29.36 29.04 28.42 28.38 29.10 29.49 29.05 29.23 29.61 29.30 29.27 30.17 31.37 32.10
39.60 40.16 38.27 37.26 36.28 35.35 35.80 35.39 33.77 33.08 32.66 31.75 32.07 31.30 31.31 30.83 30.97 30.79 31.11 30.42 29.73 28.90 29.72 30.63 29.50 29.54 30.63 30.58 29.22 28.28 28.19 28.44 28.89 29.05 29.10 29.10 30.59 30.94 31.18 31.29 31.11 31.13 31.44 27.92
37.47 37.02 36.40 35.11 34.80 34.69 34.29 33.75 32.37 30.23 30.59 30.55 30.23 30.55 31.36 31.24 30.21 28.81 28.87 27.84 26.94 27.81 29.70 27.75 25.41 26.20 27.65 28.14 27.44 26.85 26.63 25.84 25.68 26.83 26.71 26.64 26.38 26.38 27.77 28.32 29.32 30.14 29.94 27.92
34.26 32.98 33.77 33.61 34.12 33.80 33.44 32.81 31.73 30.07 29.49 28.38 28.04 29.39 28.26 27.36 27.18 26.52 26.82 26.64 23.62 26.55 25.92 23.86 23.37 25.64 26.30 25.50 22.40 21.70 21.07 21.77 21.66 23.54 23.51 23.86 23.92 24.21 24.79 25.34 25.90 27.85 29.69 28.07
37.86 37.13 37.42 36.54 35.03 32.93 31.68 31.25 29.98 29.05 28.78 29.22 27.84 23.67 21.72 22.50 24.98 25.32 24.26 22.08 19.96 20.52 23.61 23.83 24.12 22.44 21.71 21.56 20.99 21.07 20.90 20.79 21.83 22.99 23.71 23.20 24.40 26.02 26.26 26.66 26.90 27.21 28.49 26.63
38.13 37.07 36.65 35.32 34.35 32.30 30.31 28.43 28.29 28.80 26.61 24.76 23.14 21.91 21.36 19.88 23.00 23.06 22.90 17.10 17.17 19.28 21.07 23.32 21.87 19.21 18.91 19.23 19.75 20.11 19.69 19.07 18.42 19.44 20.04 20.15 21.36 23.16 22.49 21.44 23.91 26.76 25.77 23.72
34.74 34.50 33.83 33.24 32.72 29.92 27.32 27.01 27.25 26.55 24.41 20.97 18.18 18.27 20.44 16.96 13.65 14.85 19.24 19.52 19.28 19.52 21.81 20.33 18.83 17.07 17.45 17.44 16.75 17.31 15.10 16.35 14.13 14.37 14.15 14.94 16.81 17.25 19.45 19.45 18.45 18.64 17.95 18.32
31.54 31.10 29.98 29.02 27.80 28.16 27.28 26.12 24.83 23.29 22.07 17.76 17.65 13.57 13.02 16.82 14.74 12.39 17.43 19.39 19.81 19.34 20.00 18.54 16.54 15.32 15.86 13.33 14.83 12.34 11.14 11.64 9.08 9.39 10.17 11.16 11.90 13.28 13.27 13.11 13.85 14.33 14.78 15.18
30.56 28.54 27.52 27.12 26.20 25.80 25.91 25.39 24.34 22.02 19.22 15.39 12.34 10.28 13.62 19.30 15.60 16.66 14.55 18.17 19.68 10.51 16.59 17.89 15.89 7.13 10.93 7.66 12.72 8.05 9.49 9.90 7.43 6.89 7.64 8.43 8.27 9.16 8.70 9.01 9.59 10.72 11.54 12.07
29.62 28.58 27.13 25.84 25.27 25.40 24.79 22.71 20.09 19.70 17.16 15.47 14.01 13.73 16.69 19.64 18.90 13.48 13.16 19.33 19.21 13.00 17.08 13.87 6.99 3.24 2.38 0.26 -0.90 -2.17 -2.53 0.80 4.05 4.24 5.41 5.11 5.68 6.72 6.48 7.01 7.50 7.91 9.30 9.66
30.20 28.62 26.93 26.13 25.08 24.71 22.35 22.74 23.43 21.58 17.78 17.34 12.62 9.26 17.28 11.69 8.93 18.35 18.23 10.86 5.44 3.63 3.25 5.17 3.28 3.82 -0.02 -5.42 -6.33 -6.51 -3.06 -4.51 -5.24 0.49 1.62 -1.36 2.53 2.10 2.36 4.14 4.97 6.20 7.46 8.00
28.17 27.55 26.44 24.67 23.19 22.52 23.68 22.81 21.56 21.79 20.85 18.81 17.31 17.83 17.34 19.39 10.96 11.95 6.18 6.76 8.87 7.72 2.98 1.83 2.74 2.37 -4.33 -7.96 -8.68 -9.23 -6.15 -8.87 -8.87 -0.04 -8.68 -4.95 -1.00 -1.06 -1.24 1.00 1.82 4.27 5.15 5.64
25.73 23.74 23.21 22.97 21.56 21.36 21.39 20.28 17.91 18.24 17.10 12.22 12.27 3.29 4.56 12.73 12.27 10.41 5.20 3.41 5.95 5.42 0.84 -3.06 -5.78 -5.97 -7.60 -1.27 -6.87 -8.87 -7.78 -5.03 -8.34 -2.35 -10.86 -8.16 -5.18 -3.53 -3.98 -1.93 -0.28 0.72 2.67 4.41
22.61 21.79 20.98 20.07 20.44 19.81 18.53 16.15 12.68 12.11 10.90 2.31 4.00 2.69 11.42 6.99 3.00 4.71 -3.25 -5.78 -5.42 -2.88 -5.97 -3.61 -7.42 -6.15 -5.99 -6.15 -0.58 -4.15 -8.50 -9.95 -10.50 -7.42 -15.03 -13.76 -10.88 -7.91 -6.32 -2.78 -1.80 -1.83 -0.16 2.30

GFSNGP_sfc_wetblb_051.txt.gz
Wetbulb
37.77 38.68 38.94 38.54 37.84 38.15 36.93 36.23 32.10 34.90 35.01 39.15 40.02 40.82 40.35 40.69 42.09 43.40 47.40 48.96 48.95 48.32 49.66 50.57 50.48 50.76 48.98 48.01 47.55 47.33 47.07 47.22 46.65 46.74 45.21 43.35 41.68 38.61 38.82 39.54 39.21 39.06 38.72 38.56
33.96 37.97 38.39 36.19 38.44 38.05 37.82 37.44 37.04 36.54 35.81 38.97 39.38 39.79 40.61 41.39 42.75 43.61 45.56 46.27 48.55 48.71 49.04 49.45 50.07 48.30 47.19 46.20 47.00 48.14 47.15 46.98 44.35 42.36 41.62 41.34 41.11 40.34 39.49 39.04 38.87 38.62 38.22 37.66
30.33 33.93 33.94 29.23 35.27 37.88 37.94 37.67 37.80 33.10 37.49 38.64 38.81 40.06 39.55 40.67 42.31 43.06 44.32 46.53 47.67 47.31 48.09 49.03 47.49 46.39 45.29 45.99 46.93 44.83 43.12 42.67 42.49 41.93 40.44 39.55 38.97 38.14 38.18 38.17 38.55 37.31 36.43 36.56
27.12 28.18 21.30 36.08 40.26 39.92 37.33 36.10 36.60 37.01 37.85 39.06 39.34 39.92 40.88 41.17 40.85 42.42 42.70 42.20 42.25 44.67 43.98 43.88 43.50 43.36 42.38 42.01 40.87 40.85 40.74 39.92 39.20 38.74 38.47 38.85 38.87 38.88 39.44 39.00 36.29 35.30 34.81 34.28
26.83 26.61 31.32 35.77 36.99 36.75 35.62 34.05 38.15 37.25 38.59 39.97 41.01 40.48 40.59 41.13 39.84 38.61 37.77 37.19 36.91 37.91 39.46 39.58 39.48 39.42 39.05 38.56 38.41 38.14 37.62 37.86 38.47 38.81 38.46 38.61 38.92 38.64 37.83 35.37 34.00 33.17 33.31 32.34
25.87 24.24 22.65 34.86 39.31 40.93 39.96 29.69 40.16 40.02 39.26 39.85 38.94 32.73 36.96 38.28 37.56 36.27 36.03 36.37 36.20 36.25 36.30 36.23 36.47 37.49 36.87 35.50 35.69 36.11 37.56 37.99 38.85 39.06 39.55 39.50 37.73 35.78 34.21 33.49 32.64 31.69 31.15 30.94
24.54 24.70 29.71 37.68 40.73 40.91 30.46 31.69 40.35 41.28 40.88 39.95 37.98 38.18 37.18 36.31 35.31 35.36 35.23 35.19 36.18 36.08 35.19 35.36 36.59 37.12 36.15 36.72 36.68 38.81 39.91 40.34 41.23 40.34 37.36 36.54 33.85 32.56 31.78 30.78 30.08 29.20 29.50 29.50
26.88 22.93 26.53 40.79 39.44 34.42 36.78 39.52 40.95 40.86 41.02 40.18 38.03 36.61 35.84 35.24 34.51 34.42 33.67 34.60 35.54 35.13 34.93 35.60 36.50 37.90 37.13 37.08 39.08 39.82 38.94 38.13 36.60 36.13 34.52 33.96 31.90 30.92 30.73 29.38 28.37 28.38 24.49 27.49
34.17 32.44 39.32 41.29 39.88 40.85 41.45 41.57 41.00 41.74 42.08 39.13 36.30 35.20 35.21 34.33 34.33 34.22 33.50 32.80 34.79 35.06 35.29 36.02 36.74 36.84 35.03 35.39 35.83 35.26 35.00 33.45 32.97 32.68 32.50 32.07 30.27 29.64 28.72 28.22 26.68 27.22 27.56 26.47
36.28 39.21 40.32 41.24 40.84 40.67 41.29 40.53 41.18 42.60 40.03 38.40 35.49 35.29 34.28 34.36 34.37 34.10 33.77 33.91 35.40 34.98 34.48 34.38 35.85 35.76 35.37 34.50 34.11 32.38 30.88 30.55 30.36 30.09 29.99 29.98 29.73 29.79 28.32 26.51 25.84 27.91 26.97 27.15
36.87 39.01 40.26 39.85 38.49 38.53 38.35 38.69 37.82 38.07 38.14 36.63 35.69 34.75 34.62 33.84 33.38 33.20 33.83 34.66 34.92 34.71 34.52 33.92 33.73 32.44 31.33 30.98 31.25 29.99 29.72 29.73 29.51 29.43 29.10 29.21 29.16 29.32 29.46 29.58 29.45 29.91 29.54 28.77
33.89 40.88 39.53 38.63 38.64 39.35 37.86 36.64 36.80 36.17 35.19 36.05 35.79 34.13 33.54 32.35 33.16 34.16 33.88 34.53 33.26 32.51 31.36 30.27 29.79 30.52 31.27 31.66 30.47 29.58 29.72 29.17 27.80 27.41 27.42 28.21 28.32 28.82 31.96 31.41 32.23 32.55 32.60 30.93
40.51 43.15 39.08 38.21 37.78 38.10 36.54 36.05 36.01 35.39 35.05 33.45 33.66 33.16 32.48 31.47 32.25 32.99 32.05 31.80 30.80 29.38 29.51 29.09 29.31 29.01 30.28 30.72 29.95 28.90 27.76 28.71 28.38 27.83 27.93 28.01 28.19 28.13 27.16 30.16 32.47 32.52 32.92 33.15
39.33 38.75 35.73 36.61 34.47 36.41 35.59 35.24 35.14 33.69 33.29 32.64 31.81 32.02 31.16 30.26 31.07 30.46 29.38 29.19 29.67 29.52 29.27 28.23 27.22 25.38 27.01 27.78 27.45 26.52 25.79 26.25 24.97 25.10 25.42 25.89 25.39 25.92 26.64 26.00 25.13 25.64 29.77 31.47
38.00 38.78 37.45 35.93 35.39 34.10 34.46 33.97 32.42 31.52 31.23 30.39 30.78 30.27 30.34 28.95 27.68 27.24 27.32 28.61 29.34 29.21 26.91 24.19 23.48 23.60 26.35 26.00 24.32 24.06 22.88 22.00 22.13 21.68 22.20 21.92 22.89 22.84 23.13 22.95 23.20 23.93 25.16 26.85
35.71 35.43 35.17 33.61 33.20 33.34 33.16 31.89 29.65 28.51 29.26 29.92 30.03 30.14 29.35 27.72 27.13 27.45 27.80 27.94 26.73 24.21 22.07 17.94 23.04 24.20 25.02 22.61 21.21 20.87 20.99 20.35 19.90 21.48 21.82 22.30 22.17 22.12 23.05 23.22 23.43 23.91 24.19 24.51
32.99 31.70 32.41 32.35 32.52 32.39 31.72 31.70 30.73 28.66 29.13 29.27 28.38 27.30 26.60 26.25 26.48 25.93 24.70 24.36 22.53 21.64 22.52 22.58 20.74 21.37 21.56 20.59 20.39 20.04 19.85 19.84 18.64 20.20 20.26 20.01 19.74 19.33 21.56 21.00 19.18 19.50 20.75 24.85
37.51 36.45 35.75 34.95 33.53 31.72 30.24 29.99 29.46 29.00 28.15 27.45 25.30 23.53 22.66 23.39 24.24 22.93 21.55 21.05 19.40 19.03 22.25 21.11 19.84 19.52 19.57 19.43 19.43 19.45 17.45 17.45 16.43 15.04 16.49 14.88 15.14 17.46 18.15 17.76 16.83 16.76 17.01 18.79
38.31 36.86 36.34 34.92 33.61 31.40 29.72 29.05 28.95 28.20 25.30 24.37 23.27 21.72 22.03 21.78 24.35 22.30 20.51 16.63 15.45 17.00 20.03 19.44 19.41 17.42 17.16 17.52 16.71 15.49 13.39 12.91 10.88 12.10 11.67 10.89 12.23 12.17 13.55 11.89 12.72 13.49 14.39 15.34
35.19 34.62 33.31 31.19 30.69 29.49 28.13 27.51 26.39 24.95 24.27 23.08 21.90 21.34 19.88 17.35 18.28 16.73 17.93 17.06 17.86 18.75 20.94 17.88 16.94 15.60 14.80 14.97 11.19 12.52 9.85 7.29 8.25 7.22 7.09 7.82 6.90 7.64 8.78 7.37 8.47 8.84 10.09 12.04
32.09 31.25 29.37 27.94 26.88 26.93 26.59 25.35 23.37 22.48 22.55 21.01 19.66 17.96 17.64 18.14 16.33 14.58 16.12 17.58 18.46 18.63 19.50 16.04 14.99 13.85 13.59 10.65 11.36 6.03 2.80 0.84 -0.78 2.76 2.08 3.53 3.10 5.09 4.17 4.53 4.70 5.24 6.80 7.98
30.66 29.22 27.67 26.42 25.44 25.06 25.56 24.79 22.91 20.69 19.12 16.25 14.68 14.83 16.14 17.81 15.91 16.31 13.04 17.21 18.89 11.61 16.64 15.88 14.45 5.11 9.00 4.66 9.56 -1.48 3.95 2.50 0.91 -0.95 -1.32 -0.05 -0.26 1.85 0.33 1.72 2.28 3.30 4.68 5.53
29.04 28.01 26.91 25.69 24.58 24.23 24.26 22.71 20.80 19.40 17.65 16.03 15.22 15.98 18.12 19.24 18.37 13.79 14.00 18.42 18.03 10.81 15.59 10.98 5.33 1.04 -0.95 -5.28 -6.73 -9.09 -8.54 -8.91 -8.18 -3.29 -7.64 -9.45 -5.85 -1.40 -2.22 -1.71 -0.15 0.69 2.56 3.39
27.13 26.89 26.27 25.67 23.61 22.42 21.24 21.83 22.30 20.35 17.14 17.05 13.16 10.84 17.65 13.51 11.14 17.81 16.61 7.76 3.58 0.70 1.05 1.24 -0.57 0.88 -4.74 -10.36 -11.08 -12.17 -10.72 -13.26 -14.35 -9.99 -8.91 -10.00 -11.63 -8.57 -6.28 -5.26 -3.12 -2.18 -0.13 1.05
26.84 25.74 25.42 24.31 23.68 22.63 22.70 22.68 21.12 20.49 19.06 17.82 17.35 17.90 18.36 16.91 9.49 10.76 5.25 4.81 6.14 4.43 0.33 -2.56 -1.30 -3.65 -10.54 -12.53 -12.71 -13.62 -12.90 -14.53 -15.98 -11.99 -16.52 -17.25 -12.02 -11.66 -10.96 -9.35 -6.50 -4.51 -3.22 -2.44
26.14 24.60 23.60 23.12 22.57 22.02 20.71 20.12 18.34 18.18 15.68 11.02 10.92 3.38 9.61 10.65 10.75 9.26 2.81 0.22 3.01 0.85 -1.11 -8.00 -10.90 -11.63 -12.53 -9.27 -8.18 -9.63 -12.35 -9.16 -14.71 -12.71 -17.07 -16.70 -14.55 -12.61 -12.24 -9.82 -8.50 -6.01 -5.32 -4.66
22.50 21.75 20.52 19.61 19.83 18.44 17.52 16.56 15.45 14.27 11.77 7.28 6.25 3.86 8.20 7.91 5.00 3.42 -5.83 -9.09 -9.45 -8.91 -9.09 -9.81 -11.99 -9.99 -10.36 -13.62 -10.72 -6.19 -9.63 -13.62 -15.61 -14.16 -20.15 -20.33 -16.92 -17.80 -16.02 -12.98 -10.32 -8.22 -6.27 -5.79

GFSNGP_sfc_wetblb_054.txt.gz
Wetbulb
35.81 36.84 37.46 36.87 36.59 36.39 35.42 35.14 31.76 34.52 33.42 38.26 38.96 38.38 38.85 39.48 40.21 41.06 44.24 47.47 48.62 48.87 49.51 50.37 50.68 49.66 49.18 48.37 47.16 47.71 46.77 46.68 46.70 46.33 45.50 45.07 44.20 41.36 40.62 40.34 37.95 39.52 39.00 38.84
33.28 36.10 36.02 34.37 35.66 36.13 36.19 35.59 34.95 34.83 34.67 39.38 37.59 37.96 39.47 40.45 42.53 43.73 44.79 45.32 46.48 47.96 47.94 49.34 49.06 48.19 47.04 45.63 45.46 47.15 46.18 45.67 45.54 44.60 43.59 41.01 40.15 40.05 39.60 39.00 38.66 38.89 38.80 38.22
30.26 32.67 34.01 29.47 34.94 35.98 35.99 36.59 37.14 32.44 37.29 37.74 37.00 38.84 37.59 39.16 41.04 41.85 42.21 42.77 45.31 45.62 46.48 47.16 45.96 45.01 44.33 45.36 45.76 44.60 43.17 43.15 42.53 41.82 40.45 39.56 39.30 38.60 38.05 38.84 39.69 38.70 38.57 36.84
26.58 27.89 21.16 36.23 38.77 38.66 37.31 36.80 36.53 35.45 35.31 37.04 38.02 38.59 38.76 38.65 40.05 38.21 37.57 37.37 38.12 40.51 40.77 40.93 41.38 41.03 40.49 40.75 40.49 39.93 39.55 39.47 39.41 39.06 38.62 39.03 39.60 40.18 40.26 39.94 39.09 37.43 34.68 33.66
27.44 26.77 30.84 33.91 36.54 36.17 35.09 34.54 37.32 35.66 37.11 38.35 39.53 39.23 37.81 37.33 36.34 35.39 35.22 35.15 34.71 35.41 36.37 36.82 37.32 37.99 37.45 37.06 37.34 37.65 37.95 38.31 38.83 39.31 39.25 39.30 39.52 39.25 39.81 37.94 35.16 32.90 32.71 31.82
25.49 23.69 22.12 33.01 37.95 39.27 38.34 29.90 38.50 38.46 37.98 38.47 38.31 32.05 35.19 35.10 35.36 34.05 34.30 34.60 34.05 34.58 35.06 34.89 35.32 36.32 36.15 36.26 37.54 37.34 37.99 38.31 40.00 41.01 40.93 40.41 39.58 37.41 35.53 33.16 32.22 31.39 30.62 30.55
22.09 23.64 29.73 37.96 38.86 39.87 29.91 32.17 38.57 39.59 39.47 38.46 36.85 35.81 34.55 34.34 33.51 33.90 33.82 33.99 34.62 34.64 34.29 34.93 36.32 36.95 35.90 37.48 37.50 38.94 40.65 41.87 41.39 39.89 37.84 36.31 33.82 32.29 31.13 30.25 29.41 29.07 29.30 29.30
26.21 23.04 27.20 40.13 38.85 34.81 36.94 37.61 39.10 39.60 39.93 38.80 35.05 34.39 33.90 33.63 33.04 33.23 32.63 33.30 34.20 33.95 33.70 34.44 35.54 36.79 36.32 37.71 39.28 38.73 37.92 36.27 35.53 34.41 33.43 32.75 30.62 30.25 30.10 29.20 28.18 28.26 25.51 28.23
34.65 34.11 39.25 40.06 38.96 39.89 40.05 39.54 39.89 40.35 40.46 37.82 34.79 33.80 33.76 32.73 32.52 31.84 31.93 32.57 33.55 33.39 33.39 34.06 34.62 35.35 34.32 34.41 34.67 33.87 32.19 31.16 30.91 30.66 30.42 30.14 29.68 29.22 28.79 28.33 26.66 27.46 27.52 27.85
36.18 39.01 39.71 40.84 40.74 40.44 40.44 40.65 41.56 41.29 38.82 37.45 34.49 34.14 32.85 32.86 32.53 31.85 31.41 31.52 32.86 33.38 32.57 32.34 33.07 32.84 32.55 32.81 32.76 30.51 29.46 29.10 29.35 29.02 29.57 29.03 29.04 29.03 27.54 25.78 26.14 27.86 27.92 27.94
35.84 38.43 39.72 40.79 38.59 38.87 38.19 38.93 38.22 37.63 36.89 35.83 34.63 33.40 33.24 32.21 31.61 31.65 31.72 32.76 33.29 31.65 31.20 31.08 32.32 31.91 31.81 30.99 30.27 29.56 29.29 28.93 28.54 28.21 27.36 27.81 27.93 27.72 28.04 28.02 27.75 28.12 28.57 28.92
34.65 41.85 40.51 39.76 38.60 38.95 37.91 36.84 37.08 35.80 34.61 35.07 34.88 33.39 32.60 31.18 31.70 32.05 31.69 32.24 31.02 30.89 30.82 30.10 29.10 28.03 28.79 28.78 28.07 26.96 27.01 27.20 26.14 25.71 25.09 25.96 26.00 25.55 29.36 29.56 30.78 30.81 31.11 29.01
41.69 42.93 38.17 38.31 37.24 37.35 35.97 35.69 35.80 35.12 34.84 33.12 32.93 32.53 31.75 30.37 29.60 31.31 31.19 30.80 30.29 29.67 28.72 26.18 24.50 24.79 25.92 26.60 26.53 25.42 24.05 24.27 23.27 23.22 23.14 23.11 22.89 22.34 20.70 24.13 27.31 27.41 28.09 28.97
39.22 38.70 35.73 36.94 35.00 35.47 35.05 34.62 34.78 33.08 32.76 32.09 31.25 31.07 30.10 29.26 29.95 29.86 29.48 29.96 29.43 26.85 25.06 23.85 23.84 24.62 24.33 23.75 23.86 22.74 21.70 21.41 20.41 20.51 20.09 20.39 19.22 21.16 21.48 21.12 20.94 22.13 24.43 25.01
36.83 37.48 37.25 35.32 34.40 32.99 33.32 32.92 31.33 30.36 30.47 29.77 30.29 29.51 29.38 28.37 28.04 27.95 28.95 28.89 25.05 23.34 23.30 23.39 22.48 22.13 22.69 22.54 21.25 21.10 21.07 20.09 19.87 18.17 18.40 20.74 20.83 20.49 19.60 20.44 21.13 18.50 19.37 20.03
35.33 35.00 34.74 32.94 32.33 32.28 32.10 31.45 29.97 29.20 29.53 29.62 29.30 28.23 27.32 27.09 26.72 27.05 27.58 27.13 23.09 21.29 21.75 18.88 19.69 20.33 21.67 21.00 20.74 20.32 19.77 19.48 17.74 18.50 17.79 16.97 16.33 16.45 17.41 18.44 16.91 15.68 15.90 15.91
32.61 31.26 31.85 31.69 31.31 31.07 30.50 30.96 30.41 30.34 30.58 29.84 27.58 26.91 26.73 26.46 25.75 24.19 22.90 22.34 21.73 21.80 20.78 19.48 18.40 19.94 20.37 19.82 19.39 18.07 17.19 17.31 14.54 15.30 14.75 14.08 13.10 14.04 13.88 13.59 12.23 12.69 12.79 13.75
36.46 35.26 34.88 33.30 31.46 29.83 29.27 30.08 30.38 30.29 28.92 27.98 26.31 25.07 24.15 24.11 23.27 22.46 21.07 20.80 20.75 20.20 19.47 18.99 18.59 18.94 18.21 17.76 16.89 15.49 14.13 12.77 12.22 11.68 11.58 9.97 10.31 10.84 11.63 8.82 8.98 8.69 8.59 10.80
36.48 34.62 34.23 33.36 32.13 30.66 29.65 29.01 28.65 27.32 25.63 24.83 23.77 22.70 23.69 23.13 22.77 21.35 19.58 17.49 16.09 18.26 18.09 18.22 18.94 16.43 15.39 15.69 13.56 12.46 10.64 6.61 6.70 8.66 6.26 4.98 4.53 5.26 6.83 4.66 5.31 4.72 5.35 7.25
34.94 34.40 32.81 31.50 31.33 30.26 28.25 27.62 26.65 25.45 24.44 22.92 22.15 21.63 21.41 20.59 19.38 17.67 17.99 16.76 17.86 19.28 19.02 17.18 15.83 14.78 13.76 13.40 9.94 10.30 6.33 0.77 5.10 2.68 -0.27 1.93 -4.36 -3.47 -1.14 -0.25 2.31 2.27 1.61 3.68
31.07 30.68 29.83 29.12 27.87 27.43 26.49 25.16 24.02 23.22 23.30 22.75 21.65 20.55 20.27 19.60 18.03 16.25 16.97 16.81 17.82 19.39 18.13 15.79 14.52 13.21 12.95 10.08 10.12 2.24 -2.59 -5.45 -5.64 -4.18 -6.53 -8.53 -9.98 -6.55 -7.98 -6.76 -2.45 -1.53 -0.33 1.20
29.18 27.62 26.79 26.45 25.12 23.86 23.82 23.91 22.93 21.28 20.25 18.91 18.48 18.46 17.67 17.45 15.91 16.12 15.26 17.71 18.24 14.03 16.17 15.16 13.89 5.68 7.83 3.25 7.31 -3.64 1.78 -1.94 -5.10 -7.80 -10.52 -11.97 -13.79 -11.43 -10.17 -11.43 -6.49 -4.02 -2.84 -1.45
28.15 27.13 26.16 24.93 23.93 22.90 22.47 21.41 20.43 19.75 18.87 18.07 17.31 17.82 18.71 19.03 18.47 15.21 14.96 17.83 17.31 11.70 15.00 10.63 4.07 0.63 -2.02 -6.90 -8.71 -10.89 -10.89 -12.34 -13.42 -11.25 -15.24 -18.68 -17.96 -15.79 -13.25 -9.51 -7.98 -7.23 -6.15 -4.23
26.86 26.04 24.92 24.65 23.54 22.27 20.31 21.00 21.39 19.50 17.91 17.83 15.22 13.40 17.76 13.97 11.91 16.90 15.73 8.88 5.95 2.17 1.76 0.71 -0.55 0.69 -5.08 -12.15 -13.42 -14.69 -14.33 -16.51 -17.59 -18.32 -13.60 -15.24 -21.22 -18.86 -15.45 -15.27 -11.72 -8.98 -8.04 -6.90
26.44 25.41 24.67 23.73 22.98 22.07 22.14 20.91 19.55 19.11 18.53 18.22 17.92 18.46 17.86 16.64 10.42 11.60 7.40 8.28 9.23 5.14 0.90 -2.91 -1.39 -4.03 -12.34 -14.33 -14.69 -14.69 -14.69 -17.23 -18.50 -19.22 -19.95 -22.13 -18.86 -17.97 -17.09 -16.55 -16.01 -12.65 -9.82 -8.24
25.37 24.20 23.97 23.84 22.33 21.84 21.48 21.00 18.81 17.34 14.96 12.55 13.26 7.93 7.91 9.50 9.65 8.80 5.36 3.08 4.22 1.00 0.17 -6.90 -9.62 -12.15 -14.87 -13.79 -14.51 -14.51 -9.43 -8.92 -16.51 -16.87 -20.13 -21.76 -21.76 -17.48 -18.72 -15.72 -15.72 -13.78 -11.99 -9.89
21.70 21.45 20.11 18.23 18.02 17.64 17.51 17.34 15.98 14.09 12.27 7.96 9.09 7.49 8.49 5.98 2.47 4.34 -4.02 -6.72 -8.35 -9.07 -9.62 -9.62 -13.97 -12.52 -13.06 -16.51 -15.60 -12.52 -11.61 -13.06 -17.41 -16.32 -23.39 -25.75 -25.21 -23.22 -21.07 -19.11 -16.78 -15.21 -13.27 -11.16

GFSNGP_sfc_wetblb_057.txt.gz
Wetbulb
38.87 39.13 40.14 40.66 40.64 39.85 39.45 40.81 37.71 40.27 37.67 43.17 44.63 45.21 44.31 44.18 45.95 48.28 48.59 49.54 51.24 52.82 54.76 55.82 56.06 55.47 54.27 52.91 51.74 51.07 49.91 48.96 48.33 47.87 46.58 46.20 46.43 45.54 42.91 42.44 41.89 41.75 41.32 40.98
37.43 38.74 39.17 37.98 39.85 40.24 40.41 39.58 39.40 39.50 38.92 44.45 44.38 43.96 43.89 44.48 46.91 46.93 47.22 47.94 49.10 50.41 52.30 53.07 52.57 51.93 50.32 50.09 49.93 51.15 49.91 47.69 46.33 45.83 45.02 43.03 42.41 41.89 41.83 41.60 40.44 40.31 40.32 39.86
34.33 36.70 37.48 33.59 38.36 38.99 39.70 40.92 41.78 37.64 43.34 42.97 42.44 42.45 42.78 43.96 45.06 44.34 43.87 44.81 46.19 46.46 47.87 49.22 49.03 48.69 48.24 48.30 48.57 47.62 46.75 45.74 43.48 42.23 41.46 41.35 40.29 39.94 39.05 39.53 42.17 41.81 40.17 40.03
32.59 31.95 29.11 40.89 41.72 42.08 41.23 41.61 41.69 40.48 41.48 41.95 42.63 41.60 41.46 42.06 43.05 40.84 40.97 41.66 42.74 44.03 44.16 44.91 45.71 45.20 45.24 44.88 44.29 43.10 41.25 40.48 40.46 39.95 39.38 41.33 41.45 41.86 41.86 41.53 41.03 41.68 40.45 41.27
32.23 32.55 35.61 38.12 39.87 40.29 40.21 41.33 42.22 41.60 41.02 41.63 42.03 42.66 40.02 38.71 39.13 39.02 38.68 38.69 39.45 40.75 41.34 41.85 42.16 42.76 42.57 42.16 41.92 40.27 39.29 39.94 40.68 41.14 41.17 41.59 40.67 40.55 41.19 41.02 40.33 40.15 39.19 38.71
30.70 30.37 29.12 38.54 41.87 42.55 43.17 35.86 42.80 42.12 41.37 41.72 42.16 40.40 42.66 38.48 38.00 37.39 37.86 38.51 38.58 39.18 39.81 40.03 40.73 42.09 41.25 40.23 39.83 39.95 41.47 42.57 43.24 42.84 41.52 40.78 39.71 39.25 40.22 39.63 37.80 37.52 37.06 37.55
29.94 33.40 34.90 39.82 42.18 43.23 36.24 39.53 43.05 43.22 43.39 43.34 41.88 42.09 40.26 37.59 36.73 37.59 37.72 37.65 38.83 39.26 38.71 39.36 41.09 41.61 40.40 40.80 40.12 41.56 42.60 40.92 39.28 38.68 38.50 38.74 38.21 38.14 37.62 37.08 36.41 36.19 35.25 36.32
31.72 31.74 32.11 42.53 40.41 38.97 44.15 42.55 43.62 43.56 43.84 43.46 38.62 36.96 36.71 36.56 36.02 36.30 36.51 37.18 38.31 37.96 38.18 39.85 41.46 41.39 40.07 38.68 39.38 39.23 37.33 36.47 36.81 36.57 35.74 35.75 35.98 36.02 35.92 35.68 34.89 34.79 34.62 34.70
37.89 39.23 44.15 43.22 45.42 44.68 43.55 44.77 43.14 44.38 43.96 40.07 37.04 36.29 36.03 35.13 35.41 35.83 36.43 36.88 38.09 37.47 36.60 37.21 38.23 38.30 35.72 35.58 36.44 36.17 35.32 34.73 34.73 34.86 34.27 34.38 34.36 34.04 34.09 33.99 32.73 31.98 31.61 31.71
40.29 41.87 42.16 43.38 44.43 43.80 44.38 44.31 43.92 44.87 42.59 40.19 37.46 36.09 34.97 34.87 34.77 35.08 36.12 36.06 36.50 35.26 34.10 33.44 34.67 34.35 33.66 33.86 34.53 34.58 33.32 32.54 32.31 31.70 31.25 31.47 31.48 31.33 30.61 30.00 29.48 28.95 28.99 28.82
39.29 41.50 42.33 44.17 43.81 43.55 42.37 42.51 41.03 40.98 40.64 38.70 36.98 35.11 34.87 34.24 34.29 35.00 35.07 34.92 34.78 33.81 33.07 32.14 31.83 30.44 30.83 31.03 32.94 31.56 30.64 29.40 28.67 28.61 28.21 28.39 28.74 28.70 28.06 29.13 28.65 27.74 28.20 27.97
39.31 44.25 44.64 45.40 45.11 42.65 41.24 40.70 40.21 38.05 36.94 37.76 37.50 35.52 35.31 34.23 34.73 34.94 33.41 33.62 33.19 31.79 30.12 28.44 27.67 27.25 28.48 29.41 29.35 28.63 26.98 26.81 25.81 26.23 26.48 26.61 26.05 25.76 26.42 26.20 26.46 26.97 27.41 26.42
44.62 45.41 40.45 39.55 39.45 41.02 39.51 38.65 38.70 38.27 37.36 35.77 35.95 35.50 34.68 33.44 33.31 32.28 32.84 32.55 30.61 27.50 26.45 26.31 26.56 25.43 26.29 27.10 26.58 25.19 24.38 24.30 24.41 24.20 24.48 23.96 23.89 23.33 22.41 25.22 25.36 26.03 24.74 24.41
41.18 41.19 38.56 38.92 38.66 38.30 37.66 37.13 36.82 36.03 35.70 35.01 34.34 34.19 33.20 32.14 32.13 31.72 30.65 29.83 27.80 25.95 25.81 26.48 24.90 23.19 24.36 25.02 24.72 23.98 23.67 21.86 23.10 23.33 23.36 23.14 22.67 22.37 22.43 21.53 21.45 21.82 22.53 21.80
40.07 39.12 40.28 37.54 36.33 35.15 34.93 34.69 33.17 32.10 32.26 32.16 33.22 32.57 32.10 30.70 30.22 29.63 28.27 26.40 25.84 25.61 24.71 23.87 22.47 21.96 23.83 24.32 23.38 22.66 22.40 21.73 21.48 22.04 21.25 20.33 20.41 20.25 20.40 20.20 19.00 18.60 19.34 19.43
36.25 36.08 36.22 35.70 34.51 33.82 33.97 33.62 31.86 31.17 31.68 31.47 31.25 31.19 30.72 30.28 29.43 26.97 25.85 26.23 24.76 22.40 22.22 19.83 20.30 21.82 22.96 22.77 22.16 21.43 21.30 19.19 18.71 19.56 18.93 18.08 17.79 17.59 17.25 17.14 15.83 16.00 15.74 15.20
34.03 32.62 32.85 32.94 33.12 32.91 33.05 33.48 32.51 31.94 31.48 30.73 29.30 29.06 28.42 27.35 26.13 24.76 23.86 23.30 21.82 21.01 20.30 19.98 19.74 21.45 21.17 21.09 19.79 19.54 19.29 17.98 15.21 17.05 15.90 15.21 15.15 14.79 15.08 14.15 13.16 13.25 13.35 13.54
37.65 36.55 36.38 34.34 33.00 31.90 31.69 32.19 32.34 31.53 29.19 28.17 27.85 27.22 26.17 25.61 23.45 22.19 22.08 21.99 20.62 19.72 19.60 19.29 19.75 19.41 18.60 18.10 17.47 16.55 15.79 14.47 14.46 13.65 13.53 12.54 11.49 12.25 12.35 11.12 10.90 10.70 11.02 11.46
36.75 35.25 34.57 33.44 32.79 31.72 30.98 30.08 28.69 27.44 26.68 26.93 26.31 25.17 24.73 24.10 23.05 21.82 21.49 20.53 19.53 18.29 17.89 19.12 18.70 17.52 16.64 16.22 15.36 14.04 12.69 10.99 11.47 11.12 10.43 8.60 9.03 8.88 8.96 8.88 8.52 8.82 8.69 8.68
34.00 32.94 31.99 31.48 31.87 30.34 28.11 28.27 27.90 26.53 26.26 25.64 24.85 23.60 22.31 21.39 20.82 20.15 20.51 19.12 20.19 20.07 19.57 18.02 17.07 15.66 15.04 13.97 12.62 12.70 10.80 9.76 9.07 8.71 8.07 7.12 6.54 5.80 6.36 4.92 4.97 6.13 6.70 6.83
31.28 30.81 29.66 28.91 27.98 28.02 27.59 27.04 25.66 24.26 24.13 24.81 23.82 22.40 21.55 20.28 19.78 19.15 18.86 17.72 19.11 19.79 18.26 16.71 16.09 15.36 14.77 13.63 13.16 11.67 10.36 8.78 7.80 7.25 5.72 4.93 4.01 4.13 3.95 3.85 4.03 4.26 4.48 5.14
28.67 27.33 26.53 26.28 25.52 25.13 25.88 25.32 24.10 23.21 22.54 21.77 21.67 21.24 20.01 19.34 18.91 18.62 19.59 19.08 19.55 18.32 17.97 16.97 15.80 10.64 12.10 10.31 12.38 11.09 10.43 8.30 7.29 6.58 5.18 4.20 3.13 1.88 1.51 1.83 1.36 2.09 2.58 2.91
27.26 26.69 25.55 24.48 23.44 22.82 23.13 22.59 22.39 22.10 21.14 20.71 20.49 20.73 20.66 20.21 19.78 18.11 16.53 18.36 18.75 16.60 17.09 15.76 10.98 7.75 5.68 10.93 10.27 9.56 8.37 6.26 5.39 4.51 3.98 2.81 1.64 0.72 -0.07 -0.44 -0.89 0.03 0.22 0.83
26.24 25.28 23.90 23.43 23.43 22.29 20.47 21.28 21.52 20.57 20.23 20.22 19.51 20.24 19.98 18.20 17.85 18.80 18.30 14.55 12.56 14.31 14.03 12.39 10.22 6.23 4.60 8.61 8.27 7.61 6.42 6.03 4.46 3.70 3.71 -3.31 1.36 -0.49 -0.86 -2.55 -2.85 -1.61 -1.75 -1.76
25.93 25.70 25.25 24.53 23.16 22.16 21.09 20.59 20.27 20.10 19.95 19.54 19.67 19.70 19.38 18.36 18.58 16.55 15.99 14.37 12.90 12.88 12.84 4.40 4.72 2.67 7.28 7.15 6.64 5.47 5.13 5.18 4.69 3.16 2.21 0.85 -0.35 -1.98 -1.97 -2.78 -4.39 -3.80 -3.93 -2.92
23.60 22.63 22.45 22.76 22.67 22.15 21.80 20.83 18.36 17.85 17.38 16.68 16.14 15.80 15.37 15.35 14.10 13.57 12.08 10.59 11.08 8.56 10.62 8.71 7.47 6.47 6.41 5.66 4.75 3.63 4.06 5.04 3.97 2.72 -0.23 -0.56 -1.76 -2.96 -4.21 -5.50 -6.13 -5.41 -4.95 -4.10
20.93 20.94 19.70 18.47 18.90 18.85 19.35 19.10 17.76 15.55 15.61 15.98 15.30 14.93 14.10 12.72 11.39 10.94 7.72 8.85 7.98 7.09 6.95 6.95 6.21 4.22 4.98 3.99 3.84 3.99 3.35 3.60 0.36 0.69 -0.16 -2.24 -3.43 -4.06 -6.39 -7.11 -6.94 -6.76 -6.38 -6.02

GFSNGP_sfc_wetblb_060.txt.gz
Wetbulb
44.45 44.81 44.72 43.96 43.45 44.54 43.21 43.95 40.74 43.09 43.30 47.04 49.60 50.85 51.60 50.61 50.70 52.28 52.95 53.20 54.73 58.01 59.67 60.60 60.73 60.79 58.10 54.95 53.47 52.81 51.69 50.79 49.88 49.12 48.30 47.11 46.71 46.12 46.55 46.21 44.24 43.98 42.17 42.15
42.12 44.77 44.01 42.25 44.17 44.62 44.97 44.73 45.21 45.33 44.63 50.33 51.72 50.81 49.63 49.46 51.19 51.70 52.14 52.85 54.26 55.95 57.85 57.62 57.69 57.06 56.29 55.55 54.41 53.24 50.66 48.26 47.37 47.32 46.76 45.81 45.89 46.42 47.05 45.62 44.27 42.35 41.35 40.97
38.49 42.94 42.16 36.95 42.86 44.26 45.08 46.80 46.47 43.09 47.48 50.45 49.66 48.98 49.34 50.13 51.05 50.70 50.69 51.63 52.52 53.88 54.93 54.95 54.71 54.80 53.77 53.34 53.61 52.04 49.59 48.05 47.74 48.43 47.48 47.35 46.12 43.57 40.94 41.46 41.00 40.65 41.12 41.51
38.72 37.52 32.77 43.60 47.54 48.37 46.30 47.11 48.59 48.24 48.76 49.67 49.81 50.26 49.18 50.51 50.84 49.02 49.48 49.84 50.73 51.77 51.99 52.59 52.80 52.32 52.12 51.57 50.22 48.82 47.62 47.18 46.53 45.56 43.82 43.63 43.79 42.95 42.25 42.18 41.75 42.67 43.00 41.93
38.20 37.00 41.63 42.20 43.69 45.03 44.89 45.34 49.70 48.70 49.72 49.44 48.31 47.66 45.78 46.81 49.38 48.73 48.18 48.55 49.02 50.11 50.47 50.91 50.54 50.54 49.56 47.89 46.61 45.02 45.15 45.47 45.86 46.05 44.50 43.58 42.85 42.10 42.62 42.59 42.28 41.35 43.43 42.56
37.55 36.29 34.45 43.34 48.10 50.03 49.07 41.73 50.06 49.58 49.02 48.23 47.42 44.39 48.48 45.78 45.71 45.41 46.70 47.15 47.25 48.18 49.01 49.00 49.07 49.28 47.65 46.26 46.20 45.63 45.72 45.28 45.37 46.24 45.10 42.56 40.68 40.99 44.16 44.35 42.67 42.31 40.68 41.14
38.59 38.26 42.07 47.20 47.12 48.71 39.85 43.64 50.69 50.85 50.28 49.18 46.85 49.50 48.78 45.88 45.05 45.90 45.88 45.73 46.88 47.51 46.90 47.39 48.05 47.78 46.10 45.88 44.71 45.40 45.42 44.46 43.54 42.09 42.54 42.89 42.08 42.01 42.07 41.68 40.48 39.84 38.78 40.14
40.17 37.97 35.93 46.89 45.59 44.30 49.95 50.84 51.91 51.14 51.41 50.35 48.70 46.05 44.67 44.40 43.43 43.67 43.78 44.30 45.54 45.29 45.53 46.63 47.38 46.77 45.20 43.74 44.40 44.12 42.82 40.20 40.55 40.52 39.44 40.02 40.05 40.72 40.58 40.19 38.77 37.99 38.75 36.29
42.34 44.07 49.59 48.96 51.30 51.88 51.62 52.04 50.58 51.65 51.23 51.32 45.35 43.99 43.72 42.63 42.78 43.34 43.86 44.33 45.07 44.56 44.07 44.62 45.06 44.43 41.84 41.42 41.87 41.07 40.23 39.31 38.98 38.78 38.46 38.20 38.08 37.48 37.12 36.20 34.50 33.59 32.84 33.04
43.88 48.67 48.04 49.01 50.67 49.91 50.49 50.35 50.10 50.90 50.97 48.39 45.64 44.15 42.72 42.00 41.86 42.35 43.18 43.05 43.04 41.63 40.20 39.39 40.40 40.27 39.70 39.57 40.13 39.16 37.63 36.94 36.89 34.50 35.24 34.80 35.17 34.35 33.97 33.04 31.90 30.86 30.72 30.48
46.38 49.20 47.05 48.40 50.37 51.67 49.81 49.19 49.10 50.10 50.10 47.94 45.84 43.50 42.20 41.25 41.35 42.36 42.29 41.75 41.80 40.46 38.81 37.32 37.38 36.30 36.67 37.38 38.12 36.39 34.83 33.64 33.09 32.88 32.52 33.19 32.60 31.72 30.79 31.31 28.76 28.57 29.51 28.92
44.62 50.68 49.70 51.59 51.92 53.28 50.24 48.94 48.93 48.31 47.17 47.21 45.60 43.05 42.35 41.25 42.03 41.43 40.41 40.52 39.53 37.84 35.67 33.38 32.45 31.53 32.41 34.71 35.02 33.60 31.68 31.21 29.88 31.32 31.54 31.32 31.23 31.53 26.11 25.78 25.70 26.68 25.16 25.41
49.85 51.76 52.15 47.36 46.29 49.56 49.60 49.28 48.42 47.38 47.21 44.63 44.56 43.28 42.04 40.47 40.89 38.11 39.42 38.75 36.46 33.93 31.56 30.12 29.30 29.59 31.39 31.25 31.10 30.35 29.50 28.76 29.26 28.64 29.42 28.70 28.84 28.31 27.68 28.70 25.81 25.01 23.54 23.06
50.40 47.83 47.15 46.08 48.15 45.87 46.41 46.77 45.06 46.03 45.26 44.15 42.96 42.36 40.81 39.46 37.52 38.13 36.83 35.18 33.36 31.49 29.27 28.22 27.98 28.25 29.85 30.30 29.42 28.39 27.04 24.19 28.68 28.90 28.31 27.86 27.33 26.74 27.14 25.40 24.66 25.15 24.59 22.17
48.22 48.27 47.47 46.43 45.05 44.05 44.32 42.78 41.75 41.22 41.09 40.41 40.99 39.66 38.52 36.64 36.44 35.35 33.64 31.72 31.06 29.69 28.39 29.11 28.00 27.16 28.78 28.58 27.61 27.19 27.28 26.74 26.95 26.91 25.46 24.24 25.34 25.11 24.80 24.14 22.94 22.74 23.63 23.26
47.29 44.46 43.66 43.53 43.12 41.87 41.32 40.93 40.36 38.54 38.56 38.51 38.20 37.82 38.03 36.92 34.08 32.04 31.36 30.64 28.58 27.06 27.18 24.11 24.42 25.86 27.12 27.20 26.87 26.71 25.07 20.70 21.65 24.83 24.49 23.70 23.45 22.74 22.25 22.07 21.10 21.03 20.85 20.35
41.86 40.43 41.42 41.02 40.80 40.43 40.49 41.32 40.03 38.52 38.06 37.51 36.80 36.48 34.54 31.25 29.86 28.12 26.41 25.17 23.96 23.31 23.60 23.53 23.91 25.12 24.74 24.80 24.57 25.31 24.57 22.92 18.17 23.47 22.29 21.13 20.87 20.43 19.94 19.92 19.09 18.80 19.13 19.17
44.19 43.47 43.40 42.81 40.95 39.00 38.01 38.89 38.07 36.85 35.05 33.83 31.30 29.31 27.61 26.32 24.44 23.71 22.60 22.66 22.09 21.71 22.08 22.72 22.81 22.16 21.50 22.02 21.79 21.34 20.60 20.47 20.72 19.78 20.07 19.06 17.05 18.31 18.22 17.58 16.93 16.56 17.15 17.56
41.37 40.45 40.64 39.64 39.46 38.07 35.79 34.84 33.02 30.65 29.24 29.39 28.01 25.81 25.52 25.15 24.54 23.29 22.67 21.53 20.35 19.27 19.77 21.15 19.91 20.21 19.23 17.89 19.18 19.54 18.54 18.39 18.52 17.62 16.82 14.50 17.03 16.42 16.17 15.73 15.18 14.94 15.23 15.04
33.66 34.27 34.05 33.40 32.87 32.37 29.84 29.63 29.60 29.31 28.92 27.54 26.87 25.36 23.44 23.09 23.17 22.90 23.44 22.23 22.69 21.17 21.28 20.25 19.80 18.79 17.91 16.21 16.22 17.77 17.30 17.00 15.77 16.24 16.12 14.48 15.08 13.95 14.38 12.24 12.37 13.23 13.70 14.00
30.48 30.35 29.67 29.14 28.05 28.62 28.42 28.57 27.72 26.71 27.09 26.80 24.95 23.71 22.63 22.40 22.73 21.92 21.26 20.05 20.07 20.87 20.21 19.13 19.49 19.37 18.59 17.81 17.49 17.75 17.21 16.50 15.62 14.89 14.57 13.61 13.15 13.06 12.23 12.12 11.93 12.02 12.11 12.24
28.13 27.54 27.84 28.17 27.29 26.76 27.61 27.50 26.50 25.72 25.29 24.55 24.05 23.07 21.97 21.38 21.80 21.51 22.72 21.83 21.77 20.21 20.59 20.52 19.23 14.99 16.05 13.26 17.92 17.67 16.27 14.99 14.51 14.29 13.73 12.64 11.53 10.56 10.16 10.11 9.64 10.04 10.02 10.41
28.71 28.42 27.42 26.28 25.69 25.19 25.57 25.13 25.27 25.18 24.18 24.16 23.77 23.94 23.43 23.18 22.95 21.59 19.45 20.89 21.68 19.68 20.86 20.04 14.84 12.48 10.14 17.61 17.20 15.97 15.02 13.27 12.83 12.32 11.78 11.23 10.21 9.52 8.76 8.22 7.86 7.39 8.12 8.30
26.72 26.12 25.68 25.82 26.27 25.28 23.57 24.30 24.14 23.41 22.94 22.87 22.88 23.34 23.11 22.11 21.95 22.21 21.57 19.14 18.06 18.95 18.90 17.29 15.26 9.07 10.14 16.05 15.08 14.16 13.24 13.25 12.12 11.72 10.77 7.01 9.68 8.68 8.13 7.02 6.09 6.53 5.89 5.79
26.98 26.98 26.57 25.43 23.92 23.17 23.14 23.04 22.65 22.34 21.98 21.66 21.77 22.00 21.90 22.56 23.11 20.94 20.57 18.60 15.95 16.97 18.30 10.52 8.33 7.44 14.10 14.05 13.15 11.77 11.77 11.95 11.50 10.32 9.75 9.30 8.53 7.32 7.16 6.59 4.73 4.59 3.26 3.64
24.34 23.65 24.12 24.42 23.91 23.65 23.19 22.83 21.27 21.80 21.89 20.53 20.65 21.49 20.95 20.47 19.51 19.15 18.00 16.08 15.78 13.62 16.17 15.98 14.37 13.10 13.18 12.32 11.24 10.67 10.53 10.74 10.26 9.60 8.05 7.68 7.40 6.36 5.40 4.50 3.04 3.05 3.12 3.29
22.19 22.21 21.37 20.49 20.89 21.43 21.94 21.90 21.17 19.78 20.70 21.20 19.74 20.41 20.24 19.79 18.12 17.20 15.10 16.99 15.86 14.75 14.39 13.69 13.54 11.61 11.10 10.63 10.60 10.38 9.88 9.72 8.05 7.05 6.34 6.49 5.90 5.33 4.30 2.96 2.12 1.79 1.27 0.77

GFSNGP_sfc_wetblb_063.txt.gz
Wetbulb
45.16 46.16 45.93 45.14 44.97 45.54 44.55 45.38 41.99 43.93 44.50 47.21 49.09 50.82 52.29 53.74 53.81 53.61 54.30 54.34 55.29 58.76 60.00 61.37 62.13 60.95 58.83 56.35 55.58 55.22 53.14 51.39 50.18 49.55 48.79 47.87 47.68 46.61 46.65 46.28 45.53 43.94 43.10 42.82
42.80 45.57 45.37 43.27 44.95 45.45 45.18 45.14 44.90 45.13 44.64 50.21 51.29 51.71 51.69 52.28 52.31 53.60 54.40 54.82 56.07 58.06 60.65 60.93 61.10 58.68 55.25 53.14 51.95 51.94 49.88 48.59 48.67 48.33 47.45 46.88 46.56 45.34 44.87 44.40 43.82 43.46 43.11 42.44
39.27 44.48 44.27 40.14 43.92 44.93 45.62 46.88 46.44 43.10 47.33 50.46 50.28 50.62 51.33 52.27 53.46 53.78 54.10 54.92 56.25 58.13 59.14 59.07 58.48 57.39 55.00 53.54 52.43 50.52 49.40 49.09 48.94 48.73 47.84 48.03 47.51 46.08 45.12 44.80 43.51 41.93 41.14 41.25
40.20 40.11 33.79 44.18 49.09 48.43 46.53 47.39 48.51 48.36 49.05 50.37 50.67 51.85 53.02 53.89 54.25 53.61 53.70 54.25 55.39 56.45 56.61 56.99 57.21 56.45 55.87 54.97 53.55 52.24 51.46 50.86 50.14 48.89 47.65 47.27 46.78 46.32 44.58 42.75 42.03 42.43 42.73 43.66
39.08 38.68 42.00 44.42 46.48 46.56 45.58 45.38 49.47 48.68 49.73 50.64 51.88 52.14 50.77 52.86 54.85 53.67 53.48 54.10 54.67 55.19 54.94 54.84 54.42 54.10 52.83 52.03 51.26 49.98 48.94 48.30 48.16 48.18 46.91 46.32 44.72 43.73 44.77 43.26 43.45 44.28 44.67 44.55
41.25 36.03 33.59 43.38 48.26 51.26 50.57 42.93 50.75 50.71 50.48 50.57 51.25 46.40 49.57 51.85 53.51 52.35 52.29 52.45 52.60 53.36 53.56 53.04 52.64 52.30 50.76 49.84 49.72 48.69 48.48 48.18 48.14 47.58 46.55 45.55 44.88 44.59 44.80 45.73 44.10 44.19 42.66 42.01
40.05 38.65 42.09 47.86 49.56 51.46 41.31 44.16 51.43 51.63 51.59 51.34 49.91 51.35 53.18 51.83 50.77 51.35 51.10 51.16 51.90 52.03 51.50 51.53 51.91 51.56 49.95 49.46 48.10 48.16 48.14 47.58 46.77 45.35 44.37 45.45 44.62 44.03 42.97 42.22 41.70 41.32 40.02 41.08
41.22 39.25 36.68 49.78 48.42 45.20 50.54 53.76 53.44 53.40 53.23 52.94 53.67 51.97 50.94 50.27 49.45 49.52 49.17 49.32 50.55 49.83 49.78 50.44 51.00 50.15 48.48 46.92 47.67 47.18 46.40 44.30 43.76 43.30 42.17 42.46 42.05 41.54 41.20 41.37 39.95 38.76 37.15 36.52
44.27 44.37 51.16 50.69 51.48 52.72 54.22 53.97 54.56 54.30 54.33 54.41 52.31 50.17 49.57 48.72 48.52 48.59 48.59 49.05 49.37 49.03 48.62 49.29 49.89 49.30 46.57 45.87 45.61 44.52 43.58 42.30 41.37 40.97 40.51 40.43 39.68 38.79 38.73 37.81 36.49 35.02 34.04 33.99
46.70 49.22 50.20 51.61 52.95 53.21 54.05 54.04 54.78 54.52 54.97 54.40 51.79 50.32 49.04 48.32 47.95 47.89 48.48 47.95 48.42 47.67 46.92 46.06 46.61 45.78 44.89 44.44 44.05 42.68 40.83 39.87 39.09 38.59 37.13 37.03 36.99 36.41 35.91 34.90 33.65 32.30 31.88 31.69
45.53 47.96 49.24 51.80 52.61 52.95 53.95 54.21 53.61 53.18 53.99 53.81 51.98 49.72 48.79 47.58 47.49 47.81 47.72 47.73 46.90 45.26 43.93 43.15 43.28 42.51 42.70 42.42 42.10 39.83 38.27 37.04 35.99 35.42 35.42 35.04 34.60 33.23 32.36 30.77 28.79 29.39 30.77 29.20
44.11 49.05 50.34 50.88 53.67 55.05 54.34 53.97 53.07 52.52 52.29 53.29 51.99 49.38 48.67 47.50 47.43 47.32 46.28 45.62 44.39 43.33 42.04 40.50 39.69 38.93 39.57 40.24 39.40 37.04 34.95 34.09 33.79 33.88 33.56 33.83 33.62 31.25 26.48 26.92 26.33 26.52 24.64 25.01
48.41 51.53 52.23 52.94 50.99 51.63 53.24 54.33 54.17 52.90 52.93 51.29 51.23 49.81 48.46 46.78 46.88 43.40 45.25 44.54 43.22 40.52 38.42 36.97 35.45 34.94 35.62 35.90 35.85 34.73 32.96 31.72 30.00 31.18 31.71 31.06 31.25 30.96 30.52 27.02 26.67 26.42 24.37 22.93
51.88 51.92 49.57 51.52 50.48 50.47 51.11 52.46 50.46 52.15 51.91 51.33 49.96 48.67 47.40 45.80 44.25 43.95 43.06 42.62 40.37 37.21 35.35 34.01 32.84 31.90 33.10 33.24 31.99 30.20 29.32 27.06 31.37 31.42 30.91 30.78 30.29 29.14 29.09 27.60 26.42 27.77 25.99 23.90
50.85 52.38 51.66 52.10 50.26 49.51 49.45 49.15 48.02 48.63 48.76 48.25 48.21 46.49 45.58 43.50 42.14 42.02 41.01 38.02 35.84 33.97 32.83 32.09 29.86 29.93 31.86 31.81 30.80 30.30 29.81 29.43 29.55 29.14 27.67 26.26 27.55 27.35 26.94 26.06 25.73 25.18 25.99 25.97
51.01 51.71 51.51 48.41 48.88 48.39 47.19 46.49 46.76 45.84 45.77 45.80 45.33 44.28 43.64 42.56 40.35 37.06 36.00 35.17 32.20 30.51 28.65 26.53 26.85 28.71 29.66 30.30 29.62 28.17 25.38 22.92 24.45 26.82 26.29 25.59 25.56 24.72 24.51 24.37 23.77 23.88 23.42 23.37
47.15 46.75 47.05 46.50 47.28 46.13 45.26 46.05 46.13 44.44 43.86 43.34 42.53 42.12 40.00 35.40 33.65 31.19 27.79 27.13 25.81 24.98 25.41 25.94 25.65 26.50 26.13 27.49 27.88 27.56 27.12 23.98 20.03 24.39 24.13 23.31 23.07 22.52 22.31 22.16 21.88 21.71 22.04 22.31
47.63 46.90 46.72 46.54 46.62 44.84 43.97 44.16 43.34 42.31 40.17 38.51 34.56 32.48 31.28 28.50 25.41 24.89 23.84 23.69 23.07 22.83 23.11 23.06 22.44 22.88 23.12 23.11 23.50 22.86 22.20 21.81 21.89 21.70 21.80 21.82 19.97 20.51 20.49 20.38 20.38 20.10 20.21 20.68
44.38 43.82 44.01 43.86 43.32 40.85 37.97 33.40 31.40 30.80 30.25 29.59 27.91 26.21 25.86 24.98 24.15 23.33 22.93 21.81 20.66 19.88 20.27 21.38 21.17 20.87 19.44 19.28 21.03 21.05 20.47 20.54 20.67 20.63 19.88 17.57 19.49 19.93 19.46 19.75 18.71 18.46 18.42 17.96
34.28 35.20 33.68 31.76 31.84 31.34 29.71 30.00 28.88 27.46 27.47 26.41 25.76 24.84 23.60 23.48 23.45 23.45 24.88 23.64 23.41 21.27 21.32 20.47 20.40 19.50 18.68 17.84 18.57 19.93 19.92 20.11 18.85 19.06 19.33 16.54 18.48 17.69 18.14 16.49 16.61 16.96 16.99 16.80
28.49 29.01 28.78 28.82 28.96 29.98 29.99 29.95 28.71 27.47 27.38 26.72 25.16 23.82 23.65 24.24 23.95 23.34 21.52 18.89 19.88 21.39 20.62 20.39 20.81 20.35 19.49 19.22 19.57 20.74 19.86 18.88 18.10 17.78 17.62 17.47 16.89 17.12 16.35 16.06 15.59 15.30 15.38 15.09
29.03 28.53 28.67 28.81 28.35 28.34 29.16 29.07 28.09 26.90 25.60 24.33 23.79 23.57 23.33 22.80 22.56 22.43 24.34 21.15 20.65 21.07 21.67 21.34 19.93 16.29 17.42 15.82 19.83 19.40 18.63 17.78 17.26 17.37 16.86 16.45 15.64 14.56 14.40 14.18 13.30 13.64 13.22 13.04
29.68 28.93 28.52 27.68 27.32 27.32 27.90 27.45 27.04 26.33 25.40 25.36 24.93 24.89 24.22 23.64 23.48 21.77 19.55 22.44 22.46 21.78 22.51 20.73 16.00 14.67 14.01 18.43 18.39 17.87 17.42 16.64 16.30 15.84 15.29 14.79 14.17 13.35 12.79 12.30 12.03 11.34 11.19 11.10
28.54 28.51 28.01 28.10 27.70 26.35 24.20 24.75 24.67 24.42 24.47 24.42 24.57 25.34 24.78 23.16 22.95 23.43 23.00 20.63 20.23 21.22 20.46 18.04 15.99 13.17 11.68 17.65 17.21 16.55 15.79 15.70 15.12 15.13 14.72 12.64 13.04 12.88 11.95 11.40 10.41 10.84 9.83 9.14
27.73 27.46 26.63 25.87 24.43 24.25 24.40 24.44 23.92 23.75 23.72 23.39 23.41 23.70 23.69 24.74 24.65 22.81 21.92 19.78 17.86 19.41 20.07 13.71 12.38 11.53 15.75 16.18 15.80 14.78 14.22 14.17 14.38 12.87 11.75 11.65 11.63 11.06 11.08 10.60 9.53 9.07 7.54 6.75
25.13 24.84 25.55 25.85 25.58 25.67 25.49 25.14 23.80 24.29 24.30 23.32 23.15 23.61 23.27 22.80 22.14 21.47 20.16 18.86 18.21 16.81 18.13 18.16 16.74 14.96 15.23 15.26 14.52 13.27 13.29 12.79 12.69 12.35 11.00 10.38 10.47 10.32 9.74 8.92 8.16 7.35 6.75 6.77
24.00 24.10 23.55 22.71 22.88 22.87 22.93 22.68 21.81 20.34 21.39 22.85 21.08 21.85 21.53 21.45 19.80 19.27 18.11 18.70 17.67 16.99 16.81 16.42 15.79 14.59 13.35 12.57 11.84 12.85 12.50 12.13 11.25 10.25 8.89 8.82 8.79 8.63 8.10 7.42 6.61 5.79 4.78 3.96

GFSNGP_sfc_wetblb_066.txt.gz
Wetbulb
44.59 45.59 45.56 44.93 44.11 44.29 42.92 44.90 41.71 43.88 43.53 46.64 49.26 49.98 51.68 54.03 53.75 53.17 53.65 54.55 55.47 57.03 58.87 60.36 60.27 58.58 57.47 56.49 56.04 54.51 52.41 50.29 49.15 49.12 47.92 47.43 46.45 46.91 46.39 46.14 45.71 43.98 43.49 42.99
42.51 45.16 44.92 43.35 45.14 45.03 44.69 44.82 44.73 45.50 45.04 50.13 50.76 51.18 50.76 52.52 52.60 52.49 53.70 55.08 55.95 57.34 59.41 60.23 57.63 54.87 53.67 52.21 51.31 51.21 48.86 47.83 48.04 47.59 47.32 46.30 46.79 44.97 44.28 43.78 43.14 42.77 42.15 42.00
37.33 43.56 43.09 37.50 43.73 44.60 45.32 46.65 45.92 42.33 46.83 49.59 48.90 50.00 51.16 52.00 52.12 52.55 54.70 55.23 55.88 57.68 59.94 57.64 55.57 54.18 51.99 50.23 50.09 49.22 48.65 48.09 47.79 47.84 46.50 46.03 45.78 44.37 43.41 42.94 43.24 42.52 41.48 41.64
37.65 37.89 31.34 43.48 48.66 47.52 45.90 46.75 47.50 47.36 48.17 49.25 49.77 51.28 52.93 53.98 53.55 53.94 54.86 55.17 56.74 58.04 57.76 56.59 55.46 54.01 52.80 51.82 50.54 49.72 49.29 49.03 48.54 48.03 46.68 45.98 45.79 45.34 44.23 42.77 41.13 41.16 41.25 41.63
35.90 36.10 40.84 43.42 46.32 46.15 45.00 44.62 48.87 47.94 48.87 49.79 50.68 52.82 51.63 54.28 55.46 55.08 54.68 55.59 56.27 56.83 56.42 55.86 55.15 54.78 53.46 52.07 51.36 50.51 49.35 48.57 47.83 47.18 46.07 45.85 43.80 42.49 42.49 42.42 42.41 42.39 43.29 42.90
39.92 34.00 31.44 43.15 48.26 50.55 49.95 40.06 49.62 49.89 50.30 50.24 51.33 46.24 49.85 53.03 54.92 54.27 54.62 55.04 54.83 54.94 54.57 53.74 53.08 52.51 51.03 49.84 49.00 47.69 47.56 47.32 47.42 46.96 45.53 44.28 43.80 43.42 43.61 43.73 43.45 43.40 41.31 39.74
37.18 36.12 41.05 47.49 49.11 50.30 39.52 42.05 51.61 52.04 51.85 52.02 50.31 52.19 52.92 53.33 53.60 53.96 53.45 53.04 53.64 53.32 51.99 51.68 51.82 50.81 49.24 48.77 47.61 48.26 48.12 47.42 46.68 45.89 44.97 44.92 44.41 44.06 43.13 40.36 39.79 36.59 36.03 36.59
38.71 35.21 33.87 50.51 48.95 43.21 48.31 52.57 53.76 53.31 53.52 54.37 52.68 52.40 51.91 52.42 51.79 51.47 50.92 51.41 52.11 51.18 50.58 50.74 50.90 50.11 48.46 47.01 47.96 47.68 47.03 45.31 44.45 44.52 43.45 42.58 40.35 39.26 39.13 38.96 36.33 34.06 31.96 31.68
42.35 42.06 51.08 50.37 50.48 52.17 54.15 54.29 53.93 54.40 54.49 54.86 52.60 51.20 51.16 50.38 50.25 50.29 50.31 50.33 51.34 50.07 49.17 50.05 50.35 49.59 46.75 46.31 46.63 45.24 43.65 42.19 40.84 40.93 40.90 40.61 38.53 36.61 35.84 34.82 31.89 30.24 29.79 29.85
42.86 48.16 49.73 51.94 51.55 53.10 53.51 53.42 54.69 54.80 55.14 54.89 52.81 51.52 50.26 50.05 49.59 49.15 49.51 49.52 49.84 48.79 48.12 47.69 48.77 48.35 46.52 45.46 44.55 42.99 40.66 39.51 38.97 37.14 36.08 35.59 35.21 34.52 33.45 30.46 29.46 29.13 28.96 27.93
44.11 47.84 48.63 49.77 50.53 52.45 52.80 54.18 54.21 54.22 53.81 53.30 53.31 51.13 50.36 49.30 48.83 48.94 48.95 48.90 48.86 47.63 47.18 46.64 46.14 44.52 44.42 43.74 42.97 40.56 38.81 36.92 34.57 34.19 34.12 33.09 30.22 30.16 28.17 26.23 26.74 26.91 26.75 26.08
43.19 48.78 49.87 50.24 52.20 53.13 52.07 52.87 54.21 53.36 52.54 53.14 54.00 51.69 50.72 49.06 49.03 48.82 48.22 48.10 47.38 46.65 44.63 43.32 42.51 41.63 41.71 42.11 40.62 37.44 34.69 33.82 32.33 31.77 30.51 31.66 29.42 27.51 28.47 26.86 27.41 26.73 25.47 24.38
46.11 50.80 51.02 52.75 52.83 52.57 50.93 52.13 54.11 53.18 53.01 52.01 53.57 52.14 50.62 48.74 48.65 45.39 47.91 46.81 45.02 43.09 41.63 40.16 38.47 37.98 38.29 38.22 36.82 34.40 30.63 30.48 29.62 30.18 29.52 28.82 28.59 28.38 24.66 25.43 27.37 26.52 25.40 24.16
51.03 50.51 49.43 51.43 50.52 51.22 50.75 51.52 51.94 52.83 52.97 52.55 52.40 51.08 49.10 47.84 46.87 46.43 45.06 44.79 43.03 39.57 37.37 35.60 34.02 32.44 33.33 32.83 30.99 29.15 28.73 29.98 30.00 29.47 29.17 28.94 27.77 27.35 26.98 25.78 24.09 24.56 25.25 24.63
49.23 50.38 50.99 52.43 52.13 50.66 50.25 50.12 48.82 49.29 50.02 49.49 49.83 48.18 47.68 46.02 44.64 44.01 42.00 39.30 37.30 35.33 33.73 32.83 30.81 30.09 31.59 31.92 30.28 29.47 28.73 28.20 28.44 27.43 25.49 25.21 26.74 26.19 25.76 24.87 24.52 23.92 24.36 24.22
50.15 50.96 50.31 49.98 49.25 49.16 48.57 47.69 46.65 46.79 47.07 47.30 46.92 46.10 45.46 43.88 38.86 36.16 35.38 34.54 31.98 28.25 27.12 25.24 26.53 28.09 29.93 28.96 26.69 24.73 23.84 24.46 25.59 25.79 25.28 25.07 25.00 24.13 24.15 23.53 23.28 22.88 22.15 21.59
46.72 46.31 47.10 47.12 47.50 47.36 46.14 46.68 46.95 45.90 45.69 44.79 42.39 37.95 33.43 27.88 26.69 25.30 25.28 25.66 25.04 24.33 24.63 24.16 23.85 25.27 25.69 26.41 26.28 25.59 24.18 21.38 20.88 24.00 23.50 22.58 22.37 22.06 21.86 21.49 21.08 20.59 19.91 17.36
46.51 46.71 46.27 46.09 46.03 44.80 39.65 35.84 34.97 34.31 32.88 30.71 28.55 26.90 24.94 23.61 22.40 22.12 22.17 22.85 22.43 22.14 22.58 22.46 22.44 22.11 21.84 22.48 22.68 22.27 21.87 21.61 21.59 21.11 21.15 21.27 19.37 19.35 20.23 19.54 19.33 18.64 18.33 18.63
39.51 38.96 38.49 37.59 36.62 34.80 32.89 30.60 29.66 28.79 27.58 26.42 24.53 22.92 23.01 22.75 22.61 22.40 22.76 21.44 20.21 18.74 20.14 22.11 21.90 20.07 19.46 20.58 21.02 21.02 20.76 20.56 20.23 19.89 19.33 17.77 18.14 19.51 18.95 18.22 17.84 16.53 16.18 16.09
30.51 31.47 31.16 30.59 30.38 28.71 26.94 27.12 26.96 26.00 25.82 24.85 23.90 22.85 21.65 21.92 23.16 23.37 22.98 21.02 21.19 20.58 21.96 21.11 20.13 18.79 18.03 18.17 19.35 19.66 19.54 19.14 18.08 18.63 19.22 16.79 17.17 17.46 16.20 16.08 15.65 14.81 14.49 14.08
28.16 28.51 28.30 27.98 27.79 28.32 27.87 27.26 26.34 25.31 25.74 25.34 23.91 23.23 22.55 22.65 22.60 21.88 19.81 18.04 20.55 21.54 20.94 20.82 20.22 19.41 18.24 18.52 19.08 20.30 19.87 19.02 18.14 17.79 17.48 17.18 16.08 16.16 15.36 14.66 14.62 13.71 12.97 12.93
28.83 28.08 27.80 27.89 27.06 26.41 27.11 26.56 25.31 24.21 23.97 23.55 23.43 22.85 22.09 21.84 22.60 21.67 21.76 19.22 20.38 20.86 21.08 19.77 17.41 15.76 16.05 15.26 19.51 19.57 18.45 17.97 17.20 16.99 16.44 16.07 15.05 13.88 13.15 12.91 12.23 12.24 11.65 9.70
28.48 28.22 27.47 26.53 25.82 26.08 26.33 26.18 25.74 25.21 24.60 24.44 23.97 24.05 23.55 23.68 23.57 20.81 18.48 21.54 22.25 22.42 20.34 17.00 15.26 14.44 13.29 17.19 18.46 17.94 17.42 16.12 15.78 15.92 15.30 14.73 13.92 12.95 11.73 11.41 10.98 10.60 9.70 9.23
27.57 27.45 26.88 27.03 26.24 24.77 23.17 23.77 24.04 23.96 23.51 23.88 24.30 25.45 24.52 22.21 21.61 22.08 21.54 20.39 19.60 18.52 17.49 16.88 14.05 13.09 10.71 17.21 17.46 16.52 15.44 14.77 14.52 14.54 14.06 12.24 12.66 12.68 11.91 10.66 9.89 9.14 8.69 7.22
26.70 26.63 26.32 25.23 24.32 24.01 24.70 24.68 24.21 24.03 23.40 22.65 22.69 22.58 22.70 23.25 21.96 21.40 20.25 18.77 17.85 19.54 15.28 12.43 11.81 11.82 15.87 16.37 15.52 14.04 13.63 13.43 12.89 11.30 10.74 10.83 10.27 9.48 9.70 9.92 7.94 7.76 5.49 4.05
23.88 23.23 23.82 24.91 25.08 25.12 24.64 24.03 22.78 24.15 22.95 21.18 21.77 22.38 22.39 22.46 21.88 20.36 19.15 18.01 17.40 16.87 16.98 17.26 15.01 13.97 14.32 12.99 11.57 11.62 12.35 12.31 11.59 11.26 9.63 8.34 7.78 7.57 7.73 7.51 6.75 6.05 5.27 4.14
22.45 22.46 21.62 21.06 21.63 21.08 21.07 20.66 19.45 18.51 20.86 21.30 19.74 20.37 20.69 20.82 19.65 18.91 18.29 17.14 16.47 16.21 15.48 15.00 14.92 13.57 13.24 11.18 11.58 11.13 10.52 10.38 9.75 8.33 7.68 7.08 6.62 5.93 5.66 5.24 4.30 3.55 2.51 1.81

GFSNGP_sfc_wetblb_069.txt.gz
Wetbulb
40.53 43.74 44.39 43.24 42.24 42.21 41.67 42.44 36.73 39.73 41.44 43.98 45.08 45.71 46.92 48.03 48.86 48.74 49.57 49.75 50.91 52.20 53.75 55.53 54.24 52.99 52.11 52.36 52.26 52.18 50.95 49.65 47.99 48.36 48.77 48.33 46.93 46.52 46.21 46.00 45.10 44.82 43.81 43.36
38.47 42.96 43.64 41.65 43.14 42.70 42.81 41.93 40.85 43.88 42.50 47.58 47.13 46.82 47.82 49.31 49.40 49.56 49.26 50.57 51.76 55.19 56.54 55.03 53.46 51.41 50.82 49.67 50.21 50.06 49.13 47.94 47.74 46.63 46.45 45.83 45.58 45.62 44.02 43.95 43.89 43.71 42.71 42.07
33.53 40.42 40.69 33.56 40.47 41.82 43.46 43.52 42.24 37.63 42.02 45.85 45.01 45.62 45.77 47.31 48.79 49.43 50.62 51.49 53.14 56.58 55.81 53.69 52.14 50.79 48.91 48.30 48.97 48.70 48.10 47.52 47.40 46.74 45.75 45.25 44.71 43.84 43.02 42.58 42.67 42.00 41.64 41.65
33.53 34.54 28.67 39.32 46.02 46.08 43.79 44.73 44.34 43.40 43.70 45.26 45.44 45.42 46.28 47.22 48.38 50.66 51.23 51.40 55.26 54.74 53.45 52.31 50.93 49.57 49.07 49.08 48.45 47.58 47.16 47.10 46.80 45.92 44.90 44.40 43.89 43.11 42.55 41.57 40.01 39.52 40.93 41.32
32.66 32.74 37.46 41.10 43.63 43.42 42.22 41.25 44.93 43.16 44.66 45.75 46.04 46.53 46.32 49.64 50.24 50.43 50.90 51.95 52.93 53.72 52.52 51.58 50.67 50.17 49.60 49.36 48.91 48.44 47.53 47.07 46.47 45.85 44.88 44.71 43.20 41.82 40.38 39.24 40.26 40.78 41.51 40.76
33.12 30.06 28.05 38.75 45.33 48.09 46.56 35.02 46.25 46.32 45.33 45.91 46.00 39.16 42.91 49.31 50.75 50.68 51.70 52.80 52.68 53.12 52.56 51.37 50.53 50.34 48.81 48.47 48.43 47.51 47.46 46.68 45.59 45.33 44.14 41.82 40.21 39.89 40.66 41.25 41.46 41.76 40.35 36.28
30.77 31.85 35.92 44.74 46.87 48.29 35.72 35.44 47.20 47.51 46.18 45.99 43.67 44.95 47.30 49.71 49.29 50.67 50.98 51.36 51.67 51.31 50.09 49.09 50.16 49.41 47.27 46.34 45.27 45.67 45.83 45.91 45.75 43.96 42.41 42.43 41.79 41.15 40.72 39.28 36.16 33.26 32.61 33.55
32.64 32.01 30.44 47.29 45.72 40.82 43.14 46.73 48.00 47.05 47.80 47.58 48.08 47.54 49.31 49.75 49.41 49.25 48.93 49.70 49.81 48.26 47.35 47.20 47.73 47.27 45.46 44.31 45.72 45.87 45.08 44.10 43.24 43.38 43.69 42.76 39.35 36.99 37.14 35.78 32.93 30.48 29.92 29.07
38.09 35.89 44.95 47.62 46.58 48.44 49.90 48.84 48.72 48.18 48.37 49.17 47.04 47.23 49.09 48.64 47.66 47.55 47.32 47.79 47.77 46.88 46.05 46.17 46.51 46.65 44.18 44.31 44.75 43.76 42.59 41.69 39.62 39.43 38.87 37.84 35.82 34.04 32.90 31.64 28.43 27.33 27.69 27.39
40.58 43.56 44.80 47.02 49.19 50.03 50.44 49.51 50.48 49.28 48.90 50.19 48.36 47.68 46.99 46.71 45.96 45.85 45.49 45.50 45.63 45.84 45.01 44.38 45.24 45.10 44.00 43.67 42.72 41.20 37.86 36.61 35.44 34.07 32.96 31.90 32.84 31.59 28.75 26.10 25.42 26.97 26.89 25.17
41.13 44.77 45.57 46.76 47.72 48.61 49.58 50.64 50.75 50.68 50.00 48.27 48.34 47.00 46.73 45.23 45.16 44.80 45.23 45.03 45.49 44.57 43.81 42.96 42.97 42.12 41.95 40.72 39.87 37.61 35.36 33.06 31.40 30.90 28.80 27.46 27.71 26.70 24.76 24.78 26.73 24.95 23.62 24.61
37.07 45.07 44.37 45.63 48.10 49.12 48.38 49.21 50.01 50.03 49.31 48.88 49.00 47.48 46.63 45.16 45.28 44.77 43.93 44.27 44.09 42.78 40.09 39.16 39.65 39.21 39.85 39.67 36.62 33.23 31.22 30.06 27.68 26.85 26.69 26.53 25.38 25.28 27.68 27.30 27.97 27.57 26.52 23.37
41.51 45.73 47.77 49.13 49.79 49.44 47.84 48.40 49.24 48.64 49.40 48.37 48.68 47.13 45.95 44.68 44.67 41.56 43.86 42.95 40.24 37.72 35.86 32.20 30.94 30.24 31.67 33.38 32.57 30.29 27.91 29.40 29.00 28.37 27.82 27.44 26.32 25.35 22.95 26.24 27.35 26.69 25.94 25.32
46.50 47.19 44.91 46.13 45.40 47.64 47.88 48.54 48.07 48.40 47.97 47.97 46.91 46.03 44.76 44.05 43.10 42.94 39.87 37.13 34.95 31.83 30.27 29.62 28.58 27.72 29.53 30.61 29.88 29.33 29.10 28.58 27.59 27.19 26.57 26.12 25.49 25.44 25.95 24.15 22.95 23.54 26.00 24.65
46.48 46.56 45.75 48.59 47.93 46.72 47.07 46.32 45.19 44.62 44.67 44.22 44.54 43.38 42.09 38.06 36.16 34.91 33.83 32.68 31.03 29.34 28.38 28.02 27.65 27.68 27.83 27.33 26.85 26.52 27.06 26.57 25.41 24.10 24.59 25.26 25.53 25.45 25.26 24.58 24.28 23.40 24.09 23.78
46.31 45.87 46.25 45.63 45.75 45.00 44.65 44.29 42.75 41.78 42.00 37.96 33.26 30.45 29.86 28.30 27.11 26.54 27.25 27.18 24.58 22.65 23.30 22.73 23.47 25.52 27.30 25.95 24.74 24.12 24.18 25.21 25.74 25.39 24.99 24.19 24.16 23.42 23.15 22.48 22.23 21.97 21.26 20.45
41.57 41.24 42.22 42.14 40.87 38.04 36.45 37.37 36.69 33.82 30.51 28.47 27.06 26.83 25.66 23.87 22.92 22.45 22.50 23.22 22.85 22.45 22.88 22.33 22.31 24.22 25.31 25.71 25.52 24.02 22.24 23.08 23.33 23.87 22.53 21.89 21.74 20.84 20.94 20.38 19.98 19.71 18.24 15.06
37.73 37.14 37.03 38.86 36.28 33.76 31.49 30.48 29.35 27.95 25.80 25.33 24.58 23.57 22.74 22.19 21.39 21.68 22.27 22.39 20.84 19.83 20.57 21.50 22.00 22.43 22.79 23.18 23.32 22.68 22.20 22.06 21.59 20.35 20.83 19.28 18.10 18.65 19.51 18.60 18.51 17.17 15.98 16.44
33.98 33.11 32.67 31.73 30.94 29.32 27.84 26.65 26.02 25.84 25.45 24.96 23.87 22.69 22.96 22.78 22.00 21.03 20.79 19.27 18.20 17.23 18.81 20.81 21.44 20.30 20.40 22.11 21.71 21.23 20.53 20.00 19.32 19.29 19.37 17.81 17.22 18.58 16.67 15.42 14.47 12.96 13.07 13.50
28.92 28.98 28.41 27.50 27.82 26.85 25.20 25.55 25.24 24.28 24.24 23.38 22.76 22.12 20.77 20.68 20.62 19.68 19.48 18.09 19.36 19.61 21.25 20.59 20.13 19.13 18.83 19.33 20.21 19.90 19.42 18.42 18.36 17.83 17.13 15.83 14.21 12.93 12.66 13.46 13.76 11.21 7.92 7.59
26.94 26.92 26.16 25.57 24.86 25.20 25.03 25.20 24.11 23.14 23.46 23.09 21.28 20.21 19.86 20.30 20.21 19.68 17.93 16.32 19.59 21.41 21.18 19.83 19.68 17.90 16.99 17.12 18.94 19.32 18.26 16.55 15.61 15.48 13.81 11.35 10.51 11.18 9.35 7.90 7.19 6.64 6.20 6.04
26.12 24.99 24.31 24.05 23.51 23.15 24.07 24.05 23.55 22.74 22.35 21.77 21.70 21.32 19.87 19.10 18.81 18.53 19.46 18.14 20.34 21.02 18.96 16.76 15.45 14.27 14.26 16.18 18.14 16.45 16.76 15.13 14.19 13.53 11.88 9.37 7.38 5.68 5.46 5.02 3.61 4.94 3.44 1.11
24.99 24.55 23.97 23.19 22.81 23.10 23.72 23.70 23.15 22.99 21.83 21.48 20.95 20.78 21.01 21.30 20.70 17.78 16.80 21.32 20.05 17.03 15.86 14.40 12.93 12.06 11.38 15.17 14.49 13.86 11.81 10.32 10.21 10.61 10.84 10.00 10.08 7.73 4.74 5.24 5.80 3.52 -0.06 1.74
24.69 24.59 24.33 24.87 24.12 22.94 21.43 22.82 23.14 22.45 20.95 20.66 20.63 22.13 20.49 18.11 18.16 19.17 18.30 15.90 13.71 13.96 13.18 11.79 11.89 11.89 10.35 12.53 11.89 9.33 6.89 3.66 4.85 2.10 2.14 -0.44 -3.80 2.48 5.74 2.07 2.78 1.87 0.28 -4.53
24.95 24.99 25.09 24.11 22.95 22.58 23.17 23.37 22.35 21.58 20.40 20.05 20.16 20.32 20.02 20.20 17.17 17.14 16.37 16.34 17.00 13.18 10.67 9.81 10.04 8.94 8.12 3.34 1.56 -0.48 -1.63 6.72 6.15 5.74 5.20 1.15 -3.09 -7.24 -6.51 -0.76 0.81 1.14 0.24 -0.81
21.03 20.07 19.71 20.71 20.73 20.68 20.19 20.61 20.08 19.94 19.20 17.61 17.84 17.78 17.95 18.14 18.00 16.97 16.09 15.13 14.57 13.50 13.08 8.80 10.49 6.79 2.67 -0.03 -3.44 -3.63 -2.19 -0.48 2.98 0.69 -5.06 -6.33 -8.15 -5.79 -4.19 -0.80 -0.83 -2.05 -7.06 -11.77
19.36 19.46 18.51 17.47 17.82 17.61 18.10 17.12 15.41 15.66 17.26 15.49 14.26 15.31 15.72 14.88 14.17 13.35 11.30 11.11 9.59 7.08 5.77 5.30 4.95 4.97 2.95 -0.42 -1.32 -3.44 -4.54 -5.43 -4.70 -3.26 -9.42 -11.59 -12.13 -10.87 -3.80 -6.70 -10.87 -14.31 -12.32 -11.77

GFSNGP_sfc_wetblb_072.txt.gz
Wetbulb
39.10 41.31 41.59 40.45 40.48 42.02 40.07 39.55 36.47 39.38 40.04 43.38 44.41 45.19 45.92 46.39 46.64 46.12 47.07 49.40 50.54 50.37 54.09 53.60 54.03 54.08 54.18 53.39 52.45 54.15 52.23 51.53 49.69 49.67 49.81 48.89 48.87 48.51 48.21 47.93 47.77 47.93 45.22 44.05
35.91 40.66 41.05 38.63 41.26 42.62 42.50 40.69 41.35 41.33 40.66 46.21 47.48 45.40 45.81 47.01 47.31 45.84 47.37 47.34 49.67 52.53 54.38 52.63 52.33 51.94 52.35 51.43 50.91 51.58 50.15 48.40 48.20 47.90 47.66 47.19 46.29 45.57 45.21 45.01 44.96 44.33 43.53 43.26
30.80 39.04 38.86 33.32 38.49 41.00 41.58 42.70 41.55 37.35 42.34 46.80 46.28 45.92 44.65 46.14 46.78 46.48 47.24 50.49 52.67 54.22 54.37 52.45 51.87 51.36 50.64 50.36 50.56 49.77 48.60 47.88 47.70 47.30 46.09 45.37 45.08 44.49 43.65 43.23 43.34 42.58 42.15 42.32
29.14 33.80 27.61 37.57 45.05 45.01 42.56 43.84 44.53 42.92 43.39 44.23 45.08 45.49 44.85 46.07 46.97 47.88 49.08 51.62 53.63 54.18 52.09 50.82 50.70 50.34 50.08 50.29 49.74 48.96 48.30 47.39 46.96 46.35 45.17 44.75 44.22 43.67 42.91 42.52 41.77 41.59 41.34 41.41
29.92 30.40 35.12 38.79 42.44 42.77 41.61 40.61 45.27 43.03 44.10 44.46 44.00 44.97 43.55 46.80 47.90 50.36 48.84 52.44 53.06 52.69 50.59 49.19 48.63 49.26 49.27 48.56 48.32 47.93 46.96 46.55 46.18 45.47 44.21 43.99 42.90 41.88 40.90 40.39 40.85 41.13 41.70 41.62
29.54 28.10 24.81 36.10 44.15 47.12 46.16 35.60 45.61 45.55 44.42 44.53 43.78 37.54 41.51 47.40 49.75 49.65 51.29 52.57 51.87 51.04 50.71 49.61 48.80 49.02 47.80 47.23 47.33 46.90 47.03 46.39 46.12 45.18 44.62 43.05 41.82 40.91 39.58 40.20 40.89 41.67 40.37 36.50
27.87 27.42 32.76 41.84 45.42 47.30 35.84 35.93 46.06 47.08 45.79 44.34 42.19 43.78 45.75 48.83 49.38 50.75 51.90 51.78 51.95 51.31 50.04 49.09 48.96 48.20 46.73 46.53 46.11 47.51 47.08 46.04 45.05 43.67 41.63 40.87 40.46 39.94 39.35 38.16 36.52 33.16 31.65 31.33
29.93 26.84 27.31 44.92 44.99 39.73 42.17 45.24 46.53 46.63 47.33 46.28 45.56 46.07 47.05 48.38 48.56 49.36 49.74 50.03 50.97 49.28 48.16 48.78 48.40 46.91 44.68 43.31 44.55 45.08 44.46 42.78 41.94 41.56 41.88 41.05 39.55 38.22 37.00 34.36 30.95 30.13 28.36 26.58
34.46 33.61 42.47 46.03 46.47 47.51 47.48 45.89 46.76 47.18 48.31 48.30 46.14 45.91 47.33 47.31 47.95 48.55 48.82 47.65 47.98 46.43 45.11 45.36 45.94 45.57 43.05 43.22 43.30 42.77 42.15 41.34 41.32 40.50 39.44 37.68 35.71 34.14 33.25 31.95 29.39 28.33 27.53 25.01
37.71 41.15 43.85 46.01 47.65 48.64 48.55 47.08 48.68 48.47 48.12 48.02 46.30 45.75 46.26 46.11 45.32 45.48 45.81 45.84 46.06 45.77 44.50 42.94 43.90 44.16 43.40 42.67 42.30 40.57 37.73 36.99 35.23 31.48 30.83 30.72 30.30 29.77 28.81 26.29 26.35 27.82 26.83 25.09
38.61 41.92 44.96 45.47 47.61 48.31 49.24 49.02 47.94 48.96 48.30 47.28 47.23 46.53 45.35 45.47 46.07 45.79 44.31 44.70 45.56 44.40 42.95 41.66 42.08 41.12 41.30 40.14 39.52 36.09 34.26 32.18 29.39 28.88 28.26 26.90 25.25 25.22 25.73 26.30 27.20 26.85 25.55 25.41
35.49 44.11 43.37 44.40 46.69 49.23 47.52 46.52 48.29 48.43 48.43 46.56 47.94 46.28 45.43 43.70 44.21 44.49 43.19 43.89 41.03 39.63 37.31 34.53 35.51 36.57 37.93 38.01 36.01 33.07 30.24 29.02 28.34 27.15 26.23 26.17 25.16 25.57 29.02 28.34 28.73 27.99 26.88 25.27
40.23 43.43 45.15 46.39 46.85 47.41 45.70 47.22 48.51 47.29 47.57 46.96 47.68 45.64 44.41 43.59 43.28 40.96 41.71 38.94 33.97 31.48 30.72 30.75 30.68 30.79 33.00 33.33 32.37 30.50 28.59 28.41 28.27 28.16 27.50 26.35 26.01 25.70 23.74 26.47 27.72 27.16 26.73 26.22
45.09 43.82 43.00 44.77 45.07 47.40 47.40 47.17 46.85 46.22 44.70 44.48 43.99 43.84 43.10 41.31 39.25 36.42 32.69 31.07 30.72 29.94 29.26 28.57 27.86 28.02 30.35 30.30 28.94 27.69 27.08 27.71 26.66 26.38 26.29 26.15 26.05 26.01 25.74 24.68 23.81 24.60 26.10 25.04
41.14 44.85 43.60 46.31 45.61 45.27 45.77 45.36 42.93 40.21 37.18 35.56 37.76 38.18 36.52 33.37 31.09 29.90 29.25 28.74 28.20 27.01 26.45 26.52 25.89 26.28 28.51 29.16 28.55 27.90 27.07 25.86 25.68 25.51 25.37 25.45 25.49 25.19 25.13 24.55 23.89 23.60 24.36 23.53
40.65 43.14 43.93 43.38 42.63 42.36 43.13 41.50 36.93 32.42 31.01 29.63 27.77 27.00 26.86 26.26 25.29 24.79 25.20 25.62 23.78 22.51 24.11 24.92 25.32 26.22 27.18 26.84 26.25 25.80 25.54 25.73 25.67 25.35 24.66 23.91 23.77 23.23 22.58 22.30 21.94 21.21 21.19 20.03
37.05 36.54 37.51 37.99 36.41 35.32 34.02 33.01 31.62 29.24 28.03 26.12 25.24 25.15 24.67 23.69 23.13 22.31 22.19 22.89 22.69 22.73 23.29 23.07 23.04 24.59 24.73 24.74 23.45 23.09 23.66 23.82 23.42 23.23 22.58 22.08 21.22 20.44 20.58 19.81 19.29 19.11 17.63 16.56
34.80 33.80 32.53 33.94 32.46 29.67 27.97 27.50 27.19 26.38 25.11 25.27 24.60 23.69 22.90 22.12 21.03 20.86 20.76 20.72 19.61 18.96 20.08 21.22 22.26 22.41 22.46 22.74 22.26 21.90 21.64 21.64 21.27 20.74 20.05 18.67 18.38 19.14 19.08 18.25 17.87 16.71 16.10 16.98
31.04 30.28 29.92 29.14 28.49 26.93 26.06 25.25 25.03 25.05 24.32 23.64 22.93 21.64 21.37 20.52 19.99 19.74 19.74 18.40 17.16 15.99 17.55 20.30 21.84 20.75 20.99 21.65 21.08 20.63 19.66 18.99 19.41 19.25 19.26 17.46 16.75 17.37 15.75 15.33 14.95 13.55 13.47 13.11
26.22 26.37 26.03 25.60 25.99 25.02 23.53 23.86 23.93 23.15 23.13 22.17 21.15 19.81 18.46 18.69 18.99 18.24 18.24 16.84 18.13 18.78 20.36 19.80 19.41 18.70 18.59 19.74 20.13 19.29 18.56 17.65 17.36 16.99 15.99 15.70 14.57 12.80 12.62 12.76 12.39 10.50 7.70 9.11
23.50 23.40 22.93 22.68 22.32 22.83 22.86 23.23 22.15 21.15 21.64 21.30 19.71 18.61 18.28 19.24 19.20 18.78 17.31 15.45 17.64 18.33 17.41 16.51 16.24 16.39 17.95 18.75 18.40 17.48 16.11 14.95 13.66 12.60 11.36 10.34 8.55 8.67 6.77 5.16 5.53 5.52 5.33 4.43
23.40 22.89 22.65 22.62 22.17 21.94 23.05 23.18 22.68 21.65 20.93 20.02 19.69 19.11 18.14 17.74 17.86 18.21 19.01 16.72 16.53 15.70 15.21 14.16 14.12 13.94 15.98 16.10 15.13 13.57 13.07 12.03 11.18 10.60 8.83 8.84 8.00 6.23 5.36 3.52 3.01 1.60 -0.54 -2.69
22.98 22.93 22.73 22.00 21.26 21.19 21.79 21.60 21.35 21.07 19.51 19.33 18.79 18.98 18.32 18.63 19.17 15.70 13.36 16.17 15.61 13.61 13.75 12.89 13.00 12.78 12.31 11.26 9.56 7.76 5.97 5.05 2.84 1.41 1.04 -0.19 -0.37 -3.05 -1.42 0.53 1.91 1.71 -1.50 -0.78
23.09 23.39 22.96 23.63 22.87 21.37 19.21 20.58 21.19 20.68 19.97 19.76 18.78 18.68 17.26 14.74 15.34 16.07 14.63 12.68 11.52 11.25 11.32 11.22 10.67 9.86 7.58 6.32 5.29 3.97 3.30 2.79 -0.90 -7.75 -5.94 -6.30 -11.02 -11.38 -8.48 -9.02 -2.04 -1.58 -1.21 -4.32
21.31 21.54 21.85 21.79 20.87 19.85 20.45 20.37 19.60 19.24 18.57 18.07 17.75 18.02 17.76 17.08 14.15 15.06 14.94 13.57 13.40 11.33 10.58 9.30 7.94 5.68 4.34 2.29 -0.30 -3.95 -5.22 -7.75 -8.30 -9.57 -11.74 -14.10 -15.37 -16.09 -14.82 -10.66 -9.93 -8.84 -11.20 -14.10
18.46 17.63 17.81 18.81 18.79 19.16 20.13 19.23 17.13 17.13 16.11 14.34 14.30 14.25 14.97 14.78 14.37 13.20 11.47 10.07 9.30 8.36 8.08 6.07 3.70 1.19 -2.39 -2.86 -6.67 -10.29 -10.29 -2.02 -3.05 -6.49 -14.10 -15.55 -16.46 -14.10 -15.01 -14.28 -16.82 -18.09 -19.54 -16.82
17.30 17.32 16.57 15.61 15.92 16.29 15.62 15.25 13.96 12.22 11.51 9.70 8.44 10.58 11.49 10.66 8.81 7.89 4.70 3.99 3.13 1.04 -2.73 -7.94 -5.80 -4.69 -5.41 -10.47 -8.85 -11.02 -11.20 -11.20 -11.02 -13.03 -18.81 -19.18 -15.37 -17.18 -19.18 -20.26 -21.71 -20.45 -20.26 -18.45

GFSNGP_sfc_wetblb_075.txt.gz
Wetbulb
38.07 39.59 40.95 39.93 39.38 40.06 36.98 38.53 35.73 37.70 39.13 42.85 44.78 44.88 45.31 44.90 45.08 44.83 45.88 46.76 49.26 50.20 50.98 51.87 52.23 53.64 54.34 54.88 55.53 56.89 56.58 56.64 55.69 53.70 53.35 53.32 54.83 55.87 53.83 52.82 52.44 51.01 48.68 46.40
35.02 39.01 40.71 38.61 40.34 39.05 38.25 39.42 39.08 39.59 39.01 44.36 46.88 44.87 44.23 46.02 45.39 45.17 45.53 46.42 48.29 49.70 53.09 52.55 52.70 51.66 52.23 53.06 52.50 53.65 52.31 52.84 50.89 50.96 50.06 48.79 48.25 47.53 46.96 46.57 46.71 46.13 44.96 44.31
30.45 37.78 37.98 31.59 36.26 39.58 39.18 40.32 39.89 35.77 40.82 44.97 44.06 45.26 45.19 45.31 45.11 46.10 45.83 46.48 48.04 51.19 53.51 52.43 51.74 53.15 52.69 51.66 52.16 51.69 51.26 49.82 49.17 48.97 47.74 46.68 46.62 45.94 45.09 45.63 45.43 43.82 42.92 43.55
30.16 33.51 25.72 35.99 43.01 43.29 41.11 42.42 44.18 42.61 42.89 43.77 44.95 47.29 45.63 45.95 45.83 45.58 45.77 46.13 47.85 51.04 52.30 50.96 51.39 51.93 50.96 51.27 51.03 50.14 49.56 49.40 49.04 48.32 46.32 45.71 45.33 44.50 43.44 43.21 42.50 42.13 42.36 42.04
29.47 28.89 33.14 36.66 40.81 41.42 39.47 39.28 44.28 43.42 44.17 43.66 43.42 43.20 43.23 46.40 45.04 46.41 47.22 48.63 49.82 51.44 50.96 51.85 51.53 51.04 50.41 49.94 49.60 48.89 48.03 48.21 47.74 46.29 45.10 44.66 43.45 42.31 42.16 41.91 41.89 41.79 42.20 42.08
31.81 27.18 22.78 34.31 42.55 45.94 44.56 33.84 45.01 44.70 43.66 42.97 42.41 37.15 40.97 44.95 45.50 46.09 47.76 50.82 50.13 49.31 50.31 50.11 50.23 50.64 49.70 48.65 48.38 47.72 47.32 46.61 46.13 45.64 44.63 43.21 41.97 41.12 41.67 42.34 41.80 41.45 37.53 36.81
31.39 30.67 32.28 39.89 43.70 46.40 34.81 34.24 45.35 45.96 46.06 45.09 40.89 43.22 44.59 44.67 47.07 48.74 50.48 51.04 50.24 49.45 48.62 48.83 49.68 49.98 48.67 48.18 47.50 47.70 46.91 45.99 45.48 44.98 43.40 42.84 41.86 41.16 41.06 40.63 37.85 33.25 30.65 30.98
29.90 28.32 28.04 43.48 43.52 38.64 41.41 44.43 46.55 45.63 45.76 45.79 44.89 44.48 45.70 46.21 47.52 49.49 49.94 49.73 49.72 48.36 47.69 48.48 47.99 47.47 46.55 46.56 47.43 46.91 45.66 43.90 42.75 42.31 41.86 41.28 40.36 39.05 37.34 35.44 32.45 30.11 28.39 27.28
35.58 33.09 42.12 44.66 44.84 46.81 47.14 45.76 45.82 46.21 46.42 46.91 46.21 45.15 45.16 46.12 47.78 48.48 49.28 48.59 48.51 47.99 46.62 46.73 46.81 46.27 43.56 43.04 44.74 43.78 42.83 41.66 40.84 40.21 39.37 38.00 37.55 34.01 32.11 32.23 29.75 28.46 27.38 25.51
37.51 41.25 43.17 45.23 46.09 47.95 48.11 47.44 47.64 46.70 46.53 46.34 46.54 46.42 44.95 45.39 46.38 46.31 46.65 46.42 46.42 46.06 44.55 43.09 44.15 44.44 43.26 42.77 42.49 41.44 39.52 36.48 35.47 33.35 31.76 31.43 31.52 32.08 31.24 30.32 29.55 28.33 25.83 23.71
38.67 41.38 43.73 44.16 45.13 45.72 47.23 48.77 46.84 47.17 47.07 46.93 46.88 46.43 46.25 45.47 45.24 45.28 44.58 44.66 45.29 44.09 42.13 41.33 42.23 41.98 42.21 41.60 39.74 35.55 33.60 32.67 31.06 29.37 27.75 26.91 27.42 28.46 27.87 27.81 29.83 28.46 27.00 25.75
33.46 40.74 42.06 41.73 45.08 46.88 46.70 47.43 47.00 46.86 47.64 47.53 47.11 46.18 44.85 44.09 44.13 44.03 43.42 42.85 39.98 37.25 37.08 37.17 37.69 36.44 36.88 37.50 35.80 32.95 30.25 29.78 29.11 27.69 26.71 26.69 25.70 25.30 28.78 28.43 29.03 28.86 27.61 25.61
39.35 42.53 42.82 44.69 45.08 46.63 46.05 44.89 47.08 45.59 45.95 46.59 47.31 45.55 43.72 42.54 40.79 36.42 35.54 34.81 32.81 31.79 31.17 30.67 30.18 29.81 31.43 32.41 31.97 30.47 28.52 28.08 27.68 27.23 26.79 26.23 26.28 25.61 23.61 26.71 28.17 28.08 27.64 26.93
41.81 40.55 41.65 43.17 43.13 45.32 46.50 45.42 43.22 40.33 39.16 41.26 42.59 42.09 39.94 34.33 32.21 30.58 29.34 29.42 29.12 28.23 27.76 27.79 27.42 27.13 29.23 29.50 28.77 28.18 27.67 28.02 27.35 27.13 27.23 26.88 26.12 25.86 26.21 25.49 24.28 24.62 26.31 25.68
37.05 37.92 41.63 42.98 43.61 43.76 44.59 42.91 37.39 34.36 32.86 32.27 33.35 32.77 30.87 27.80 26.36 26.02 26.59 26.74 26.27 26.04 26.47 26.86 26.79 27.29 29.38 29.70 28.83 28.09 27.44 26.36 25.98 25.73 25.55 25.31 25.51 25.23 25.01 24.29 23.57 23.84 24.53 24.53
35.70 39.47 39.90 38.56 37.64 37.14 38.18 36.54 32.05 30.31 28.42 26.71 25.26 24.80 24.68 24.39 23.83 24.13 25.11 25.83 24.37 23.57 24.54 24.24 24.64 25.81 27.09 27.04 26.18 25.85 25.70 25.41 25.14 24.37 23.51 22.60 22.45 22.10 21.69 21.90 21.31 21.03 20.87 19.97
33.56 33.61 32.16 34.84 31.14 30.03 29.96 30.19 29.14 27.35 25.79 24.90 24.28 24.52 23.80 22.88 22.29 21.45 21.44 22.11 21.95 21.80 22.72 22.41 22.33 23.72 24.41 24.40 23.84 23.43 22.98 22.65 22.62 21.93 20.78 20.30 19.90 19.76 19.77 19.22 18.75 17.78 16.79 17.03
33.76 32.32 31.38 30.67 29.34 27.63 25.95 25.84 25.35 24.85 24.02 24.04 23.37 21.95 20.87 20.27 19.36 19.38 19.61 19.86 19.22 18.98 20.20 21.02 21.68 21.82 21.99 22.19 22.09 21.67 21.26 20.63 20.08 18.83 18.46 17.42 18.58 18.20 16.52 16.68 16.40 15.90 15.68 15.57
29.18 27.96 27.89 27.48 27.28 26.28 25.19 24.09 23.54 23.16 22.37 21.64 20.17 18.98 19.17 18.83 18.42 18.08 18.40 17.24 16.36 15.38 17.16 19.89 21.99 20.78 20.24 21.00 20.10 19.52 18.72 18.15 18.08 17.66 17.41 16.04 15.59 15.31 14.44 13.60 12.35 10.30 10.65 10.90
24.47 24.66 24.63 24.12 24.70 23.69 22.17 22.63 22.37 21.33 21.48 20.75 19.58 18.03 16.90 17.20 17.51 16.76 16.32 14.63 15.77 16.27 18.21 18.73 19.28 19.25 19.16 18.73 18.89 17.61 16.38 15.36 15.20 14.52 12.72 12.06 10.40 9.17 8.83 9.11 9.03 6.07 4.97 6.77
22.24 22.33 22.09 21.82 21.33 21.80 21.85 21.64 20.41 19.12 19.78 19.64 18.23 17.28 17.14 17.92 17.52 16.91 14.37 12.05 14.37 16.29 17.05 17.59 17.47 16.90 16.88 16.11 15.15 13.89 12.83 11.70 10.51 8.82 7.58 5.36 4.26 4.26 2.19 0.97 1.42 -1.26 -2.53 -4.52
21.88 21.22 20.76 20.91 20.46 20.26 21.37 21.33 20.66 19.61 18.90 18.53 18.20 17.80 16.63 14.63 14.19 13.64 14.24 12.82 14.55 15.23 15.59 14.73 13.76 12.68 12.22 12.26 11.60 9.97 9.82 8.22 6.49 5.09 2.65 2.11 -2.21 -5.61 -7.97 -9.60 -8.51 -7.60 -7.78 -7.78
21.73 21.49 21.09 20.14 19.56 19.72 20.52 19.97 19.13 18.32 16.94 16.58 16.23 16.25 16.50 16.79 15.94 12.03 9.75 13.83 14.46 13.42 12.43 11.03 9.87 8.85 7.78 7.21 6.07 4.12 2.68 0.97 -0.71 -4.20 -8.15 -11.95 -13.04 -15.22 -14.49 -13.40 -12.13 -11.77 -12.13 -9.23
22.06 21.78 21.13 21.44 21.04 19.47 17.44 18.61 18.89 18.41 16.93 16.74 16.09 16.81 15.04 12.24 12.04 13.59 13.30 12.04 11.05 10.09 8.96 7.70 6.40 5.23 3.62 1.72 -0.52 -2.77 -5.25 -8.51 -10.50 -13.95 -11.95 -14.85 -20.29 -19.93 -18.12 -18.48 -14.67 -15.76 -16.49 -15.58
19.68 20.45 20.94 19.96 18.42 17.52 18.21 18.21 17.42 16.96 16.16 15.70 15.80 15.77 15.57 15.70 12.20 12.58 11.96 10.76 10.78 7.97 6.05 4.27 3.24 0.21 -3.00 -5.65 -8.15 -8.69 -9.05 -11.41 -15.94 -17.75 -18.84 -20.11 -20.66 -21.02 -20.84 -19.93 -20.66 -21.02 -21.92 -21.38
17.25 16.42 16.81 17.45 18.29 17.74 17.34 16.52 14.08 14.10 13.15 11.16 11.43 11.04 10.69 10.66 9.86 8.85 7.40 6.38 5.70 3.45 0.93 -1.97 -3.72 -4.85 -8.00 -9.42 -12.86 -13.22 -12.68 -9.86 -15.22 -16.49 -20.47 -20.11 -19.57 -18.12 -21.02 -19.75 -23.01 -21.74 -22.65 -20.66
15.75 16.12 15.18 14.21 14.22 13.85 13.32 12.08 9.84 8.53 8.90 8.12 7.70 9.07 7.67 6.35 5.11 3.97 0.91 -1.04 -3.40 -5.31 -7.62 -9.43 -10.21 -9.31 -12.68 -17.21 -15.40 -16.49 -16.12 -16.49 -17.94 -17.94 -23.74 -22.83 -21.02 -22.83 -24.46 -24.83 -25.55 -25.55 -24.28 -24.46

GFSNGP_sfc_wetblb_078.txt.gz
Wetbulb
35.98 36.60 37.56 37.71 37.62 38.96 36.70 35.35 32.95 34.95 36.93 42.64 43.20 43.94 46.02 45.39 44.28 43.52 44.38 45.82 46.94 47.88 48.91 51.15 51.32 52.32 53.23 53.40 54.02 54.37 54.71 54.81 54.68 55.60 56.09 55.46 54.25 54.31 54.21 54.45 55.45 54.87 52.20 50.19
32.70 36.41 36.91 35.28 37.34 37.53 37.18 37.28 36.81 36.36 36.58 43.97 45.20 45.69 44.37 45.69 45.35 43.94 44.05 45.24 46.43 47.50 47.79 48.43 49.50 50.37 51.25 51.71 52.81 54.23 54.30 54.26 55.03 54.05 54.22 54.03 52.60 51.69 51.69 50.77 50.23 49.79 48.76 47.91
28.59 35.26 35.59 30.39 35.35 36.59 37.44 39.07 38.35 33.99 38.38 43.75 43.53 43.55 44.06 45.45 45.11 45.32 44.48 45.33 47.05 48.47 50.06 51.56 50.73 49.89 49.93 51.72 50.62 53.02 53.42 53.24 52.69 51.30 50.29 49.27 48.54 47.64 47.09 46.03 45.63 44.38 44.54 44.31
28.46 30.73 23.05 34.59 41.23 42.11 39.92 40.64 40.98 40.73 41.84 44.24 45.00 45.29 44.50 45.56 45.80 44.95 45.88 45.83 45.55 47.69 49.08 50.00 50.30 49.86 51.32 52.86 51.95 51.65 51.32 50.38 49.86 49.55 47.96 47.06 46.68 45.79 44.00 43.98 43.41 43.04 42.68 42.85
29.86 28.63 31.54 34.79 39.35 39.97 37.84 37.20 42.10 41.74 43.63 45.41 45.57 40.97 41.57 43.95 45.50 47.43 47.06 47.75 46.48 47.51 48.86 50.61 51.14 51.25 51.27 51.06 50.61 50.27 49.24 48.84 48.90 48.39 46.61 46.03 44.29 43.04 42.70 42.27 42.09 42.07 42.54 42.13
31.20 28.43 24.84 33.09 40.09 44.14 42.94 32.30 43.57 44.07 42.71 42.22 41.34 35.35 39.92 43.63 44.25 46.09 44.51 46.53 47.78 49.35 50.14 49.93 50.06 50.95 50.28 49.51 49.26 48.14 48.21 47.58 47.51 47.35 46.14 43.84 42.24 41.89 42.60 42.57 41.29 38.53 37.08 38.27
31.17 28.73 32.73 39.68 42.05 44.13 32.22 34.35 44.51 45.85 44.84 43.32 40.18 42.42 44.89 44.39 44.95 46.26 47.27 48.15 48.76 49.40 49.51 49.48 50.76 50.78 49.02 48.84 47.80 47.61 46.95 46.29 45.86 44.84 43.36 42.56 41.77 42.08 41.58 37.23 34.35 32.42 30.74 31.12
31.91 29.59 27.44 42.62 43.56 37.80 40.27 43.53 44.93 45.54 45.80 45.94 46.03 45.70 45.81 45.13 45.71 47.28 48.33 48.68 48.48 48.22 48.55 49.67 50.51 50.07 48.44 46.81 46.67 46.40 45.44 43.86 42.86 42.60 42.30 41.40 39.76 38.44 36.85 34.15 31.49 29.77 28.71 27.61
32.59 32.45 40.24 42.76 44.06 45.89 46.66 45.11 45.31 45.78 46.25 46.37 45.54 45.76 45.58 45.59 47.09 47.70 47.56 48.91 48.25 47.51 46.95 47.74 48.61 48.91 45.93 45.52 45.03 43.80 42.41 40.95 40.13 39.37 39.41 39.24 37.18 35.28 33.66 32.80 30.72 29.37 28.26 26.42
34.83 37.82 40.35 42.80 45.19 47.35 47.52 46.68 47.44 47.40 47.06 46.41 45.70 45.32 45.56 44.95 46.18 46.07 46.68 46.53 47.11 46.90 45.69 44.46 44.83 43.94 43.13 43.30 43.18 41.41 38.63 37.28 36.78 34.79 33.49 33.52 33.54 33.75 32.98 31.53 30.02 28.81 27.61 25.50
34.89 38.11 40.30 42.50 44.71 46.35 47.23 47.31 46.92 46.41 46.06 46.94 46.37 45.42 46.24 45.30 44.82 44.64 44.24 43.84 43.92 43.32 42.16 41.87 42.16 41.54 41.31 40.60 40.28 37.59 36.24 34.67 32.67 31.99 30.72 28.69 28.18 29.17 29.16 29.56 31.00 28.99 27.10 25.54
30.55 38.35 38.29 39.68 43.61 45.54 44.93 45.43 47.37 45.81 45.95 46.60 45.40 43.98 43.87 43.36 43.20 42.14 40.38 39.53 38.41 37.84 36.24 34.48 33.87 34.35 36.25 37.33 36.31 33.35 30.06 28.05 27.98 28.01 27.21 26.80 26.24 26.10 29.78 29.71 30.32 29.73 28.77 26.71
37.16 40.06 39.24 40.59 41.50 44.09 44.91 44.79 43.71 41.61 41.62 41.77 42.82 42.73 41.03 35.16 34.76 32.99 31.75 31.98 31.40 30.44 30.14 29.61 29.33 29.34 31.14 31.89 31.52 29.96 28.02 27.99 28.02 27.76 27.40 26.83 26.74 25.93 23.99 27.38 28.56 28.08 27.64 27.03
38.71 37.95 38.15 39.18 38.75 42.25 43.27 41.62 38.82 36.51 34.82 35.17 34.05 33.84 31.95 30.38 29.88 29.04 28.30 28.82 28.91 28.60 28.12 28.18 27.89 27.69 29.53 29.78 29.01 28.26 28.16 28.12 27.51 27.30 27.12 26.95 26.56 26.27 26.06 24.67 23.17 23.93 27.05 26.48
35.35 36.75 38.46 38.11 36.88 36.92 37.63 37.11 31.87 29.65 29.05 27.89 28.78 27.60 27.15 25.39 24.90 25.41 27.03 27.64 27.71 27.20 27.29 27.52 27.05 27.21 29.33 29.55 28.61 28.05 27.17 26.18 25.91 25.61 25.25 24.80 24.56 24.08 23.71 23.34 23.25 23.51 23.80 23.03
33.91 36.49 34.86 33.04 31.53 31.58 33.27 32.35 29.69 28.44 26.42 25.64 24.54 24.23 24.26 23.84 23.23 23.40 24.42 25.62 24.04 22.53 23.31 23.42 23.97 26.03 27.42 26.90 25.76 24.96 24.29 24.16 23.65 22.86 22.14 21.74 21.70 20.99 20.81 20.37 20.21 19.43 18.13 18.21
31.74 31.62 30.74 32.16 28.55 26.68 26.24 27.08 26.54 25.40 24.93 23.94 23.40 23.51 22.64 21.89 21.03 20.43 20.47 20.98 20.78 20.71 21.50 21.56 21.37 23.45 23.95 24.04 23.02 22.39 21.62 21.01 20.71 20.16 19.52 19.24 19.03 18.59 18.54 17.74 16.85 16.31 15.22 15.46
31.34 31.09 30.56 29.51 28.35 26.29 24.71 24.65 24.01 23.25 22.23 22.10 21.40 19.99 18.89 18.34 17.52 17.83 18.54 19.00 18.52 18.50 19.58 20.22 20.89 21.04 21.19 21.57 21.48 20.88 20.29 19.44 18.62 17.72 18.03 16.70 16.02 15.92 14.93 14.33 14.09 13.11 12.61 11.53
26.59 26.66 27.20 27.34 27.23 25.42 23.87 22.66 22.04 21.44 20.12 19.07 17.89 17.09 17.48 17.52 17.22 16.90 17.15 16.14 15.33 14.86 16.90 19.82 21.39 19.82 19.44 20.01 19.37 18.75 17.76 16.83 16.61 16.10 15.39 12.90 11.72 11.49 10.06 8.34 5.95 3.70 4.72 5.21
23.04 23.39 23.32 23.33 24.36 23.04 21.38 21.64 21.12 20.02 19.86 18.78 17.56 15.82 14.47 14.22 14.36 13.97 14.08 12.95 15.01 16.59 18.35 18.31 18.05 17.02 16.49 16.52 16.88 15.53 14.22 13.53 12.17 9.82 9.36 8.11 5.00 1.75 1.81 3.24 2.89 -1.51 -5.50 -2.78
21.21 21.29 20.77 20.37 19.54 20.03 19.80 20.21 19.12 17.86 18.43 18.20 16.29 14.87 14.18 14.81 14.75 14.53 12.94 11.49 14.51 16.12 15.96 15.74 15.09 14.34 14.30 14.05 13.23 11.81 10.32 8.37 6.68 4.76 3.00 -1.12 -3.46 -4.63 -6.24 -9.12 -8.04 -10.21 -9.85 -9.12
20.23 19.66 19.11 19.20 18.86 18.53 19.48 19.43 19.06 18.06 16.62 15.20 14.69 13.95 12.63 11.88 12.19 12.52 13.69 12.55 13.92 13.43 12.89 12.00 11.45 10.52 10.53 10.84 9.43 7.21 6.51 4.67 2.76 1.38 -2.36 -5.18 -8.22 -10.75 -14.92 -13.47 -13.29 -13.84 -14.56 -15.11
20.20 19.74 19.14 18.05 17.35 17.32 17.93 17.55 17.06 16.43 14.89 14.90 14.73 14.55 13.73 13.68 13.63 10.69 8.48 12.18 11.96 10.70 10.10 8.93 7.94 6.96 5.85 4.95 3.43 1.02 -1.07 -2.81 -3.30 -5.20 -8.94 -13.11 -15.29 -18.37 -17.46 -17.28 -18.91 -19.46 -19.82 -16.74
19.97 19.52 19.04 19.60 19.11 17.66 15.44 16.78 16.90 16.41 15.40 15.22 14.20 13.84 12.67 10.27 10.58 11.88 10.77 9.08 7.71 7.10 6.26 5.39 3.60 2.82 1.31 0.55 -1.37 -3.11 -4.86 -8.40 -12.75 -16.37 -13.29 -18.55 -23.99 -23.08 -21.63 -22.72 -19.28 -21.99 -21.63 -20.54
18.72 19.48 19.03 17.85 16.46 15.68 16.04 16.26 15.28 14.82 13.86 13.27 13.37 13.94 13.43 13.23 9.56 9.32 8.53 7.06 7.48 4.48 1.77 0.73 0.20 -1.41 -5.74 -9.12 -10.03 -11.66 -15.11 -18.01 -20.54 -20.91 -22.18 -22.90 -23.81 -24.35 -24.71 -24.35 -24.90 -25.08 -24.17 -24.90
15.96 14.93 14.75 15.77 15.36 15.18 15.00 14.68 12.52 12.64 11.31 8.80 8.34 8.13 7.97 8.28 7.56 6.42 4.75 3.47 2.64 0.43 -2.06 -6.36 -10.95 -14.20 -15.65 -13.47 -16.74 -18.19 -17.28 -14.09 -18.91 -20.18 -23.45 -22.90 -23.26 -21.09 -24.53 -23.26 -25.80 -23.99 -25.08 -25.26
14.81 15.16 13.92 12.44 12.42 12.07 11.78 11.14 9.33 8.21 8.74 7.10 5.52 6.46 4.86 3.76 2.59 1.27 -1.82 -3.72 -6.70 -8.31 -16.19 -18.01 -17.46 -13.47 -15.65 -19.28 -17.46 -19.28 -18.91 -20.00 -21.27 -20.73 -25.80 -25.62 -25.62 -27.43 -28.34 -28.16 -27.62 -27.25 -26.89 -26.53

GFSNGP_sfc_wetblb_081.txt.gz
Wetbulb
36.09 37.12 38.10 37.73 37.56 39.57 38.97 39.75 36.37 38.98 39.97 43.67 46.29 47.72 49.09 48.46 49.28 49.30 49.17 48.92 51.40 53.66 55.10 56.01 55.77 55.41 55.35 55.35 55.17 55.50 55.31 55.25 55.38 56.63 56.67 57.17 57.65 57.69 58.48 58.40 58.26 58.75 58.41 58.18
33.26 37.34 37.86 35.68 38.76 38.66 39.99 40.18 39.76 39.80 40.01 46.36 48.36 48.95 48.28 48.91 48.19 49.11 49.52 48.79 50.31 51.49 52.79 54.11 54.83 55.71 55.50 55.26 55.17 55.42 54.98 55.17 56.09 56.54 56.96 57.18 57.52 57.73 56.99 56.86 57.40 57.76 57.01 55.50
29.59 35.49 34.61 31.94 36.75 38.52 39.83 41.40 41.58 37.79 42.95 47.22 46.18 46.40 47.76 48.29 47.68 48.23 49.65 49.44 49.08 51.25 52.22 53.13 54.47 55.22 55.42 55.74 56.25 55.63 55.23 55.56 56.00 56.57 56.34 57.10 56.87 54.76 55.00 54.74 52.03 50.06 48.27 47.69
29.97 32.85 26.58 37.65 42.47 42.79 40.71 42.32 43.73 43.43 44.77 46.78 47.24 48.33 48.33 49.76 49.12 48.49 48.68 50.25 49.95 49.95 51.91 53.63 54.24 54.49 55.53 55.57 55.71 55.71 55.78 55.94 56.33 55.89 54.69 51.73 51.19 50.60 47.58 46.73 46.03 45.05 44.36 43.79
29.35 29.67 31.87 37.33 40.98 41.20 40.09 40.28 44.67 43.82 45.14 46.18 47.83 46.35 48.21 48.34 47.91 47.53 49.37 50.75 51.51 51.75 51.83 53.33 53.93 53.86 54.31 53.95 54.71 54.71 53.81 52.62 52.25 52.09 50.12 49.35 47.85 45.41 44.46 43.81 43.29 42.93 43.11 41.84
32.22 27.86 24.67 35.20 41.77 45.63 45.31 36.76 44.81 45.25 45.09 45.54 44.99 41.99 44.88 47.14 49.25 48.50 49.30 48.62 48.76 50.45 52.27 53.25 53.26 54.13 53.21 52.24 51.93 50.71 50.60 50.58 50.92 50.34 48.81 46.61 44.14 43.36 43.48 42.38 39.74 38.70 37.32 37.55
30.67 29.61 34.27 41.06 43.35 45.98 34.97 38.15 45.65 47.28 47.01 45.82 44.70 47.26 49.24 48.78 48.63 48.91 50.58 50.58 50.64 51.46 51.55 52.63 53.32 53.40 51.73 51.26 49.54 49.08 48.57 47.54 46.88 45.99 44.43 43.62 42.98 42.17 39.05 36.62 34.18 32.67 31.43 31.90
31.91 29.80 28.12 43.62 44.45 39.43 44.05 46.23 47.22 47.49 47.42 47.54 47.84 47.42 48.62 47.67 48.54 49.75 49.63 49.10 50.41 50.67 50.23 51.04 52.14 51.91 50.31 47.95 47.45 46.93 45.69 44.10 43.41 42.99 42.45 41.96 39.60 37.39 35.91 34.12 31.79 30.28 29.33 28.69
35.60 35.36 42.42 44.06 45.34 47.61 48.12 47.10 48.77 47.98 49.24 49.88 48.44 47.69 49.05 48.06 48.03 47.95 48.24 47.97 48.41 48.24 48.57 49.76 50.24 49.45 46.16 45.43 44.96 43.70 42.21 40.79 40.31 39.95 39.32 38.68 37.03 35.24 33.79 33.40 31.56 30.38 28.75 26.86
36.99 39.42 40.28 42.66 45.44 46.74 47.33 47.52 49.26 49.06 48.65 48.75 47.73 47.42 47.31 47.60 46.70 46.43 47.38 47.02 46.10 45.67 44.46 43.62 45.19 45.80 44.98 44.06 43.42 41.68 39.76 38.61 37.65 35.98 34.58 34.56 35.08 34.81 33.49 32.34 31.11 29.88 28.04 25.74
36.52 39.13 41.58 43.02 44.35 44.46 44.67 44.96 46.32 48.88 48.96 47.77 47.57 47.16 47.29 46.10 44.98 44.15 43.91 44.72 44.95 43.23 41.82 41.43 41.97 41.87 42.70 42.44 42.48 39.17 37.21 35.49 33.69 32.47 31.20 29.54 29.71 30.44 30.27 31.09 32.13 29.24 27.44 26.44
34.41 39.52 39.60 40.54 43.24 42.98 42.27 43.65 45.69 46.97 46.84 45.18 46.82 44.71 43.34 40.48 40.11 39.30 38.34 38.16 36.95 35.43 34.30 34.08 35.39 36.15 37.57 38.99 37.90 34.74 32.04 31.63 31.01 30.07 29.48 29.44 28.16 27.58 30.71 30.55 30.55 29.95 29.65 29.27
36.59 38.51 38.29 39.85 41.54 40.60 40.87 38.75 37.32 37.40 40.00 38.99 38.67 38.37 36.71 33.97 33.02 32.66 33.49 33.16 31.71 31.14 31.63 30.92 31.12 31.27 32.07 33.11 32.96 31.67 29.48 28.96 29.02 29.13 28.63 27.87 27.51 26.56 24.91 27.51 28.58 28.46 28.40 27.85
36.68 36.64 38.27 39.43 36.82 37.69 38.87 36.54 34.91 33.30 32.48 32.77 32.04 31.90 31.59 30.53 29.66 28.91 29.32 29.84 29.90 29.67 29.57 29.68 29.48 29.19 30.89 31.14 30.46 29.46 28.98 28.91 28.54 28.13 27.87 27.51 27.48 27.84 28.33 27.47 25.83 25.28 26.97 26.66
33.62 35.11 36.57 36.53 35.16 33.94 35.85 35.82 32.15 29.61 29.29 28.60 29.37 28.84 28.98 27.38 26.71 26.41 27.10 27.02 26.74 26.46 26.88 27.38 27.03 27.26 29.27 29.27 28.27 27.74 26.73 25.86 25.77 25.60 25.91 26.52 27.38 27.02 26.69 26.46 25.39 24.00 23.20 22.23
32.12 34.55 34.36 33.16 30.62 29.75 30.88 30.64 28.87 27.28 27.14 26.63 25.96 25.45 25.14 24.52 23.21 22.82 23.47 24.49 23.09 21.51 22.34 22.33 23.52 25.42 26.89 26.30 25.00 24.11 23.72 24.17 24.41 24.37 24.46 24.23 24.04 23.80 23.47 22.70 21.58 20.65 19.84 19.62
27.96 29.77 29.88 29.74 28.24 26.62 26.39 26.80 26.28 25.67 25.33 24.71 23.82 23.91 23.18 21.79 20.80 20.02 20.36 20.88 20.79 20.45 21.22 21.15 21.43 23.31 23.99 23.77 22.92 22.51 22.39 22.45 22.12 22.56 21.82 21.80 21.35 20.77 20.61 20.39 18.99 17.47 16.32 15.71
28.00 28.89 28.95 28.41 27.15 26.20 25.16 25.32 24.75 23.75 22.23 21.91 21.09 20.07 19.64 19.03 17.93 18.31 18.84 19.38 18.92 18.43 19.59 20.45 21.47 21.58 21.95 22.67 22.56 21.93 21.33 20.85 20.31 19.21 18.98 18.50 18.00 17.88 17.77 17.12 16.32 15.30 14.52 12.72
25.37 25.44 26.04 26.06 26.30 24.75 23.26 22.48 21.77 21.13 20.46 19.83 18.14 16.95 17.07 16.80 17.08 17.10 17.90 16.94 16.10 15.21 16.38 18.91 20.68 19.88 20.08 20.52 20.21 19.66 18.80 17.95 16.95 15.95 15.40 14.44 14.62 14.53 13.89 13.29 12.35 11.98 12.13 11.33
22.67 22.78 22.31 21.92 22.85 22.14 19.94 20.44 19.85 18.55 18.23 17.15 16.26 15.08 14.14 14.61 15.42 15.03 14.73 13.17 15.02 16.23 17.47 17.25 17.20 16.77 16.23 15.74 16.46 15.99 15.49 14.59 13.19 12.17 11.90 10.90 10.53 10.01 9.77 7.87 8.86 8.60 8.90 7.97
20.07 20.54 19.95 19.36 18.81 19.28 19.32 19.19 17.50 15.88 15.95 15.99 14.56 13.46 13.68 15.17 15.82 15.37 13.48 11.56 13.72 15.09 14.69 14.67 14.83 13.75 13.68 13.70 13.49 12.86 11.77 10.34 9.49 8.93 7.88 7.15 6.63 6.31 5.94 5.86 5.72 5.72 5.35 5.24
19.39 18.56 17.90 18.01 17.54 17.39 18.35 18.01 17.06 15.84 15.09 14.52 14.17 13.97 13.15 12.44 11.83 11.28 12.30 11.69 12.88 12.72 12.53 11.67 10.76 10.08 10.31 10.87 10.64 9.66 8.98 7.87 7.01 6.49 5.59 5.42 4.95 4.04 3.44 3.33 2.78 2.69 2.42 2.22
19.31 18.85 18.11 17.03 16.16 16.19 17.01 16.28 15.30 14.70 13.47 13.30 12.78 12.80 12.82 13.37 13.32 10.34 7.84 10.89 11.21 10.26 10.02 8.95 7.62 6.66 6.48 7.60 6.92 6.40 5.40 4.53 4.06 3.42 3.15 3.07 2.88 2.17 1.68 1.23 1.04 0.72 0.06 -0.31
19.17 18.57 18.21 18.51 18.03 16.40 14.46 15.85 15.89 15.31 14.16 14.01 13.33 13.36 12.30 9.80 9.78 10.66 9.72 8.05 6.82 7.34 7.22 6.67 5.58 4.58 5.03 5.82 4.92 4.04 3.41 2.75 1.97 1.90 0.41 -2.14 0.21 0.23 0.48 -1.02 -1.17 -1.16 -2.66 -3.98
18.00 18.34 18.03 16.96 15.52 14.81 14.76 14.86 13.66 12.85 11.77 11.06 11.27 11.55 11.66 11.41 9.09 8.52 7.96 7.40 7.01 5.90 5.06 2.39 2.58 2.67 3.78 3.49 2.35 1.34 1.23 1.25 0.83 1.18 0.65 -0.02 -0.87 -1.44 -1.20 -2.14 -4.49 -4.18 -4.53 -4.69
15.17 14.37 14.37 14.76 14.78 14.70 14.67 14.04 11.58 11.29 10.07 8.19 7.98 8.14 8.21 8.52 7.58 6.81 5.52 4.44 3.97 2.43 2.64 2.24 1.88 2.42 2.02 1.09 0.85 0.36 0.98 0.99 0.89 -0.41 -1.87 -1.45 -1.71 -1.71 -4.03 -5.12 -5.74 -5.88 -6.19 -6.36
14.55 14.76 13.66 12.20 11.96 11.65 12.13 11.56 10.14 8.97 8.84 7.57 6.09 6.56 5.88 5.19 4.15 3.43 1.61 1.71 0.84 0.08 0.01 0.47 1.25 0.20 0.97 0.96 0.54 -0.10 -0.14 -0.63 -4.53 -0.95 -1.75 -2.01 -3.49 -4.48 -6.36 -6.87 -7.02 -7.37 -7.90 -8.43

GFSNGP_sfc_wetblb_084.txt.gz
Wetbulb
36.99 38.76 39.38 39.12 39.67 40.95 40.07 41.49 38.80 40.97 41.76 45.02 47.52 49.58 51.02 52.38 52.75 52.87 53.33 53.56 55.28 57.74 59.60 60.05 60.32 60.84 60.80 61.05 60.40 60.35 59.25 58.68 58.66 59.47 59.79 59.55 59.84 60.05 59.31 59.30 60.04 60.26 60.15 60.25
34.28 38.58 39.34 38.03 40.14 41.43 42.06 42.05 42.48 43.00 42.72 49.01 50.58 51.37 51.10 51.66 51.86 52.10 52.59 53.31 54.17 55.59 58.63 59.59 59.69 60.46 60.21 60.21 60.25 60.30 59.29 58.75 59.30 59.20 59.14 59.19 59.48 59.38 59.14 59.22 59.53 59.93 59.51 60.09
30.13 37.45 37.13 33.73 39.31 41.33 42.60 44.04 43.26 40.30 45.29 49.13 48.42 48.91 50.29 51.18 51.98 52.14 53.20 52.85 53.15 54.03 56.11 59.12 60.20 60.17 60.14 60.32 60.73 59.76 59.44 59.30 59.09 59.11 58.94 59.22 59.38 59.45 59.17 59.31 59.24 59.02 59.96 59.75
30.42 33.89 26.30 38.34 42.72 44.59 43.54 44.77 45.85 45.64 46.95 48.47 49.18 50.94 52.15 52.69 51.82 51.66 51.79 51.78 52.04 53.24 55.21 57.02 59.76 60.55 61.11 60.82 59.95 59.30 59.14 59.04 59.22 59.11 58.97 59.20 59.17 59.04 59.15 57.93 56.18 52.20 47.91 46.36
28.42 31.41 35.40 35.81 37.62 40.41 41.84 42.66 47.29 46.35 47.76 49.31 50.49 51.25 50.98 51.91 53.09 53.53 53.42 52.98 54.01 54.21 54.36 56.60 58.14 59.78 59.97 60.23 59.82 58.91 58.48 58.68 58.94 58.95 58.67 58.25 56.79 55.47 52.65 48.09 45.96 44.56 44.20 42.21
31.70 28.44 26.52 36.12 40.88 45.01 45.54 38.66 48.15 49.00 48.71 49.07 49.73 45.49 49.10 52.59 54.14 54.79 55.08 55.22 53.27 53.40 53.09 54.60 56.65 57.68 58.61 58.81 58.97 58.16 58.74 58.68 57.90 56.88 55.18 54.17 49.88 45.97 44.51 43.08 40.41 38.96 37.08 37.07
30.56 29.37 35.12 42.78 44.77 46.35 34.95 37.71 47.48 48.77 49.95 49.64 48.78 50.47 52.33 52.84 53.88 54.61 54.52 53.76 53.60 53.57 53.39 54.84 56.55 57.53 56.89 57.50 56.69 56.32 55.49 54.77 53.51 52.47 49.04 46.06 43.69 42.00 39.55 37.06 35.21 33.52 32.11 32.40
31.12 30.38 28.61 45.14 44.44 38.67 42.61 48.60 49.13 49.10 50.11 50.56 51.14 51.55 52.52 52.29 52.31 52.71 51.56 50.74 52.43 52.60 51.83 53.80 55.86 56.29 54.29 52.21 51.08 50.27 48.36 45.99 44.81 44.22 43.49 41.47 39.32 37.39 36.12 34.28 32.33 30.95 29.64 28.84
36.87 36.47 43.42 44.21 44.25 47.36 47.86 46.88 47.46 49.39 51.57 52.08 51.54 51.23 51.99 51.88 51.49 49.99 49.17 48.40 49.85 49.49 48.65 50.46 52.44 52.09 47.45 45.99 45.41 44.39 43.24 41.92 41.04 40.52 39.71 39.05 37.25 35.53 34.06 33.41 31.50 30.11 28.70 27.20
37.62 41.17 41.87 43.14 46.20 45.44 47.16 46.86 48.84 49.80 49.96 51.71 51.21 52.47 51.33 50.82 49.91 49.26 47.30 46.23 46.12 44.99 43.50 43.54 44.88 45.22 44.59 43.81 43.13 41.11 39.11 38.19 37.62 36.51 35.94 36.21 35.93 35.41 34.22 32.74 31.16 29.57 28.04 26.20
38.11 41.41 43.74 44.45 45.43 44.76 44.29 45.88 46.18 49.20 51.14 51.32 51.65 51.15 50.74 48.61 46.54 45.35 44.89 43.61 42.32 41.00 40.18 39.79 41.55 42.37 42.54 41.36 40.41 37.54 35.51 34.44 33.03 32.33 31.69 30.37 30.47 31.71 30.95 31.53 31.92 28.92 27.35 26.77
37.72 39.72 40.49 43.28 44.30 44.26 42.64 42.26 42.24 44.09 48.98 48.45 50.41 48.31 46.53 42.46 41.34 40.10 38.65 37.52 36.13 35.66 35.07 34.89 35.70 37.26 39.55 40.00 38.60 36.00 33.52 32.34 31.94 31.14 30.57 30.34 29.19 28.27 30.73 30.46 30.85 30.73 30.97 30.04
38.59 39.39 41.18 43.24 44.37 42.46 41.25 41.27 39.26 40.33 41.27 41.66 41.60 42.17 40.94 36.73 34.53 33.35 33.62 32.95 32.35 32.20 32.82 32.68 31.88 31.61 32.76 34.92 36.01 33.87 31.92 30.99 31.02 30.48 29.07 28.37 27.88 26.61 24.60 27.64 28.99 28.80 28.57 28.25
37.11 38.21 39.92 40.33 36.80 39.01 40.00 41.28 39.02 38.07 37.91 37.86 37.61 37.32 35.25 32.05 30.66 29.51 28.80 29.37 29.78 29.44 29.14 29.30 28.84 28.97 31.56 31.80 31.89 30.83 30.24 30.06 29.43 29.09 29.05 29.05 29.23 28.47 28.52 27.44 25.58 25.41 26.76 26.28
34.37 35.45 36.74 37.18 35.76 35.62 38.20 38.64 36.99 34.94 34.45 33.87 34.42 32.58 31.98 29.39 27.96 27.01 27.13 26.81 26.38 25.96 26.32 26.71 26.26 26.13 27.93 28.81 28.19 27.86 27.42 27.02 27.58 28.13 29.00 29.43 29.77 29.48 29.32 27.83 25.41 24.26 23.99 23.48
32.10 34.02 33.68 32.90 31.44 30.18 31.70 34.32 33.74 31.36 31.42 30.36 29.25 27.88 26.40 25.69 24.40 23.60 23.74 24.48 23.04 21.98 23.04 23.22 23.42 25.27 26.78 26.74 25.87 25.46 25.79 26.94 27.55 27.60 27.96 27.92 28.24 27.37 26.25 24.86 23.63 22.87 21.93 22.09
28.36 30.06 30.59 30.20 29.53 27.65 27.12 29.11 29.91 29.28 28.48 27.51 25.86 25.24 23.80 22.45 21.49 20.61 20.50 21.00 20.99 20.83 21.60 22.21 22.31 24.61 25.79 25.80 25.24 24.23 24.03 24.90 25.11 25.45 25.77 25.37 24.65 23.68 22.84 22.24 20.97 19.57 17.89 17.42
28.23 29.12 29.21 29.11 27.91 26.86 25.52 25.49 25.34 25.39 24.19 24.20 23.33 22.42 21.31 20.59 19.34 19.12 19.27 19.50 18.67 18.18 19.89 21.66 23.02 23.74 24.46 25.31 25.37 24.80 23.97 23.07 22.81 22.25 22.21 22.07 22.43 22.12 21.65 21.11 19.95 18.67 17.58 16.04
26.12 25.96 26.60 26.81 26.97 25.69 24.44 22.41 21.56 20.78 20.39 19.85 19.03 17.66 18.34 18.45 18.54 18.87 19.11 18.31 17.94 17.26 18.39 20.72 21.47 21.75 21.78 23.32 23.64 23.53 22.62 21.41 20.49 20.13 20.18 19.43 19.78 19.40 18.83 18.52 17.59 17.19 16.63 15.51
23.95 24.19 23.61 22.99 23.50 22.70 20.71 20.42 20.10 18.16 18.33 18.08 17.89 16.91 15.79 16.36 16.81 16.10 16.62 15.41 16.99 18.13 19.56 19.73 19.57 18.52 18.38 18.95 20.26 20.49 19.77 19.24 17.87 17.47 17.46 16.95 16.71 15.37 13.91 12.88 14.39 14.51 14.05 13.61
21.23 21.18 20.75 19.85 18.46 18.50 18.27 18.35 17.18 16.23 16.65 17.04 15.68 14.98 14.86 16.40 18.16 18.56 17.21 15.24 15.96 16.77 16.81 16.55 17.72 17.47 17.73 18.26 18.30 17.73 16.76 15.42 14.77 14.68 14.03 13.71 13.34 13.10 12.19 12.16 11.79 11.62 11.50 11.79
20.52 19.39 18.99 19.23 18.50 18.00 18.59 18.62 17.88 17.03 16.74 15.92 15.79 15.78 14.72 13.66 13.47 13.16 14.23 13.99 14.75 14.17 15.30 14.57 13.57 13.01 14.72 14.66 15.38 14.82 14.06 13.50 13.25 12.82 12.34 12.18 11.34 10.70 10.20 10.08 9.79 9.97 10.49 10.18
20.36 19.85 19.01 17.97 16.91 16.97 17.28 16.57 16.06 15.62 14.40 13.62 13.09 13.57 13.88 14.53 15.63 13.75 10.42 13.31 14.05 12.66 13.33 12.09 10.12 10.44 11.31 13.37 12.89 12.03 11.39 10.85 10.59 10.29 10.37 10.08 9.69 9.17 9.07 8.04 9.07 8.61 8.00 7.23
19.82 19.28 18.90 19.46 19.34 17.61 15.25 16.48 16.42 15.93 14.98 14.75 14.26 14.84 14.44 12.65 12.02 12.48 11.55 9.87 9.40 10.34 10.29 10.00 9.15 9.12 9.93 11.33 10.62 10.08 10.01 9.71 9.71 8.90 7.69 6.31 8.85 8.05 7.69 6.24 5.98 6.73 5.52 4.62
19.60 19.46 19.10 18.09 16.54 15.65 15.79 16.03 15.27 14.75 14.17 13.73 13.57 13.70 13.81 14.39 12.49 11.82 10.94 9.71 9.38 9.50 8.99 6.55 6.88 7.69 9.89 9.07 8.54 8.01 8.33 8.19 8.47 8.92 8.06 7.26 6.91 6.44 6.58 6.03 4.37 4.23 3.57 4.06
18.44 17.09 17.32 18.11 18.10 18.04 17.48 17.03 14.98 14.82 14.08 12.43 12.05 12.37 12.25 11.75 11.03 10.28 8.83 7.86 8.19 8.04 9.02 8.64 8.27 8.80 8.64 8.18 7.58 7.03 7.96 7.92 7.76 6.11 5.78 6.13 5.46 5.57 3.98 3.07 2.82 3.20 3.11 2.77
18.83 18.23 17.35 15.91 15.87 16.72 16.81 16.29 14.91 13.22 13.35 12.09 10.02 10.93 10.54 9.93 8.71 8.22 7.87 8.44 8.03 7.70 8.09 8.43 8.03 6.56 7.12 7.50 7.10 7.08 7.57 7.47 1.92 5.58 5.69 5.24 4.51 4.41 2.52 1.86 2.25 2.10 1.59 0.73

GFSNGP_sfc_wetblb_087.txt.gz
Wetbulb
37.84 39.01 39.42 40.21 40.13 41.27 40.09 41.10 37.99 40.90 42.19 45.55 47.79 48.90 51.40 52.98 53.36 53.41 53.83 54.28 55.70 58.63 60.47 61.10 61.42 62.46 62.72 62.64 62.31 62.42 61.24 61.01 61.61 62.78 62.55 62.58 62.78 62.80 61.59 60.77 61.67 62.25 61.88 62.04
35.57 38.94 39.44 37.43 40.42 41.24 41.82 42.02 42.18 42.69 42.65 48.63 50.31 51.22 51.53 50.94 52.04 52.57 53.22 54.42 55.19 56.21 59.07 60.62 60.92 61.21 62.66 62.76 62.78 62.55 61.70 61.41 61.37 61.70 61.31 62.35 62.50 62.47 62.46 62.04 61.87 61.96 61.37 61.50
30.55 37.25 38.30 34.34 38.97 40.77 42.26 44.33 43.73 40.08 44.73 48.59 48.37 49.82 50.72 51.28 51.94 52.33 53.38 54.30 55.27 55.78 56.56 58.81 61.46 61.77 61.79 62.30 63.35 62.42 61.59 61.11 60.84 60.76 60.30 61.30 60.92 60.55 61.04 60.95 61.33 60.95 60.96 60.84
31.13 33.37 24.58 38.05 45.15 43.28 41.73 43.23 46.76 46.62 47.37 48.33 49.11 50.97 52.36 52.80 52.88 53.26 54.14 54.86 55.66 55.51 56.18 57.41 59.14 62.29 62.17 62.54 62.13 62.27 61.71 61.20 61.36 60.94 60.17 60.32 60.15 60.30 60.90 61.09 59.88 58.91 57.85 56.10
29.41 30.19 34.59 37.75 42.06 40.28 38.84 38.45 47.42 48.45 48.10 48.73 50.04 50.85 50.92 53.22 54.39 54.18 55.16 56.30 56.78 57.08 57.53 56.85 57.01 59.08 61.96 61.83 61.47 61.12 60.75 61.10 61.33 61.32 60.60 60.86 60.45 60.77 61.24 59.29 51.97 48.74 46.72 43.10
32.44 27.34 26.65 38.53 43.71 46.26 45.40 37.54 45.17 48.08 50.03 49.36 50.12 45.27 48.08 54.53 55.50 55.62 56.62 56.93 56.51 57.19 57.15 56.89 56.92 58.21 59.40 60.26 60.80 59.86 60.58 60.54 61.36 61.20 60.74 60.36 60.69 54.45 51.46 48.04 41.98 38.95 36.56 37.03
31.29 29.40 34.41 42.98 46.11 47.51 34.56 36.90 44.42 45.91 49.89 48.32 48.90 50.79 52.35 54.44 54.79 56.07 55.83 55.60 56.63 56.80 56.16 56.72 57.56 57.59 57.46 58.86 59.81 60.71 61.01 60.77 60.60 60.32 59.31 53.44 48.13 45.18 41.22 37.98 36.47 34.90 32.89 32.97
32.47 29.55 27.76 45.34 45.09 39.21 41.98 46.14 45.93 47.35 47.92 48.74 49.13 52.35 52.83 54.12 54.39 54.47 54.29 54.35 54.62 53.06 52.57 54.77 56.59 56.76 56.22 55.09 53.50 53.17 50.68 48.07 46.44 45.16 44.05 43.17 40.43 38.15 37.17 36.86 33.40 30.84 29.63 28.82
35.75 36.04 43.24 45.96 45.89 46.00 46.12 45.34 46.73 47.45 49.14 49.33 49.92 51.40 52.76 53.45 53.77 53.00 51.61 51.52 50.92 48.80 47.00 46.82 50.64 51.15 46.99 46.35 46.42 44.71 42.69 41.18 40.12 39.56 39.14 38.82 37.82 37.02 34.84 33.15 31.25 30.08 28.28 26.94
37.23 40.24 41.78 44.53 45.72 45.95 46.24 44.80 46.03 48.02 51.25 51.70 51.38 52.48 52.77 53.51 52.59 50.16 47.49 47.09 45.94 43.99 42.13 42.15 43.43 44.21 43.84 42.59 41.36 38.98 36.78 35.97 35.40 34.89 34.43 35.97 35.68 34.46 33.15 31.74 30.20 28.82 27.25 25.63
39.28 41.74 43.50 43.63 44.68 44.68 45.18 46.33 44.70 45.95 49.86 49.29 52.20 52.26 52.57 50.23 46.78 44.43 41.31 40.74 41.01 39.43 37.42 36.86 40.20 40.30 40.30 39.30 38.13 35.34 34.31 33.45 31.90 31.18 31.29 29.62 29.84 30.58 29.97 30.46 30.39 27.84 26.96 27.50
37.81 41.74 41.63 43.07 44.91 43.56 43.07 43.96 43.04 43.01 44.10 46.29 47.53 47.07 45.13 39.77 37.24 36.66 35.76 36.14 35.19 34.32 34.45 33.88 33.76 34.18 37.76 37.75 36.33 34.03 32.15 31.44 31.03 30.17 29.27 28.68 27.79 27.34 30.38 30.16 30.48 29.93 29.15 27.51
37.65 40.53 42.20 42.58 44.51 42.01 41.50 43.09 42.95 42.28 41.92 41.86 42.82 41.59 38.32 33.41 32.33 31.80 31.46 31.13 30.50 31.45 30.84 30.21 31.45 31.94 32.60 32.62 33.79 32.38 31.08 30.41 30.39 29.89 28.59 27.17 26.55 25.60 23.88 27.49 29.51 29.37 28.93 28.74
38.33 39.83 40.85 39.31 36.93 38.68 38.88 42.18 43.46 42.18 40.69 40.07 40.33 38.34 34.34 31.32 29.44 27.76 27.02 27.92 28.98 28.30 27.94 27.98 27.63 27.57 30.25 31.52 31.32 30.60 30.24 30.09 29.52 29.35 28.52 28.40 27.96 27.26 27.12 25.52 23.56 23.31 25.77 25.20
35.30 37.62 37.16 37.28 37.82 36.25 36.59 36.72 39.20 37.73 37.06 35.81 34.16 32.08 31.92 29.19 27.55 26.09 26.51 26.39 26.04 25.53 25.51 25.53 25.47 25.96 28.32 28.82 28.79 28.90 29.04 29.21 29.62 30.01 30.49 30.46 29.62 28.02 26.11 24.74 23.77 23.12 22.94 23.28
33.41 35.82 36.15 35.27 34.74 34.22 34.01 33.59 32.66 32.86 32.90 31.18 29.54 27.30 26.23 25.71 24.24 23.59 23.48 24.01 22.82 21.89 22.84 23.42 23.74 26.15 27.80 28.06 27.90 27.76 28.16 28.53 28.90 28.90 28.60 28.47 28.58 27.18 26.22 24.91 23.27 21.38 20.53 22.43
29.32 30.89 32.18 32.74 32.69 31.89 29.92 29.26 29.31 28.74 28.59 27.12 25.78 25.42 23.64 22.41 21.22 20.29 20.52 21.43 22.03 21.99 23.07 23.42 24.06 26.54 27.59 27.55 26.77 26.71 27.27 27.14 26.83 27.00 26.84 26.46 26.13 24.73 23.59 22.02 20.04 18.28 17.51 18.98
28.41 29.30 29.99 30.07 30.01 30.13 28.18 26.45 25.28 24.45 22.87 22.68 22.87 21.81 20.80 19.95 18.78 19.41 20.19 20.89 20.73 20.85 22.44 23.84 25.30 26.10 26.84 27.28 27.10 26.52 25.65 24.91 24.73 24.22 24.49 24.58 23.87 24.02 22.87 21.73 20.75 19.23 18.10 17.42
27.02 26.09 26.60 26.82 28.13 27.85 26.53 23.77 22.72 21.88 20.87 19.65 18.41 17.45 17.20 17.92 18.94 19.42 20.85 20.27 19.38 18.95 20.66 22.87 23.29 24.04 24.01 25.30 25.70 25.53 24.74 24.01 23.36 22.70 22.44 21.87 21.89 21.15 20.63 20.31 19.16 18.48 17.97 16.93
24.31 24.68 24.07 23.52 23.98 23.11 21.43 21.70 21.51 20.41 20.48 20.04 19.19 18.77 18.36 18.28 18.27 17.67 16.65 14.83 17.06 19.57 21.75 21.85 21.74 21.47 21.71 22.70 23.15 22.98 21.72 20.66 19.68 19.80 20.02 19.06 18.17 16.80 16.30 16.08 16.93 16.75 16.61 15.65
21.99 21.90 20.78 20.34 19.64 19.93 20.09 20.38 19.50 18.11 18.00 18.06 16.12 15.20 14.73 16.35 19.19 19.58 16.33 14.05 16.52 17.50 17.93 17.96 19.28 19.81 20.15 20.81 20.63 20.21 19.45 18.98 18.54 18.00 17.19 16.72 16.19 15.77 15.52 15.49 15.17 14.69 14.24 13.98
21.59 20.21 20.03 19.84 19.32 19.17 20.10 20.25 19.61 18.69 18.14 17.45 17.00 16.73 15.81 14.54 14.20 13.93 15.13 14.41 15.71 15.17 15.74 15.81 16.01 15.91 17.49 17.92 18.55 18.10 17.34 17.14 16.92 16.71 16.05 15.90 15.25 14.46 13.94 13.65 13.01 13.15 13.44 13.28
21.21 20.51 19.41 18.48 18.12 18.14 18.64 18.15 17.64 16.84 15.45 14.93 13.87 13.34 13.28 14.09 16.08 13.90 10.57 14.02 14.97 13.91 14.27 13.92 13.56 14.26 15.03 16.88 16.59 15.89 15.06 14.55 14.32 14.02 13.92 13.82 13.42 13.07 12.16 10.79 12.22 11.86 11.44 10.37
20.79 20.85 20.64 20.97 20.46 18.56 16.35 17.22 17.17 16.74 15.80 15.60 15.34 17.23 16.32 13.44 12.88 13.77 13.00 11.16 10.42 11.34 11.62 12.34 12.24 12.64 13.55 14.71 14.18 14.12 14.08 13.75 13.06 12.76 12.18 11.38 12.38 11.53 11.31 9.70 9.45 10.84 9.84 8.76
20.84 20.65 20.47 19.49 18.27 17.17 16.91 17.04 16.61 16.53 15.93 14.99 14.03 14.56 14.90 15.78 13.72 13.49 13.57 12.82 12.27 12.20 11.58 10.01 10.78 11.42 13.09 12.80 12.61 11.59 10.62 10.56 11.62 11.99 11.42 10.91 10.38 10.04 10.04 9.51 8.36 7.25 7.43 8.01
21.46 20.55 20.31 21.05 20.92 20.32 19.91 19.20 17.43 17.29 16.02 14.33 14.21 14.41 14.44 13.99 13.31 12.67 12.04 11.88 12.68 11.90 12.15 11.95 12.25 12.64 12.02 11.52 11.09 11.04 11.49 11.27 10.44 8.92 9.69 9.74 9.24 9.21 7.96 6.73 6.79 7.31 7.22 6.74
21.51 21.24 20.23 19.14 19.54 19.78 19.77 19.01 17.80 15.72 15.75 14.72 12.76 13.56 13.06 12.66 12.41 12.58 11.93 12.38 12.09 11.91 11.69 11.38 10.67 9.42 10.10 11.13 10.39 10.49 10.79 10.11 4.52 7.54 8.97 8.68 8.31 8.22 6.87 5.85 6.06 5.90 5.56 4.73

GFSNGP_sfc_wetblb_090.txt.gz
Wetbulb
36.18 37.18 37.73 37.11 37.55 40.09 39.44 40.14 36.46 39.21 40.04 43.96 46.25 47.73 49.13 51.68 52.34 53.23 53.42 54.11 56.10 58.07 59.08 60.30 61.16 61.38 61.54 60.43 59.73 59.91 59.76 59.75 59.05 59.21 59.60 59.30 59.53 59.72 60.41 60.43 59.86 59.45 59.13 58.79
34.16 37.73 37.95 36.00 37.77 38.67 39.72 40.42 40.26 40.74 40.69 46.84 48.25 49.05 49.40 51.14 52.01 51.28 52.75 53.92 55.05 56.15 58.40 59.66 60.54 61.45 61.74 61.10 60.15 60.32 59.57 59.53 60.38 60.80 60.55 59.58 59.36 59.62 59.76 59.71 59.76 59.72 58.99 58.85
29.18 35.87 35.73 31.62 37.28 38.29 38.81 41.35 41.23 38.00 43.18 47.33 47.21 47.86 48.78 50.47 52.01 51.94 52.83 54.33 54.63 54.84 56.31 58.12 60.34 61.10 61.31 61.65 61.54 60.41 59.86 59.86 60.17 60.31 60.24 60.28 60.62 60.21 59.51 58.67 58.93 58.59 58.61 58.63
29.88 32.45 23.55 36.40 42.28 44.03 41.49 42.95 44.22 43.89 44.74 47.13 49.05 49.55 49.91 52.38 51.74 52.56 54.03 54.56 55.38 55.81 56.25 56.76 57.00 60.63 61.42 62.55 61.87 60.49 60.09 60.05 60.30 59.80 59.83 59.87 59.75 59.44 59.34 59.29 58.50 57.96 57.90 57.40
28.18 28.60 32.98 36.48 39.69 40.72 39.76 39.30 43.80 43.78 45.50 47.85 50.41 50.08 49.75 53.97 54.58 54.48 55.18 55.79 55.61 56.50 56.74 56.87 56.40 56.82 60.71 61.01 61.48 61.09 60.19 59.93 60.14 59.73 59.19 58.89 58.54 58.31 58.25 57.93 57.73 52.00 46.76 44.00
31.49 25.88 24.14 37.47 42.91 46.37 45.06 35.69 44.49 43.01 43.34 45.21 47.97 44.32 48.14 53.87 54.94 55.01 55.41 55.37 55.23 56.28 56.39 56.30 56.93 56.27 56.45 59.66 59.89 59.90 60.66 60.45 60.42 60.21 59.33 58.13 57.62 56.66 50.24 45.29 40.71 38.70 36.49 36.33
30.60 28.07 32.89 41.25 42.87 44.02 34.18 35.46 44.51 45.87 44.21 45.67 43.95 45.96 49.24 52.51 54.23 55.18 54.99 54.32 54.86 54.59 53.24 53.65 55.59 56.65 56.03 56.44 57.33 59.40 59.81 58.23 55.13 54.94 53.80 49.56 45.17 43.02 41.26 38.03 35.54 33.83 32.54 32.69
32.00 28.51 25.95 44.87 43.83 37.72 41.27 45.45 45.47 45.67 45.14 45.49 48.39 49.62 49.96 50.08 52.98 52.75 51.89 51.25 50.67 49.72 48.17 48.68 51.47 53.41 50.03 48.22 49.09 48.93 47.01 45.27 44.92 44.85 43.53 42.06 39.19 38.03 36.74 35.02 33.05 31.31 30.04 29.31
34.48 34.50 43.31 42.49 43.46 44.78 45.30 43.49 43.19 43.72 45.10 48.82 49.01 50.04 50.63 51.47 50.42 48.11 47.13 45.73 45.46 44.01 42.92 42.94 44.12 45.58 45.48 43.78 43.68 42.45 40.99 39.98 39.85 39.60 38.81 39.12 37.87 36.73 33.92 32.39 30.37 28.95 27.88 27.01
36.29 40.34 42.45 42.97 44.67 44.44 45.03 43.92 43.15 43.91 44.66 46.59 47.22 48.92 48.29 47.00 44.89 42.28 40.25 38.59 39.24 38.47 36.34 36.06 39.43 39.33 38.87 39.05 39.15 37.50 36.62 35.03 34.38 33.83 34.02 34.57 34.20 33.56 32.24 30.65 29.29 28.26 27.22 26.29
38.24 41.05 42.56 42.68 42.70 42.19 42.61 43.79 42.87 43.74 43.46 44.16 45.12 43.83 40.91 38.29 37.57 36.38 36.40 35.51 35.09 34.82 34.69 34.54 35.53 36.02 36.67 36.21 35.60 33.28 32.46 31.68 30.74 30.34 30.04 29.70 29.89 29.84 29.39 30.00 29.89 28.10 27.85 28.08
35.54 38.72 40.04 39.83 39.87 40.96 40.68 41.03 42.21 41.51 41.11 43.07 41.18 38.66 37.29 33.94 33.15 32.72 31.93 32.77 32.85 32.81 32.81 33.20 34.14 34.10 34.22 34.25 33.99 32.25 30.44 29.81 29.28 28.77 28.20 27.90 27.18 27.01 30.09 29.55 29.90 29.41 28.76 26.95
35.84 39.28 40.17 39.95 40.19 39.90 38.73 39.69 41.94 41.09 39.80 38.68 37.70 35.83 33.03 30.56 29.78 29.69 29.86 29.77 28.88 27.86 28.38 28.58 29.07 30.03 32.13 33.49 32.93 31.49 29.98 29.06 28.56 28.04 27.13 26.03 25.22 23.66 21.74 25.54 28.22 28.89 29.32 29.07
37.87 39.00 37.50 37.48 36.08 38.60 38.35 38.65 41.60 40.00 38.24 35.34 33.97 34.11 31.19 28.49 27.60 26.44 25.76 26.51 27.29 26.86 26.96 27.55 27.79 27.91 30.39 31.40 31.36 30.70 29.60 28.95 28.25 27.66 27.30 26.29 25.16 23.91 22.87 21.13 20.00 21.53 25.93 25.91
34.65 37.22 37.56 38.53 38.40 37.18 37.16 36.47 36.55 34.19 33.60 31.18 29.90 27.75 26.87 24.75 23.23 23.38 25.17 25.30 25.32 24.92 25.28 26.00 26.12 27.12 29.37 30.07 29.87 29.79 29.62 29.45 29.21 28.37 27.17 25.92 24.98 23.94 23.15 21.86 20.96 20.74 21.61 22.87
32.76 36.36 35.66 35.43 34.62 34.52 32.96 32.10 31.35 30.20 29.40 27.86 26.17 24.65 23.52 22.61 21.53 21.33 22.40 22.96 21.89 21.93 24.15 24.65 24.92 26.74 28.18 28.91 28.27 28.04 28.36 28.76 28.62 28.07 27.14 26.03 24.90 22.97 20.87 19.76 19.17 18.19 19.36 21.30
27.39 27.55 28.71 29.06 29.79 30.57 29.07 28.78 27.47 26.83 26.21 24.94 23.68 23.29 21.71 20.84 20.22 20.13 20.52 21.44 21.74 21.96 23.62 24.35 24.60 26.92 27.71 28.11 27.16 26.57 26.21 25.79 25.56 25.59 24.67 23.44 22.33 20.74 19.66 17.93 16.48 16.14 16.35 18.48
27.61 27.38 27.45 27.64 27.60 28.12 26.81 25.55 24.59 23.77 22.20 21.95 21.17 20.83 20.11 19.59 18.82 18.99 19.64 20.31 19.98 19.64 21.23 22.81 24.48 26.32 26.53 26.40 25.89 25.12 24.28 23.98 23.75 23.48 23.61 22.86 22.28 21.94 20.42 18.94 17.21 15.93 15.74 16.40
25.99 24.97 24.68 24.50 25.73 24.73 23.78 22.33 21.78 21.17 20.86 19.98 18.70 17.46 17.77 17.18 16.67 16.99 17.49 17.01 17.03 17.01 19.45 22.03 23.87 23.25 23.99 25.05 25.29 24.72 23.59 22.42 21.86 21.00 20.44 19.96 19.65 19.46 18.40 17.24 16.33 15.83 15.18 14.59
22.89 23.00 21.88 20.85 21.17 21.57 20.31 21.23 21.13 20.49 20.87 20.61 19.42 18.52 17.80 17.35 16.91 15.96 15.27 13.66 15.05 16.11 19.27 20.43 20.62 20.65 21.14 22.15 21.89 20.77 19.92 19.30 18.48 18.46 17.77 16.63 15.65 15.01 14.87 14.75 15.05 14.56 13.76 12.90
21.10 20.53 19.45 19.22 18.94 19.35 19.12 19.01 17.81 16.32 16.90 16.79 15.16 13.60 12.77 13.34 16.27 16.42 13.39 11.52 14.73 16.74 16.82 16.86 18.27 18.74 19.66 19.95 19.68 19.39 18.77 17.76 17.19 16.50 15.78 15.04 14.65 14.38 13.79 13.44 12.96 12.37 11.95 11.45
20.23 19.12 18.84 18.17 17.57 17.38 18.66 19.20 18.79 17.78 17.22 16.89 16.94 16.55 14.99 13.48 13.09 12.72 13.54 12.44 14.42 14.72 15.14 15.60 16.08 16.58 17.48 17.16 17.39 17.03 16.75 16.20 15.64 15.63 14.92 14.36 13.49 12.50 11.81 11.78 11.38 11.43 10.57 10.01
19.93 19.19 18.64 17.75 17.01 16.87 17.38 17.24 16.88 16.43 15.21 14.32 13.28 12.75 11.61 11.89 13.30 11.12 8.52 12.96 13.82 13.56 13.67 13.94 14.57 15.21 15.78 16.24 15.53 14.48 13.73 13.24 12.87 12.76 12.34 12.09 11.69 10.47 8.53 8.52 10.02 9.30 7.94 6.18
20.23 20.25 19.77 20.07 19.45 17.75 15.75 16.48 16.63 16.26 15.80 15.38 15.68 16.82 15.25 13.19 12.76 12.70 11.58 10.58 10.30 11.12 11.56 12.53 13.10 13.75 13.96 14.06 13.62 13.32 13.52 12.96 12.27 11.55 11.10 9.00 10.38 9.05 8.52 5.94 5.99 8.11 6.36 4.44
20.30 20.01 19.68 18.78 17.34 16.26 16.73 17.32 16.68 15.95 15.08 14.26 13.90 13.68 13.77 14.64 12.91 13.11 13.45 13.26 13.90 12.53 11.89 11.61 12.11 12.05 12.36 12.64 11.76 9.69 8.56 8.16 9.70 10.38 9.85 9.24 8.67 7.72 7.34 6.06 4.19 2.23 3.39 4.80
21.23 20.23 20.66 21.08 20.56 20.11 19.81 19.19 16.83 16.73 15.27 13.73 13.60 14.15 13.76 13.66 13.03 12.79 12.87 12.71 12.61 11.82 11.09 10.43 10.60 12.25 11.44 11.15 10.68 10.74 9.81 9.42 8.96 8.03 8.34 7.83 6.73 7.15 4.84 2.88 2.78 3.37 3.62 2.22
21.59 20.95 20.04 19.08 19.33 19.19 19.28 18.62 16.83 15.09 14.98 14.27 11.98 13.27 12.80 12.93 13.09 12.72 12.71 13.00 12.55 12.09 11.50 10.51 9.72 8.64 9.56 10.33 9.94 9.92 10.26 6.38 1.86 5.41 6.55 6.22 5.74 5.59 3.23 1.59 2.17 1.45 0.91 0.21

GFSNGP_sfc_wetblb_093.txt.gz
Wetbulb
34.42 35.81 36.18 35.02 34.85 35.68 34.44 37.67 33.43 35.83 37.35 41.43 43.29 44.35 46.40 48.02 49.33 49.74 50.66 51.83 53.17 53.84 57.64 58.28 58.04 58.12 57.80 57.25 57.06 57.23 56.80 56.41 56.13 56.91 57.31 57.88 57.85 57.31 56.60 56.37 56.38 56.16 55.10 54.59
32.72 36.50 36.58 34.39 36.64 36.50 36.42 36.74 37.04 38.25 36.92 44.35 46.25 47.43 48.18 49.38 49.33 49.00 49.87 51.65 52.15 53.13 55.18 58.46 58.55 58.33 58.41 57.67 57.41 57.90 57.52 56.41 56.83 56.83 57.08 57.37 57.64 57.97 57.69 57.22 56.93 56.33 56.00 55.03
27.89 34.35 33.21 28.52 34.12 36.38 37.46 38.80 37.69 33.58 40.03 44.90 44.96 46.37 46.92 47.99 50.16 49.83 50.27 51.84 52.44 53.13 52.97 53.02 54.62 58.66 58.42 58.29 58.25 57.61 57.07 58.03 57.62 57.42 56.89 57.29 57.55 57.40 57.49 57.67 58.43 57.58 57.22 56.87
27.42 29.60 19.41 34.26 40.32 40.44 40.52 40.65 41.44 42.03 42.73 43.70 44.41 46.30 48.67 49.57 49.56 51.51 51.55 51.87 52.34 52.84 53.15 53.19 53.46 53.71 54.88 59.06 58.35 57.47 57.29 57.37 58.49 58.39 57.65 57.66 57.74 56.98 56.98 57.12 57.06 57.55 57.84 57.57
25.01 24.84 30.46 34.61 39.70 39.05 37.15 37.63 41.86 40.72 41.68 43.45 45.55 46.44 47.54 48.74 50.05 51.38 51.36 52.27 52.11 52.53 52.08 52.25 52.40 53.94 54.47 55.36 58.68 57.97 57.47 57.71 58.03 58.31 58.27 58.43 57.85 57.36 57.47 57.43 56.80 53.43 47.44 44.12
26.48 24.50 20.34 35.49 40.13 43.85 42.67 33.07 42.92 43.27 42.40 42.19 43.37 39.84 42.21 48.16 50.58 49.94 49.29 49.69 49.26 48.74 47.77 46.74 47.24 51.38 52.20 50.29 52.59 55.90 57.89 58.40 58.28 57.75 57.48 57.33 57.13 54.61 46.81 47.21 40.52 38.61 36.33 36.69
26.17 26.14 29.78 39.82 41.52 44.23 33.07 33.07 42.01 43.01 43.33 43.95 41.13 44.62 48.16 50.60 49.21 48.21 46.19 45.70 46.66 45.34 43.24 43.16 44.07 48.40 45.75 45.75 45.15 46.78 46.64 55.58 56.94 56.32 56.74 53.96 47.52 44.07 41.18 38.14 35.70 33.45 32.32 32.94
26.93 26.38 23.20 41.09 41.16 36.30 37.98 41.69 40.58 40.89 42.69 45.23 46.13 48.33 50.31 48.15 44.13 43.05 41.63 41.90 42.19 41.32 40.18 40.85 41.00 42.90 41.13 39.94 42.43 43.18 43.41 43.32 44.26 46.53 44.80 43.43 41.15 39.29 38.33 35.91 33.24 31.45 30.28 29.63
30.88 30.08 39.61 41.84 40.34 42.82 42.25 39.05 39.14 39.93 42.07 43.03 43.22 42.88 42.60 41.80 40.31 38.41 37.83 37.75 38.80 37.81 37.78 38.42 39.00 38.44 36.77 36.72 37.94 38.86 38.87 38.32 38.32 40.32 41.20 41.45 38.06 34.88 33.76 33.78 31.73 29.86 28.88 27.87
34.00 39.04 40.57 41.13 41.93 42.11 41.88 40.77 40.41 40.92 41.79 41.71 39.58 38.75 38.07 37.29 36.05 35.86 35.12 34.66 36.31 36.54 35.50 35.41 36.90 36.66 35.54 35.01 34.30 33.15 32.22 32.59 33.98 33.69 32.78 33.52 34.43 34.96 33.22 31.87 30.36 29.11 28.14 26.87
37.40 39.47 39.21 38.49 38.70 39.29 39.74 41.29 40.71 40.63 39.85 38.29 37.11 35.64 34.76 33.21 32.42 32.23 32.58 33.14 33.21 32.40 31.73 31.75 34.34 34.83 34.97 34.18 32.95 30.55 29.83 29.56 29.40 29.53 29.17 28.43 28.84 29.36 28.51 29.67 30.45 28.41 27.87 28.30
31.03 34.53 37.46 35.79 37.43 38.89 37.67 37.25 39.45 38.03 36.94 35.52 34.92 32.69 31.66 29.43 29.49 29.59 29.47 29.97 29.60 29.70 29.60 29.74 30.87 31.88 33.93 34.18 32.79 30.44 28.53 27.95 27.33 26.91 26.83 27.79 26.59 26.53 29.90 29.28 29.92 29.68 29.49 28.63
32.46 36.72 37.08 38.10 37.60 37.48 36.79 36.89 37.88 36.04 34.53 32.60 32.65 31.30 29.69 27.35 27.03 26.94 26.62 26.71 26.79 27.01 28.11 28.54 28.87 29.48 31.45 32.58 32.40 30.03 27.86 27.58 27.03 26.14 25.37 24.83 24.69 24.14 22.79 26.86 29.56 29.68 29.53 29.76
34.25 35.96 35.19 36.26 33.80 35.09 35.04 36.31 36.26 34.36 31.76 29.87 29.24 28.93 26.66 25.32 24.99 24.64 24.32 25.24 25.98 26.35 26.71 27.66 27.93 28.08 30.69 31.27 29.79 28.33 27.81 27.20 26.14 25.29 24.22 23.46 22.69 22.36 22.47 21.50 20.85 22.06 26.66 27.28
31.31 34.71 34.56 35.93 35.53 32.97 32.63 33.07 31.53 29.39 28.55 26.37 26.03 24.27 23.33 21.85 21.42 22.14 23.76 24.85 25.31 25.32 25.72 26.16 25.96 26.61 29.53 30.47 29.84 28.74 27.58 26.53 26.09 25.29 24.52 23.63 22.96 22.08 21.56 20.87 20.17 19.73 20.39 20.98
29.84 30.15 30.55 30.31 30.75 31.13 29.48 28.27 27.40 26.37 25.52 23.88 22.95 22.02 21.48 21.46 20.99 21.10 22.08 23.09 21.73 21.61 23.94 24.18 24.85 26.90 27.75 27.81 27.38 27.10 26.92 27.08 26.28 24.67 22.85 21.72 21.24 20.05 19.26 18.82 19.50 19.70 18.82 18.36
24.62 23.92 25.34 25.79 27.39 27.21 25.99 25.85 25.28 23.92 22.97 22.35 22.06 21.75 21.22 20.38 20.09 19.52 19.74 20.58 20.74 20.90 22.03 23.45 23.97 25.70 25.84 26.05 26.01 25.28 24.84 24.45 23.66 22.58 21.45 20.47 19.45 17.86 17.45 16.70 16.21 16.42 16.36 17.21
25.60 24.99 24.42 24.72 25.23 24.26 22.60 22.50 21.94 21.22 20.47 20.94 20.75 19.30 17.86 17.63 16.99 17.50 18.35 19.42 19.26 18.87 20.12 22.03 22.63 23.01 24.12 24.75 24.23 23.64 22.91 22.93 22.60 21.82 21.68 20.10 19.00 17.94 16.63 15.59 15.03 13.92 13.55 13.63
22.95 21.45 20.66 21.12 22.23 21.12 20.46 20.14 19.92 20.11 19.03 18.82 17.06 15.59 15.36 15.02 14.67 14.59 15.22 14.31 14.42 14.97 17.20 20.36 22.86 21.70 21.26 21.88 22.41 21.48 20.08 18.79 18.24 17.85 18.18 17.76 16.94 16.55 15.32 14.27 13.10 12.67 12.69 11.72
19.90 19.97 19.06 18.33 18.30 18.55 15.86 16.20 15.49 15.31 16.10 15.54 15.14 14.71 13.76 13.68 13.62 12.71 12.62 11.15 12.86 14.48 17.49 19.12 20.10 19.65 20.54 21.04 20.42 19.12 18.08 17.43 16.62 15.66 15.19 14.29 13.48 12.79 12.61 11.56 10.32 7.82 6.53 7.10
16.92 15.20 16.23 16.36 15.23 15.53 15.35 14.60 14.08 13.44 14.25 13.69 11.71 10.52 10.06 10.79 12.68 12.60 10.75 9.60 12.88 15.85 16.69 17.52 17.94 17.99 18.57 18.55 18.11 17.42 16.86 15.43 14.47 13.29 12.84 11.50 10.58 9.56 7.89 6.06 6.57 5.03 5.52 5.69
12.01 13.66 12.24 13.29 13.69 13.67 14.01 13.92 13.48 12.84 12.18 12.38 13.47 13.08 11.86 10.95 10.85 10.85 12.07 11.27 13.50 14.50 15.34 15.73 16.27 16.07 15.81 15.94 15.42 14.63 14.28 13.49 12.67 12.32 11.02 9.62 6.41 4.04 2.29 3.82 4.17 1.96 1.55 3.51
14.79 14.56 13.46 11.50 12.15 12.44 13.07 13.48 14.08 13.21 11.41 11.26 10.39 9.87 9.31 9.82 11.01 8.29 6.74 12.39 13.16 12.79 13.48 13.67 14.20 14.26 14.51 13.92 12.71 11.52 10.85 10.59 9.41 8.06 7.48 5.81 3.62 0.63 1.62 1.75 -2.14 -4.62 -6.17 -2.14
17.18 17.77 16.40 15.86 15.12 14.14 12.26 13.00 13.83 13.88 12.64 13.05 13.52 13.75 12.56 9.67 9.56 11.09 11.39 10.97 10.88 11.46 11.76 12.22 12.83 12.62 10.68 9.57 8.64 8.61 9.41 8.57 6.91 6.78 6.04 2.19 2.80 -1.22 -3.14 -3.24 -3.21 -8.45 -9.70 -5.18
13.64 12.34 13.25 13.16 13.13 13.10 13.57 14.13 13.74 13.12 12.37 11.94 12.27 12.50 13.19 13.85 10.66 12.18 12.60 12.39 13.24 11.06 10.34 10.98 10.90 9.98 9.57 9.29 7.19 5.84 5.38 4.75 4.88 3.36 0.44 -0.99 -3.46 -6.43 -8.97 -9.91 -12.08 -10.81 -4.62 -4.44
18.03 17.66 18.98 18.82 18.05 17.78 17.38 16.21 13.20 13.23 12.66 11.03 11.23 9.99 9.65 11.03 11.61 11.61 11.40 11.24 10.50 9.05 8.45 7.97 8.32 8.80 7.20 7.57 5.95 3.06 2.25 2.27 0.17 0.56 -2.96 -5.18 -1.09 -7.92 -10.81 -10.42 -7.52 -6.43 -10.96 -13.50
18.69 17.79 16.97 16.45 16.82 16.96 17.16 16.14 13.51 11.85 11.09 7.71 7.52 7.50 9.17 8.65 8.88 9.92 8.09 7.14 6.48 6.46 4.81 2.18 1.58 3.17 2.91 0.81 1.27 1.36 -1.81 -7.38 -6.67 -7.37 -9.33 -9.33 -9.33 -9.70 -11.88 -13.32 -13.32 -13.50 -13.68 -12.78

GFSNGP_sfc_wetblb_096.txt.gz
Wetbulb
33.94 34.72 34.61 34.29 33.23 34.45 33.31 33.55 30.59 35.24 36.14 40.63 42.91 45.06 47.06 48.86 49.63 49.82 50.05 50.26 52.95 54.52 55.92 56.51 55.91 55.91 55.92 55.31 55.60 55.99 55.62 55.06 55.49 56.67 57.51 57.18 55.98 55.16 55.31 54.19 53.82 53.78 53.36 53.35
31.19 34.89 34.73 33.04 35.16 35.26 36.01 36.23 35.75 37.37 36.51 44.25 45.73 46.40 46.81 48.38 48.98 48.85 50.11 51.06 51.43 52.99 55.55 56.76 56.76 56.07 56.21 55.71 55.53 55.93 55.17 54.74 55.51 56.15 57.16 57.31 56.61 55.69 55.45 55.29 54.78 53.82 53.13 52.87
26.80 32.30 32.21 27.95 33.30 35.15 36.22 38.89 38.33 33.28 39.78 42.91 43.08 44.51 45.29 47.65 49.21 49.95 50.48 50.50 51.05 50.92 51.42 52.27 53.98 57.62 56.42 56.54 56.85 55.92 55.40 55.73 55.87 55.69 55.38 56.20 57.25 56.57 55.58 55.20 55.56 54.73 54.24 53.72
27.11 27.38 18.10 33.70 40.90 41.48 38.76 39.51 40.17 39.64 40.49 42.19 42.68 45.90 47.18 48.78 47.88 47.65 48.68 48.10 47.72 47.44 47.90 47.72 49.42 52.24 53.98 58.05 57.20 56.57 56.06 56.01 56.19 56.01 55.57 55.36 55.72 56.37 56.84 56.86 55.78 55.57 54.69 54.90
23.84 22.62 28.86 33.86 37.85 38.28 37.01 36.32 41.84 39.64 41.79 42.81 43.77 45.84 44.95 49.87 47.69 46.04 45.73 46.45 45.31 45.34 45.03 44.85 46.25 47.98 48.66 48.68 53.59 56.86 56.54 56.57 56.94 56.52 55.81 55.79 55.57 56.08 56.71 57.07 56.87 56.78 56.79 55.79
26.07 23.68 20.39 34.06 40.25 42.46 42.03 33.56 39.96 40.69 40.65 41.75 43.01 37.85 41.40 48.81 46.97 44.91 44.70 45.27 44.28 43.53 43.09 42.43 43.47 45.67 44.75 44.75 45.01 45.84 47.16 48.76 54.67 57.56 57.11 56.39 56.08 55.77 56.21 56.19 53.82 46.25 41.38 39.90
26.16 24.34 28.96 38.65 41.07 42.47 28.44 31.62 39.34 39.92 41.51 42.60 40.58 40.32 41.90 42.50 41.16 41.78 41.33 41.18 43.06 42.16 40.65 40.26 41.13 43.02 41.01 40.47 40.83 42.86 43.64 44.19 47.57 49.05 53.23 55.46 56.01 51.21 44.56 42.04 41.02 38.72 37.04 35.43
27.43 24.57 22.57 40.17 40.08 33.71 36.68 40.43 40.02 39.72 41.33 41.92 42.40 43.16 42.18 39.91 38.86 37.84 37.35 38.62 39.36 38.82 37.34 38.13 38.27 39.44 37.75 36.43 38.06 38.75 38.72 37.77 37.48 40.60 44.28 44.58 43.01 41.10 39.80 38.08 34.24 32.09 31.13 30.80
30.59 29.15 39.87 40.01 38.59 40.83 40.39 38.03 37.70 37.94 39.15 39.69 37.87 38.33 38.27 36.97 36.13 35.44 34.66 34.96 36.61 36.02 35.24 35.36 35.99 35.76 34.47 34.45 35.02 34.41 33.67 32.89 33.86 34.13 35.05 37.95 39.05 37.91 35.50 35.65 33.70 31.78 29.65 28.52
34.56 38.39 38.73 38.98 39.79 39.69 40.07 38.11 38.22 37.53 37.27 37.20 35.66 35.46 34.60 33.77 32.98 32.79 32.05 31.98 32.86 33.11 32.32 32.54 34.29 34.36 33.82 33.68 33.10 32.00 30.81 30.15 30.16 29.64 30.16 32.19 32.39 33.59 33.02 32.01 31.58 29.82 28.67 27.84
35.57 35.95 36.43 35.69 36.77 37.61 37.09 38.30 37.45 35.80 35.21 33.96 33.83 32.64 31.77 30.25 30.05 30.10 29.91 30.20 30.52 30.38 30.50 30.98 32.64 33.01 34.04 32.95 32.18 29.89 29.31 29.12 28.80 28.54 28.19 28.17 28.86 30.19 29.97 30.63 31.63 28.80 28.19 27.91
28.61 33.49 36.00 33.76 35.26 36.96 35.10 35.80 35.00 34.12 32.27 32.31 31.56 30.41 29.62 27.47 27.67 27.52 27.36 28.01 28.11 28.64 29.05 29.42 30.85 31.05 31.94 31.31 30.20 28.61 27.08 26.55 26.94 27.48 27.50 27.65 27.06 27.23 30.73 30.52 31.03 31.27 30.94 29.91
31.68 34.31 35.28 35.21 34.99 34.61 34.56 32.77 31.57 30.04 29.81 29.63 29.43 28.73 27.22 25.45 25.68 26.15 25.94 26.21 26.28 26.46 27.59 28.42 28.99 29.54 29.66 29.66 28.35 27.24 25.77 25.70 25.71 25.99 25.86 25.37 25.67 25.12 23.95 27.70 30.39 30.41 30.52 30.75
33.06 34.98 33.82 33.14 29.91 31.77 32.84 32.51 31.67 28.66 27.14 26.15 26.26 25.79 24.56 23.59 23.73 23.62 23.80 25.28 26.12 26.16 26.47 26.74 27.19 27.94 30.44 29.92 27.58 26.52 24.39 24.75 23.32 23.30 23.33 23.24 23.22 22.93 23.07 21.91 20.81 22.46 27.08 26.80
30.31 31.78 32.04 32.95 31.56 29.50 30.42 30.46 27.85 25.80 24.86 23.13 23.12 22.38 22.78 21.50 21.03 21.54 22.97 24.59 24.89 24.78 24.73 25.19 25.23 25.51 28.67 29.34 27.50 26.23 25.09 23.92 23.23 22.59 22.46 22.23 22.05 21.29 21.06 20.02 18.72 17.81 18.07 18.54
28.24 28.39 28.90 28.44 29.26 28.23 27.17 26.37 24.95 23.87 23.87 22.13 21.40 21.36 21.07 20.94 20.52 20.34 21.04 21.74 20.67 20.18 22.70 22.97 23.28 24.83 26.84 27.04 25.88 24.63 23.75 23.35 22.69 20.85 19.98 19.84 19.88 19.63 19.88 19.11 18.15 17.00 15.76 15.51
23.87 23.12 23.92 24.52 25.78 23.75 22.84 22.99 23.02 22.00 21.76 21.94 21.21 21.31 20.55 19.80 19.26 18.90 19.52 20.17 20.06 20.14 21.45 21.56 22.01 24.30 24.36 24.85 24.67 23.54 22.78 22.06 21.43 19.86 18.73 18.41 17.84 17.25 17.26 16.57 15.55 14.35 13.51 14.10
22.69 21.83 22.34 23.34 23.22 22.27 20.91 20.69 20.48 20.62 19.53 19.03 18.58 17.68 16.35 15.62 14.82 14.54 15.45 17.10 17.09 17.05 18.28 21.01 21.70 22.16 22.56 22.61 22.59 22.21 21.77 21.70 21.02 19.67 18.74 17.38 16.75 16.45 15.43 14.34 13.54 12.18 11.68 10.99
20.77 18.98 19.42 21.04 21.08 20.50 19.82 19.32 19.05 18.64 17.08 15.70 13.75 13.15 13.32 12.78 12.79 12.85 13.62 12.50 12.35 12.83 15.58 19.46 21.97 20.52 20.17 21.49 20.88 20.08 19.09 18.08 17.74 17.75 17.33 16.24 14.87 14.09 12.64 11.83 11.31 11.07 10.45 9.12
18.49 18.52 17.68 16.59 16.21 15.94 13.95 14.16 13.34 12.02 12.39 13.26 12.63 11.03 9.92 10.36 11.06 11.37 11.94 10.52 12.39 14.21 16.98 18.03 19.01 18.98 19.33 19.50 19.43 18.32 17.67 16.67 15.64 14.73 13.82 12.94 12.02 10.47 9.87 8.07 7.23 6.46 5.95 4.88
13.13 12.81 13.02 12.79 11.75 12.57 12.06 12.07 11.07 10.58 11.13 10.38 9.41 8.18 8.40 10.02 11.41 11.77 10.57 9.41 12.20 15.38 16.51 16.48 16.65 16.60 17.40 17.80 17.51 16.56 15.56 14.16 13.16 12.30 11.56 10.24 9.64 9.28 7.66 6.57 5.25 4.59 4.85 5.12
8.01 9.89 8.01 8.58 11.10 11.15 12.38 11.94 11.50 10.30 10.49 10.65 9.83 10.05 9.24 8.92 9.56 9.89 10.90 10.49 13.20 14.56 15.09 15.13 14.78 13.91 14.18 14.55 14.05 13.21 12.89 12.43 11.70 10.67 9.04 8.51 7.50 6.13 4.91 3.98 2.84 3.03 1.56 -1.06
10.43 11.35 10.60 9.37 9.89 10.83 12.07 12.42 11.58 10.65 8.09 7.38 7.87 7.52 8.19 9.22 9.38 7.44 6.29 12.24 13.48 13.04 13.19 12.35 11.57 11.58 12.37 12.34 11.48 10.61 9.84 9.00 8.21 7.16 5.62 4.64 3.99 3.11 1.98 -1.35 -3.15 -2.01 -4.51 -6.07
11.77 12.17 12.70 14.08 13.18 12.92 10.54 11.37 12.41 11.76 10.55 11.12 10.51 10.27 9.81 7.69 8.87 11.35 11.36 10.53 10.44 10.39 10.47 10.68 10.79 10.27 9.47 9.14 8.46 8.31 7.77 7.09 6.63 5.60 4.32 2.61 0.29 -0.95 -2.06 -3.44 -3.87 -5.85 -6.94 -6.03
11.26 9.40 10.62 10.91 10.73 9.65 10.17 11.16 12.05 12.03 11.39 11.30 11.91 12.99 12.79 12.90 9.71 11.50 11.70 10.14 10.89 8.83 8.59 9.61 9.92 9.73 8.80 7.86 6.80 5.98 5.40 5.18 3.76 2.90 0.94 -1.68 -3.77 -5.37 -10.39 -8.77 -13.64 -11.83 -14.01 -14.01
15.68 15.86 15.14 15.24 14.68 15.11 14.27 13.29 10.76 10.97 10.33 8.82 9.51 7.42 8.86 11.06 11.40 11.09 10.11 8.25 7.86 6.72 5.99 4.86 5.16 5.50 5.69 4.18 1.99 1.14 1.46 1.74 0.21 -1.28 -2.14 -4.29 -6.29 -10.20 -13.64 -13.64 -13.82 -14.19 -16.18 -18.54
16.98 17.09 16.31 15.76 16.08 16.39 16.05 14.80 12.24 10.91 10.18 7.76 7.05 7.85 8.00 8.50 8.28 8.25 5.19 3.55 2.28 1.03 -0.09 -1.50 0.03 2.03 0.71 -0.74 -1.48 -2.33 -4.93 -6.99 -9.11 -10.02 -14.37 -14.91 -14.55 -17.63 -17.63 -17.63 -18.18 -19.26 -19.81 -18.90

GFSNGP_sfc_wetblb_099.txt.gz
Wetbulb
34.16 34.64 33.85 33.20 33.33 34.32 31.43 32.32 28.18 32.67 34.32 39.84 42.27 43.58 45.30 47.60 49.25 49.22 48.14 49.55 49.39 52.84 55.06 54.85 54.26 54.73 54.81 54.47 55.01 55.82 55.39 54.99 54.67 54.30 54.06 53.55 53.86 54.19 53.64 53.54 53.60 53.02 52.83 52.89
30.30 32.54 32.18 30.77 33.81 33.81 33.74 35.08 34.56 34.16 34.79 42.73 44.92 45.94 46.26 47.61 48.91 47.95 49.41 48.48 47.73 48.84 49.59 53.79 55.05 54.65 55.18 54.91 55.28 55.00 54.75 54.99 55.55 55.83 55.45 54.53 53.95 54.38 54.30 53.62 53.43 53.16 52.70 52.80
25.65 30.53 29.58 26.89 31.55 33.32 36.60 37.63 37.91 33.84 38.25 42.40 42.45 44.70 45.78 46.69 47.05 46.94 46.67 46.39 45.71 45.70 46.27 47.21 49.43 51.94 54.90 55.80 56.19 55.98 55.44 55.38 55.02 55.00 54.95 56.33 56.10 55.04 54.11 54.02 53.82 52.78 52.61 52.05
25.15 26.49 16.26 32.12 41.34 39.47 38.07 38.80 39.65 40.09 40.35 41.71 41.88 46.32 47.11 46.30 45.21 44.82 44.23 44.47 44.10 44.09 44.33 45.49 46.90 47.71 49.00 54.24 56.36 55.76 55.38 55.41 55.35 54.76 54.51 54.92 56.40 56.02 55.24 54.80 54.18 54.18 52.81 51.93
21.35 22.27 26.52 34.08 36.87 37.36 36.31 34.77 38.85 38.28 40.57 42.37 43.51 45.39 40.98 42.49 43.88 43.25 43.60 44.27 43.57 43.78 42.86 42.61 44.58 45.10 45.69 46.00 49.90 54.46 51.66 54.49 56.06 55.71 55.24 54.88 54.49 55.58 56.03 55.14 54.55 54.53 54.63 53.90
24.14 22.06 16.97 31.90 39.26 41.23 41.00 32.50 38.39 38.64 40.40 40.27 40.97 36.39 38.18 41.19 40.89 40.66 40.85 40.96 41.45 40.72 39.63 39.29 40.56 43.71 43.11 43.10 43.39 43.33 44.00 45.05 47.17 50.74 56.03 55.34 55.04 54.69 55.45 55.77 55.16 54.63 52.29 45.91
24.18 21.81 27.05 36.83 39.60 41.24 28.60 29.77 38.44 39.13 40.45 42.55 39.52 39.78 40.98 41.33 39.48 38.57 37.96 37.77 39.08 37.98 36.79 36.64 38.40 39.81 37.93 38.00 37.91 39.71 40.30 40.21 40.55 41.77 45.29 48.00 55.28 55.38 55.14 54.63 44.06 40.40 36.00 34.90
27.33 22.46 21.39 38.80 38.91 31.34 34.75 39.21 38.56 39.03 39.78 39.44 40.00 40.07 39.19 38.30 37.42 35.68 34.76 34.70 35.98 35.64 35.06 35.85 36.06 36.46 33.87 33.06 35.13 35.78 35.57 35.76 35.09 36.05 37.67 40.53 40.63 40.58 39.70 39.20 35.94 33.07 32.86 32.35
29.42 28.50 37.96 37.99 37.00 38.83 38.79 36.28 37.06 37.07 37.57 37.85 35.71 35.78 35.64 34.75 34.25 33.56 32.69 32.47 33.48 33.45 33.53 33.99 34.68 34.03 32.22 31.82 32.82 32.74 31.87 31.21 31.60 32.75 33.50 34.31 34.79 34.66 34.20 33.91 32.49 31.74 31.15 29.89
33.72 37.28 35.90 37.27 38.04 37.11 38.25 36.08 35.58 35.33 34.56 35.01 33.73 33.83 32.67 31.78 31.05 30.31 30.70 30.49 31.38 31.34 30.94 31.21 32.94 33.45 32.22 32.02 31.66 30.47 29.27 29.13 29.81 29.51 29.71 31.20 32.47 33.15 31.96 31.20 29.22 28.92 28.47 27.29
33.69 33.99 35.73 34.03 34.71 35.30 36.67 35.67 33.72 32.81 31.87 31.49 32.83 30.53 29.82 28.45 28.00 28.27 28.33 29.00 29.66 29.52 29.52 29.71 31.25 31.02 30.48 30.55 30.68 28.57 28.19 28.49 28.50 28.68 28.76 28.85 29.49 30.13 30.23 31.51 31.90 28.70 28.12 27.68
25.64 33.27 34.40 32.64 34.07 35.45 32.00 30.61 30.73 31.41 30.61 30.18 30.10 28.53 28.09 26.22 26.56 26.47 26.30 27.31 27.20 27.66 28.19 28.70 29.72 28.81 29.24 28.64 27.80 26.83 26.86 26.78 27.16 27.60 27.84 28.04 27.73 27.48 30.69 31.20 31.59 31.71 31.10 29.65
30.81 33.09 34.99 33.86 33.44 33.45 29.95 28.67 28.00 27.19 27.04 27.29 26.19 26.73 25.78 24.41 24.99 25.74 25.37 25.63 25.88 26.05 26.80 27.22 28.04 28.62 28.19 27.50 25.99 23.62 22.10 23.33 24.57 25.19 25.35 25.28 25.58 25.17 23.25 25.55 28.44 29.30 30.30 30.43
32.16 35.63 31.60 30.74 28.53 31.29 30.46 29.31 28.53 25.69 24.31 23.36 23.34 23.94 24.28 23.56 23.58 23.41 23.48 24.94 25.47 25.36 25.60 25.99 26.16 27.07 28.04 27.40 25.49 22.20 21.53 22.04 23.21 23.15 22.71 22.27 20.99 20.09 19.82 18.97 17.62 19.19 24.86 25.71
29.51 30.42 31.13 31.38 30.41 28.60 28.77 28.02 24.98 23.83 23.75 22.16 22.65 22.06 21.74 20.92 20.68 21.13 22.70 23.73 23.87 23.88 23.95 24.05 24.13 24.95 27.44 26.88 25.34 24.08 22.35 21.44 20.76 20.92 21.17 20.76 20.15 19.11 18.22 17.74 17.04 16.53 16.84 17.00
27.69 27.38 28.38 28.36 26.77 26.13 25.20 24.49 23.41 22.79 22.81 22.01 21.47 20.71 20.43 20.34 20.08 19.81 20.14 20.53 19.77 19.25 21.23 22.08 22.47 24.30 25.91 25.13 23.81 22.74 21.46 20.56 19.66 19.08 19.01 18.85 18.93 18.02 17.13 16.29 14.96 14.24 13.72 13.87
23.88 22.82 22.90 23.70 23.45 22.25 21.13 21.78 21.58 21.37 21.69 21.59 21.04 20.64 19.80 18.59 17.64 16.75 17.21 18.49 17.91 17.76 19.97 19.93 20.30 22.57 23.38 24.07 22.98 21.70 20.70 20.08 19.34 18.41 17.42 17.36 16.65 16.00 15.42 14.23 12.73 11.53 10.94 11.77
21.57 20.85 21.91 22.41 22.50 21.43 20.22 20.47 19.90 19.29 18.27 17.97 16.05 14.22 13.21 14.06 13.50 13.79 14.29 15.30 15.34 15.70 16.63 19.32 19.81 20.47 20.46 20.67 20.96 20.89 20.19 19.57 18.65 17.53 17.33 15.98 15.54 15.36 14.08 12.88 11.59 9.55 8.80 8.93
19.50 18.67 19.31 20.51 20.70 20.09 19.39 18.21 17.42 16.81 15.59 13.97 11.54 10.53 10.52 10.87 11.74 11.96 12.70 11.58 11.86 11.83 14.10 17.66 20.77 18.59 19.00 20.27 19.41 18.93 17.61 16.86 16.57 16.03 15.29 14.53 13.43 13.25 12.04 10.51 9.15 7.89 8.20 7.12
17.66 17.29 16.48 14.85 14.48 14.98 13.13 13.23 12.61 11.26 11.65 11.26 9.61 8.93 8.71 9.12 9.67 9.98 10.74 9.47 11.49 13.51 15.33 16.56 17.14 17.31 17.60 17.63 17.88 17.04 15.99 14.73 13.99 12.97 12.06 10.97 10.21 9.41 8.78 8.22 7.58 6.09 5.39 4.19
10.68 10.38 10.44 10.59 9.96 10.26 9.59 9.71 9.54 9.16 9.35 8.36 7.70 6.33 6.91 7.94 9.02 8.21 8.88 8.69 11.29 14.19 14.52 14.33 14.71 14.89 15.48 15.49 15.36 14.26 13.10 11.61 10.41 9.74 9.51 8.31 7.42 7.57 7.07 6.37 5.52 5.49 4.48 2.14
6.54 8.22 7.01 8.16 9.79 9.23 9.90 10.55 10.63 9.42 8.56 7.87 7.18 7.00 7.41 7.87 8.33 9.14 10.32 10.20 12.65 12.89 12.97 12.61 12.81 11.73 12.48 12.42 12.24 11.36 11.21 10.35 9.61 9.26 8.31 6.72 5.51 4.48 4.37 4.29 2.95 1.88 0.45 -1.32
7.48 8.99 8.44 6.56 7.79 8.77 9.50 9.45 7.60 6.96 6.33 5.80 5.46 6.64 7.47 8.54 9.55 7.42 6.11 11.47 12.81 11.48 11.52 10.28 9.35 9.19 9.16 9.64 8.78 8.20 8.14 6.94 6.14 5.48 4.64 4.47 4.10 2.69 2.18 1.34 -0.25 -1.01 -2.90 -3.76
9.30 9.53 7.85 8.46 8.90 10.76 8.12 9.13 11.47 11.26 9.41 10.35 8.30 7.61 9.07 7.48 8.75 11.77 11.91 10.04 8.47 8.32 9.34 8.95 8.46 8.15 6.73 6.71 6.00 5.46 5.48 5.11 4.24 3.58 3.21 1.56 0.40 -0.15 -1.17 -2.54 -3.55 -6.08 -5.93 -6.12
8.88 6.81 6.85 7.32 9.42 9.51 10.09 10.46 10.93 11.28 11.33 11.13 12.13 12.61 12.71 12.78 7.65 10.02 8.91 8.67 9.93 7.44 6.27 6.64 7.09 6.66 5.65 4.79 4.27 4.27 3.77 2.90 1.16 0.56 -0.51 -1.77 -4.55 -7.91 -10.24 -8.06 -10.78 -9.69 -12.41 -12.78
12.15 10.97 9.54 11.05 12.11 13.10 13.03 12.14 9.41 9.34 9.26 7.79 8.87 6.98 8.41 10.78 10.63 9.43 8.00 7.05 6.49 5.25 4.25 2.56 1.97 2.20 1.12 1.30 -0.34 -0.66 0.24 0.36 -2.04 -3.13 -4.93 -8.27 -7.92 -9.69 -10.78 -12.05 -13.50 -13.68 -16.22 -18.58
16.37 16.76 16.03 15.14 16.15 16.17 15.39 14.07 12.13 10.11 8.45 4.59 6.30 8.11 8.20 7.26 7.02 6.88 3.75 1.57 0.72 0.38 -0.82 -1.17 -0.63 0.05 -1.05 -2.51 -2.47 -4.50 -4.29 -4.83 -5.93 -8.98 -15.50 -15.68 -17.13 -19.67 -19.85 -19.48 -20.03 -21.30 -21.12 -20.57

GFSNGP_sfc_wetblb_102.txt.gz
Wetbulb
32.04 33.26 33.21 32.94 31.89 32.37 30.12 30.37 27.10 30.13 30.72 37.26 40.28 42.16 44.46 47.02 47.91 48.34 47.74 47.87 46.21 47.08 47.90 53.42 54.33 54.74 54.68 55.42 55.87 55.32 54.73 53.88 53.06 51.85 52.16 51.91 51.29 51.05 51.24 51.29 51.65 52.93 52.33 52.37
28.61 33.45 32.55 30.76 33.51 33.31 33.58 33.95 33.31 33.15 32.34 40.92 42.75 45.26 45.05 45.81 46.23 46.09 45.76 45.50 45.08 45.15 45.97 46.94 48.51 54.21 54.80 54.66 55.81 56.07 54.58 54.70 54.45 53.80 52.28 51.84 51.89 51.70 51.12 52.27 52.33 52.39 52.21 52.30
24.67 31.15 29.56 26.09 29.97 32.29 35.08 36.23 36.03 31.24 37.11 41.33 41.46 44.07 43.16 43.17 43.99 43.46 43.70 43.75 43.14 42.92 43.07 44.04 45.74 46.85 52.11 55.34 56.05 55.83 55.63 55.87 55.37 54.90 54.10 52.84 52.45 52.52 52.98 52.33 52.64 52.46 52.37 52.27
26.21 26.98 15.88 31.96 39.09 38.19 36.48 37.65 39.44 38.69 39.28 41.29 41.37 41.87 41.64 42.12 41.73 41.47 41.65 40.91 41.17 40.72 39.91 40.93 43.19 44.57 47.84 53.94 56.13 55.32 55.02 55.34 55.77 55.18 55.16 55.51 54.11 53.76 53.76 53.67 52.85 52.24 52.21 52.40
23.79 22.70 25.59 33.43 36.48 36.40 35.85 34.76 38.42 37.86 40.88 40.02 41.99 43.69 40.83 41.37 41.01 39.91 39.13 39.42 39.26 38.94 38.42 38.38 40.30 42.49 43.40 44.25 46.94 47.58 47.74 49.32 50.52 53.84 54.43 54.68 54.90 54.82 54.45 53.66 53.32 53.32 52.84 52.10
25.77 22.34 16.20 29.28 38.44 40.25 39.63 31.40 38.59 38.39 40.64 39.11 38.83 35.11 37.95 40.14 39.02 38.02 37.24 37.70 37.69 37.03 36.83 36.23 37.93 39.00 38.46 38.13 38.58 39.62 40.34 41.71 43.45 44.53 48.07 51.22 54.35 54.51 55.24 54.80 53.67 53.15 52.35 50.14
25.17 23.48 26.75 34.04 38.31 40.41 26.15 27.41 37.14 39.19 40.42 40.59 38.45 38.97 39.40 38.80 36.72 36.31 35.67 35.76 36.47 35.93 34.71 34.82 35.83 36.50 34.57 34.57 34.16 35.45 36.86 36.43 36.73 37.22 39.77 41.20 44.21 51.19 53.55 53.85 48.53 40.31 34.52 33.57
26.29 23.64 20.54 36.22 37.04 29.83 33.05 36.21 36.85 36.93 36.95 36.68 37.63 37.61 36.75 35.51 34.38 33.50 32.92 33.47 34.66 33.83 33.54 34.11 34.50 34.42 31.88 31.30 32.97 33.40 32.89 32.52 32.79 33.84 35.15 36.54 36.94 36.89 37.35 37.59 34.50 33.06 31.96 30.90
28.96 27.89 35.52 35.84 35.32 36.56 36.90 34.31 34.47 33.66 34.59 35.58 34.53 34.59 33.50 32.24 31.87 31.36 30.97 31.35 32.69 32.45 32.21 32.36 32.43 31.91 30.20 30.51 31.73 31.59 31.10 30.46 30.99 31.33 32.01 33.03 33.51 33.46 33.79 33.58 32.20 30.66 29.89 28.24
33.58 34.68 34.68 35.30 35.96 35.03 34.37 32.38 32.23 32.26 32.49 34.15 31.83 31.61 30.80 29.86 29.21 29.09 29.68 29.62 30.15 30.43 29.78 29.66 30.66 29.88 29.69 30.25 30.73 30.03 29.16 29.24 29.81 29.91 29.77 30.45 31.08 31.79 31.33 30.61 29.73 29.22 28.69 27.48
32.15 33.84 34.17 33.60 35.56 34.48 32.96 33.12 31.77 30.88 30.16 30.15 30.66 28.93 28.29 27.10 26.86 27.08 27.82 28.36 28.66 28.61 28.53 28.75 29.09 28.64 28.21 27.96 29.43 28.29 28.27 28.63 28.85 28.93 28.54 28.06 28.87 29.76 29.54 30.31 30.58 28.71 28.47 28.47
26.64 31.34 32.73 31.75 33.58 32.03 29.29 28.28 28.06 28.00 27.93 26.75 27.42 26.31 26.91 25.27 25.71 25.64 25.64 26.58 26.60 27.20 27.20 27.86 28.07 27.12 27.02 26.28 26.32 26.87 26.23 26.43 27.21 27.45 27.05 26.37 25.57 25.81 30.10 30.21 30.85 30.93 30.49 29.12
29.26 33.16 33.30 33.48 32.58 31.42 28.26 26.83 25.76 24.32 24.08 23.19 23.56 24.64 24.93 23.84 24.48 25.16 25.10 25.01 24.92 25.18 25.92 26.51 26.65 25.87 26.22 25.59 24.01 22.07 22.13 24.95 24.88 24.48 23.04 23.89 24.48 23.08 21.03 24.69 28.54 28.99 28.91 28.86
31.32 34.20 30.60 29.68 28.29 30.29 28.49 26.85 26.57 23.90 22.99 22.49 22.32 22.84 23.54 22.66 22.77 22.31 22.57 24.27 24.97 24.78 25.10 25.35 25.43 25.02 26.02 25.42 23.76 22.14 20.86 22.00 21.74 22.16 21.37 20.08 18.60 18.58 17.04 14.90 14.22 16.62 24.10 25.59
28.08 30.28 31.13 30.11 28.74 27.06 27.72 26.45 23.84 22.36 22.14 21.38 21.66 20.73 20.68 19.98 19.51 19.61 20.82 22.73 22.80 22.15 22.54 23.39 23.61 23.72 25.31 24.75 23.28 22.27 21.42 19.91 19.92 19.89 19.70 19.02 19.05 18.19 16.63 15.45 14.32 14.62 15.72 15.82
26.75 26.20 27.77 25.80 24.63 24.03 23.59 22.99 21.92 21.99 21.78 20.78 19.99 19.69 19.25 18.91 18.66 18.13 18.71 18.77 17.92 17.62 19.44 19.95 20.45 22.52 24.56 23.67 22.18 21.27 20.63 20.50 19.50 18.65 18.32 17.80 17.60 15.94 13.98 12.72 11.37 10.29 9.96 11.49
23.79 21.58 21.66 22.92 22.28 20.96 20.23 20.98 21.19 20.68 19.56 18.81 18.40 18.32 18.07 17.17 16.58 15.97 15.94 17.66 17.37 16.77 18.65 18.79 19.12 21.02 21.82 22.48 21.44 20.42 19.67 19.11 18.94 18.31 17.28 16.72 15.62 14.50 13.16 11.41 9.74 8.94 8.62 8.63
20.33 20.57 21.90 21.71 21.33 20.77 19.76 19.57 18.64 17.37 16.01 15.45 14.77 12.94 11.34 12.23 12.72 12.83 13.31 15.23 15.27 14.75 15.49 17.42 18.46 19.27 19.62 19.64 19.69 19.46 18.99 18.28 17.73 16.40 16.15 14.70 14.06 13.47 11.78 10.53 9.62 8.07 6.87 6.53
19.09 18.01 18.23 18.77 19.23 18.48 17.39 16.34 15.56 14.81 13.77 12.55 10.21 8.55 9.03 8.84 9.74 10.31 11.44 10.95 10.68 10.29 12.18 15.69 19.88 17.15 17.43 19.59 18.76 18.20 17.09 16.10 15.30 14.60 14.01 12.40 11.06 10.01 8.05 6.83 6.34 6.46 5.96 5.10
15.82 15.79 15.24 13.64 13.42 13.74 11.47 11.97 11.44 9.76 10.50 9.80 8.69 8.48 7.70 7.95 9.02 8.84 10.48 9.17 10.52 12.34 14.12 14.99 15.77 15.74 16.43 16.42 16.86 15.81 15.00 13.85 13.03 11.45 10.75 9.63 7.80 6.79 6.67 5.80 4.81 2.99 2.12 1.77
10.29 10.09 10.15 9.77 8.47 8.40 7.73 5.58 6.15 6.29 6.51 6.69 7.05 6.02 6.05 7.80 8.80 9.16 9.11 8.20 10.45 13.03 13.49 13.67 13.55 14.04 14.39 14.54 14.14 12.89 11.48 10.13 9.27 8.40 7.45 6.46 5.86 5.65 4.63 4.62 3.39 2.10 1.11 0.37
4.96 6.51 5.47 6.29 7.48 7.18 7.21 5.23 6.14 5.64 5.83 5.67 6.53 6.70 7.02 7.44 7.80 8.75 9.72 9.90 11.82 11.43 11.64 11.14 11.03 10.25 10.89 11.31 11.02 9.53 9.71 8.58 7.84 7.45 5.76 4.71 3.61 2.89 2.06 1.81 0.98 0.98 -0.26 -1.63
4.69 7.11 6.57 5.01 5.81 6.56 7.48 6.03 4.15 4.38 3.58 3.76 3.59 4.49 6.40 8.61 9.26 7.21 5.86 10.43 11.80 10.60 10.07 8.79 8.08 8.08 7.50 7.63 6.94 5.52 4.75 4.23 3.75 2.77 2.94 2.41 1.20 -1.41 -1.08 -0.56 -2.14 -1.84 -3.58 -3.27
8.92 10.00 7.55 7.19 8.09 9.62 7.27 8.11 10.54 9.08 6.49 6.63 3.90 1.94 6.85 3.34 7.64 10.90 10.88 8.61 6.85 6.29 7.10 6.85 6.60 6.56 5.21 5.21 4.98 4.10 3.07 2.91 2.57 1.86 1.48 -0.16 -1.63 -1.79 -2.00 -3.94 -6.06 -6.41 -7.83 -8.95
11.15 9.66 9.58 7.86 9.13 8.94 9.26 9.13 9.26 9.09 8.86 9.75 10.72 11.60 11.36 10.85 2.71 5.87 4.70 5.69 7.47 4.95 3.95 3.03 3.91 3.38 2.86 2.37 2.02 0.81 -0.24 -1.12 -1.99 -1.23 -2.30 -4.01 -5.52 -8.21 -7.65 -7.83 -11.44 -11.98 -13.79 -13.79
12.51 12.24 11.39 12.41 11.90 12.39 12.19 11.24 8.30 8.53 8.35 5.98 6.36 0.35 3.04 5.42 6.29 5.85 4.48 3.94 4.22 3.51 2.50 -0.31 -0.23 -0.04 0.23 -0.45 -2.02 -2.33 -1.99 -1.32 -2.83 -4.49 -6.42 -8.22 -6.79 -8.91 -12.52 -13.79 -14.70 -15.42 -17.96 -20.14
14.93 15.05 14.98 14.45 15.04 14.33 13.56 12.33 10.16 7.20 5.05 -0.81 1.95 3.22 2.26 -0.10 0.85 2.68 -1.27 -2.68 -3.02 -2.84 -3.01 -1.94 -1.26 -0.66 -1.69 -3.73 -2.35 -5.49 -5.12 -6.22 -8.20 -8.55 -13.43 -12.89 -13.61 -17.05 -17.96 -19.41 -21.22 -23.40 -23.04 -21.95

GFSNGP_sfc_wetblb_105.txt.gz
Wetbulb
32.35 33.66 33.98 33.17 33.35 34.09 33.05 33.38 31.20 33.04 33.80 37.54 41.83 44.17 45.56 46.99 47.96 47.34 46.18 45.94 44.91 44.22 43.60 44.38 47.60 52.92 54.80 55.16 55.54 55.76 54.80 53.48 52.58 53.07 53.55 54.93 55.08 55.33 55.60 55.49 56.06 56.08 55.98 55.99
30.19 33.75 33.45 30.65 33.61 35.07 35.16 35.05 35.22 35.84 35.21 42.25 44.74 45.71 43.52 43.49 43.98 43.37 42.97 42.58 42.44 42.05 41.30 41.10 42.72 46.12 54.48 55.06 55.48 55.67 54.78 54.26 54.02 53.21 53.61 54.25 54.93 54.90 55.03 55.12 55.18 55.26 54.54 55.08
25.49 31.76 30.73 26.90 31.65 34.09 35.01 37.64 36.93 32.53 37.67 42.29 41.95 41.28 40.31 40.64 41.12 40.59 40.25 40.14 39.77 39.05 38.84 39.27 40.64 43.84 47.62 53.60 56.50 55.52 55.38 55.07 54.51 53.73 53.34 54.00 54.74 54.62 54.27 54.52 55.16 54.82 54.28 54.07
26.80 29.03 19.22 33.77 40.08 39.37 37.21 37.64 38.57 38.35 40.45 40.18 41.55 40.91 40.38 39.95 38.97 37.96 37.87 38.06 38.04 37.58 37.44 37.56 39.61 40.82 43.43 52.21 55.84 55.56 55.66 55.58 55.20 54.69 53.69 53.83 54.02 54.36 54.37 54.52 53.90 53.99 53.96 53.42
24.66 25.02 28.43 33.26 37.27 36.93 36.03 34.42 39.20 38.58 40.89 40.44 41.90 41.78 38.34 38.60 38.01 36.97 36.63 36.85 37.11 37.04 36.40 36.69 37.45 38.54 39.41 40.14 42.03 42.68 42.48 43.77 45.94 48.01 52.44 54.89 53.49 53.53 54.97 54.78 53.97 53.48 53.57 52.97
27.17 22.24 20.02 31.52 38.95 41.03 41.07 30.82 38.89 39.50 40.19 40.47 40.67 35.45 36.20 37.26 35.97 35.38 35.38 36.00 36.02 35.57 35.11 34.66 35.45 37.01 36.50 35.49 36.13 36.35 37.42 38.08 39.44 40.70 42.89 43.36 44.75 52.59 54.55 54.67 53.96 53.65 45.86 38.72
26.33 24.31 28.10 35.12 37.66 41.14 29.57 30.60 38.90 39.09 38.81 39.00 36.80 36.53 36.35 36.07 34.26 33.92 34.18 33.63 35.50 34.74 32.98 32.94 34.11 34.14 32.71 32.95 32.48 33.97 35.05 35.39 35.52 36.28 37.63 38.24 40.11 40.60 42.18 51.27 39.55 35.20 33.19 33.23
27.49 24.08 21.13 36.08 37.60 33.23 35.33 36.82 36.72 36.11 36.45 36.39 36.32 35.69 34.55 33.23 32.09 31.57 31.15 31.92 32.96 32.90 32.03 32.04 32.40 32.67 30.62 30.33 32.24 32.90 33.20 32.92 32.83 33.48 34.23 35.43 35.98 36.43 36.43 35.97 33.82 32.24 31.09 30.85
30.04 29.72 35.13 36.18 34.84 35.82 37.58 34.71 34.21 34.51 35.06 35.11 33.21 32.36 31.34 30.56 29.91 29.60 29.54 30.35 31.99 31.41 31.22 31.01 30.86 30.48 29.69 30.13 31.66 31.54 31.36 31.12 31.06 31.61 32.05 32.53 32.57 32.92 33.19 32.70 31.22 30.24 29.94 28.97
32.81 34.00 34.21 34.05 33.97 34.31 34.28 32.59 32.52 32.76 33.37 33.66 30.87 30.41 28.89 28.20 28.03 27.87 28.31 28.43 29.60 29.78 29.20 28.39 29.33 28.90 29.18 30.73 31.49 31.15 29.98 29.46 29.40 29.38 29.83 30.60 30.74 30.97 31.06 31.25 30.80 30.08 29.07 27.91
31.23 33.05 34.30 33.34 33.87 33.41 32.16 32.31 31.04 29.99 29.42 29.54 30.20 27.94 27.21 26.07 26.03 26.25 26.89 27.63 28.13 27.86 27.68 27.48 28.03 27.72 28.11 29.39 31.05 29.79 29.71 28.96 28.32 28.44 28.43 28.03 28.74 29.29 29.00 29.96 30.33 28.54 28.42 27.99
26.37 31.07 31.38 30.67 31.59 31.65 29.09 27.87 28.02 28.37 26.54 26.31 27.67 26.65 26.77 25.07 25.57 25.29 25.11 26.02 25.57 25.90 26.20 26.50 26.56 26.63 27.31 27.80 28.64 29.29 28.10 27.75 27.99 27.68 27.69 27.35 26.64 26.64 29.75 29.76 30.14 30.24 29.61 27.99
29.22 32.34 31.98 31.33 30.94 30.70 28.04 26.33 25.83 25.06 24.87 24.20 25.13 25.79 25.62 24.30 24.47 24.83 24.74 24.58 24.61 24.76 25.39 25.64 25.36 25.14 25.85 26.25 26.09 25.98 26.25 26.94 25.87 24.88 25.01 24.72 24.64 24.60 22.93 25.43 28.78 29.01 28.85 28.77
31.55 33.41 29.48 30.00 27.94 29.31 27.44 26.59 26.25 24.43 23.94 23.71 23.43 24.29 23.92 23.02 22.76 22.08 22.75 23.71 23.87 23.67 24.02 24.59 24.62 24.02 25.07 25.43 24.27 23.64 23.74 23.55 24.72 24.01 23.78 23.34 22.72 21.76 21.72 20.77 20.28 21.20 25.63 26.58
28.46 31.46 29.64 29.21 27.88 26.65 27.53 26.76 24.67 23.17 22.92 22.12 22.80 21.76 21.74 20.59 19.94 20.08 21.15 22.43 22.60 21.99 21.83 22.43 22.47 23.33 24.97 24.28 23.06 22.93 22.88 22.96 23.54 23.08 22.54 22.16 22.04 21.40 21.13 21.01 20.14 20.24 21.01 18.68
26.73 26.98 27.13 25.25 23.98 23.43 23.52 23.76 22.96 22.45 21.83 21.43 20.76 20.01 19.79 19.72 19.26 19.00 19.55 19.44 18.58 17.72 19.38 19.88 20.32 22.43 24.19 23.78 23.02 22.91 22.22 21.70 22.75 23.26 22.46 22.05 21.69 20.68 19.63 18.86 17.87 16.96 16.09 16.94
24.83 21.89 22.49 23.22 22.32 21.38 20.67 21.02 21.28 20.31 19.50 18.77 18.29 19.35 19.04 17.99 17.50 17.02 17.32 18.45 17.29 17.10 18.59 19.47 19.85 21.57 22.52 22.89 23.09 22.81 22.72 21.67 20.81 21.66 21.24 20.25 19.44 17.74 17.09 16.03 14.86 14.09 12.91 12.25
21.45 21.81 22.30 21.93 21.70 21.36 19.72 18.97 18.12 17.57 16.12 16.04 14.75 13.43 12.05 13.05 13.34 13.61 14.19 15.37 15.41 15.58 16.07 17.77 19.52 20.37 20.71 21.71 22.57 22.37 21.95 21.22 20.70 19.65 19.35 18.42 17.41 16.87 15.96 14.65 13.62 12.66 11.76 10.29
19.18 18.18 18.77 19.14 19.27 18.61 17.55 16.29 15.67 14.84 13.82 12.44 11.06 9.62 10.07 10.27 11.54 11.74 12.89 12.34 12.62 13.64 14.06 17.40 19.38 18.95 19.69 20.36 20.73 20.93 20.41 19.62 18.64 17.60 16.69 15.05 14.89 14.51 13.75 13.31 12.22 12.05 11.38 10.63
16.05 16.10 15.25 13.36 13.32 14.05 12.04 12.16 12.09 10.91 11.40 10.86 10.05 9.54 9.37 9.45 10.40 10.65 12.05 10.80 12.15 13.81 15.55 16.11 17.67 17.83 17.74 17.42 18.41 19.16 18.68 17.81 16.20 15.46 14.82 14.14 13.54 12.19 10.79 9.56 10.12 9.68 9.50 8.75
11.08 11.53 11.04 10.13 9.39 9.68 9.52 9.66 9.08 8.66 9.13 9.50 8.77 7.47 8.36 9.98 9.94 11.45 12.24 12.03 12.52 13.88 14.61 14.16 14.89 15.99 16.23 16.64 16.77 16.71 16.20 15.21 14.48 13.82 13.07 12.53 11.97 11.39 10.43 9.94 9.24 8.73 8.30 7.70
10.10 9.18 8.55 9.50 9.38 8.79 9.31 9.77 9.46 8.56 8.72 8.43 8.64 9.25 9.80 10.29 10.28 10.37 10.83 11.73 13.14 12.00 13.34 13.43 13.00 11.03 12.66 13.82 14.82 14.51 13.75 13.31 13.00 12.99 11.97 11.75 11.06 10.07 9.40 9.10 8.14 7.99 7.45 7.27
10.29 10.34 9.36 8.23 8.79 9.09 9.20 8.32 7.35 7.23 6.53 6.68 7.54 9.28 10.59 11.38 12.14 10.80 9.25 11.64 12.90 11.40 12.04 11.39 9.39 9.34 10.13 12.44 12.30 11.95 11.47 10.94 10.52 10.33 10.22 10.08 9.85 9.82 9.04 8.36 7.71 7.30 6.62 6.32
11.43 11.36 10.70 11.51 11.75 11.34 9.72 10.77 10.77 9.58 8.36 9.54 7.97 8.37 11.24 10.50 10.44 12.05 11.74 9.41 8.37 9.20 9.94 9.23 8.56 7.78 9.10 10.80 10.30 9.99 9.88 9.56 9.23 8.92 8.15 7.33 8.22 7.78 7.40 6.58 6.02 6.17 4.90 4.40
12.62 12.47 12.20 12.20 11.70 11.25 11.28 11.76 11.37 11.23 11.04 11.45 11.76 12.08 11.47 11.76 10.28 9.92 10.54 9.81 9.12 8.73 8.65 6.07 6.51 7.03 9.18 9.01 8.44 7.78 7.99 7.96 7.78 7.37 7.03 6.43 5.80 5.48 5.79 5.36 4.84 4.81 3.78 4.17
14.75 14.31 14.50 14.44 14.08 13.97 13.50 12.68 10.97 11.31 10.81 9.76 9.76 10.12 10.21 10.56 9.90 9.67 9.05 7.99 7.89 6.66 7.52 7.29 6.95 7.40 7.43 7.19 6.87 6.47 6.86 6.61 6.29 5.17 4.87 4.92 4.61 4.28 3.81 3.42 3.45 3.62 3.16 2.61
16.31 15.29 15.77 15.37 16.05 15.44 14.86 13.90 12.54 10.86 10.55 10.17 9.08 9.95 9.07 8.66 7.86 7.65 5.89 7.08 6.74 6.59 6.81 6.98 7.35 6.55 6.74 6.66 5.94 5.94 5.94 5.45 3.66 4.62 4.53 4.01 3.77 3.16 2.31 2.16 1.89 1.62 1.15 0.65

GFSNGP_sfc_wetblb_108.txt.gz
Wetbulb
35.66 36.25 36.55 36.57 36.59 38.04 37.05 38.13 34.13 36.68 36.98 41.33 44.01 46.05 45.59 45.22 45.14 45.40 44.59 44.97 43.84 43.61 43.95 41.97 41.25 41.40 42.91 55.64 55.51 55.54 54.80 54.64 54.44 55.40 56.23 57.69 57.27 57.38 57.67 57.26 57.26 58.31 57.17 56.92
31.93 35.82 36.09 34.40 37.11 38.22 38.32 38.29 38.12 38.54 38.27 44.65 45.54 44.37 42.80 43.23 43.09 41.81 41.53 41.69 42.29 40.65 40.43 39.27 38.85 39.79 41.69 53.64 55.35 55.39 54.78 54.19 54.50 54.61 54.80 55.81 57.04 56.96 56.88 56.55 56.94 57.27 56.37 56.19
28.37 33.79 33.54 29.97 35.16 37.19 38.53 39.61 39.10 35.93 40.34 42.74 41.82 40.52 39.49 40.39 40.32 38.80 38.60 39.19 39.27 37.42 37.55 37.62 37.99 39.02 39.70 45.24 55.57 54.84 54.76 54.82 54.86 55.17 54.50 55.13 55.76 55.93 56.06 56.21 56.98 56.64 56.71 56.64
29.75 31.27 22.00 36.14 42.43 41.64 38.97 39.87 41.17 39.85 40.63 42.00 41.67 39.70 38.50 38.70 37.58 36.56 36.11 36.30 37.45 36.73 36.01 35.80 37.00 38.34 39.52 45.92 52.98 52.46 51.85 53.12 54.42 54.46 54.96 55.66 55.43 55.23 55.93 56.35 56.12 56.48 56.54 56.20
27.49 28.02 31.46 34.35 37.64 38.00 37.26 35.97 40.57 39.04 41.06 42.98 42.43 40.43 36.63 36.91 36.52 35.27 34.78 35.02 35.64 36.21 35.45 34.78 35.15 36.26 36.01 37.06 39.87 41.22 41.03 41.59 43.35 46.79 50.46 53.70 54.01 54.89 56.20 56.08 56.49 57.13 56.43 55.55
30.84 24.52 21.72 34.72 38.16 43.20 43.40 31.87 40.33 40.47 39.75 40.98 42.78 36.90 34.33 36.35 35.12 34.58 34.16 34.23 34.48 35.13 34.06 33.35 33.50 34.85 34.72 34.15 34.43 35.07 37.05 37.76 39.33 41.34 42.46 42.70 43.90 46.17 52.59 55.52 54.68 52.77 41.66 39.57
28.87 27.32 31.37 37.34 38.23 41.92 31.97 32.16 38.10 39.38 39.10 39.18 36.07 35.40 35.66 35.95 33.31 32.73 33.04 33.05 33.89 34.04 32.80 32.39 33.29 33.42 32.93 33.17 32.17 33.20 35.05 35.47 35.68 36.65 37.59 38.43 39.31 39.75 42.16 44.22 37.84 34.68 33.05 33.71
30.64 26.63 24.01 37.62 40.40 35.16 36.31 38.55 38.33 37.66 38.03 37.06 36.41 34.98 34.06 32.54 31.07 30.68 30.44 30.77 32.40 32.04 31.78 32.02 32.47 33.29 31.93 31.30 32.41 32.90 33.12 33.25 33.60 34.43 34.52 35.86 36.10 35.93 36.32 35.21 33.36 32.10 31.41 31.14
32.71 32.30 35.77 36.08 34.56 37.32 39.77 38.66 37.64 37.14 37.08 36.48 34.65 32.47 31.58 30.33 29.73 29.58 29.55 29.72 30.84 30.62 30.66 31.34 31.46 31.62 31.14 32.14 33.38 32.65 31.99 31.32 31.79 32.57 32.97 33.30 33.61 33.93 33.45 33.32 31.99 30.50 29.80 28.27
33.20 33.14 33.69 34.28 35.93 35.90 36.98 36.53 36.84 37.28 36.76 36.25 33.05 31.35 29.85 29.08 28.45 28.24 29.27 28.18 29.04 28.95 28.23 28.30 30.29 30.68 30.75 32.48 33.44 32.72 31.35 30.57 30.35 29.64 29.98 31.12 31.23 31.07 31.36 31.11 30.38 29.55 28.00 26.45
32.01 32.94 32.51 31.97 33.24 34.26 33.89 34.85 34.38 33.83 34.22 34.03 33.43 30.33 29.89 28.69 27.48 27.47 27.52 28.50 27.98 27.16 26.84 26.82 27.94 28.91 30.72 31.49 33.68 32.55 31.94 31.73 31.10 30.03 29.20 28.35 28.80 29.16 28.45 29.60 29.96 28.02 27.76 27.55
29.38 31.51 31.47 30.71 32.14 32.86 31.14 30.64 31.76 32.31 31.10 31.40 31.68 30.73 30.28 28.91 28.76 27.92 26.80 27.16 26.74 26.75 25.91 25.72 26.21 26.06 28.05 30.34 32.07 33.31 31.37 30.16 29.90 29.08 29.27 28.75 27.79 27.38 29.93 29.66 29.79 29.76 29.37 28.90
30.95 32.41 32.13 31.67 31.93 32.24 29.80 28.37 28.95 29.99 29.91 29.29 29.06 29.18 28.84 27.85 27.81 27.33 28.70 27.53 26.61 25.78 26.42 26.62 25.96 25.26 26.71 27.94 28.76 29.57 29.55 30.24 29.24 28.80 28.50 28.07 27.92 27.23 25.34 27.02 28.53 28.63 28.96 29.11
33.95 33.91 29.93 31.14 28.09 29.95 29.35 28.39 27.91 27.85 28.37 28.71 28.02 28.38 27.56 27.37 27.26 26.76 25.66 26.25 26.54 26.71 26.13 26.45 26.07 25.31 27.01 27.64 27.76 27.55 27.88 27.46 28.48 28.34 28.12 27.77 27.16 27.20 27.93 26.16 24.73 24.24 25.39 26.03
31.69 31.96 30.40 29.99 29.29 28.29 29.80 29.45 28.05 27.23 27.02 26.11 26.81 26.19 25.99 24.80 24.02 24.03 25.08 25.59 25.49 24.51 24.18 24.56 24.13 24.77 26.70 26.92 26.37 27.52 27.83 27.12 27.21 27.21 27.33 26.96 27.37 27.17 26.91 26.64 26.11 25.60 25.48 24.14
28.80 29.88 29.02 27.21 26.16 26.25 27.29 27.91 26.56 25.37 25.53 25.05 24.41 23.97 23.93 23.97 23.38 23.31 23.40 22.98 22.47 21.41 22.37 22.44 22.62 24.51 26.34 27.57 27.64 27.08 26.38 26.38 27.33 27.50 27.14 26.88 26.83 26.34 25.72 25.13 24.47 23.50 23.21 24.38
26.77 25.59 25.34 25.07 24.79 24.49 23.83 24.52 24.55 23.53 23.08 22.79 22.10 23.09 23.19 22.51 21.85 20.95 21.00 21.57 20.37 20.87 21.97 22.08 22.29 23.48 25.35 26.66 27.57 27.53 27.15 26.88 26.31 27.16 26.44 25.77 25.16 24.76 24.46 23.78 22.59 20.93 19.12 18.69
25.07 24.59 24.56 24.26 24.04 23.92 22.37 22.01 21.68 21.06 19.75 19.27 18.42 17.80 16.93 17.44 17.81 17.94 18.55 19.72 20.46 19.00 20.50 21.42 22.49 23.80 23.69 25.37 26.77 26.99 26.58 26.08 25.48 24.83 24.61 24.18 23.73 23.13 22.55 21.82 20.42 18.92 18.48 17.96
22.36 21.12 21.45 21.61 22.31 22.04 20.95 19.68 18.68 17.95 17.11 16.42 15.67 14.76 15.44 15.81 16.61 16.97 18.21 18.49 18.73 18.87 18.64 21.26 21.88 23.12 22.88 23.29 25.76 26.22 25.56 24.71 23.66 22.67 22.40 21.56 21.94 21.58 21.37 20.80 19.83 19.32 18.76 18.06
19.60 19.13 18.30 16.33 16.61 17.00 15.08 15.90 16.19 14.55 15.33 15.56 15.21 15.00 14.76 14.48 15.44 16.31 17.22 15.55 16.05 17.40 19.36 20.10 22.43 22.31 22.20 22.03 23.71 24.75 24.10 23.29 21.95 21.39 21.39 20.65 19.90 18.45 17.48 16.41 17.60 17.64 17.45 16.86
15.77 15.22 14.14 13.64 13.14 13.32 13.54 14.30 14.16 13.38 13.59 14.17 14.31 13.23 13.61 14.66 14.95 17.60 18.80 17.52 16.67 17.78 18.60 18.39 18.61 20.85 21.03 22.31 23.25 23.35 22.77 22.38 21.68 20.71 19.81 19.18 18.78 18.13 17.60 17.29 16.92 16.47 15.89 15.41
15.46 14.08 13.43 13.65 13.44 13.17 13.89 14.82 14.26 13.46 13.63 13.13 13.01 14.00 14.89 15.49 15.22 14.68 14.25 16.29 17.51 16.00 18.25 18.38 17.14 15.30 18.32 19.78 21.34 21.24 20.27 19.90 19.68 19.61 18.98 18.62 17.99 17.02 16.36 16.06 15.29 15.32 15.13 14.61
15.66 15.23 14.45 13.73 14.03 13.83 13.82 13.38 12.92 13.01 12.70 12.70 13.39 14.73 15.21 15.99 17.18 17.21 14.99 15.44 16.84 15.17 17.20 15.46 13.49 14.64 16.59 19.86 19.70 19.18 18.30 17.69 17.61 17.23 17.48 17.37 17.17 16.47 15.86 14.99 14.52 14.13 13.68 13.37
15.83 15.76 15.37 15.91 15.91 15.77 14.33 14.48 14.79 14.07 13.51 13.80 12.78 13.75 16.58 16.43 15.78 17.17 16.17 13.30 12.31 13.66 13.86 13.57 13.39 13.50 15.54 17.94 17.40 17.04 16.93 16.61 16.27 15.65 15.09 14.18 15.24 14.56 14.15 13.49 12.74 12.48 11.15 11.08
16.31 16.39 16.08 16.09 16.38 16.33 15.77 15.56 15.49 15.22 15.05 15.14 14.96 15.05 15.10 16.17 15.95 15.45 15.93 14.27 12.38 14.52 14.50 10.30 11.16 12.61 15.70 15.59 15.06 14.72 14.75 14.94 14.87 14.94 14.20 13.55 13.17 12.99 12.81 12.06 11.53 11.58 10.41 10.80
18.97 19.62 19.54 18.32 18.71 19.14 18.43 18.30 17.17 16.93 16.43 14.79 14.81 15.37 15.33 15.42 14.94 15.14 13.57 12.35 12.90 12.09 13.61 13.39 12.97 13.79 13.68 13.39 12.81 12.74 13.14 12.69 12.43 11.79 11.75 11.64 11.31 11.14 10.34 10.11 9.96 10.29 10.03 9.88
20.07 18.54 20.26 20.06 20.71 20.41 19.93 18.43 18.29 16.35 16.56 16.46 14.04 15.13 14.87 14.37 13.26 13.21 12.23 13.54 13.28 12.75 12.85 13.24 13.05 11.54 12.19 12.61 12.01 11.98 12.15 11.13 9.02 11.12 11.26 10.81 10.59 9.86 8.98 9.12 9.14 9.35 8.71 7.71

GFSNGP_sfc_wetblb_111.txt.gz
Wetbulb
35.94 37.02 38.64 36.80 37.52 39.30 37.47 38.36 34.31 37.07 37.93 41.47 44.09 45.83 44.85 44.67 45.05 45.12 44.37 44.49 44.78 44.50 44.21 45.71 45.45 43.79 41.31 42.51 43.95 56.06 56.27 56.07 55.73 56.73 57.73 58.79 57.98 58.38 57.87 58.74 58.99 58.16 57.45 57.49
34.04 37.70 37.94 36.11 38.31 38.94 39.37 39.11 38.97 39.51 38.87 47.43 46.91 46.06 43.27 42.58 43.04 41.87 41.10 41.02 41.72 41.85 41.28 41.71 41.33 39.37 39.20 40.05 41.60 46.51 54.98 54.32 55.12 56.01 56.88 58.19 57.66 57.29 57.16 58.02 58.91 58.36 57.03 56.95
29.71 35.61 35.41 31.78 36.97 38.40 39.20 40.62 40.15 36.61 41.68 45.07 41.92 41.14 39.18 39.57 38.65 38.30 37.83 39.38 38.26 37.75 38.16 38.90 38.62 37.71 37.47 38.53 39.54 47.04 54.44 54.30 54.66 55.02 55.72 56.73 56.54 56.73 56.96 56.75 57.71 57.85 58.34 58.00
30.71 32.42 23.87 37.09 43.25 42.24 39.91 41.36 42.53 41.69 42.98 44.50 41.72 38.87 37.18 37.28 37.37 37.37 36.92 37.31 35.50 35.86 35.47 36.90 36.90 37.06 37.44 37.07 39.02 49.45 50.80 52.34 54.62 55.02 55.02 55.33 55.84 55.95 56.38 57.07 56.45 56.70 56.78 57.01
29.02 29.41 33.64 36.49 39.77 38.83 38.22 36.70 41.94 40.94 41.94 42.46 39.80 38.45 35.58 37.32 38.46 36.96 35.49 35.19 34.47 35.27 34.33 34.76 34.40 35.94 35.89 34.86 34.72 37.95 39.29 41.21 43.94 47.78 51.78 55.22 54.86 55.89 56.51 56.32 56.39 56.09 56.50 56.83
31.93 26.22 23.44 32.90 38.77 41.61 41.56 33.63 40.04 40.71 39.99 40.76 41.66 36.66 34.24 37.77 37.83 36.48 35.90 34.58 33.58 34.06 33.46 33.33 32.55 34.55 33.42 32.52 32.77 33.00 35.02 36.34 38.08 40.71 43.02 43.53 44.67 47.51 50.19 56.06 52.95 44.92 40.28 38.83
30.80 28.94 33.13 38.08 41.42 41.05 31.62 31.36 39.29 40.67 40.21 40.19 36.14 36.24 36.57 37.05 35.78 35.63 33.63 32.55 33.62 33.60 32.96 32.26 32.37 32.58 32.03 31.79 31.15 32.03 33.72 34.45 34.80 35.62 37.47 38.80 40.00 40.71 42.21 39.27 36.43 34.67 32.82 32.49
32.81 28.74 25.60 39.14 39.97 33.32 34.58 38.83 39.10 39.07 38.75 36.88 36.82 36.10 35.03 34.41 34.34 33.35 32.13 31.26 32.10 31.90 31.72 32.46 32.41 32.03 31.85 31.25 31.85 32.40 32.76 32.20 32.72 32.67 33.65 35.99 35.59 35.88 36.07 35.09 33.12 31.78 30.12 28.94
33.60 30.88 35.59 36.93 35.19 37.19 39.29 38.34 38.70 38.52 38.78 38.16 36.68 35.07 34.31 33.32 32.12 30.91 30.81 30.42 30.79 29.92 29.91 30.84 32.02 31.93 31.74 31.87 32.75 32.50 31.49 30.74 31.02 31.68 31.75 32.60 32.72 33.14 32.86 32.49 31.08 29.95 28.53 26.82
34.09 31.02 31.80 34.49 35.90 36.95 38.08 38.11 38.75 39.43 38.81 38.11 35.59 35.13 33.94 32.61 30.73 30.38 30.12 29.72 29.76 28.58 27.78 27.47 30.14 30.79 31.32 34.33 34.57 33.05 30.94 30.16 30.04 29.12 28.87 29.98 29.81 29.97 30.30 30.12 29.00 28.25 26.94 25.81
32.58 32.79 33.67 33.71 34.27 35.67 35.55 36.81 37.23 37.04 36.86 36.73 36.70 35.16 34.81 33.03 31.37 30.67 29.62 29.67 29.32 28.37 27.48 27.14 28.36 28.31 30.19 32.40 34.38 32.09 31.44 31.13 30.20 29.19 28.23 27.74 28.23 28.29 27.96 29.03 29.23 27.38 27.35 27.41
29.65 31.67 33.60 31.90 33.89 34.86 33.01 33.12 34.58 34.99 34.31 34.31 34.96 33.80 34.57 32.57 32.21 32.03 30.88 30.58 29.08 27.86 28.02 27.69 27.93 28.35 29.19 30.87 32.00 31.32 30.05 29.62 29.63 28.86 28.71 28.16 26.61 26.31 29.67 29.96 30.37 30.26 29.69 28.50
31.81 33.48 33.36 33.08 33.17 33.30 31.48 30.68 31.58 32.77 33.19 33.08 32.63 32.13 32.25 31.19 30.47 30.28 30.22 29.60 28.75 27.58 27.45 27.80 27.32 27.14 28.60 29.77 30.24 29.81 30.02 30.38 29.62 29.12 29.00 28.83 28.21 26.85 24.56 25.92 28.06 28.56 29.01 29.29
34.71 34.40 31.04 31.65 30.26 31.92 31.40 31.33 31.39 31.06 31.47 31.89 31.89 31.99 30.86 29.85 29.51 28.62 27.64 27.99 28.27 27.64 27.24 27.42 27.12 26.81 28.54 30.19 30.51 29.95 29.84 29.10 30.11 29.97 30.07 30.05 29.56 28.62 28.79 26.61 25.01 24.97 27.00 27.56
32.60 32.57 31.19 31.24 30.87 30.63 32.06 31.91 30.75 29.44 30.42 29.59 29.96 28.23 28.05 26.66 25.82 25.49 26.50 27.89 27.69 26.27 25.35 25.46 25.07 25.89 29.01 29.08 28.88 29.68 29.47 28.89 29.43 29.51 29.73 29.80 29.70 29.31 29.32 28.57 27.46 26.82 27.08 27.10
31.32 31.49 30.38 28.78 28.38 27.97 28.39 29.87 29.51 28.20 28.29 28.51 27.39 26.50 26.65 26.22 25.48 24.64 24.27 23.77 22.87 22.05 22.95 23.63 23.47 25.70 28.15 30.13 29.94 29.34 29.15 28.65 29.06 29.27 29.11 28.78 28.50 27.56 26.79 25.68 24.21 23.59 24.31 27.35
29.56 28.44 27.71 27.09 26.45 25.59 25.85 26.61 27.09 26.44 26.20 24.94 23.74 23.92 25.41 24.50 23.06 22.26 22.30 22.73 22.04 22.20 22.91 22.98 24.27 24.74 27.52 29.23 30.16 29.57 29.14 28.58 27.84 27.74 27.73 27.74 27.29 26.25 25.68 24.28 22.50 21.08 20.81 23.35
28.22 27.81 27.65 27.08 26.77 26.06 24.68 24.52 24.23 23.19 21.26 20.89 20.79 20.35 19.59 19.88 19.53 20.01 21.41 23.23 23.53 21.26 22.22 23.69 24.76 25.40 25.51 28.23 29.20 29.03 28.15 27.45 26.94 26.21 26.52 26.23 25.64 25.45 24.51 23.09 21.91 20.73 20.65 21.51
25.36 23.40 23.57 23.56 24.45 24.11 22.82 20.97 20.29 19.70 19.29 19.20 18.54 17.72 18.16 18.46 19.26 19.67 20.63 20.45 20.70 19.28 20.14 23.69 24.76 25.04 24.91 25.89 28.04 28.59 27.89 26.80 25.90 25.10 24.83 24.50 24.62 24.23 23.83 23.38 22.48 22.13 21.63 20.77
21.66 21.23 19.84 18.05 19.10 19.03 17.62 18.53 18.43 17.42 18.43 18.87 18.72 18.29 17.48 17.02 18.59 20.48 21.12 18.06 18.23 19.76 22.08 21.59 24.36 24.16 24.63 25.53 26.07 26.53 25.99 25.36 23.83 23.55 23.96 22.95 22.46 21.28 20.82 20.44 21.14 20.87 20.65 19.92
18.20 17.51 16.79 16.18 15.71 16.70 16.97 17.50 17.12 15.82 16.27 17.16 17.11 16.09 16.29 16.98 16.86 18.52 21.51 19.43 18.75 20.11 22.09 21.12 20.42 23.05 24.17 25.11 24.93 25.43 25.07 24.28 23.52 23.11 23.02 22.32 22.11 21.63 21.26 20.95 20.47 20.05 19.27 18.80
18.18 16.99 16.32 16.70 16.55 16.10 17.01 17.80 17.12 16.40 16.18 15.82 15.69 17.02 18.80 19.52 18.32 16.82 16.43 17.79 19.68 18.38 20.32 19.76 19.75 19.24 22.36 23.59 24.05 24.05 23.59 23.22 23.21 22.87 22.13 21.96 21.18 20.24 19.75 19.47 18.72 18.54 18.18 17.68
18.45 18.19 17.52 16.77 16.73 16.80 17.06 16.62 16.19 16.44 15.80 15.87 16.18 17.31 17.86 18.23 18.99 18.40 16.27 16.72 18.48 17.26 19.28 17.01 16.35 18.34 20.50 22.00 21.97 21.72 21.30 20.91 20.68 20.57 20.68 20.42 20.21 19.56 18.76 18.18 17.70 17.49 17.09 16.50
18.94 18.71 18.37 18.90 19.05 19.27 17.51 17.80 18.02 17.31 16.19 16.90 16.04 16.11 17.97 19.28 18.48 19.58 18.54 16.26 15.46 15.61 14.64 15.16 16.18 16.97 19.00 20.46 20.25 19.88 19.79 19.67 18.99 18.83 18.34 17.27 18.17 17.50 17.13 16.30 15.28 14.84 14.26 13.95
19.03 19.02 18.88 19.14 19.84 19.29 18.64 18.69 18.72 18.79 18.43 18.22 18.01 18.41 18.13 18.60 18.02 17.05 17.72 16.72 14.78 17.53 17.16 13.84 14.57 15.97 18.42 18.30 17.61 17.17 16.64 16.78 17.46 17.75 17.32 16.82 16.46 16.16 15.94 15.17 14.78 14.22 13.49 13.41
21.70 21.92 21.53 21.17 21.31 21.47 21.31 21.53 19.88 20.48 20.67 18.89 18.61 18.70 18.49 18.66 18.09 17.90 16.02 14.85 15.57 15.34 16.18 15.76 15.33 17.05 16.60 15.91 15.83 15.82 16.29 15.66 15.23 15.16 15.17 14.91 14.54 14.24 13.42 12.98 12.97 13.03 12.59 12.00
22.05 20.82 22.56 22.57 23.26 22.57 21.87 20.20 21.17 19.00 18.95 18.75 17.26 18.56 17.80 17.42 16.08 16.40 15.34 16.73 16.29 16.15 15.96 16.03 15.53 13.97 15.06 15.68 15.25 15.53 14.93 13.14 10.16 14.24 14.37 13.90 13.56 12.66 11.92 12.04 11.90 11.72 10.89 9.91

GFSNGP_sfc_wetblb_117.txt.gz
Wetbulb
33.74 35.29 33.85 34.16 35.19 35.91 34.23 35.18 31.31 34.58 36.28 38.30 38.30 39.78 39.65 39.90 39.49 38.58 37.83 37.57 37.14 36.76 36.14 36.25 36.36 36.27 36.62 37.49 38.30 39.30 38.87 39.76 41.61 45.22 55.61 57.64 58.11 58.38 58.75 58.63 57.79 58.09 58.59 57.44
30.65 35.87 34.75 33.83 35.84 35.90 36.33 36.43 36.63 37.13 37.60 41.64 41.47 40.58 37.80 37.53 37.19 35.51 35.65 35.85 35.74 35.70 35.11 34.56 34.29 34.74 35.76 36.34 36.87 38.14 37.98 38.80 41.08 48.04 55.50 56.73 57.35 57.49 57.59 57.05 56.85 56.98 56.71 56.31
27.07 34.06 33.65 30.57 34.21 35.25 35.20 37.95 38.37 33.66 38.10 38.94 36.03 35.62 35.11 35.55 34.95 34.35 34.31 34.46 34.16 33.84 33.21 33.28 33.52 34.33 34.24 35.30 36.26 36.47 36.97 37.89 38.74 40.74 56.27 56.85 57.12 56.96 56.91 56.29 56.25 55.45 55.99 55.79
26.79 29.74 22.58 32.75 38.44 39.03 34.92 34.77 36.43 38.79 38.80 37.25 35.33 35.37 35.79 35.72 33.64 33.48 33.25 32.99 33.19 33.08 32.40 32.56 33.32 33.58 34.80 34.81 34.30 34.29 34.51 35.59 36.87 37.89 45.10 56.41 56.37 56.09 56.33 56.23 55.57 54.92 54.84 55.24
24.14 24.81 31.32 31.69 33.05 33.21 34.12 32.16 35.35 36.82 37.35 35.66 35.74 35.25 32.95 35.19 34.60 32.40 32.44 32.65 32.96 33.52 32.63 32.41 32.45 33.16 34.07 33.23 32.74 32.23 31.81 32.96 34.75 36.28 38.71 53.97 55.35 55.35 55.81 55.75 55.02 50.70 50.95 48.58
25.70 23.16 21.48 28.71 33.19 37.77 37.33 26.08 35.91 35.29 34.79 36.13 36.90 32.13 30.44 33.79 33.67 32.09 31.82 31.63 31.47 33.05 32.00 31.38 31.32 32.20 32.57 31.88 30.97 30.08 30.70 32.00 33.95 35.35 35.67 38.01 50.97 54.77 54.32 48.48 41.85 39.66 35.73 35.52
25.37 24.29 28.81 32.26 35.13 37.62 26.45 27.54 35.79 36.20 35.21 33.66 31.30 32.34 33.68 33.92 32.03 31.68 30.87 30.44 30.69 31.04 30.03 29.81 30.87 31.31 30.54 31.13 29.74 30.35 30.93 31.01 32.11 33.29 34.55 34.37 38.09 45.01 42.17 37.60 34.72 32.25 30.93 31.17
25.77 23.13 20.98 35.06 34.10 28.86 33.46 37.10 37.04 36.49 35.93 34.67 34.80 34.57 33.34 32.43 30.54 30.36 28.97 29.27 29.63 29.03 28.71 29.80 30.27 30.14 29.25 29.92 31.23 31.33 30.16 29.03 29.28 31.17 32.63 33.36 33.11 34.73 35.33 34.43 31.44 29.74 28.30 27.43
27.58 26.62 33.39 34.46 33.74 35.59 36.50 33.93 34.37 35.62 36.39 35.83 34.52 33.22 32.62 31.13 30.15 29.39 29.26 28.84 29.65 28.47 27.87 28.31 28.48 29.10 27.70 30.59 31.44 31.07 29.35 27.59 27.46 28.72 30.74 32.02 31.49 31.16 30.57 30.90 29.83 28.45 27.33 25.61
30.62 30.93 31.32 31.55 33.15 35.25 35.23 34.98 35.10 34.69 33.92 35.96 33.84 33.37 31.97 31.67 30.54 29.51 29.35 28.00 28.34 27.54 26.20 26.01 27.14 28.61 29.68 30.83 32.22 30.75 29.23 27.64 26.89 26.50 27.55 28.77 29.61 30.15 29.47 28.80 27.79 27.24 26.20 25.23
28.78 30.09 31.30 30.67 32.42 33.09 33.02 33.34 33.39 34.32 32.99 32.29 32.99 31.87 30.78 29.68 29.23 28.77 28.32 28.03 27.28 26.52 25.26 24.99 27.25 27.83 29.72 30.05 30.98 29.87 29.78 29.27 27.19 26.16 26.13 26.95 28.29 28.74 28.59 29.37 29.45 27.33 27.33 27.62
25.33 29.67 30.58 29.19 32.37 32.50 30.27 30.89 31.29 31.25 31.36 31.79 31.97 30.76 29.84 28.31 28.31 27.63 26.79 26.85 25.75 24.94 25.27 25.23 26.37 27.44 28.69 30.04 29.49 29.06 28.75 28.67 28.49 27.62 26.02 25.82 25.90 26.27 30.45 30.88 31.62 31.63 31.63 30.52
29.99 32.94 31.76 32.20 32.49 33.24 31.09 31.33 31.52 30.48 30.36 29.42 29.82 29.35 28.41 26.29 25.52 25.59 26.01 24.50 24.10 23.20 23.69 23.86 24.28 25.33 28.15 29.28 29.15 28.07 27.83 28.55 28.42 27.43 26.20 25.32 24.62 24.44 24.05 27.43 29.97 30.88 31.63 31.52
34.01 33.89 29.11 30.24 28.63 32.25 33.47 34.24 32.12 30.76 29.39 28.49 28.09 27.95 26.22 24.11 23.71 22.39 22.48 23.32 23.34 22.91 23.34 23.00 23.55 23.61 27.62 28.52 28.41 28.12 28.08 27.96 27.97 27.82 27.69 26.25 25.10 24.46 24.44 23.64 23.04 24.30 28.00 28.24
30.97 31.28 30.12 30.65 29.74 29.21 30.08 31.51 28.86 27.49 26.77 25.94 26.51 25.00 24.28 22.32 21.44 21.03 21.73 22.41 22.07 21.68 21.86 22.60 22.07 22.90 26.33 29.84 28.69 27.61 27.85 27.68 27.65 27.17 26.02 24.81 23.88 22.86 22.08 22.40 24.28 23.74 23.69 23.97
31.64 30.75 29.57 27.81 26.77 26.30 26.57 26.62 24.98 23.23 23.05 22.38 22.00 23.24 22.93 22.34 22.46 21.81 20.76 20.36 19.39 18.98 20.78 20.43 21.99 23.26 25.42 28.04 27.69 27.22 27.08 26.96 26.55 26.17 24.97 23.33 22.28 21.20 20.50 20.36 20.27 20.45 20.56 20.73
28.41 23.41 24.76 24.93 24.39 23.34 22.38 22.47 21.60 20.77 20.58 20.47 20.22 20.50 21.35 21.34 20.50 19.98 21.42 19.88 17.32 16.64 18.81 20.88 21.88 23.55 24.59 26.06 25.42 24.97 25.04 25.60 25.11 24.97 23.93 22.76 21.47 20.19 19.67 18.92 18.32 18.08 18.10 18.63
22.23 21.43 21.37 22.11 22.13 21.25 19.56 19.67 19.55 19.43 18.64 18.86 18.87 17.15 16.64 17.03 17.08 16.85 15.97 16.22 14.39 13.12 16.94 18.44 23.05 22.14 23.82 25.55 26.21 25.32 24.61 24.35 24.11 23.42 23.49 22.31 21.53 20.79 19.52 18.67 18.11 16.96 16.57 16.31
19.94 18.44 18.58 19.50 19.39 18.77 18.18 17.40 17.71 18.22 17.91 18.00 14.02 11.18 11.29 13.54 14.70 10.21 7.20 11.40 11.92 12.12 14.80 16.95 22.09 21.00 21.08 24.68 24.83 23.54 22.86 21.88 21.22 20.83 20.86 20.34 20.30 19.59 18.41 17.59 16.28 15.48 15.24 14.55
17.95 17.50 16.59 15.79 15.56 15.57 13.29 12.32 12.65 10.60 12.10 11.26 9.61 10.05 10.84 12.28 13.58 10.20 5.68 8.95 13.26 15.93 14.38 16.58 18.41 20.70 22.72 23.45 22.88 23.32 21.00 19.60 20.28 17.67 17.68 17.34 16.87 16.48 16.58 15.61 15.17 13.89 12.82 12.15
14.03 12.91 12.30 13.49 12.64 10.27 8.46 7.89 6.64 6.34 4.26 5.58 6.72 8.20 7.48 7.70 10.29 11.62 10.10 10.93 12.88 14.43 16.17 16.93 17.04 19.78 21.35 21.18 21.25 20.85 17.95 17.40 18.41 16.96 15.97 14.60 15.13 14.86 14.03 12.79 12.56 10.86 10.93 11.13
10.99 10.90 10.59 11.20 12.20 11.25 11.59 8.94 8.87 8.00 9.50 9.09 8.85 11.95 13.22 10.77 8.72 9.95 7.35 11.44 13.36 12.44 13.78 14.86 16.25 16.29 18.51 18.72 18.76 17.39 17.89 17.26 17.40 17.06 15.49 13.70 12.30 11.76 11.03 8.75 8.43 8.80 8.06 6.28
11.39 12.88 12.34 9.31 8.15 7.17 7.38 7.56 4.38 4.55 3.19 2.19 3.05 7.33 12.25 11.03 12.64 10.26 8.05 13.27 14.09 12.03 13.97 12.91 12.84 13.69 13.20 15.83 15.06 13.94 13.28 12.67 13.12 12.95 12.99 12.18 11.90 11.59 11.17 10.84 10.67 9.49 7.09 8.20
12.98 11.98 10.00 12.24 13.56 16.16 11.51 8.44 8.93 8.48 5.07 6.16 4.62 3.24 11.62 13.68 13.53 15.50 13.74 12.15 10.64 5.32 9.07 13.10 10.58 11.56 9.02 9.81 9.33 9.58 9.94 13.32 11.45 9.66 9.61 6.69 6.92 6.24 4.13 2.71 2.92 0.22 -0.23 1.86
10.67 8.95 10.89 12.03 13.92 9.51 10.47 11.96 14.10 13.73 14.52 14.45 12.71 15.55 15.56 14.58 5.55 7.46 5.95 6.13 10.82 10.41 5.26 6.67 9.77 6.59 7.93 10.69 9.26 7.29 8.12 7.74 8.64 9.88 10.50 10.47 9.68 4.84 3.65 5.07 3.79 5.89 7.21 5.45
13.14 17.36 12.20 12.32 13.28 15.68 17.74 19.02 14.49 12.69 18.64 13.70 11.15 5.64 6.04 8.40 13.21 13.00 9.35 8.18 7.51 8.93 5.29 -0.36 4.78 9.30 7.25 6.53 4.42 3.98 2.70 5.27 5.78 6.02 4.20 4.06 2.92 1.58 2.19 4.09 2.01 -0.48 -6.17 -8.70
13.33 14.86 16.29 17.38 19.03 16.35 15.12 16.03 15.61 14.19 10.09 8.09 8.81 6.11 9.45 6.03 6.61 9.72 6.67 6.89 6.04 7.05 5.97 0.14 -1.77 0.87 3.48 1.78 5.57 7.06 0.29 -0.14 2.38 4.55 4.10 3.36 0.62 -0.88 -0.05 -1.47 -4.01 -7.61 -9.16 -8.81

GFSNGP_sfc_wetblb_120.txt.gz
Wetbulb
32.02 34.37 34.74 34.15 33.79 34.22 33.69 34.96 30.37 34.31 35.44 35.58 35.80 36.55 35.77 35.22 36.48 35.72 35.42 35.08 34.79 34.04 33.50 33.88 33.92 34.47 35.15 35.66 36.01 36.41 36.85 37.53 37.88 39.34 40.87 42.94 48.09 54.23 58.34 58.66 59.39 59.54 58.56 58.09
29.60 34.72 34.08 32.17 35.33 33.79 33.92 34.06 36.30 35.64 34.55 38.52 38.10 37.20 35.29 34.42 34.33 33.89 33.42 33.76 33.62 33.30 32.97 32.67 32.74 33.03 33.99 34.66 34.52 35.05 34.52 35.21 36.52 38.19 39.60 41.89 44.77 54.86 57.63 57.57 58.84 58.81 57.61 56.77
25.81 31.96 33.47 26.65 29.97 31.98 31.84 32.83 36.36 32.56 35.72 36.01 33.26 32.87 31.93 32.43 32.84 32.56 32.53 32.02 31.79 31.80 31.67 31.50 31.99 32.92 32.66 33.76 34.11 33.28 33.36 34.07 35.32 36.54 37.52 39.93 42.10 55.04 56.91 57.25 57.13 57.25 56.93 55.97
25.87 28.63 22.24 31.58 34.06 35.17 31.90 32.43 33.27 34.77 34.02 34.05 32.33 32.64 33.12 32.36 31.35 31.20 31.49 31.55 32.13 32.06 31.26 30.96 32.35 31.99 32.64 33.41 32.66 32.12 31.52 31.82 33.28 34.34 35.62 38.40 40.86 47.60 56.67 56.67 55.85 55.93 55.41 55.33
23.86 24.21 30.71 30.05 31.06 31.57 31.22 29.87 34.55 33.72 35.01 35.04 33.70 33.88 31.16 32.95 32.42 30.88 30.78 30.77 31.34 31.82 30.66 30.99 30.69 30.79 31.11 31.55 31.63 31.15 30.20 30.33 31.23 32.39 33.91 36.75 37.77 40.57 56.53 55.87 55.27 55.29 54.51 52.75
25.76 23.30 19.69 27.56 31.25 35.33 35.36 25.39 34.92 33.56 33.58 34.70 36.25 29.23 28.79 31.82 31.47 30.31 30.23 30.15 29.76 29.96 30.08 28.70 28.80 29.74 30.04 29.77 29.36 28.69 29.67 29.45 30.20 31.32 32.30 34.39 35.54 37.11 55.11 52.36 44.42 41.71 37.77 38.34
24.41 23.84 26.93 30.67 32.61 34.90 24.08 26.44 35.29 35.57 34.38 32.62 29.95 31.14 31.84 31.86 30.71 30.08 29.29 29.02 29.21 29.00 27.47 27.62 28.59 29.65 28.84 29.10 27.83 29.82 29.72 28.56 28.87 30.14 30.84 33.54 34.58 35.17 40.44 38.80 36.41 34.29 32.26 32.32
24.13 21.21 18.32 32.39 31.56 27.09 31.50 33.22 34.49 35.11 34.93 33.17 33.11 32.72 31.57 30.34 29.33 28.49 27.71 28.29 28.66 26.91 26.47 27.43 27.79 29.01 27.97 28.20 30.61 30.43 29.16 26.97 26.74 28.97 29.72 31.52 32.58 31.93 33.00 34.38 32.67 31.46 30.79 29.21
27.16 25.75 31.92 32.65 32.64 34.40 35.63 33.52 32.35 31.52 33.46 34.92 32.71 31.37 31.08 29.83 28.84 28.01 27.52 26.88 26.72 26.83 26.49 27.49 28.03 28.93 27.15 28.87 30.60 29.64 27.48 26.37 26.51 27.88 29.02 29.76 30.05 30.52 29.72 30.93 30.20 30.60 29.68 26.81
29.21 29.79 30.01 30.54 32.13 33.54 34.24 32.73 33.43 34.21 31.80 33.78 31.80 31.03 29.46 28.45 28.15 27.47 26.60 24.86 23.90 24.23 24.75 24.84 27.46 27.92 28.43 29.30 30.04 29.30 28.32 26.90 26.78 26.24 27.44 28.58 29.65 29.76 28.94 28.49 27.77 27.81 27.05 25.95
27.27 29.85 30.13 29.87 30.83 30.72 31.19 32.05 31.89 32.18 31.59 30.88 30.31 28.10 27.18 26.37 25.94 26.11 25.19 23.45 22.66 22.09 22.42 23.32 25.61 26.82 28.52 28.79 29.02 28.93 28.11 27.54 27.03 26.49 25.91 27.23 28.13 29.00 29.07 29.95 29.89 28.00 28.18 28.18
18.24 25.03 29.56 27.85 30.91 31.37 28.83 30.02 30.29 30.05 28.84 28.48 29.29 27.36 26.33 24.29 24.68 24.48 23.02 23.36 22.46 22.33 22.62 22.68 23.69 25.72 27.68 28.74 28.15 28.27 28.07 26.94 26.23 25.62 25.64 25.49 26.52 26.76 29.80 30.64 30.94 31.17 31.37 30.10
30.08 31.28 29.99 30.18 31.40 32.79 30.30 30.97 30.18 28.93 29.35 28.05 27.53 26.58 24.72 22.80 23.20 23.47 22.64 22.38 21.58 21.76 22.39 21.89 22.07 23.13 26.07 28.28 28.25 27.94 26.94 27.33 27.09 26.40 25.62 24.87 24.76 24.44 23.58 26.25 28.96 29.64 30.13 30.16
32.71 31.63 26.92 29.76 27.82 30.84 30.73 33.15 30.86 28.81 28.60 27.92 26.94 26.02 24.22 22.58 22.02 20.96 20.72 21.41 22.01 21.69 21.93 22.39 22.92 23.14 25.14 28.03 25.90 27.21 27.13 26.49 25.58 24.41 23.35 23.09 22.62 22.90 24.34 22.46 20.99 21.72 26.14 27.03
29.99 30.05 29.22 28.71 28.38 27.94 29.76 29.72 26.39 24.74 24.73 24.01 25.49 24.10 22.91 21.15 19.84 19.49 20.31 21.37 21.24 20.96 20.84 21.53 21.65 21.67 24.91 27.70 26.23 26.11 26.37 25.93 24.74 23.58 23.06 22.39 22.20 21.71 21.92 21.92 21.13 20.68 21.06 21.78
31.13 29.79 27.81 25.66 23.95 24.25 24.43 23.72 22.18 21.82 21.93 21.98 21.65 22.79 22.12 22.13 21.79 19.81 19.69 19.23 17.50 16.06 18.20 17.78 21.06 22.12 24.12 25.21 24.08 23.90 24.26 24.26 23.48 23.06 21.89 21.04 20.65 20.13 19.73 19.23 18.22 17.46 17.06 17.60
23.62 21.82 23.01 23.63 20.90 20.17 19.71 20.53 20.20 19.65 19.72 19.28 19.29 20.17 20.62 20.08 19.27 18.46 18.22 18.72 17.03 15.58 16.85 16.94 19.28 22.07 23.57 24.03 23.08 22.72 22.33 22.46 21.63 22.19 21.22 20.65 19.93 19.21 18.76 17.79 16.47 15.65 15.20 16.01
21.35 20.78 21.22 22.65 20.26 19.03 18.32 18.73 19.07 19.00 17.37 17.51 17.30 16.13 15.30 15.22 14.57 14.09 13.97 15.16 14.46 13.85 14.68 16.29 19.50 21.32 22.07 23.59 23.06 23.58 22.64 22.16 22.11 21.45 21.27 19.95 19.62 19.56 18.34 17.28 16.16 14.75 14.05 14.03
18.25 17.47 19.08 18.78 18.89 18.00 17.17 16.55 16.55 17.24 16.46 14.42 12.68 10.60 10.78 11.81 10.60 6.70 9.37 11.79 12.39 11.79 13.16 16.59 20.11 20.16 21.17 23.17 23.29 21.76 20.29 19.34 19.43 19.09 19.10 18.29 17.83 17.15 15.55 14.64 13.75 12.89 12.57 11.87
16.67 16.81 16.38 15.34 15.22 14.44 10.84 8.21 9.79 8.83 6.69 7.61 7.07 8.35 7.48 9.47 8.84 4.01 4.26 9.19 11.14 12.05 15.06 16.24 17.61 19.82 21.05 21.03 21.05 20.89 19.35 18.22 18.50 17.09 16.47 15.55 14.40 13.93 13.64 12.97 12.28 11.13 9.91 9.22
11.00 10.98 11.03 11.31 9.34 8.26 5.11 4.67 6.77 9.07 9.17 8.98 7.28 6.37 6.56 4.95 9.11 9.04 9.06 9.26 10.61 11.13 15.39 16.11 17.42 18.84 19.67 19.86 19.60 18.53 17.85 17.63 15.88 13.82 12.88 11.04 12.35 12.15 11.28 10.63 9.79 8.91 8.04 7.01
6.83 7.26 4.06 5.20 7.73 3.80 2.53 3.34 4.08 1.09 0.37 2.61 4.80 5.11 4.46 5.22 4.12 5.23 4.48 8.44 13.32 12.27 14.70 15.40 16.06 14.60 15.44 16.37 16.41 15.60 16.06 15.56 14.49 13.43 12.20 10.90 8.79 8.25 7.24 7.87 7.19 5.94 3.80 1.18
9.15 9.15 7.53 4.85 5.68 4.30 3.06 3.39 -0.60 -0.17 -0.47 -1.68 0.98 4.95 5.03 5.45 5.90 3.61 3.91 11.78 13.12 11.19 14.00 13.27 12.02 11.52 11.20 10.98 10.28 10.71 11.39 10.66 10.86 11.06 9.84 7.75 5.47 3.71 4.26 4.08 3.34 3.15 1.35 0.20
7.15 7.99 6.19 7.08 6.94 11.74 7.70 4.39 6.12 6.13 1.11 2.41 -0.30 -0.08 9.83 2.98 3.91 12.70 12.00 8.55 5.03 2.66 4.37 9.12 9.04 10.18 9.33 8.11 8.81 8.68 9.12 9.33 8.11 7.23 7.90 6.61 2.80 1.70 0.91 -0.71 -1.57 -1.68 -0.49 -1.94
8.35 6.05 6.58 7.21 11.02 7.85 8.11 8.69 9.03 9.06 11.91 13.47 10.32 13.03 13.52 12.32 3.43 5.59 2.28 3.67 8.75 4.37 2.21 3.83 6.60 4.61 3.85 3.56 4.24 4.48 4.74 4.55 5.42 5.76 5.00 3.53 1.85 3.77 3.27 0.65 -2.19 -0.58 -1.18 -3.72
9.23 10.33 9.89 11.32 13.16 11.67 12.43 15.88 10.78 13.10 14.76 8.62 7.71 0.14 0.33 3.39 7.39 8.58 5.04 4.89 5.04 3.49 -0.51 -5.63 -2.44 -0.15 -0.29 0.20 -1.29 -1.12 2.16 3.94 3.61 3.56 0.92 -1.86 -3.27 -2.56 -3.29 -3.66 -4.05 -4.09 -7.45 -12.88
10.48 11.33 12.02 12.96 14.62 14.62 13.88 15.15 11.62 8.83 9.84 8.35 6.92 2.63 2.81 0.19 0.43 4.72 1.49 -2.23 -2.55 2.66 -3.02 -6.05 -6.72 -2.93 -1.90 -1.35 -0.41 -3.12 -4.01 -3.83 -3.10 -2.94 -6.36 -7.99 -9.08 -9.44 -9.08 -10.53 -11.98 -13.24 -13.97 -12.34

GFSNGP_sfc_wetblb_123.txt.gz
Wetbulb
30.12 32.50 32.52 33.03 33.29 33.48 31.47 33.23 30.31 32.85 30.72 31.76 32.30 32.83 31.94 33.19 34.30 32.86 33.09 33.40 33.06 32.77 32.50 32.87 32.80 33.03 33.59 34.76 34.88 34.62 34.31 34.14 35.18 36.52 37.11 38.12 39.78 41.93 44.33 48.71 56.45 59.23 59.54 60.12
27.52 33.72 32.56 27.65 30.58 31.26 31.02 31.78 35.18 32.96 30.04 34.83 33.97 33.57 32.62 33.02 32.91 32.22 32.09 32.45 32.56 32.25 31.82 31.31 31.58 31.90 32.65 33.76 33.98 34.29 33.20 33.11 34.44 34.63 35.65 36.44 38.59 40.75 43.21 45.79 55.56 58.55 58.93 58.73
24.39 31.16 33.33 25.36 27.55 29.91 30.30 31.28 33.06 30.56 32.33 33.03 30.79 29.87 29.97 30.73 31.14 30.80 31.10 31.46 31.76 30.72 30.29 30.17 29.71 30.83 31.01 32.86 33.56 32.91 32.45 32.46 33.16 33.49 33.91 34.99 36.79 39.21 41.32 43.64 54.35 57.73 58.29 58.25
25.40 28.32 19.80 29.64 33.14 34.22 31.19 31.09 32.03 33.09 32.47 32.06 30.71 31.02 31.02 31.24 29.88 29.29 29.58 29.72 30.25 29.63 29.01 29.45 29.95 29.98 31.44 32.57 31.52 30.88 30.48 30.43 31.17 31.36 32.01 33.79 35.60 37.50 39.24 42.46 50.21 56.88 57.32 57.12
22.56 24.81 28.11 29.98 29.50 29.25 29.52 28.78 32.75 31.72 34.20 35.05 33.84 34.35 29.20 31.14 30.45 29.10 28.97 28.86 29.21 29.31 28.63 29.09 28.79 29.75 30.73 30.39 30.02 29.88 29.41 28.73 29.13 29.73 30.76 32.25 33.96 35.09 37.43 40.46 44.80 56.32 56.58 55.75
25.44 22.73 18.15 26.20 30.24 33.58 34.41 24.32 33.51 32.95 32.15 31.86 32.73 28.37 27.50 30.38 29.74 28.65 28.73 29.01 27.86 27.52 27.50 28.08 28.06 29.94 28.57 29.30 28.69 28.48 28.45 27.69 28.27 29.02 30.01 30.71 32.06 34.12 35.83 38.99 48.20 44.29 39.46 43.71
23.56 24.74 25.96 29.57 31.54 33.64 23.56 23.58 33.05 33.90 33.43 31.39 28.89 29.87 30.35 30.51 29.22 28.56 27.57 27.40 28.05 27.32 26.92 28.12 28.36 28.85 27.22 27.89 27.78 29.67 28.66 27.10 27.06 28.66 29.44 30.59 31.10 33.32 34.09 35.05 35.99 35.18 33.89 33.75
23.51 20.40 16.23 31.24 30.81 26.03 30.63 32.59 31.77 30.72 33.45 32.55 32.09 31.78 30.41 29.73 28.50 27.31 25.58 25.32 25.79 25.05 26.12 27.83 28.01 28.02 26.47 26.63 28.56 29.60 28.75 25.59 26.18 27.39 28.96 30.13 30.06 30.79 32.15 31.89 32.64 32.21 32.76 31.80
27.05 24.87 31.16 32.38 32.18 34.14 34.19 32.45 32.46 30.92 31.47 33.76 31.53 30.41 30.21 28.90 27.75 26.33 25.41 23.46 23.50 22.67 23.24 24.48 26.96 27.72 26.71 26.88 28.19 27.51 25.80 25.05 25.07 25.78 28.21 28.14 28.89 28.96 29.64 30.10 29.58 29.24 30.86 30.79
28.39 29.66 29.59 29.94 31.40 32.16 32.55 31.10 31.70 32.78 30.97 32.08 29.54 29.16 27.15 25.98 25.45 25.13 23.69 20.88 20.65 20.66 21.90 22.77 25.33 27.20 27.54 27.48 28.31 27.67 24.71 24.26 24.67 24.61 25.68 27.07 27.65 28.72 28.38 28.64 28.61 28.09 27.99 28.08
27.11 29.59 29.79 29.53 29.62 29.75 30.70 31.16 30.72 29.26 28.94 29.44 27.97 26.54 25.41 24.09 23.67 22.71 21.39 21.51 20.43 20.06 20.71 21.37 23.83 25.71 27.34 27.53 27.99 27.77 26.47 25.05 24.63 25.03 24.85 25.43 26.86 26.71 27.25 28.45 28.99 27.87 28.30 28.60
14.82 28.41 28.90 28.09 30.34 30.89 27.52 29.44 29.67 29.50 27.77 27.60 26.74 25.02 24.08 22.52 22.72 22.40 21.11 21.49 21.04 21.17 21.48 21.47 22.78 24.84 26.18 27.63 27.47 26.65 26.13 25.08 24.58 24.51 24.75 24.98 24.87 24.98 27.87 27.84 29.64 29.83 30.03 28.38
29.74 30.99 28.92 28.74 29.97 31.69 31.78 30.07 29.11 28.11 27.97 26.40 25.90 25.31 23.51 21.48 21.89 21.89 21.05 20.85 20.75 20.11 20.27 19.93 20.24 21.62 24.99 27.42 26.73 26.09 24.66 24.44 23.89 23.54 23.37 22.87 23.06 23.10 21.21 23.91 26.22 27.04 28.20 28.60
31.96 31.24 26.56 28.52 26.75 28.85 31.24 29.77 29.18 27.33 26.14 25.82 24.93 24.46 23.22 21.43 20.81 19.94 19.60 20.37 20.98 20.39 20.10 20.46 21.17 21.14 23.38 26.09 25.53 25.34 25.12 23.14 21.73 21.90 21.86 21.73 21.57 21.29 21.29 19.63 18.73 19.23 23.19 25.04
29.42 28.06 26.83 26.04 25.08 25.81 28.10 26.54 23.83 22.59 22.99 22.87 24.46 23.12 22.75 21.28 19.51 19.35 19.61 20.28 19.95 19.21 18.62 18.74 19.75 20.31 23.25 24.74 23.52 23.92 24.14 22.43 21.40 20.96 21.10 21.10 21.02 20.51 19.65 18.53 17.58 17.24 18.21 19.70
29.42 27.26 25.27 23.24 21.04 21.48 22.21 22.03 20.75 20.39 20.31 20.32 20.45 21.61 21.25 20.95 20.88 19.38 18.75 18.32 16.15 14.84 16.59 15.60 17.62 20.27 22.25 22.90 20.85 21.13 21.32 21.63 21.07 20.94 19.98 19.47 19.52 18.43 17.83 16.78 15.54 14.21 13.76 14.20
23.28 21.79 23.75 20.19 19.89 19.42 19.12 19.71 19.33 18.88 18.89 18.62 18.40 18.87 19.40 18.52 17.28 16.25 15.80 16.54 15.77 14.88 16.12 15.67 15.23 19.86 20.84 21.49 20.02 20.60 20.25 21.25 20.06 20.49 19.71 19.34 18.45 17.53 16.81 15.61 14.42 13.36 12.14 13.54
21.69 21.55 22.78 21.70 19.91 18.74 18.06 18.73 18.74 17.91 16.05 16.22 15.97 14.73 12.90 11.91 12.24 11.73 11.32 13.58 13.04 13.01 14.22 15.26 16.88 19.69 20.06 21.79 21.78 20.44 19.42 19.66 19.65 19.13 18.70 17.15 16.54 16.14 14.55 13.75 13.15 12.52 12.27 12.20
19.05 19.05 19.17 19.32 18.79 17.77 16.53 15.57 15.83 14.86 12.71 10.93 9.36 9.09 9.78 8.29 4.92 3.01 5.14 8.51 9.06 9.06 12.19 14.96 19.32 19.81 19.54 20.82 21.19 20.46 18.71 17.12 17.22 17.01 17.06 15.26 14.31 14.14 12.36 10.96 10.07 9.37 9.59 9.39
16.61 16.58 15.79 13.75 12.96 12.96 9.28 7.44 6.30 6.28 4.01 4.30 4.58 8.12 8.74 6.75 4.29 0.98 0.77 3.98 6.26 10.05 14.40 15.95 17.40 18.15 18.99 19.34 19.04 18.97 17.74 16.21 16.59 14.85 13.32 12.77 11.40 10.06 10.31 9.45 8.42 7.26 6.75 6.60
9.79 9.61 9.09 8.80 2.94 -0.15 -1.05 -2.50 1.32 1.56 -1.23 -2.51 3.08 -2.17 -2.50 -2.16 0.96 2.82 5.26 7.70 9.24 13.26 15.12 15.67 15.68 15.88 17.09 17.05 17.47 16.56 15.89 15.19 13.42 11.59 10.24 9.38 8.73 8.74 8.05 7.50 6.59 5.37 4.84 4.65
4.55 4.62 0.58 2.15 5.59 1.30 -1.05 -0.92 0.92 -3.09 -3.05 -3.23 -4.68 -4.68 -3.42 0.01 -1.85 0.58 -1.44 3.79 10.87 9.20 12.93 13.37 13.18 11.16 11.96 13.20 14.06 13.88 14.63 13.96 13.00 12.32 10.24 8.98 7.24 6.55 4.86 5.95 5.06 3.46 2.36 2.22
6.85 6.96 5.28 2.97 3.62 2.80 0.63 1.66 -3.06 -2.90 -2.87 -4.86 -2.52 -2.53 1.66 3.34 3.12 1.21 1.24 10.03 11.22 8.68 11.58 9.17 6.02 6.59 6.72 8.71 9.12 9.13 8.72 8.05 8.47 8.64 7.76 6.00 5.32 4.42 3.18 2.69 1.97 0.41 -0.64 0.82
6.80 6.68 4.19 4.66 4.71 9.94 6.64 3.13 4.13 3.60 -1.27 0.01 -3.23 -3.41 4.54 -0.38 0.07 10.50 10.42 4.93 1.08 -0.05 1.10 4.31 2.80 4.03 1.20 3.81 4.52 4.22 5.15 5.69 5.16 4.60 6.14 3.28 1.87 2.19 1.64 0.30 0.12 -0.47 -2.05 -0.85
7.90 4.51 5.25 4.79 7.95 6.26 6.30 5.55 7.22 6.93 8.13 9.35 8.45 11.59 11.59 10.21 2.28 4.55 0.80 2.10 4.86 2.09 -1.16 -2.19 -0.69 -1.83 -3.35 -3.79 -2.87 -0.88 -1.23 -0.90 -0.53 0.25 0.48 -0.57 0.51 0.50 -0.72 -0.39 -2.16 -2.93 -5.07 -6.70
7.93 10.22 8.76 10.23 11.07 10.22 10.51 12.22 8.07 11.68 12.64 6.37 5.76 -2.88 -1.67 -0.34 4.81 5.05 1.77 0.73 1.90 0.84 -3.27 -9.03 -9.57 -8.67 -8.30 -7.40 -8.85 -6.85 -5.40 -1.89 -3.27 -4.68 -7.04 -6.85 -3.07 -2.17 -2.37 -3.97 -6.85 -8.49 -9.40 -12.12
7.95 9.88 10.60 10.75 12.18 12.51 12.55 13.15 9.49 8.91 7.92 3.95 2.46 -1.27 -0.04 -3.24 -3.24 0.87 -4.32 -6.85 -7.40 -6.67 -8.85 -10.30 -10.12 -7.40 -7.40 -9.21 -8.30 -9.39 -9.03 -8.85 -8.85 -9.21 -13.20 -11.39 -9.75 -9.57 -9.03 -9.75 -10.30 -13.20 -13.74 -12.11